<?xml version="1.0" encoding="UTF-8" standalone="no" ?>
<gpx xmlns="http://www.topografix.com/GPX/1/1" xmlns:xsi="http://www.w3.org/2001/XMLSchema-instance" xsi:schemaLocation="http://www.topografix.com/GPX/1/1 http://www.topografix.com/GPX/1/1/gpx.xsd" version="1.1" creator="VisuGPX - https://www.visugpx.com">
  <metadata>
    <name>Vernon (86)</name>
    <desc><![CDATA[Randonnée en boucle depuis vernon]]></desc>
  </metadata>
  <trk>
    <name><![CDATA[Vernon (86)_1]]></name>
    <extensions>
      <line xmlns="http://www.topografix.com/GPX/gpx_style/0/2">
        <color>0000FF</color>
        <width>4</width>
      </line>
    </extensions>
    <trkseg>
      <trkpt lat="46.44131" lon="0.47753">
        <ele>122.82194550802</ele>
        <time>2021-09-13T06:00:47Z</time>
      </trkpt>
      <trkpt lat="46.44131" lon="0.47753">
        <ele>122.82194550802</ele>
        <time>2021-09-13T06:00:47Z</time>
      </trkpt>
      <trkpt lat="46.44135" lon="0.47737">
        <ele>122.76782966011</ele>
        <time>2021-09-13T06:00:48Z</time>
      </trkpt>
      <trkpt lat="46.44134" lon="0.47739">
        <ele>122.75683318701</ele>
        <time>2021-09-13T06:00:49Z</time>
      </trkpt>
      <trkpt lat="46.44134" lon="0.4774">
        <ele>122.74024403801</ele>
        <time>2021-09-13T06:00:50Z</time>
      </trkpt>
      <trkpt lat="46.44135" lon="0.47739">
        <ele>122.7408784626</ele>
        <time>2021-09-13T06:00:51Z</time>
      </trkpt>
      <trkpt lat="46.44134" lon="0.47742">
        <ele>122.69488298703</ele>
        <time>2021-09-13T06:00:54Z</time>
      </trkpt>
      <trkpt lat="46.44135" lon="0.47742">
        <ele>122.68245594058</ele>
        <time>2021-09-13T06:00:55Z</time>
      </trkpt>
      <trkpt lat="46.44134" lon="0.47738">
        <ele>122.80884781852</ele>
        <time>2021-09-13T06:01:09Z</time>
      </trkpt>
      <trkpt lat="46.44134" lon="0.47735">
        <ele>122.71499379259</ele>
        <time>2021-09-13T06:01:14Z</time>
      </trkpt>
      <trkpt lat="46.44134" lon="0.47735">
        <ele>122.70453461166</ele>
        <time>2021-09-13T06:01:15Z</time>
      </trkpt>
      <trkpt lat="46.44133" lon="0.47736">
        <ele>122.69996026065</ele>
        <time>2021-09-13T06:01:17Z</time>
      </trkpt>
      <trkpt lat="46.44132" lon="0.47738">
        <ele>122.71158948354</ele>
        <time>2021-09-13T06:01:22Z</time>
      </trkpt>
      <trkpt lat="46.44133" lon="0.47735">
        <ele>122.40262301266</ele>
        <time>2021-09-13T06:01:30Z</time>
      </trkpt>
      <trkpt lat="46.44135" lon="0.47736">
        <ele>122.71876098029</ele>
        <time>2021-09-13T06:02:07Z</time>
      </trkpt>
      <trkpt lat="46.44134" lon="0.47731">
        <ele>122.795400762</ele>
        <time>2021-09-13T06:04:38Z</time>
      </trkpt>
      <trkpt lat="46.44136" lon="0.47734">
        <ele>122.83801821247</ele>
        <time>2021-09-13T06:06:18Z</time>
      </trkpt>
      <trkpt lat="46.44137" lon="0.47732">
        <ele>122.64287247881</ele>
        <time>2021-09-13T06:06:22Z</time>
      </trkpt>
      <trkpt lat="46.44137" lon="0.4773">
        <ele>122.88346692268</ele>
        <time>2021-09-13T06:06:27Z</time>
      </trkpt>
      <trkpt lat="46.44136" lon="0.47727">
        <ele>122.7792877797</ele>
        <time>2021-09-13T06:06:32Z</time>
      </trkpt>
      <trkpt lat="46.44137" lon="0.47724">
        <ele>122.50634241477</ele>
        <time>2021-09-13T06:06:38Z</time>
      </trkpt>
      <trkpt lat="46.44138" lon="0.47722">
        <ele>123.11643664539</ele>
        <time>2021-09-13T06:06:39Z</time>
      </trkpt>
      <trkpt lat="46.44138" lon="0.47719">
        <ele>123.09569779225</ele>
        <time>2021-09-13T06:06:41Z</time>
      </trkpt>
      <trkpt lat="46.4414" lon="0.47716">
        <ele>123.25194984395</ele>
        <time>2021-09-13T06:06:43Z</time>
      </trkpt>
      <trkpt lat="46.4414" lon="0.47713">
        <ele>123.04607096035</ele>
        <time>2021-09-13T06:06:45Z</time>
      </trkpt>
      <trkpt lat="46.44141" lon="0.4771">
        <ele>123.04889960401</ele>
        <time>2021-09-13T06:06:47Z</time>
      </trkpt>
      <trkpt lat="46.44141" lon="0.47707">
        <ele>122.85583497491</ele>
        <time>2021-09-13T06:06:50Z</time>
      </trkpt>
      <trkpt lat="46.44141" lon="0.47705">
        <ele>122.64332593046</ele>
        <time>2021-09-13T06:06:52Z</time>
      </trkpt>
      <trkpt lat="46.44141" lon="0.47701">
        <ele>122.55787452497</ele>
        <time>2021-09-13T06:06:54Z</time>
      </trkpt>
      <trkpt lat="46.44142" lon="0.47698">
        <ele>122.52943922114</ele>
        <time>2021-09-13T06:06:56Z</time>
      </trkpt>
      <trkpt lat="46.44143" lon="0.47695">
        <ele>122.86338031478</ele>
        <time>2021-09-13T06:06:58Z</time>
      </trkpt>
      <trkpt lat="46.44143" lon="0.47692">
        <ele>122.8396611819</ele>
        <time>2021-09-13T06:07:01Z</time>
      </trkpt>
      <trkpt lat="46.44143" lon="0.47688">
        <ele>123.08640759531</ele>
        <time>2021-09-13T06:07:05Z</time>
      </trkpt>
      <trkpt lat="46.44144" lon="0.47686">
        <ele>123.22645792738</ele>
        <time>2021-09-13T06:07:12Z</time>
      </trkpt>
      <trkpt lat="46.44144" lon="0.47683">
        <ele>123.34343461227</ele>
        <time>2021-09-13T06:07:33Z</time>
      </trkpt>
      <trkpt lat="46.44142" lon="0.47685">
        <ele>123.0072964197</ele>
        <time>2021-09-13T06:07:57Z</time>
      </trkpt>
      <trkpt lat="46.44141" lon="0.47687">
        <ele>123.12573958654</ele>
        <time>2021-09-13T06:08:27Z</time>
      </trkpt>
      <trkpt lat="46.4414" lon="0.47689">
        <ele>123.04992835224</ele>
        <time>2021-09-13T06:08:38Z</time>
      </trkpt>
      <trkpt lat="46.4414" lon="0.47692">
        <ele>122.87614803016</ele>
        <time>2021-09-13T06:08:54Z</time>
      </trkpt>
      <trkpt lat="46.44139" lon="0.47695">
        <ele>122.66178524215</ele>
        <time>2021-09-13T06:09:14Z</time>
      </trkpt>
      <trkpt lat="46.44139" lon="0.47692">
        <ele>123.21253997181</ele>
        <time>2021-09-13T06:09:31Z</time>
      </trkpt>
      <trkpt lat="46.44139" lon="0.47689">
        <ele>123.11809591111</ele>
        <time>2021-09-13T06:09:37Z</time>
      </trkpt>
      <trkpt lat="46.44139" lon="0.47686">
        <ele>122.88639426976</ele>
        <time>2021-09-13T06:10:02Z</time>
      </trkpt>
      <trkpt lat="46.44139" lon="0.47689">
        <ele>122.88186851237</ele>
        <time>2021-09-13T06:10:09Z</time>
      </trkpt>
      <trkpt lat="46.4414" lon="0.47691">
        <ele>122.53724029753</ele>
        <time>2021-09-13T06:10:22Z</time>
      </trkpt>
      <trkpt lat="46.4414" lon="0.47694">
        <ele>122.40536321327</ele>
        <time>2021-09-13T06:10:50Z</time>
      </trkpt>
      <trkpt lat="46.4414" lon="0.47691">
        <ele>122.68961247336</ele>
        <time>2021-09-13T06:13:44Z</time>
      </trkpt>
      <trkpt lat="46.4414" lon="0.47694">
        <ele>123.14776651841</ele>
        <time>2021-09-13T06:13:57Z</time>
      </trkpt>
      <trkpt lat="46.4414" lon="0.47697">
        <ele>122.96759214252</ele>
        <time>2021-09-13T06:14:00Z</time>
      </trkpt>
      <trkpt lat="46.4414" lon="0.47701">
        <ele>122.90093125682</ele>
        <time>2021-09-13T06:14:03Z</time>
      </trkpt>
      <trkpt lat="46.44139" lon="0.47703">
        <ele>122.70453407988</ele>
        <time>2021-09-13T06:14:05Z</time>
      </trkpt>
      <trkpt lat="46.4414" lon="0.47707">
        <ele>122.66954665631</ele>
        <time>2021-09-13T06:14:09Z</time>
      </trkpt>
      <trkpt lat="46.4414" lon="0.47709">
        <ele>122.71954993811</ele>
        <time>2021-09-13T06:14:11Z</time>
      </trkpt>
      <trkpt lat="46.4414" lon="0.47712">
        <ele>122.65404148679</ele>
        <time>2021-09-13T06:14:15Z</time>
      </trkpt>
      <trkpt lat="46.44139" lon="0.47715">
        <ele>122.72672932129</ele>
        <time>2021-09-13T06:14:18Z</time>
      </trkpt>
      <trkpt lat="46.4414" lon="0.47719">
        <ele>123.176878497</ele>
        <time>2021-09-13T06:14:21Z</time>
      </trkpt>
      <trkpt lat="46.44141" lon="0.47722">
        <ele>122.69641760737</ele>
        <time>2021-09-13T06:14:24Z</time>
      </trkpt>
      <trkpt lat="46.44143" lon="0.47725">
        <ele>122.72855396103</ele>
        <time>2021-09-13T06:14:27Z</time>
      </trkpt>
      <trkpt lat="46.44145" lon="0.47727">
        <ele>122.3276905315</ele>
        <time>2021-09-13T06:14:30Z</time>
      </trkpt>
      <trkpt lat="46.44146" lon="0.4773">
        <ele>122.62619556952</ele>
        <time>2021-09-13T06:14:32Z</time>
      </trkpt>
      <trkpt lat="46.44147" lon="0.47732">
        <ele>122.66361288447</ele>
        <time>2021-09-13T06:14:34Z</time>
      </trkpt>
      <trkpt lat="46.44149" lon="0.47733">
        <ele>122.80738391168</ele>
        <time>2021-09-13T06:14:36Z</time>
      </trkpt>
      <trkpt lat="46.44151" lon="0.47735">
        <ele>122.89108006377</ele>
        <time>2021-09-13T06:14:38Z</time>
      </trkpt>
      <trkpt lat="46.44152" lon="0.47737">
        <ele>123.23920217622</ele>
        <time>2021-09-13T06:14:40Z</time>
      </trkpt>
      <trkpt lat="46.44155" lon="0.4774">
        <ele>123.02520185243</ele>
        <time>2021-09-13T06:14:42Z</time>
      </trkpt>
      <trkpt lat="46.44157" lon="0.47742">
        <ele>123.07145341858</ele>
        <time>2021-09-13T06:14:44Z</time>
      </trkpt>
      <trkpt lat="46.44158" lon="0.47744">
        <ele>122.87640045024</ele>
        <time>2021-09-13T06:14:46Z</time>
      </trkpt>
      <trkpt lat="46.4416" lon="0.47744">
        <ele>123.60260660201</ele>
        <time>2021-09-13T06:14:48Z</time>
      </trkpt>
      <trkpt lat="46.44162" lon="0.47746">
        <ele>123.04611284751</ele>
        <time>2021-09-13T06:14:50Z</time>
      </trkpt>
      <trkpt lat="46.44163" lon="0.47748">
        <ele>122.99571166933</ele>
        <time>2021-09-13T06:14:52Z</time>
      </trkpt>
      <trkpt lat="46.44165" lon="0.47749">
        <ele>122.95223329775</ele>
        <time>2021-09-13T06:14:54Z</time>
      </trkpt>
      <trkpt lat="46.44167" lon="0.4775">
        <ele>123.01727316808</ele>
        <time>2021-09-13T06:14:56Z</time>
      </trkpt>
      <trkpt lat="46.44169" lon="0.47751">
        <ele>123.66050716117</ele>
        <time>2021-09-13T06:14:58Z</time>
      </trkpt>
      <trkpt lat="46.44171" lon="0.47752">
        <ele>123.3741856683</ele>
        <time>2021-09-13T06:15:00Z</time>
      </trkpt>
      <trkpt lat="46.44174" lon="0.47753">
        <ele>123.78594514914</ele>
        <time>2021-09-13T06:15:02Z</time>
      </trkpt>
      <trkpt lat="46.44176" lon="0.47755">
        <ele>123.48857024033</ele>
        <time>2021-09-13T06:15:04Z</time>
      </trkpt>
      <trkpt lat="46.44179" lon="0.47755">
        <ele>123.34728719015</ele>
        <time>2021-09-13T06:15:06Z</time>
      </trkpt>
      <trkpt lat="46.44181" lon="0.47755">
        <ele>123.58546705171</ele>
        <time>2021-09-13T06:15:08Z</time>
      </trkpt>
      <trkpt lat="46.44183" lon="0.47756">
        <ele>123.29915800598</ele>
        <time>2021-09-13T06:15:10Z</time>
      </trkpt>
      <trkpt lat="46.44185" lon="0.47758">
        <ele>123.32743048668</ele>
        <time>2021-09-13T06:15:12Z</time>
      </trkpt>
      <trkpt lat="46.44188" lon="0.47759">
        <ele>123.93446783163</ele>
        <time>2021-09-13T06:15:14Z</time>
      </trkpt>
      <trkpt lat="46.4419" lon="0.47761">
        <ele>123.54363159742</ele>
        <time>2021-09-13T06:15:17Z</time>
      </trkpt>
      <trkpt lat="46.44191" lon="0.47762">
        <ele>123.66308302525</ele>
        <time>2021-09-13T06:15:19Z</time>
      </trkpt>
      <trkpt lat="46.44193" lon="0.47763">
        <ele>123.42442336865</ele>
        <time>2021-09-13T06:15:20Z</time>
      </trkpt>
      <trkpt lat="46.44195" lon="0.47765">
        <ele>123.58961393312</ele>
        <time>2021-09-13T06:15:22Z</time>
      </trkpt>
      <trkpt lat="46.44197" lon="0.47766">
        <ele>123.39692637976</ele>
        <time>2021-09-13T06:15:25Z</time>
      </trkpt>
      <trkpt lat="46.442" lon="0.47768">
        <ele>123.4743694663</ele>
        <time>2021-09-13T06:15:27Z</time>
      </trkpt>
      <trkpt lat="46.44202" lon="0.47768">
        <ele>123.68414434046</ele>
        <time>2021-09-13T06:15:29Z</time>
      </trkpt>
      <trkpt lat="46.44204" lon="0.4777">
        <ele>123.59987953957</ele>
        <time>2021-09-13T06:15:31Z</time>
      </trkpt>
      <trkpt lat="46.44206" lon="0.47772">
        <ele>123.74957336672</ele>
        <time>2021-09-13T06:15:33Z</time>
      </trkpt>
      <trkpt lat="46.44208" lon="0.47773">
        <ele>123.94162863959</ele>
        <time>2021-09-13T06:15:35Z</time>
      </trkpt>
      <trkpt lat="46.4421" lon="0.47774">
        <ele>124.00017983653</ele>
        <time>2021-09-13T06:15:37Z</time>
      </trkpt>
      <trkpt lat="46.44212" lon="0.47775">
        <ele>124.07066877931</ele>
        <time>2021-09-13T06:15:39Z</time>
      </trkpt>
      <trkpt lat="46.44214" lon="0.47776">
        <ele>124.00900321919</ele>
        <time>2021-09-13T06:15:41Z</time>
      </trkpt>
      <trkpt lat="46.44217" lon="0.47777">
        <ele>124.44242110197</ele>
        <time>2021-09-13T06:15:43Z</time>
      </trkpt>
      <trkpt lat="46.44219" lon="0.47778">
        <ele>124.44994709082</ele>
        <time>2021-09-13T06:15:45Z</time>
      </trkpt>
      <trkpt lat="46.44221" lon="0.4778">
        <ele>124.28762129229</ele>
        <time>2021-09-13T06:15:47Z</time>
      </trkpt>
      <trkpt lat="46.44222" lon="0.47781">
        <ele>124.73213818669</ele>
        <time>2021-09-13T06:15:49Z</time>
      </trkpt>
      <trkpt lat="46.44224" lon="0.47783">
        <ele>124.65681636613</ele>
        <time>2021-09-13T06:15:51Z</time>
      </trkpt>
      <trkpt lat="46.44226" lon="0.47784">
        <ele>124.61368334573</ele>
        <time>2021-09-13T06:15:53Z</time>
      </trkpt>
      <trkpt lat="46.44228" lon="0.47785">
        <ele>124.60420818813</ele>
        <time>2021-09-13T06:15:55Z</time>
      </trkpt>
      <trkpt lat="46.4423" lon="0.47787">
        <ele>124.71845953912</ele>
        <time>2021-09-13T06:15:58Z</time>
      </trkpt>
      <trkpt lat="46.44232" lon="0.47788">
        <ele>124.48686912749</ele>
        <time>2021-09-13T06:16:00Z</time>
      </trkpt>
      <trkpt lat="46.44234" lon="0.47789">
        <ele>124.4515282372</ele>
        <time>2021-09-13T06:16:02Z</time>
      </trkpt>
      <trkpt lat="46.44236" lon="0.47791">
        <ele>124.75208956469</ele>
        <time>2021-09-13T06:16:04Z</time>
      </trkpt>
      <trkpt lat="46.44238" lon="0.47793">
        <ele>124.76965815108</ele>
        <time>2021-09-13T06:16:06Z</time>
      </trkpt>
      <trkpt lat="46.4424" lon="0.47794">
        <ele>125.06853481382</ele>
        <time>2021-09-13T06:16:08Z</time>
      </trkpt>
      <trkpt lat="46.44242" lon="0.47796">
        <ele>125.00544989016</ele>
        <time>2021-09-13T06:16:10Z</time>
      </trkpt>
      <trkpt lat="46.44244" lon="0.47797">
        <ele>124.92426397931</ele>
        <time>2021-09-13T06:16:12Z</time>
      </trkpt>
      <trkpt lat="46.44246" lon="0.47798">
        <ele>124.76277799532</ele>
        <time>2021-09-13T06:16:14Z</time>
      </trkpt>
      <trkpt lat="46.44248" lon="0.47799">
        <ele>124.61524027307</ele>
        <time>2021-09-13T06:16:16Z</time>
      </trkpt>
      <trkpt lat="46.44251" lon="0.478">
        <ele>124.66195630189</ele>
        <time>2021-09-13T06:16:18Z</time>
      </trkpt>
      <trkpt lat="46.44253" lon="0.47801">
        <ele>124.70947650913</ele>
        <time>2021-09-13T06:16:20Z</time>
      </trkpt>
      <trkpt lat="46.44255" lon="0.47802">
        <ele>124.86826725677</ele>
        <time>2021-09-13T06:16:22Z</time>
      </trkpt>
      <trkpt lat="46.44257" lon="0.47803">
        <ele>124.6651188815</ele>
        <time>2021-09-13T06:16:24Z</time>
      </trkpt>
      <trkpt lat="46.44259" lon="0.47804">
        <ele>124.57730926387</ele>
        <time>2021-09-13T06:16:26Z</time>
      </trkpt>
      <trkpt lat="46.44261" lon="0.47806">
        <ele>125.00218878686</ele>
        <time>2021-09-13T06:16:28Z</time>
      </trkpt>
      <trkpt lat="46.44263" lon="0.47806">
        <ele>125.19606239162</ele>
        <time>2021-09-13T06:16:30Z</time>
      </trkpt>
      <trkpt lat="46.44266" lon="0.47808">
        <ele>125.01575163472</ele>
        <time>2021-09-13T06:16:32Z</time>
      </trkpt>
      <trkpt lat="46.44267" lon="0.47809">
        <ele>125.20580315404</ele>
        <time>2021-09-13T06:16:34Z</time>
      </trkpt>
      <trkpt lat="46.4427" lon="0.47811">
        <ele>125.34222213551</ele>
        <time>2021-09-13T06:16:36Z</time>
      </trkpt>
      <trkpt lat="46.44272" lon="0.47813">
        <ele>125.50269330665</ele>
        <time>2021-09-13T06:16:38Z</time>
      </trkpt>
      <trkpt lat="46.44274" lon="0.47815">
        <ele>125.2302312972</ele>
        <time>2021-09-13T06:16:40Z</time>
      </trkpt>
      <trkpt lat="46.44276" lon="0.47816">
        <ele>125.24047555216</ele>
        <time>2021-09-13T06:16:42Z</time>
      </trkpt>
      <trkpt lat="46.44278" lon="0.47817">
        <ele>125.41521865129</ele>
        <time>2021-09-13T06:16:44Z</time>
      </trkpt>
      <trkpt lat="46.4428" lon="0.47818">
        <ele>125.41439469531</ele>
        <time>2021-09-13T06:16:46Z</time>
      </trkpt>
      <trkpt lat="46.44282" lon="0.4782">
        <ele>125.96428181138</ele>
        <time>2021-09-13T06:16:48Z</time>
      </trkpt>
      <trkpt lat="46.44284" lon="0.47821">
        <ele>125.72856199834</ele>
        <time>2021-09-13T06:16:50Z</time>
      </trkpt>
      <trkpt lat="46.44286" lon="0.47822">
        <ele>125.5370041132</ele>
        <time>2021-09-13T06:16:52Z</time>
      </trkpt>
      <trkpt lat="46.44289" lon="0.47821">
        <ele>125.63684232719</ele>
        <time>2021-09-13T06:16:54Z</time>
      </trkpt>
      <trkpt lat="46.44291" lon="0.47821">
        <ele>125.33127269428</ele>
        <time>2021-09-13T06:16:56Z</time>
      </trkpt>
      <trkpt lat="46.44293" lon="0.47821">
        <ele>125.33899524342</ele>
        <time>2021-09-13T06:16:58Z</time>
      </trkpt>
      <trkpt lat="46.44296" lon="0.47822">
        <ele>125.25091647357</ele>
        <time>2021-09-13T06:17:00Z</time>
      </trkpt>
      <trkpt lat="46.44298" lon="0.47822">
        <ele>125.4654409783</ele>
        <time>2021-09-13T06:17:01Z</time>
      </trkpt>
      <trkpt lat="46.443" lon="0.47824">
        <ele>125.53223873768</ele>
        <time>2021-09-13T06:17:03Z</time>
      </trkpt>
      <trkpt lat="46.44302" lon="0.47826">
        <ele>125.75560122728</ele>
        <time>2021-09-13T06:17:05Z</time>
      </trkpt>
      <trkpt lat="46.44304" lon="0.47827">
        <ele>125.71453577466</ele>
        <time>2021-09-13T06:17:07Z</time>
      </trkpt>
      <trkpt lat="46.44306" lon="0.47829">
        <ele>125.78985890653</ele>
        <time>2021-09-13T06:17:09Z</time>
      </trkpt>
      <trkpt lat="46.44308" lon="0.4783">
        <ele>125.5350398859</ele>
        <time>2021-09-13T06:17:11Z</time>
      </trkpt>
      <trkpt lat="46.4431" lon="0.47832">
        <ele>125.364459089</ele>
        <time>2021-09-13T06:17:13Z</time>
      </trkpt>
      <trkpt lat="46.44312" lon="0.47834">
        <ele>125.65196252428</ele>
        <time>2021-09-13T06:17:15Z</time>
      </trkpt>
      <trkpt lat="46.44313" lon="0.47838">
        <ele>126.18428426422</ele>
        <time>2021-09-13T06:17:17Z</time>
      </trkpt>
      <trkpt lat="46.44314" lon="0.4784">
        <ele>126.06873907894</ele>
        <time>2021-09-13T06:17:19Z</time>
      </trkpt>
      <trkpt lat="46.44315" lon="0.47843">
        <ele>126.27072631754</ele>
        <time>2021-09-13T06:17:22Z</time>
      </trkpt>
      <trkpt lat="46.44317" lon="0.47846">
        <ele>126.24145161919</ele>
        <time>2021-09-13T06:17:24Z</time>
      </trkpt>
      <trkpt lat="46.44319" lon="0.47847">
        <ele>126.1702468358</ele>
        <time>2021-09-13T06:17:26Z</time>
      </trkpt>
      <trkpt lat="46.44322" lon="0.47846">
        <ele>126.28147071414</ele>
        <time>2021-09-13T06:17:28Z</time>
      </trkpt>
      <trkpt lat="46.44325" lon="0.47846">
        <ele>125.96947205253</ele>
        <time>2021-09-13T06:17:31Z</time>
      </trkpt>
      <trkpt lat="46.44327" lon="0.47846">
        <ele>125.67996465135</ele>
        <time>2021-09-13T06:17:33Z</time>
      </trkpt>
      <trkpt lat="46.44329" lon="0.47845">
        <ele>125.7823097147</ele>
        <time>2021-09-13T06:17:35Z</time>
      </trkpt>
      <trkpt lat="46.44332" lon="0.47845">
        <ele>125.71995396167</ele>
        <time>2021-09-13T06:17:37Z</time>
      </trkpt>
      <trkpt lat="46.44334" lon="0.47844">
        <ele>125.74835053645</ele>
        <time>2021-09-13T06:17:39Z</time>
      </trkpt>
      <trkpt lat="46.44336" lon="0.47843">
        <ele>125.79804820288</ele>
        <time>2021-09-13T06:17:41Z</time>
      </trkpt>
      <trkpt lat="46.44339" lon="0.47841">
        <ele>126.13994923048</ele>
        <time>2021-09-13T06:17:43Z</time>
      </trkpt>
      <trkpt lat="46.44341" lon="0.47839">
        <ele>125.52477319539</ele>
        <time>2021-09-13T06:17:45Z</time>
      </trkpt>
      <trkpt lat="46.44342" lon="0.47838">
        <ele>125.51108791493</ele>
        <time>2021-09-13T06:17:48Z</time>
      </trkpt>
      <trkpt lat="46.44344" lon="0.4784">
        <ele>125.92932512891</ele>
        <time>2021-09-13T06:17:51Z</time>
      </trkpt>
      <trkpt lat="46.44344" lon="0.47836">
        <ele>125.91653920524</ele>
        <time>2021-09-13T06:17:58Z</time>
      </trkpt>
      <trkpt lat="46.44344" lon="0.47833">
        <ele>126.13501746953</ele>
        <time>2021-09-13T06:18:01Z</time>
      </trkpt>
      <trkpt lat="46.44342" lon="0.47829">
        <ele>126.31031474657</ele>
        <time>2021-09-13T06:18:04Z</time>
      </trkpt>
      <trkpt lat="46.44343" lon="0.47826">
        <ele>126.04645437747</ele>
        <time>2021-09-13T06:18:07Z</time>
      </trkpt>
      <trkpt lat="46.44343" lon="0.47822">
        <ele>126.07483241148</ele>
        <time>2021-09-13T06:18:09Z</time>
      </trkpt>
      <trkpt lat="46.44343" lon="0.47818">
        <ele>126.01122771762</ele>
        <time>2021-09-13T06:18:12Z</time>
      </trkpt>
      <trkpt lat="46.44344" lon="0.47815">
        <ele>126.26694989856</ele>
        <time>2021-09-13T06:18:14Z</time>
      </trkpt>
      <trkpt lat="46.44345" lon="0.47812">
        <ele>125.9400181137</ele>
        <time>2021-09-13T06:18:17Z</time>
      </trkpt>
      <trkpt lat="46.44345" lon="0.47809">
        <ele>125.70993312076</ele>
        <time>2021-09-13T06:18:19Z</time>
      </trkpt>
      <trkpt lat="46.44347" lon="0.47806">
        <ele>125.90847247746</ele>
        <time>2021-09-13T06:18:22Z</time>
      </trkpt>
      <trkpt lat="46.44349" lon="0.47804">
        <ele>125.80739020556</ele>
        <time>2021-09-13T06:18:25Z</time>
      </trkpt>
      <trkpt lat="46.44351" lon="0.47805">
        <ele>125.70916669909</ele>
        <time>2021-09-13T06:18:28Z</time>
      </trkpt>
      <trkpt lat="46.44354" lon="0.47808">
        <ele>125.74799080752</ele>
        <time>2021-09-13T06:18:31Z</time>
      </trkpt>
      <trkpt lat="46.44355" lon="0.4781">
        <ele>125.394932542</ele>
        <time>2021-09-13T06:18:33Z</time>
      </trkpt>
      <trkpt lat="46.44357" lon="0.47812">
        <ele>125.86777051911</ele>
        <time>2021-09-13T06:18:35Z</time>
      </trkpt>
      <trkpt lat="46.44359" lon="0.47814">
        <ele>125.8897518171</ele>
        <time>2021-09-13T06:18:38Z</time>
      </trkpt>
      <trkpt lat="46.44361" lon="0.47816">
        <ele>125.8544463031</ele>
        <time>2021-09-13T06:18:40Z</time>
      </trkpt>
      <trkpt lat="46.44363" lon="0.47818">
        <ele>125.84381571226</ele>
        <time>2021-09-13T06:18:42Z</time>
      </trkpt>
      <trkpt lat="46.44365" lon="0.4782">
        <ele>125.93616438378</ele>
        <time>2021-09-13T06:18:44Z</time>
      </trkpt>
      <trkpt lat="46.44367" lon="0.47823">
        <ele>126.02570940647</ele>
        <time>2021-09-13T06:18:46Z</time>
      </trkpt>
      <trkpt lat="46.44368" lon="0.47825">
        <ele>126.09921899159</ele>
        <time>2021-09-13T06:18:48Z</time>
      </trkpt>
      <trkpt lat="46.4437" lon="0.47826">
        <ele>126.30268200859</ele>
        <time>2021-09-13T06:18:50Z</time>
      </trkpt>
      <trkpt lat="46.44372" lon="0.47828">
        <ele>126.45488039311</ele>
        <time>2021-09-13T06:18:52Z</time>
      </trkpt>
      <trkpt lat="46.44374" lon="0.4783">
        <ele>126.36140054092</ele>
        <time>2021-09-13T06:18:54Z</time>
      </trkpt>
      <trkpt lat="46.44376" lon="0.47832">
        <ele>126.48083353788</ele>
        <time>2021-09-13T06:18:56Z</time>
      </trkpt>
      <trkpt lat="46.44378" lon="0.47835">
        <ele>126.50151333865</ele>
        <time>2021-09-13T06:18:58Z</time>
      </trkpt>
      <trkpt lat="46.4438" lon="0.47837">
        <ele>126.77187558636</ele>
        <time>2021-09-13T06:19:00Z</time>
      </trkpt>
      <trkpt lat="46.44382" lon="0.4784">
        <ele>126.8223361522</ele>
        <time>2021-09-13T06:19:03Z</time>
      </trkpt>
      <trkpt lat="46.44383" lon="0.47842">
        <ele>126.91003827844</ele>
        <time>2021-09-13T06:19:05Z</time>
      </trkpt>
      <trkpt lat="46.44385" lon="0.47844">
        <ele>126.77906313445</ele>
        <time>2021-09-13T06:19:07Z</time>
      </trkpt>
      <trkpt lat="46.44387" lon="0.47847">
        <ele>126.20428969152</ele>
        <time>2021-09-13T06:19:10Z</time>
      </trkpt>
      <trkpt lat="46.44388" lon="0.47849">
        <ele>126.42375689559</ele>
        <time>2021-09-13T06:19:12Z</time>
      </trkpt>
      <trkpt lat="46.4439" lon="0.47852">
        <ele>126.63763989042</ele>
        <time>2021-09-13T06:19:14Z</time>
      </trkpt>
      <trkpt lat="46.44391" lon="0.47856">
        <ele>126.15368736815</ele>
        <time>2021-09-13T06:19:17Z</time>
      </trkpt>
      <trkpt lat="46.44393" lon="0.47858">
        <ele>126.01576387603</ele>
        <time>2021-09-13T06:19:19Z</time>
      </trkpt>
      <trkpt lat="46.44395" lon="0.47859">
        <ele>127.04467723425</ele>
        <time>2021-09-13T06:19:21Z</time>
      </trkpt>
      <trkpt lat="46.44396" lon="0.47862">
        <ele>127.06860416569</ele>
        <time>2021-09-13T06:19:23Z</time>
      </trkpt>
      <trkpt lat="46.44397" lon="0.47865">
        <ele>126.62894219439</ele>
        <time>2021-09-13T06:19:25Z</time>
      </trkpt>
      <trkpt lat="46.44399" lon="0.47867">
        <ele>126.70127431303</ele>
        <time>2021-09-13T06:19:27Z</time>
      </trkpt>
      <trkpt lat="46.444" lon="0.4787">
        <ele>126.32628309913</ele>
        <time>2021-09-13T06:19:29Z</time>
      </trkpt>
      <trkpt lat="46.44401" lon="0.47872">
        <ele>126.87913157884</ele>
        <time>2021-09-13T06:19:31Z</time>
      </trkpt>
      <trkpt lat="46.44403" lon="0.47875">
        <ele>126.42167961411</ele>
        <time>2021-09-13T06:19:33Z</time>
      </trkpt>
      <trkpt lat="46.44405" lon="0.47879">
        <ele>126.93388598226</ele>
        <time>2021-09-13T06:19:36Z</time>
      </trkpt>
      <trkpt lat="46.44407" lon="0.47881">
        <ele>126.36990586203</ele>
        <time>2021-09-13T06:19:38Z</time>
      </trkpt>
      <trkpt lat="46.44409" lon="0.47883">
        <ele>126.87357652467</ele>
        <time>2021-09-13T06:19:40Z</time>
      </trkpt>
      <trkpt lat="46.4441" lon="0.47885">
        <ele>126.63853057008</ele>
        <time>2021-09-13T06:19:42Z</time>
      </trkpt>
      <trkpt lat="46.44412" lon="0.47888">
        <ele>127.06101000682</ele>
        <time>2021-09-13T06:19:44Z</time>
      </trkpt>
      <trkpt lat="46.44414" lon="0.47891">
        <ele>127.07786895614</ele>
        <time>2021-09-13T06:19:47Z</time>
      </trkpt>
      <trkpt lat="46.44415" lon="0.47893">
        <ele>127.15618737973</ele>
        <time>2021-09-13T06:19:49Z</time>
      </trkpt>
      <trkpt lat="46.44417" lon="0.47896">
        <ele>127.31413467694</ele>
        <time>2021-09-13T06:19:51Z</time>
      </trkpt>
      <trkpt lat="46.44419" lon="0.47898">
        <ele>127.205846956</ele>
        <time>2021-09-13T06:19:53Z</time>
      </trkpt>
      <trkpt lat="46.44421" lon="0.479">
        <ele>127.31145414151</ele>
        <time>2021-09-13T06:19:55Z</time>
      </trkpt>
      <trkpt lat="46.44423" lon="0.47903">
        <ele>127.56840898935</ele>
        <time>2021-09-13T06:19:57Z</time>
      </trkpt>
      <trkpt lat="46.44425" lon="0.47906">
        <ele>127.28830082901</ele>
        <time>2021-09-13T06:19:59Z</time>
      </trkpt>
      <trkpt lat="46.44427" lon="0.47907">
        <ele>127.26597380172</ele>
        <time>2021-09-13T06:20:01Z</time>
      </trkpt>
      <trkpt lat="46.4443" lon="0.47909">
        <ele>127.62045122031</ele>
        <time>2021-09-13T06:20:03Z</time>
      </trkpt>
      <trkpt lat="46.44432" lon="0.47911">
        <ele>127.68732007034</ele>
        <time>2021-09-13T06:20:05Z</time>
      </trkpt>
      <trkpt lat="46.44434" lon="0.47912">
        <ele>127.47959901951</ele>
        <time>2021-09-13T06:20:07Z</time>
      </trkpt>
      <trkpt lat="46.44437" lon="0.47914">
        <ele>128.26443318371</ele>
        <time>2021-09-13T06:20:09Z</time>
      </trkpt>
      <trkpt lat="46.44439" lon="0.47914">
        <ele>127.26375928707</ele>
        <time>2021-09-13T06:20:11Z</time>
      </trkpt>
      <trkpt lat="46.44442" lon="0.47915">
        <ele>128.00707303546</ele>
        <time>2021-09-13T06:20:13Z</time>
      </trkpt>
      <trkpt lat="46.44445" lon="0.47917">
        <ele>127.62367878482</ele>
        <time>2021-09-13T06:20:16Z</time>
      </trkpt>
      <trkpt lat="46.44447" lon="0.47917">
        <ele>127.49318442028</ele>
        <time>2021-09-13T06:20:18Z</time>
      </trkpt>
      <trkpt lat="46.44449" lon="0.47918">
        <ele>127.86590127274</ele>
        <time>2021-09-13T06:20:20Z</time>
      </trkpt>
      <trkpt lat="46.44451" lon="0.47919">
        <ele>127.58180703316</ele>
        <time>2021-09-13T06:20:22Z</time>
      </trkpt>
      <trkpt lat="46.44453" lon="0.47919">
        <ele>127.56143333297</ele>
        <time>2021-09-13T06:20:24Z</time>
      </trkpt>
      <trkpt lat="46.44456" lon="0.4792">
        <ele>127.78248944227</ele>
        <time>2021-09-13T06:20:26Z</time>
      </trkpt>
      <trkpt lat="46.44458" lon="0.4792">
        <ele>127.4920048397</ele>
        <time>2021-09-13T06:20:28Z</time>
      </trkpt>
      <trkpt lat="46.4446" lon="0.47922">
        <ele>127.83610465657</ele>
        <time>2021-09-13T06:20:30Z</time>
      </trkpt>
      <trkpt lat="46.44462" lon="0.47922">
        <ele>127.5241228994</ele>
        <time>2021-09-13T06:20:32Z</time>
      </trkpt>
      <trkpt lat="46.44464" lon="0.47923">
        <ele>127.79120669141</ele>
        <time>2021-09-13T06:20:34Z</time>
      </trkpt>
      <trkpt lat="46.44467" lon="0.47924">
        <ele>127.92890371662</ele>
        <time>2021-09-13T06:20:36Z</time>
      </trkpt>
      <trkpt lat="46.44469" lon="0.47924">
        <ele>127.67265882809</ele>
        <time>2021-09-13T06:20:39Z</time>
      </trkpt>
      <trkpt lat="46.44472" lon="0.47925">
        <ele>128.12316813972</ele>
        <time>2021-09-13T06:20:41Z</time>
      </trkpt>
      <trkpt lat="46.44474" lon="0.47925">
        <ele>127.64218247775</ele>
        <time>2021-09-13T06:20:43Z</time>
      </trkpt>
      <trkpt lat="46.44477" lon="0.47927">
        <ele>127.92980365083</ele>
        <time>2021-09-13T06:20:46Z</time>
      </trkpt>
      <trkpt lat="46.44479" lon="0.47928">
        <ele>127.44728696719</ele>
        <time>2021-09-13T06:20:48Z</time>
      </trkpt>
      <trkpt lat="46.44481" lon="0.47929">
        <ele>127.85277508106</ele>
        <time>2021-09-13T06:20:51Z</time>
      </trkpt>
      <trkpt lat="46.44484" lon="0.4793">
        <ele>127.76287197601</ele>
        <time>2021-09-13T06:20:53Z</time>
      </trkpt>
      <trkpt lat="46.44486" lon="0.4793">
        <ele>128.1077826554</ele>
        <time>2021-09-13T06:20:55Z</time>
      </trkpt>
      <trkpt lat="46.44488" lon="0.47931">
        <ele>128.33961255476</ele>
        <time>2021-09-13T06:20:57Z</time>
      </trkpt>
      <trkpt lat="46.4449" lon="0.47932">
        <ele>127.63752087206</ele>
        <time>2021-09-13T06:20:59Z</time>
      </trkpt>
      <trkpt lat="46.44492" lon="0.47933">
        <ele>129.03983477596</ele>
        <time>2021-09-13T06:21:01Z</time>
      </trkpt>
      <trkpt lat="46.44495" lon="0.47934">
        <ele>128.64926315844</ele>
        <time>2021-09-13T06:21:04Z</time>
      </trkpt>
      <trkpt lat="46.44497" lon="0.47934">
        <ele>128.07633462828</ele>
        <time>2021-09-13T06:21:06Z</time>
      </trkpt>
      <trkpt lat="46.44499" lon="0.47935">
        <ele>128.18555700965</ele>
        <time>2021-09-13T06:21:08Z</time>
      </trkpt>
      <trkpt lat="46.44501" lon="0.47936">
        <ele>128.66178331245</ele>
        <time>2021-09-13T06:21:10Z</time>
      </trkpt>
      <trkpt lat="46.44504" lon="0.47937">
        <ele>128.72132140584</ele>
        <time>2021-09-13T06:21:12Z</time>
      </trkpt>
      <trkpt lat="46.44506" lon="0.47937">
        <ele>128.15668950789</ele>
        <time>2021-09-13T06:21:14Z</time>
      </trkpt>
      <trkpt lat="46.44509" lon="0.47938">
        <ele>128.65579846688</ele>
        <time>2021-09-13T06:21:17Z</time>
      </trkpt>
      <trkpt lat="46.44511" lon="0.4794">
        <ele>128.47504172754</ele>
        <time>2021-09-13T06:21:19Z</time>
      </trkpt>
      <trkpt lat="46.44513" lon="0.4794">
        <ele>128.52518655546</ele>
        <time>2021-09-13T06:21:21Z</time>
      </trkpt>
      <trkpt lat="46.44516" lon="0.47941">
        <ele>128.53338764887</ele>
        <time>2021-09-13T06:21:24Z</time>
      </trkpt>
      <trkpt lat="46.44518" lon="0.47942">
        <ele>128.51896474231</ele>
        <time>2021-09-13T06:21:26Z</time>
      </trkpt>
      <trkpt lat="46.44521" lon="0.47943">
        <ele>128.96237799991</ele>
        <time>2021-09-13T06:21:29Z</time>
      </trkpt>
      <trkpt lat="46.44523" lon="0.47945">
        <ele>128.59233968798</ele>
        <time>2021-09-13T06:21:31Z</time>
      </trkpt>
      <trkpt lat="46.44525" lon="0.47946">
        <ele>128.90446991287</ele>
        <time>2021-09-13T06:21:33Z</time>
      </trkpt>
      <trkpt lat="46.44527" lon="0.47947">
        <ele>128.66615585703</ele>
        <time>2021-09-13T06:21:35Z</time>
      </trkpt>
      <trkpt lat="46.44529" lon="0.47948">
        <ele>129.21601899806</ele>
        <time>2021-09-13T06:21:37Z</time>
      </trkpt>
      <trkpt lat="46.44532" lon="0.47949">
        <ele>129.15025175363</ele>
        <time>2021-09-13T06:21:40Z</time>
      </trkpt>
      <trkpt lat="46.44534" lon="0.4795">
        <ele>128.80442266911</ele>
        <time>2021-09-13T06:21:42Z</time>
      </trkpt>
      <trkpt lat="46.44536" lon="0.47951">
        <ele>128.80876873713</ele>
        <time>2021-09-13T06:21:44Z</time>
      </trkpt>
      <trkpt lat="46.44538" lon="0.47951">
        <ele>128.34993606899</ele>
        <time>2021-09-13T06:21:46Z</time>
      </trkpt>
      <trkpt lat="46.4454" lon="0.47953">
        <ele>128.96554635651</ele>
        <time>2021-09-13T06:21:48Z</time>
      </trkpt>
      <trkpt lat="46.44542" lon="0.47953">
        <ele>128.93871922884</ele>
        <time>2021-09-13T06:21:50Z</time>
      </trkpt>
      <trkpt lat="46.44544" lon="0.47954">
        <ele>129.10869985726</ele>
        <time>2021-09-13T06:21:52Z</time>
      </trkpt>
      <trkpt lat="46.44548" lon="0.47955">
        <ele>128.57855534647</ele>
        <time>2021-09-13T06:21:55Z</time>
      </trkpt>
      <trkpt lat="46.4455" lon="0.47957">
        <ele>129.32435516454</ele>
        <time>2021-09-13T06:21:57Z</time>
      </trkpt>
      <trkpt lat="46.44553" lon="0.47958">
        <ele>128.24463779014</ele>
        <time>2021-09-13T06:22:00Z</time>
      </trkpt>
      <trkpt lat="46.44555" lon="0.47959">
        <ele>128.49743579328</ele>
        <time>2021-09-13T06:22:02Z</time>
      </trkpt>
      <trkpt lat="46.44557" lon="0.47961">
        <ele>128.41626638733</ele>
        <time>2021-09-13T06:22:04Z</time>
      </trkpt>
      <trkpt lat="46.44559" lon="0.47962">
        <ele>128.69959767628</ele>
        <time>2021-09-13T06:22:06Z</time>
      </trkpt>
      <trkpt lat="46.4456" lon="0.47964">
        <ele>128.64586616866</ele>
        <time>2021-09-13T06:22:08Z</time>
      </trkpt>
      <trkpt lat="46.44562" lon="0.47965">
        <ele>128.39094018191</ele>
        <time>2021-09-13T06:22:10Z</time>
      </trkpt>
      <trkpt lat="46.44564" lon="0.47966">
        <ele>128.31832250394</ele>
        <time>2021-09-13T06:22:12Z</time>
      </trkpt>
      <trkpt lat="46.44566" lon="0.47967">
        <ele>128.41302007716</ele>
        <time>2021-09-13T06:22:14Z</time>
      </trkpt>
      <trkpt lat="46.44568" lon="0.47969">
        <ele>128.72410087287</ele>
        <time>2021-09-13T06:22:16Z</time>
      </trkpt>
      <trkpt lat="46.4457" lon="0.4797">
        <ele>128.97486594599</ele>
        <time>2021-09-13T06:22:18Z</time>
      </trkpt>
      <trkpt lat="46.44572" lon="0.47972">
        <ele>129.12834211066</ele>
        <time>2021-09-13T06:22:20Z</time>
      </trkpt>
      <trkpt lat="46.44574" lon="0.47974">
        <ele>129.02434346639</ele>
        <time>2021-09-13T06:22:22Z</time>
      </trkpt>
      <trkpt lat="46.44577" lon="0.47975">
        <ele>128.69605599623</ele>
        <time>2021-09-13T06:22:24Z</time>
      </trkpt>
      <trkpt lat="46.44579" lon="0.47977">
        <ele>129.79948634375</ele>
        <time>2021-09-13T06:22:26Z</time>
      </trkpt>
      <trkpt lat="46.44581" lon="0.47978">
        <ele>128.98433681391</ele>
        <time>2021-09-13T06:22:28Z</time>
      </trkpt>
      <trkpt lat="46.44583" lon="0.47979">
        <ele>128.80183553323</ele>
        <time>2021-09-13T06:22:30Z</time>
      </trkpt>
      <trkpt lat="46.44584" lon="0.47981">
        <ele>129.44307321496</ele>
        <time>2021-09-13T06:22:32Z</time>
      </trkpt>
      <trkpt lat="46.44586" lon="0.47983">
        <ele>129.05528736021</ele>
        <time>2021-09-13T06:22:34Z</time>
      </trkpt>
      <trkpt lat="46.44588" lon="0.47985">
        <ele>129.64938087203</ele>
        <time>2021-09-13T06:22:36Z</time>
      </trkpt>
      <trkpt lat="46.4459" lon="0.47987">
        <ele>128.91693377588</ele>
        <time>2021-09-13T06:22:38Z</time>
      </trkpt>
      <trkpt lat="46.44592" lon="0.47989">
        <ele>129.37383862026</ele>
        <time>2021-09-13T06:22:40Z</time>
      </trkpt>
      <trkpt lat="46.44594" lon="0.47991">
        <ele>128.83277442306</ele>
        <time>2021-09-13T06:22:42Z</time>
      </trkpt>
      <trkpt lat="46.44595" lon="0.47993">
        <ele>128.98945073597</ele>
        <time>2021-09-13T06:22:44Z</time>
      </trkpt>
      <trkpt lat="46.44598" lon="0.47995">
        <ele>129.11650296021</ele>
        <time>2021-09-13T06:22:46Z</time>
      </trkpt>
      <trkpt lat="46.44599" lon="0.47997">
        <ele>128.77590057347</ele>
        <time>2021-09-13T06:22:48Z</time>
      </trkpt>
      <trkpt lat="46.44601" lon="0.47999">
        <ele>128.88160907477</ele>
        <time>2021-09-13T06:22:50Z</time>
      </trkpt>
      <trkpt lat="46.44602" lon="0.48001">
        <ele>129.51478397008</ele>
        <time>2021-09-13T06:22:51Z</time>
      </trkpt>
      <trkpt lat="46.44604" lon="0.48003">
        <ele>129.17912250478</ele>
        <time>2021-09-13T06:22:53Z</time>
      </trkpt>
      <trkpt lat="46.44606" lon="0.48006">
        <ele>129.30543239228</ele>
        <time>2021-09-13T06:22:55Z</time>
      </trkpt>
      <trkpt lat="46.44607" lon="0.48008">
        <ele>128.7660558261</ele>
        <time>2021-09-13T06:22:57Z</time>
      </trkpt>
      <trkpt lat="46.44609" lon="0.4801">
        <ele>129.11290426366</ele>
        <time>2021-09-13T06:22:59Z</time>
      </trkpt>
      <trkpt lat="46.44611" lon="0.48012">
        <ele>129.90322324354</ele>
        <time>2021-09-13T06:23:01Z</time>
      </trkpt>
      <trkpt lat="46.44614" lon="0.48014">
        <ele>129.6493599629</ele>
        <time>2021-09-13T06:23:04Z</time>
      </trkpt>
      <trkpt lat="46.44615" lon="0.48016">
        <ele>129.06918963883</ele>
        <time>2021-09-13T06:23:06Z</time>
      </trkpt>
      <trkpt lat="46.44617" lon="0.48018">
        <ele>129.40839286521</ele>
        <time>2021-09-13T06:23:08Z</time>
      </trkpt>
      <trkpt lat="46.44619" lon="0.4802">
        <ele>129.01165184285</ele>
        <time>2021-09-13T06:23:10Z</time>
      </trkpt>
      <trkpt lat="46.4462" lon="0.48022">
        <ele>128.74670713954</ele>
        <time>2021-09-13T06:23:12Z</time>
      </trkpt>
      <trkpt lat="46.44622" lon="0.48025">
        <ele>129.71664564591</ele>
        <time>2021-09-13T06:23:14Z</time>
      </trkpt>
      <trkpt lat="46.44624" lon="0.48027">
        <ele>128.5709459139</ele>
        <time>2021-09-13T06:23:16Z</time>
      </trkpt>
      <trkpt lat="46.44625" lon="0.4803">
        <ele>129.01874059532</ele>
        <time>2021-09-13T06:23:18Z</time>
      </trkpt>
      <trkpt lat="46.44627" lon="0.48033">
        <ele>128.27144617401</ele>
        <time>2021-09-13T06:23:21Z</time>
      </trkpt>
      <trkpt lat="46.44629" lon="0.48036">
        <ele>128.32167319674</ele>
        <time>2021-09-13T06:23:23Z</time>
      </trkpt>
      <trkpt lat="46.44631" lon="0.48038">
        <ele>128.52015125658</ele>
        <time>2021-09-13T06:23:25Z</time>
      </trkpt>
      <trkpt lat="46.44632" lon="0.4804">
        <ele>128.45175078977</ele>
        <time>2021-09-13T06:23:27Z</time>
      </trkpt>
      <trkpt lat="46.44634" lon="0.48043">
        <ele>129.0224733362</ele>
        <time>2021-09-13T06:23:29Z</time>
      </trkpt>
      <trkpt lat="46.44635" lon="0.48045">
        <ele>128.47232490126</ele>
        <time>2021-09-13T06:23:31Z</time>
      </trkpt>
      <trkpt lat="46.44637" lon="0.48048">
        <ele>128.177450791</ele>
        <time>2021-09-13T06:23:33Z</time>
      </trkpt>
      <trkpt lat="46.44639" lon="0.4805">
        <ele>128.87804711983</ele>
        <time>2021-09-13T06:23:35Z</time>
      </trkpt>
      <trkpt lat="46.44641" lon="0.48052">
        <ele>128.73769457918</ele>
        <time>2021-09-13T06:23:37Z</time>
      </trkpt>
      <trkpt lat="46.44642" lon="0.48055">
        <ele>127.92200470902</ele>
        <time>2021-09-13T06:23:39Z</time>
      </trkpt>
      <trkpt lat="46.44644" lon="0.48057">
        <ele>128.76015183143</ele>
        <time>2021-09-13T06:23:41Z</time>
      </trkpt>
      <trkpt lat="46.44645" lon="0.48059">
        <ele>128.26589559857</ele>
        <time>2021-09-13T06:23:43Z</time>
      </trkpt>
      <trkpt lat="46.44647" lon="0.48062">
        <ele>128.91883426439</ele>
        <time>2021-09-13T06:23:45Z</time>
      </trkpt>
      <trkpt lat="46.44649" lon="0.48064">
        <ele>128.08498336654</ele>
        <time>2021-09-13T06:23:48Z</time>
      </trkpt>
      <trkpt lat="46.44652" lon="0.48067">
        <ele>128.47995948792</ele>
        <time>2021-09-13T06:23:51Z</time>
      </trkpt>
      <trkpt lat="46.44653" lon="0.4807">
        <ele>128.56575990934</ele>
        <time>2021-09-13T06:23:53Z</time>
      </trkpt>
      <trkpt lat="46.44654" lon="0.48072">
        <ele>127.6064377008</ele>
        <time>2021-09-13T06:23:55Z</time>
      </trkpt>
      <trkpt lat="46.44656" lon="0.48073">
        <ele>128.03346037585</ele>
        <time>2021-09-13T06:23:57Z</time>
      </trkpt>
      <trkpt lat="46.44658" lon="0.48075">
        <ele>128.2918661451</ele>
        <time>2021-09-13T06:23:59Z</time>
      </trkpt>
      <trkpt lat="46.4466" lon="0.48077">
        <ele>127.86812382564</ele>
        <time>2021-09-13T06:24:01Z</time>
      </trkpt>
      <trkpt lat="46.44661" lon="0.48079">
        <ele>128.44140690845</ele>
        <time>2021-09-13T06:24:03Z</time>
      </trkpt>
      <trkpt lat="46.44663" lon="0.48081">
        <ele>128.28270973917</ele>
        <time>2021-09-13T06:24:06Z</time>
      </trkpt>
      <trkpt lat="46.44664" lon="0.48083">
        <ele>127.68159584422</ele>
        <time>2021-09-13T06:24:08Z</time>
      </trkpt>
      <trkpt lat="46.44665" lon="0.48086">
        <ele>128.51783224382</ele>
        <time>2021-09-13T06:24:10Z</time>
      </trkpt>
      <trkpt lat="46.44667" lon="0.48088">
        <ele>127.00167966541</ele>
        <time>2021-09-13T06:24:12Z</time>
      </trkpt>
      <trkpt lat="46.44668" lon="0.4809">
        <ele>127.66203456465</ele>
        <time>2021-09-13T06:24:14Z</time>
      </trkpt>
      <trkpt lat="46.4467" lon="0.48092">
        <ele>127.50094529614</ele>
        <time>2021-09-13T06:24:16Z</time>
      </trkpt>
      <trkpt lat="46.44672" lon="0.48095">
        <ele>127.32080021966</ele>
        <time>2021-09-13T06:24:18Z</time>
      </trkpt>
      <trkpt lat="46.44673" lon="0.48097">
        <ele>127.27576607466</ele>
        <time>2021-09-13T06:24:20Z</time>
      </trkpt>
      <trkpt lat="46.44675" lon="0.48099">
        <ele>127.38561158255</ele>
        <time>2021-09-13T06:24:22Z</time>
      </trkpt>
      <trkpt lat="46.44676" lon="0.48101">
        <ele>127.51824526582</ele>
        <time>2021-09-13T06:24:24Z</time>
      </trkpt>
      <trkpt lat="46.44678" lon="0.48104">
        <ele>128.03229445219</ele>
        <time>2021-09-13T06:24:26Z</time>
      </trkpt>
      <trkpt lat="46.4468" lon="0.48107">
        <ele>127.64477057103</ele>
        <time>2021-09-13T06:24:28Z</time>
      </trkpt>
      <trkpt lat="46.44682" lon="0.48109">
        <ele>127.46269386448</ele>
        <time>2021-09-13T06:24:30Z</time>
      </trkpt>
      <trkpt lat="46.44684" lon="0.48111">
        <ele>127.90995099582</ele>
        <time>2021-09-13T06:24:32Z</time>
      </trkpt>
      <trkpt lat="46.44686" lon="0.48114">
        <ele>128.71356838569</ele>
        <time>2021-09-13T06:24:34Z</time>
      </trkpt>
      <trkpt lat="46.44687" lon="0.48116">
        <ele>128.73169170413</ele>
        <time>2021-09-13T06:24:36Z</time>
      </trkpt>
      <trkpt lat="46.44689" lon="0.48119">
        <ele>128.38274711091</ele>
        <time>2021-09-13T06:24:38Z</time>
      </trkpt>
      <trkpt lat="46.4469" lon="0.48121">
        <ele>128.30178066622</ele>
        <time>2021-09-13T06:24:40Z</time>
      </trkpt>
      <trkpt lat="46.44692" lon="0.48123">
        <ele>128.96730632614</ele>
        <time>2021-09-13T06:24:42Z</time>
      </trkpt>
      <trkpt lat="46.44694" lon="0.48126">
        <ele>128.16242185142</ele>
        <time>2021-09-13T06:24:44Z</time>
      </trkpt>
      <trkpt lat="46.44696" lon="0.48129">
        <ele>127.80445960164</ele>
        <time>2021-09-13T06:24:46Z</time>
      </trkpt>
      <trkpt lat="46.44698" lon="0.48132">
        <ele>128.39158612397</ele>
        <time>2021-09-13T06:24:48Z</time>
      </trkpt>
      <trkpt lat="46.44699" lon="0.48134">
        <ele>128.22699572891</ele>
        <time>2021-09-13T06:24:50Z</time>
      </trkpt>
      <trkpt lat="46.447" lon="0.48137">
        <ele>128.8966456959</ele>
        <time>2021-09-13T06:24:52Z</time>
      </trkpt>
      <trkpt lat="46.44702" lon="0.4814">
        <ele>128.41940015182</ele>
        <time>2021-09-13T06:24:54Z</time>
      </trkpt>
      <trkpt lat="46.44704" lon="0.48142">
        <ele>128.31323336344</ele>
        <time>2021-09-13T06:24:56Z</time>
      </trkpt>
      <trkpt lat="46.44705" lon="0.48144">
        <ele>128.48783305939</ele>
        <time>2021-09-13T06:24:58Z</time>
      </trkpt>
      <trkpt lat="46.44707" lon="0.48147">
        <ele>128.24693293683</ele>
        <time>2021-09-13T06:25:00Z</time>
      </trkpt>
      <trkpt lat="46.44708" lon="0.4815">
        <ele>128.20419096854</ele>
        <time>2021-09-13T06:25:02Z</time>
      </trkpt>
      <trkpt lat="46.4471" lon="0.48152">
        <ele>128.29321236257</ele>
        <time>2021-09-13T06:25:04Z</time>
      </trkpt>
      <trkpt lat="46.44712" lon="0.48155">
        <ele>127.8771029124</ele>
        <time>2021-09-13T06:25:06Z</time>
      </trkpt>
      <trkpt lat="46.44714" lon="0.48158">
        <ele>128.15550788213</ele>
        <time>2021-09-13T06:25:08Z</time>
      </trkpt>
      <trkpt lat="46.44716" lon="0.4816">
        <ele>128.16037969477</ele>
        <time>2021-09-13T06:25:10Z</time>
      </trkpt>
      <trkpt lat="46.44717" lon="0.48162">
        <ele>128.25377595611</ele>
        <time>2021-09-13T06:25:12Z</time>
      </trkpt>
      <trkpt lat="46.44718" lon="0.48165">
        <ele>128.37486144621</ele>
        <time>2021-09-13T06:25:14Z</time>
      </trkpt>
      <trkpt lat="46.4472" lon="0.48167">
        <ele>128.55564892478</ele>
        <time>2021-09-13T06:25:16Z</time>
      </trkpt>
      <trkpt lat="46.44721" lon="0.48169">
        <ele>128.62572123483</ele>
        <time>2021-09-13T06:25:18Z</time>
      </trkpt>
      <trkpt lat="46.44723" lon="0.48172">
        <ele>128.21720785741</ele>
        <time>2021-09-13T06:25:20Z</time>
      </trkpt>
      <trkpt lat="46.44724" lon="0.48174">
        <ele>128.53006088641</ele>
        <time>2021-09-13T06:25:22Z</time>
      </trkpt>
      <trkpt lat="46.44726" lon="0.48177">
        <ele>128.63362147287</ele>
        <time>2021-09-13T06:25:24Z</time>
      </trkpt>
      <trkpt lat="46.44727" lon="0.48179">
        <ele>128.50649878662</ele>
        <time>2021-09-13T06:25:26Z</time>
      </trkpt>
      <trkpt lat="46.44729" lon="0.48182">
        <ele>128.75690938905</ele>
        <time>2021-09-13T06:25:28Z</time>
      </trkpt>
      <trkpt lat="46.4473" lon="0.48184">
        <ele>128.60562841315</ele>
        <time>2021-09-13T06:25:30Z</time>
      </trkpt>
      <trkpt lat="46.44732" lon="0.48188">
        <ele>128.7852182975</ele>
        <time>2021-09-13T06:25:32Z</time>
      </trkpt>
      <trkpt lat="46.44733" lon="0.48191">
        <ele>128.7793986788</ele>
        <time>2021-09-13T06:25:34Z</time>
      </trkpt>
      <trkpt lat="46.44735" lon="0.48193">
        <ele>128.19978911895</ele>
        <time>2021-09-13T06:25:36Z</time>
      </trkpt>
      <trkpt lat="46.44737" lon="0.48196">
        <ele>128.37603006512</ele>
        <time>2021-09-13T06:25:38Z</time>
      </trkpt>
      <trkpt lat="46.44738" lon="0.48199">
        <ele>128.23950930126</ele>
        <time>2021-09-13T06:25:40Z</time>
      </trkpt>
      <trkpt lat="46.4474" lon="0.48201">
        <ele>128.57415684126</ele>
        <time>2021-09-13T06:25:42Z</time>
      </trkpt>
      <trkpt lat="46.44742" lon="0.48203">
        <ele>128.33556865621</ele>
        <time>2021-09-13T06:25:44Z</time>
      </trkpt>
      <trkpt lat="46.44743" lon="0.48205">
        <ele>128.7306577228</ele>
        <time>2021-09-13T06:25:46Z</time>
      </trkpt>
      <trkpt lat="46.44745" lon="0.48207">
        <ele>128.49643219262</ele>
        <time>2021-09-13T06:25:48Z</time>
      </trkpt>
      <trkpt lat="46.44746" lon="0.4821">
        <ele>128.88710014056</ele>
        <time>2021-09-13T06:25:50Z</time>
      </trkpt>
      <trkpt lat="46.44748" lon="0.48211">
        <ele>128.50359793101</ele>
        <time>2021-09-13T06:25:53Z</time>
      </trkpt>
      <trkpt lat="46.4475" lon="0.48214">
        <ele>128.60262272321</ele>
        <time>2021-09-13T06:25:55Z</time>
      </trkpt>
      <trkpt lat="46.44752" lon="0.48216">
        <ele>128.75163220335</ele>
        <time>2021-09-13T06:25:57Z</time>
      </trkpt>
      <trkpt lat="46.44753" lon="0.48219">
        <ele>128.83859995846</ele>
        <time>2021-09-13T06:25:59Z</time>
      </trkpt>
      <trkpt lat="46.44755" lon="0.48223">
        <ele>128.91280148644</ele>
        <time>2021-09-13T06:26:02Z</time>
      </trkpt>
      <trkpt lat="46.44757" lon="0.48226">
        <ele>128.85993632209</ele>
        <time>2021-09-13T06:26:04Z</time>
      </trkpt>
      <trkpt lat="46.44758" lon="0.48229">
        <ele>129.1630016407</ele>
        <time>2021-09-13T06:26:06Z</time>
      </trkpt>
      <trkpt lat="46.44759" lon="0.48232">
        <ele>128.99352875073</ele>
        <time>2021-09-13T06:26:08Z</time>
      </trkpt>
      <trkpt lat="46.44759" lon="0.48235">
        <ele>128.64931894466</ele>
        <time>2021-09-13T06:26:10Z</time>
      </trkpt>
      <trkpt lat="46.44759" lon="0.48238">
        <ele>128.89230452199</ele>
        <time>2021-09-13T06:26:12Z</time>
      </trkpt>
      <trkpt lat="46.44759" lon="0.48242">
        <ele>128.57157167513</ele>
        <time>2021-09-13T06:26:14Z</time>
      </trkpt>
      <trkpt lat="46.44758" lon="0.48245">
        <ele>128.5809159996</ele>
        <time>2021-09-13T06:26:16Z</time>
      </trkpt>
      <trkpt lat="46.44758" lon="0.48248">
        <ele>128.66467106529</ele>
        <time>2021-09-13T06:26:18Z</time>
      </trkpt>
      <trkpt lat="46.44758" lon="0.48251">
        <ele>128.54962432291</ele>
        <time>2021-09-13T06:26:20Z</time>
      </trkpt>
      <trkpt lat="46.44758" lon="0.48254">
        <ele>128.9445867585</ele>
        <time>2021-09-13T06:26:22Z</time>
      </trkpt>
      <trkpt lat="46.44757" lon="0.48257">
        <ele>128.7065926902</ele>
        <time>2021-09-13T06:26:24Z</time>
      </trkpt>
      <trkpt lat="46.44757" lon="0.4826">
        <ele>128.69193264283</ele>
        <time>2021-09-13T06:26:26Z</time>
      </trkpt>
      <trkpt lat="46.44756" lon="0.48263">
        <ele>128.69498376176</ele>
        <time>2021-09-13T06:26:28Z</time>
      </trkpt>
      <trkpt lat="46.44756" lon="0.48266">
        <ele>128.9499702109</ele>
        <time>2021-09-13T06:26:30Z</time>
      </trkpt>
      <trkpt lat="46.44755" lon="0.48269">
        <ele>128.68499893043</ele>
        <time>2021-09-13T06:26:32Z</time>
      </trkpt>
      <trkpt lat="46.44755" lon="0.48273">
        <ele>128.87564965338</ele>
        <time>2021-09-13T06:26:35Z</time>
      </trkpt>
      <trkpt lat="46.44754" lon="0.48276">
        <ele>129.21523229592</ele>
        <time>2021-09-13T06:26:37Z</time>
      </trkpt>
      <trkpt lat="46.44754" lon="0.4828">
        <ele>128.73987340089</ele>
        <time>2021-09-13T06:26:39Z</time>
      </trkpt>
      <trkpt lat="46.44754" lon="0.48283">
        <ele>129.01110501774</ele>
        <time>2021-09-13T06:26:41Z</time>
      </trkpt>
      <trkpt lat="46.44753" lon="0.48286">
        <ele>129.11241264828</ele>
        <time>2021-09-13T06:26:43Z</time>
      </trkpt>
      <trkpt lat="46.44753" lon="0.48289">
        <ele>129.06903279852</ele>
        <time>2021-09-13T06:26:45Z</time>
      </trkpt>
      <trkpt lat="46.44753" lon="0.48292">
        <ele>129.01691911463</ele>
        <time>2021-09-13T06:26:47Z</time>
      </trkpt>
      <trkpt lat="46.44752" lon="0.48295">
        <ele>129.17184513714</ele>
        <time>2021-09-13T06:26:49Z</time>
      </trkpt>
      <trkpt lat="46.44751" lon="0.48299">
        <ele>129.30471219588</ele>
        <time>2021-09-13T06:26:51Z</time>
      </trkpt>
      <trkpt lat="46.44752" lon="0.48302">
        <ele>129.50898537785</ele>
        <time>2021-09-13T06:26:53Z</time>
      </trkpt>
      <trkpt lat="46.44753" lon="0.48305">
        <ele>129.23900551256</ele>
        <time>2021-09-13T06:26:55Z</time>
      </trkpt>
      <trkpt lat="46.44754" lon="0.48307">
        <ele>129.78493143339</ele>
        <time>2021-09-13T06:26:57Z</time>
      </trkpt>
      <trkpt lat="46.44756" lon="0.48309">
        <ele>129.94887111802</ele>
        <time>2021-09-13T06:26:59Z</time>
      </trkpt>
      <trkpt lat="46.44758" lon="0.48311">
        <ele>130.04112869408</ele>
        <time>2021-09-13T06:27:01Z</time>
      </trkpt>
      <trkpt lat="46.44759" lon="0.48312">
        <ele>129.73767922446</ele>
        <time>2021-09-13T06:27:03Z</time>
      </trkpt>
      <trkpt lat="46.44761" lon="0.48314">
        <ele>130.25905308872</ele>
        <time>2021-09-13T06:27:05Z</time>
      </trkpt>
      <trkpt lat="46.44763" lon="0.48317">
        <ele>129.87853593193</ele>
        <time>2021-09-13T06:27:07Z</time>
      </trkpt>
      <trkpt lat="46.44765" lon="0.48319">
        <ele>130.25683611538</ele>
        <time>2021-09-13T06:27:10Z</time>
      </trkpt>
      <trkpt lat="46.44767" lon="0.48321">
        <ele>130.00267193373</ele>
        <time>2021-09-13T06:27:12Z</time>
      </trkpt>
      <trkpt lat="46.44769" lon="0.48323">
        <ele>130.49804656673</ele>
        <time>2021-09-13T06:27:14Z</time>
      </trkpt>
      <trkpt lat="46.44771" lon="0.48325">
        <ele>130.30679716449</ele>
        <time>2021-09-13T06:27:16Z</time>
      </trkpt>
      <trkpt lat="46.44773" lon="0.48329">
        <ele>130.59528233018</ele>
        <time>2021-09-13T06:27:18Z</time>
      </trkpt>
      <trkpt lat="46.44775" lon="0.48332">
        <ele>130.5790971145</ele>
        <time>2021-09-13T06:27:21Z</time>
      </trkpt>
      <trkpt lat="46.44777" lon="0.48333">
        <ele>130.71791513916</ele>
        <time>2021-09-13T06:27:23Z</time>
      </trkpt>
      <trkpt lat="46.44778" lon="0.48335">
        <ele>130.46953733731</ele>
        <time>2021-09-13T06:27:25Z</time>
      </trkpt>
      <trkpt lat="46.4478" lon="0.48337">
        <ele>130.77170792408</ele>
        <time>2021-09-13T06:27:27Z</time>
      </trkpt>
      <trkpt lat="46.44782" lon="0.48339">
        <ele>131.3716706913</ele>
        <time>2021-09-13T06:27:29Z</time>
      </trkpt>
      <trkpt lat="46.44784" lon="0.48341">
        <ele>130.8102172697</ele>
        <time>2021-09-13T06:27:31Z</time>
      </trkpt>
      <trkpt lat="46.44785" lon="0.48344">
        <ele>130.85528621078</ele>
        <time>2021-09-13T06:27:33Z</time>
      </trkpt>
      <trkpt lat="46.44787" lon="0.48346">
        <ele>130.87960026879</ele>
        <time>2021-09-13T06:27:35Z</time>
      </trkpt>
      <trkpt lat="46.44789" lon="0.48348">
        <ele>130.51388577465</ele>
        <time>2021-09-13T06:27:37Z</time>
      </trkpt>
      <trkpt lat="46.44791" lon="0.4835">
        <ele>130.52039838489</ele>
        <time>2021-09-13T06:27:39Z</time>
      </trkpt>
      <trkpt lat="46.44792" lon="0.48352">
        <ele>130.83306905534</ele>
        <time>2021-09-13T06:27:41Z</time>
      </trkpt>
      <trkpt lat="46.44794" lon="0.48353">
        <ele>130.81022869982</ele>
        <time>2021-09-13T06:27:43Z</time>
      </trkpt>
      <trkpt lat="46.44796" lon="0.48355">
        <ele>130.72616597451</ele>
        <time>2021-09-13T06:27:45Z</time>
      </trkpt>
      <trkpt lat="46.44799" lon="0.48358">
        <ele>130.73252504785</ele>
        <time>2021-09-13T06:27:48Z</time>
      </trkpt>
      <trkpt lat="46.44801" lon="0.4836">
        <ele>130.38689072244</ele>
        <time>2021-09-13T06:27:51Z</time>
      </trkpt>
      <trkpt lat="46.44803" lon="0.48363">
        <ele>130.71033436153</ele>
        <time>2021-09-13T06:27:53Z</time>
      </trkpt>
      <trkpt lat="46.44804" lon="0.48365">
        <ele>130.42904990073</ele>
        <time>2021-09-13T06:27:55Z</time>
      </trkpt>
      <trkpt lat="46.44806" lon="0.48366">
        <ele>131.1489924537</ele>
        <time>2021-09-13T06:27:57Z</time>
      </trkpt>
      <trkpt lat="46.44808" lon="0.48368">
        <ele>130.74019346852</ele>
        <time>2021-09-13T06:27:59Z</time>
      </trkpt>
      <trkpt lat="46.44811" lon="0.48369">
        <ele>130.99880584702</ele>
        <time>2021-09-13T06:28:01Z</time>
      </trkpt>
      <trkpt lat="46.44813" lon="0.48371">
        <ele>131.02568144538</ele>
        <time>2021-09-13T06:28:03Z</time>
      </trkpt>
      <trkpt lat="46.44815" lon="0.48373">
        <ele>131.52679806389</ele>
        <time>2021-09-13T06:28:05Z</time>
      </trkpt>
      <trkpt lat="46.44816" lon="0.48375">
        <ele>131.33393840678</ele>
        <time>2021-09-13T06:28:07Z</time>
      </trkpt>
      <trkpt lat="46.44818" lon="0.48377">
        <ele>131.51008467376</ele>
        <time>2021-09-13T06:28:08Z</time>
      </trkpt>
      <trkpt lat="46.4482" lon="0.48379">
        <ele>131.50413385406</ele>
        <time>2021-09-13T06:28:10Z</time>
      </trkpt>
      <trkpt lat="46.44821" lon="0.48381">
        <ele>131.76435396168</ele>
        <time>2021-09-13T06:28:13Z</time>
      </trkpt>
      <trkpt lat="46.44823" lon="0.48384">
        <ele>131.79549007583</ele>
        <time>2021-09-13T06:28:15Z</time>
      </trkpt>
      <trkpt lat="46.44825" lon="0.48387">
        <ele>131.35224459879</ele>
        <time>2021-09-13T06:28:18Z</time>
      </trkpt>
      <trkpt lat="46.44827" lon="0.48389">
        <ele>131.95992110204</ele>
        <time>2021-09-13T06:28:20Z</time>
      </trkpt>
      <trkpt lat="46.44829" lon="0.48391">
        <ele>131.46193698235</ele>
        <time>2021-09-13T06:28:22Z</time>
      </trkpt>
      <trkpt lat="46.44831" lon="0.48393">
        <ele>131.55880186148</ele>
        <time>2021-09-13T06:28:24Z</time>
      </trkpt>
      <trkpt lat="46.44833" lon="0.48394">
        <ele>131.52331430465</ele>
        <time>2021-09-13T06:28:26Z</time>
      </trkpt>
      <trkpt lat="46.44835" lon="0.48397">
        <ele>131.80192527175</ele>
        <time>2021-09-13T06:28:28Z</time>
      </trkpt>
      <trkpt lat="46.44837" lon="0.48399">
        <ele>131.63771235477</ele>
        <time>2021-09-13T06:28:30Z</time>
      </trkpt>
      <trkpt lat="46.44838" lon="0.48402">
        <ele>131.92350024451</ele>
        <time>2021-09-13T06:28:32Z</time>
      </trkpt>
      <trkpt lat="46.4484" lon="0.48404">
        <ele>131.86781766452</ele>
        <time>2021-09-13T06:28:35Z</time>
      </trkpt>
      <trkpt lat="46.44842" lon="0.48406">
        <ele>131.53941998351</ele>
        <time>2021-09-13T06:28:37Z</time>
      </trkpt>
      <trkpt lat="46.44844" lon="0.48408">
        <ele>131.97860453743</ele>
        <time>2021-09-13T06:28:39Z</time>
      </trkpt>
      <trkpt lat="46.44846" lon="0.4841">
        <ele>131.6011614874</ele>
        <time>2021-09-13T06:28:41Z</time>
      </trkpt>
      <trkpt lat="46.44847" lon="0.48412">
        <ele>131.95210828539</ele>
        <time>2021-09-13T06:28:43Z</time>
      </trkpt>
      <trkpt lat="46.44849" lon="0.48414">
        <ele>131.85173243936</ele>
        <time>2021-09-13T06:28:45Z</time>
      </trkpt>
      <trkpt lat="46.44851" lon="0.48416">
        <ele>132.0129822623</ele>
        <time>2021-09-13T06:28:47Z</time>
      </trkpt>
      <trkpt lat="46.44852" lon="0.48418">
        <ele>132.13295191899</ele>
        <time>2021-09-13T06:28:49Z</time>
      </trkpt>
      <trkpt lat="46.44854" lon="0.4842">
        <ele>132.16828109697</ele>
        <time>2021-09-13T06:28:51Z</time>
      </trkpt>
      <trkpt lat="46.44856" lon="0.48422">
        <ele>132.01688414346</ele>
        <time>2021-09-13T06:28:54Z</time>
      </trkpt>
      <trkpt lat="46.44858" lon="0.48425">
        <ele>132.39112838451</ele>
        <time>2021-09-13T06:28:56Z</time>
      </trkpt>
      <trkpt lat="46.4486" lon="0.48428">
        <ele>132.71781246644</ele>
        <time>2021-09-13T06:28:58Z</time>
      </trkpt>
      <trkpt lat="46.44863" lon="0.48431">
        <ele>132.16880636197</ele>
        <time>2021-09-13T06:29:01Z</time>
      </trkpt>
      <trkpt lat="46.44864" lon="0.48433">
        <ele>132.47635314893</ele>
        <time>2021-09-13T06:29:03Z</time>
      </trkpt>
      <trkpt lat="46.44867" lon="0.48435">
        <ele>132.70499110036</ele>
        <time>2021-09-13T06:29:05Z</time>
      </trkpt>
      <trkpt lat="46.44868" lon="0.48437">
        <ele>132.60407782998</ele>
        <time>2021-09-13T06:29:07Z</time>
      </trkpt>
      <trkpt lat="46.44872" lon="0.4844">
        <ele>132.38454589713</ele>
        <time>2021-09-13T06:29:10Z</time>
      </trkpt>
      <trkpt lat="46.44873" lon="0.48443">
        <ele>132.60413117241</ele>
        <time>2021-09-13T06:29:12Z</time>
      </trkpt>
      <trkpt lat="46.44875" lon="0.48446">
        <ele>132.62118313275</ele>
        <time>2021-09-13T06:29:14Z</time>
      </trkpt>
      <trkpt lat="46.44876" lon="0.48448">
        <ele>133.0558530204</ele>
        <time>2021-09-13T06:29:16Z</time>
      </trkpt>
      <trkpt lat="46.44878" lon="0.4845">
        <ele>132.88416162413</ele>
        <time>2021-09-13T06:29:19Z</time>
      </trkpt>
      <trkpt lat="46.4488" lon="0.48451">
        <ele>132.45259467233</ele>
        <time>2021-09-13T06:29:21Z</time>
      </trkpt>
      <trkpt lat="46.44882" lon="0.48453">
        <ele>132.70156997722</ele>
        <time>2021-09-13T06:29:23Z</time>
      </trkpt>
      <trkpt lat="46.44884" lon="0.48455">
        <ele>132.56816987135</ele>
        <time>2021-09-13T06:29:25Z</time>
      </trkpt>
      <trkpt lat="46.44886" lon="0.48457">
        <ele>132.58564800397</ele>
        <time>2021-09-13T06:29:27Z</time>
      </trkpt>
      <trkpt lat="46.44888" lon="0.4846">
        <ele>132.71790616773</ele>
        <time>2021-09-13T06:29:29Z</time>
      </trkpt>
      <trkpt lat="46.4489" lon="0.48461">
        <ele>132.34836796392</ele>
        <time>2021-09-13T06:29:31Z</time>
      </trkpt>
      <trkpt lat="46.44892" lon="0.48462">
        <ele>132.98797649704</ele>
        <time>2021-09-13T06:29:33Z</time>
      </trkpt>
      <trkpt lat="46.44894" lon="0.48464">
        <ele>132.39381142892</ele>
        <time>2021-09-13T06:29:35Z</time>
      </trkpt>
      <trkpt lat="46.44896" lon="0.48466">
        <ele>132.3200084148</ele>
        <time>2021-09-13T06:29:37Z</time>
      </trkpt>
      <trkpt lat="46.44898" lon="0.48468">
        <ele>132.54655912332</ele>
        <time>2021-09-13T06:29:39Z</time>
      </trkpt>
      <trkpt lat="46.44899" lon="0.4847">
        <ele>132.63561713137</ele>
        <time>2021-09-13T06:29:41Z</time>
      </trkpt>
      <trkpt lat="46.44901" lon="0.48472">
        <ele>132.22634826787</ele>
        <time>2021-09-13T06:29:43Z</time>
      </trkpt>
      <trkpt lat="46.44904" lon="0.48473">
        <ele>132.89703711495</ele>
        <time>2021-09-13T06:29:45Z</time>
      </trkpt>
      <trkpt lat="46.44906" lon="0.48475">
        <ele>132.18225933891</ele>
        <time>2021-09-13T06:29:47Z</time>
      </trkpt>
      <trkpt lat="46.44908" lon="0.48477">
        <ele>132.14781949576</ele>
        <time>2021-09-13T06:29:49Z</time>
      </trkpt>
      <trkpt lat="46.4491" lon="0.48478">
        <ele>132.59964622557</ele>
        <time>2021-09-13T06:29:51Z</time>
      </trkpt>
      <trkpt lat="46.44911" lon="0.4848">
        <ele>132.39258084632</ele>
        <time>2021-09-13T06:29:53Z</time>
      </trkpt>
      <trkpt lat="46.44913" lon="0.48482">
        <ele>132.44499064423</ele>
        <time>2021-09-13T06:29:55Z</time>
      </trkpt>
      <trkpt lat="46.44916" lon="0.48484">
        <ele>132.27606567554</ele>
        <time>2021-09-13T06:29:57Z</time>
      </trkpt>
      <trkpt lat="46.44918" lon="0.48486">
        <ele>131.88072520401</ele>
        <time>2021-09-13T06:30:00Z</time>
      </trkpt>
      <trkpt lat="46.4492" lon="0.48489">
        <ele>132.66389020439</ele>
        <time>2021-09-13T06:30:02Z</time>
      </trkpt>
      <trkpt lat="46.44921" lon="0.4849">
        <ele>132.35904792883</ele>
        <time>2021-09-13T06:30:04Z</time>
      </trkpt>
      <trkpt lat="46.44923" lon="0.48493">
        <ele>132.23811059631</ele>
        <time>2021-09-13T06:30:06Z</time>
      </trkpt>
      <trkpt lat="46.44925" lon="0.48495">
        <ele>132.28417288791</ele>
        <time>2021-09-13T06:30:08Z</time>
      </trkpt>
      <trkpt lat="46.44927" lon="0.48497">
        <ele>132.55165460799</ele>
        <time>2021-09-13T06:30:10Z</time>
      </trkpt>
      <trkpt lat="46.44929" lon="0.485">
        <ele>132.38171197847</ele>
        <time>2021-09-13T06:30:12Z</time>
      </trkpt>
      <trkpt lat="46.4493" lon="0.48503">
        <ele>132.41332493071</ele>
        <time>2021-09-13T06:30:14Z</time>
      </trkpt>
      <trkpt lat="46.44933" lon="0.48505">
        <ele>132.45582003612</ele>
        <time>2021-09-13T06:30:16Z</time>
      </trkpt>
      <trkpt lat="46.44935" lon="0.48508">
        <ele>132.58775350917</ele>
        <time>2021-09-13T06:30:18Z</time>
      </trkpt>
      <trkpt lat="46.44936" lon="0.4851">
        <ele>132.5884914156</ele>
        <time>2021-09-13T06:30:20Z</time>
      </trkpt>
      <trkpt lat="46.44939" lon="0.48513">
        <ele>132.35460431594</ele>
        <time>2021-09-13T06:30:22Z</time>
      </trkpt>
      <trkpt lat="46.44941" lon="0.48515">
        <ele>133.08882686496</ele>
        <time>2021-09-13T06:30:24Z</time>
      </trkpt>
      <trkpt lat="46.44943" lon="0.48518">
        <ele>132.39864343964</ele>
        <time>2021-09-13T06:30:26Z</time>
      </trkpt>
      <trkpt lat="46.44944" lon="0.4852">
        <ele>132.33649363648</ele>
        <time>2021-09-13T06:30:28Z</time>
      </trkpt>
      <trkpt lat="46.44946" lon="0.48522">
        <ele>132.57104890421</ele>
        <time>2021-09-13T06:30:30Z</time>
      </trkpt>
      <trkpt lat="46.44948" lon="0.48524">
        <ele>132.76408186927</ele>
        <time>2021-09-13T06:30:32Z</time>
      </trkpt>
      <trkpt lat="46.4495" lon="0.48527">
        <ele>132.38813415263</ele>
        <time>2021-09-13T06:30:34Z</time>
      </trkpt>
      <trkpt lat="46.44951" lon="0.48529">
        <ele>132.63936691731</ele>
        <time>2021-09-13T06:30:36Z</time>
      </trkpt>
      <trkpt lat="46.44953" lon="0.48531">
        <ele>132.53693361022</ele>
        <time>2021-09-13T06:30:38Z</time>
      </trkpt>
      <trkpt lat="46.44955" lon="0.48533">
        <ele>132.2866201438</ele>
        <time>2021-09-13T06:30:40Z</time>
      </trkpt>
      <trkpt lat="46.44957" lon="0.48535">
        <ele>132.43219898455</ele>
        <time>2021-09-13T06:30:42Z</time>
      </trkpt>
      <trkpt lat="46.44959" lon="0.48538">
        <ele>132.45877954736</ele>
        <time>2021-09-13T06:30:44Z</time>
      </trkpt>
      <trkpt lat="46.44961" lon="0.4854">
        <ele>132.33527086955</ele>
        <time>2021-09-13T06:30:46Z</time>
      </trkpt>
      <trkpt lat="46.44963" lon="0.48542">
        <ele>132.81376928277</ele>
        <time>2021-09-13T06:30:48Z</time>
      </trkpt>
      <trkpt lat="46.44965" lon="0.48545">
        <ele>132.55997832306</ele>
        <time>2021-09-13T06:30:50Z</time>
      </trkpt>
      <trkpt lat="46.44966" lon="0.48547">
        <ele>132.61339559499</ele>
        <time>2021-09-13T06:30:52Z</time>
      </trkpt>
      <trkpt lat="46.44968" lon="0.48549">
        <ele>132.30186365917</ele>
        <time>2021-09-13T06:30:54Z</time>
      </trkpt>
      <trkpt lat="46.4497" lon="0.4855">
        <ele>132.13771605119</ele>
        <time>2021-09-13T06:30:56Z</time>
      </trkpt>
      <trkpt lat="46.44972" lon="0.48552">
        <ele>132.43093550112</ele>
        <time>2021-09-13T06:30:58Z</time>
      </trkpt>
      <trkpt lat="46.44974" lon="0.48554">
        <ele>132.66060124524</ele>
        <time>2021-09-13T06:31:00Z</time>
      </trkpt>
      <trkpt lat="46.44976" lon="0.48555">
        <ele>132.61510452069</ele>
        <time>2021-09-13T06:31:02Z</time>
      </trkpt>
      <trkpt lat="46.44978" lon="0.48558">
        <ele>133.14738920238</ele>
        <time>2021-09-13T06:31:04Z</time>
      </trkpt>
      <trkpt lat="46.44981" lon="0.48559">
        <ele>132.84971751086</ele>
        <time>2021-09-13T06:31:07Z</time>
      </trkpt>
      <trkpt lat="46.44983" lon="0.48561">
        <ele>132.58751974069</ele>
        <time>2021-09-13T06:31:09Z</time>
      </trkpt>
      <trkpt lat="46.44985" lon="0.48562">
        <ele>132.93405613024</ele>
        <time>2021-09-13T06:31:11Z</time>
      </trkpt>
      <trkpt lat="46.44987" lon="0.48566">
        <ele>132.92183770798</ele>
        <time>2021-09-13T06:31:14Z</time>
      </trkpt>
      <trkpt lat="46.44988" lon="0.48569">
        <ele>133.41033565719</ele>
        <time>2021-09-13T06:31:16Z</time>
      </trkpt>
      <trkpt lat="46.44989" lon="0.48572">
        <ele>133.59897171613</ele>
        <time>2021-09-13T06:31:18Z</time>
      </trkpt>
      <trkpt lat="46.44991" lon="0.48574">
        <ele>133.61619969178</ele>
        <time>2021-09-13T06:31:20Z</time>
      </trkpt>
      <trkpt lat="46.44993" lon="0.48577">
        <ele>133.11327929609</ele>
        <time>2021-09-13T06:31:22Z</time>
      </trkpt>
      <trkpt lat="46.44994" lon="0.48579">
        <ele>133.56056280807</ele>
        <time>2021-09-13T06:31:24Z</time>
      </trkpt>
      <trkpt lat="46.44997" lon="0.48582">
        <ele>133.7883512089</ele>
        <time>2021-09-13T06:31:26Z</time>
      </trkpt>
      <trkpt lat="46.44998" lon="0.48584">
        <ele>133.63161096256</ele>
        <time>2021-09-13T06:31:28Z</time>
      </trkpt>
      <trkpt lat="46.45" lon="0.48585">
        <ele>133.44793335441</ele>
        <time>2021-09-13T06:31:30Z</time>
      </trkpt>
      <trkpt lat="46.45001" lon="0.48587">
        <ele>133.83202002198</ele>
        <time>2021-09-13T06:31:32Z</time>
      </trkpt>
      <trkpt lat="46.45003" lon="0.48588">
        <ele>133.49041052163</ele>
        <time>2021-09-13T06:31:34Z</time>
      </trkpt>
      <trkpt lat="46.45005" lon="0.48591">
        <ele>133.6596019771</ele>
        <time>2021-09-13T06:31:36Z</time>
      </trkpt>
      <trkpt lat="46.45007" lon="0.48593">
        <ele>133.59055455681</ele>
        <time>2021-09-13T06:31:38Z</time>
      </trkpt>
      <trkpt lat="46.45009" lon="0.48595">
        <ele>133.71513947286</ele>
        <time>2021-09-13T06:31:40Z</time>
      </trkpt>
      <trkpt lat="46.45011" lon="0.48597">
        <ele>133.69296080805</ele>
        <time>2021-09-13T06:31:42Z</time>
      </trkpt>
      <trkpt lat="46.45012" lon="0.48599">
        <ele>133.65964193176</ele>
        <time>2021-09-13T06:31:44Z</time>
      </trkpt>
      <trkpt lat="46.45014" lon="0.48601">
        <ele>133.60853433609</ele>
        <time>2021-09-13T06:31:46Z</time>
      </trkpt>
      <trkpt lat="46.45016" lon="0.48603">
        <ele>133.55352020077</ele>
        <time>2021-09-13T06:31:48Z</time>
      </trkpt>
      <trkpt lat="46.45017" lon="0.48605">
        <ele>133.484679332</ele>
        <time>2021-09-13T06:31:50Z</time>
      </trkpt>
      <trkpt lat="46.45019" lon="0.48608">
        <ele>133.62427776773</ele>
        <time>2021-09-13T06:31:52Z</time>
      </trkpt>
      <trkpt lat="46.45021" lon="0.48611">
        <ele>133.44852205832</ele>
        <time>2021-09-13T06:31:54Z</time>
      </trkpt>
      <trkpt lat="46.45023" lon="0.48613">
        <ele>133.80614233296</ele>
        <time>2021-09-13T06:31:56Z</time>
      </trkpt>
      <trkpt lat="46.45024" lon="0.48616">
        <ele>133.53370660171</ele>
        <time>2021-09-13T06:31:58Z</time>
      </trkpt>
      <trkpt lat="46.45027" lon="0.48617">
        <ele>133.49252414331</ele>
        <time>2021-09-13T06:32:00Z</time>
      </trkpt>
      <trkpt lat="46.45029" lon="0.48619">
        <ele>133.32140871882</ele>
        <time>2021-09-13T06:32:02Z</time>
      </trkpt>
      <trkpt lat="46.45031" lon="0.48622">
        <ele>133.56265314482</ele>
        <time>2021-09-13T06:32:04Z</time>
      </trkpt>
      <trkpt lat="46.45032" lon="0.48624">
        <ele>133.54571198113</ele>
        <time>2021-09-13T06:32:06Z</time>
      </trkpt>
      <trkpt lat="46.45034" lon="0.48627">
        <ele>133.41651250888</ele>
        <time>2021-09-13T06:32:08Z</time>
      </trkpt>
      <trkpt lat="46.45036" lon="0.48629">
        <ele>133.63579886034</ele>
        <time>2021-09-13T06:32:10Z</time>
      </trkpt>
      <trkpt lat="46.45038" lon="0.48632">
        <ele>133.39082927443</ele>
        <time>2021-09-13T06:32:13Z</time>
      </trkpt>
      <trkpt lat="46.45039" lon="0.48634">
        <ele>133.56525061093</ele>
        <time>2021-09-13T06:32:15Z</time>
      </trkpt>
      <trkpt lat="46.4504" lon="0.48637">
        <ele>133.71098965686</ele>
        <time>2021-09-13T06:32:17Z</time>
      </trkpt>
      <trkpt lat="46.45042" lon="0.4864">
        <ele>134.07646353729</ele>
        <time>2021-09-13T06:32:19Z</time>
      </trkpt>
      <trkpt lat="46.45044" lon="0.48642">
        <ele>133.32275605761</ele>
        <time>2021-09-13T06:32:21Z</time>
      </trkpt>
      <trkpt lat="46.45045" lon="0.48645">
        <ele>133.39199495036</ele>
        <time>2021-09-13T06:32:23Z</time>
      </trkpt>
      <trkpt lat="46.45047" lon="0.48647">
        <ele>133.80336574838</ele>
        <time>2021-09-13T06:32:25Z</time>
      </trkpt>
      <trkpt lat="46.45049" lon="0.4865">
        <ele>133.56734712608</ele>
        <time>2021-09-13T06:32:27Z</time>
      </trkpt>
      <trkpt lat="46.45051" lon="0.48653">
        <ele>133.55800761096</ele>
        <time>2021-09-13T06:32:29Z</time>
      </trkpt>
      <trkpt lat="46.45052" lon="0.48655">
        <ele>133.31431107689</ele>
        <time>2021-09-13T06:32:31Z</time>
      </trkpt>
      <trkpt lat="46.45054" lon="0.48658">
        <ele>134.42211824376</ele>
        <time>2021-09-13T06:32:33Z</time>
      </trkpt>
      <trkpt lat="46.45055" lon="0.4866">
        <ele>133.20783432387</ele>
        <time>2021-09-13T06:32:35Z</time>
      </trkpt>
      <trkpt lat="46.45057" lon="0.48662">
        <ele>133.57460725494</ele>
        <time>2021-09-13T06:32:37Z</time>
      </trkpt>
      <trkpt lat="46.45059" lon="0.48665">
        <ele>133.01685795002</ele>
        <time>2021-09-13T06:32:39Z</time>
      </trkpt>
      <trkpt lat="46.45061" lon="0.48668">
        <ele>134.20006022416</ele>
        <time>2021-09-13T06:32:41Z</time>
      </trkpt>
      <trkpt lat="46.45062" lon="0.4867">
        <ele>133.56194386445</ele>
        <time>2021-09-13T06:32:43Z</time>
      </trkpt>
      <trkpt lat="46.45064" lon="0.48673">
        <ele>133.82282673847</ele>
        <time>2021-09-13T06:32:45Z</time>
      </trkpt>
      <trkpt lat="46.45066" lon="0.48675">
        <ele>134.16799428966</ele>
        <time>2021-09-13T06:32:47Z</time>
      </trkpt>
      <trkpt lat="46.45067" lon="0.48678">
        <ele>133.08602203988</ele>
        <time>2021-09-13T06:32:49Z</time>
      </trkpt>
      <trkpt lat="46.45069" lon="0.4868">
        <ele>133.27804427873</ele>
        <time>2021-09-13T06:32:51Z</time>
      </trkpt>
      <trkpt lat="46.45071" lon="0.48683">
        <ele>133.54428941384</ele>
        <time>2021-09-13T06:32:53Z</time>
      </trkpt>
      <trkpt lat="46.45073" lon="0.48685">
        <ele>133.56039501168</ele>
        <time>2021-09-13T06:32:55Z</time>
      </trkpt>
      <trkpt lat="46.45074" lon="0.48688">
        <ele>133.65201269463</ele>
        <time>2021-09-13T06:32:57Z</time>
      </trkpt>
      <trkpt lat="46.45076" lon="0.4869">
        <ele>134.18348019198</ele>
        <time>2021-09-13T06:32:59Z</time>
      </trkpt>
      <trkpt lat="46.45077" lon="0.48693">
        <ele>133.96289256867</ele>
        <time>2021-09-13T06:33:01Z</time>
      </trkpt>
      <trkpt lat="46.45079" lon="0.48696">
        <ele>133.69256816898</ele>
        <time>2021-09-13T06:33:03Z</time>
      </trkpt>
      <trkpt lat="46.45081" lon="0.48699">
        <ele>133.21857414395</ele>
        <time>2021-09-13T06:33:05Z</time>
      </trkpt>
      <trkpt lat="46.45083" lon="0.48701">
        <ele>133.29655482061</ele>
        <time>2021-09-13T06:33:07Z</time>
      </trkpt>
      <trkpt lat="46.45084" lon="0.48704">
        <ele>133.38766802475</ele>
        <time>2021-09-13T06:33:09Z</time>
      </trkpt>
      <trkpt lat="46.45086" lon="0.48706">
        <ele>133.58413748629</ele>
        <time>2021-09-13T06:33:11Z</time>
      </trkpt>
      <trkpt lat="46.45088" lon="0.48708">
        <ele>133.62224111427</ele>
        <time>2021-09-13T06:33:13Z</time>
      </trkpt>
      <trkpt lat="46.45089" lon="0.48711">
        <ele>133.25390646141</ele>
        <time>2021-09-13T06:33:15Z</time>
      </trkpt>
      <trkpt lat="46.45091" lon="0.48713">
        <ele>133.30339994095</ele>
        <time>2021-09-13T06:33:17Z</time>
      </trkpt>
      <trkpt lat="46.45093" lon="0.48716">
        <ele>133.0720514264</ele>
        <time>2021-09-13T06:33:19Z</time>
      </trkpt>
      <trkpt lat="46.45094" lon="0.48718">
        <ele>133.0060206037</ele>
        <time>2021-09-13T06:33:21Z</time>
      </trkpt>
      <trkpt lat="46.45096" lon="0.48721">
        <ele>133.3808710454</ele>
        <time>2021-09-13T06:33:23Z</time>
      </trkpt>
      <trkpt lat="46.45098" lon="0.48724">
        <ele>133.15897470061</ele>
        <time>2021-09-13T06:33:25Z</time>
      </trkpt>
      <trkpt lat="46.451" lon="0.48726">
        <ele>132.38214266207</ele>
        <time>2021-09-13T06:33:27Z</time>
      </trkpt>
      <trkpt lat="46.45101" lon="0.48728">
        <ele>132.32213582937</ele>
        <time>2021-09-13T06:33:29Z</time>
      </trkpt>
      <trkpt lat="46.45103" lon="0.48731">
        <ele>132.31610941328</ele>
        <time>2021-09-13T06:33:31Z</time>
      </trkpt>
      <trkpt lat="46.45105" lon="0.48734">
        <ele>132.23178404849</ele>
        <time>2021-09-13T06:33:33Z</time>
      </trkpt>
      <trkpt lat="46.45106" lon="0.48736">
        <ele>133.41187157482</ele>
        <time>2021-09-13T06:33:35Z</time>
      </trkpt>
      <trkpt lat="46.45108" lon="0.48738">
        <ele>132.31829996686</ele>
        <time>2021-09-13T06:33:37Z</time>
      </trkpt>
      <trkpt lat="46.45109" lon="0.48741">
        <ele>132.3992328858</ele>
        <time>2021-09-13T06:33:39Z</time>
      </trkpt>
      <trkpt lat="46.45111" lon="0.48743">
        <ele>132.58841452375</ele>
        <time>2021-09-13T06:33:41Z</time>
      </trkpt>
      <trkpt lat="46.45113" lon="0.48745">
        <ele>132.14862291049</ele>
        <time>2021-09-13T06:33:43Z</time>
      </trkpt>
      <trkpt lat="46.45115" lon="0.48748">
        <ele>133.09850307833</ele>
        <time>2021-09-13T06:33:45Z</time>
      </trkpt>
      <trkpt lat="46.45117" lon="0.4875">
        <ele>131.87688266393</ele>
        <time>2021-09-13T06:33:48Z</time>
      </trkpt>
      <trkpt lat="46.45118" lon="0.48753">
        <ele>132.48944912944</ele>
        <time>2021-09-13T06:33:50Z</time>
      </trkpt>
      <trkpt lat="46.4512" lon="0.48756">
        <ele>132.42431227118</ele>
        <time>2021-09-13T06:33:52Z</time>
      </trkpt>
      <trkpt lat="46.45122" lon="0.48758">
        <ele>132.538764745</ele>
        <time>2021-09-13T06:33:54Z</time>
      </trkpt>
      <trkpt lat="46.45123" lon="0.48761">
        <ele>132.80041153729</ele>
        <time>2021-09-13T06:33:56Z</time>
      </trkpt>
      <trkpt lat="46.45125" lon="0.48763">
        <ele>132.44576503895</ele>
        <time>2021-09-13T06:33:58Z</time>
      </trkpt>
      <trkpt lat="46.45127" lon="0.48766">
        <ele>132.70263577159</ele>
        <time>2021-09-13T06:34:00Z</time>
      </trkpt>
      <trkpt lat="46.45129" lon="0.48768">
        <ele>132.8237555651</ele>
        <time>2021-09-13T06:34:02Z</time>
      </trkpt>
      <trkpt lat="46.4513" lon="0.4877">
        <ele>132.70937352255</ele>
        <time>2021-09-13T06:34:04Z</time>
      </trkpt>
      <trkpt lat="46.45131" lon="0.48773">
        <ele>132.51229519863</ele>
        <time>2021-09-13T06:34:06Z</time>
      </trkpt>
      <trkpt lat="46.45133" lon="0.48776">
        <ele>133.0361153651</ele>
        <time>2021-09-13T06:34:08Z</time>
      </trkpt>
      <trkpt lat="46.45135" lon="0.48778">
        <ele>132.27602590621</ele>
        <time>2021-09-13T06:34:10Z</time>
      </trkpt>
      <trkpt lat="46.45137" lon="0.4878">
        <ele>132.50149848405</ele>
        <time>2021-09-13T06:34:12Z</time>
      </trkpt>
      <trkpt lat="46.45139" lon="0.48783">
        <ele>133.02882777154</ele>
        <time>2021-09-13T06:34:14Z</time>
      </trkpt>
      <trkpt lat="46.4514" lon="0.48785">
        <ele>132.5352711305</ele>
        <time>2021-09-13T06:34:16Z</time>
      </trkpt>
      <trkpt lat="46.45142" lon="0.48788">
        <ele>132.34544511233</ele>
        <time>2021-09-13T06:34:18Z</time>
      </trkpt>
      <trkpt lat="46.45143" lon="0.48791">
        <ele>132.32994764112</ele>
        <time>2021-09-13T06:34:20Z</time>
      </trkpt>
      <trkpt lat="46.45145" lon="0.48792">
        <ele>132.10981934145</ele>
        <time>2021-09-13T06:34:22Z</time>
      </trkpt>
      <trkpt lat="46.45147" lon="0.48794">
        <ele>132.4499220727</ele>
        <time>2021-09-13T06:34:24Z</time>
      </trkpt>
      <trkpt lat="46.45149" lon="0.48796">
        <ele>132.79425899033</ele>
        <time>2021-09-13T06:34:26Z</time>
      </trkpt>
      <trkpt lat="46.4515" lon="0.48798">
        <ele>132.54486325569</ele>
        <time>2021-09-13T06:34:28Z</time>
      </trkpt>
      <trkpt lat="46.45152" lon="0.48801">
        <ele>132.53975066915</ele>
        <time>2021-09-13T06:34:30Z</time>
      </trkpt>
      <trkpt lat="46.45154" lon="0.48803">
        <ele>132.69679426495</ele>
        <time>2021-09-13T06:34:32Z</time>
      </trkpt>
      <trkpt lat="46.45156" lon="0.48804">
        <ele>132.52059384342</ele>
        <time>2021-09-13T06:34:34Z</time>
      </trkpt>
      <trkpt lat="46.45158" lon="0.48806">
        <ele>132.94162611291</ele>
        <time>2021-09-13T06:34:36Z</time>
      </trkpt>
      <trkpt lat="46.45161" lon="0.48808">
        <ele>132.48214465939</ele>
        <time>2021-09-13T06:34:38Z</time>
      </trkpt>
      <trkpt lat="46.45163" lon="0.48809">
        <ele>132.38922606502</ele>
        <time>2021-09-13T06:34:40Z</time>
      </trkpt>
      <trkpt lat="46.45165" lon="0.48811">
        <ele>133.16921644006</ele>
        <time>2021-09-13T06:34:42Z</time>
      </trkpt>
      <trkpt lat="46.45167" lon="0.48812">
        <ele>132.47305800859</ele>
        <time>2021-09-13T06:34:44Z</time>
      </trkpt>
      <trkpt lat="46.45169" lon="0.48814">
        <ele>132.84579017386</ele>
        <time>2021-09-13T06:34:46Z</time>
      </trkpt>
      <trkpt lat="46.45171" lon="0.48815">
        <ele>132.31352621503</ele>
        <time>2021-09-13T06:34:48Z</time>
      </trkpt>
      <trkpt lat="46.45174" lon="0.48816">
        <ele>132.34912234824</ele>
        <time>2021-09-13T06:34:50Z</time>
      </trkpt>
      <trkpt lat="46.45176" lon="0.48817">
        <ele>132.18131378293</ele>
        <time>2021-09-13T06:34:52Z</time>
      </trkpt>
      <trkpt lat="46.45178" lon="0.48818">
        <ele>132.46858033631</ele>
        <time>2021-09-13T06:34:54Z</time>
      </trkpt>
      <trkpt lat="46.4518" lon="0.48819">
        <ele>132.12698711734</ele>
        <time>2021-09-13T06:34:56Z</time>
      </trkpt>
      <trkpt lat="46.45182" lon="0.48821">
        <ele>132.53938700911</ele>
        <time>2021-09-13T06:34:58Z</time>
      </trkpt>
      <trkpt lat="46.45185" lon="0.48822">
        <ele>132.56326247286</ele>
        <time>2021-09-13T06:35:00Z</time>
      </trkpt>
      <trkpt lat="46.45187" lon="0.48823">
        <ele>132.68482815009</ele>
        <time>2021-09-13T06:35:02Z</time>
      </trkpt>
      <trkpt lat="46.45189" lon="0.48825">
        <ele>132.8634879021</ele>
        <time>2021-09-13T06:35:04Z</time>
      </trkpt>
      <trkpt lat="46.45191" lon="0.48826">
        <ele>132.32445755042</ele>
        <time>2021-09-13T06:35:06Z</time>
      </trkpt>
      <trkpt lat="46.45194" lon="0.48828">
        <ele>132.41185555793</ele>
        <time>2021-09-13T06:35:08Z</time>
      </trkpt>
      <trkpt lat="46.45196" lon="0.4883">
        <ele>132.52841793001</ele>
        <time>2021-09-13T06:35:11Z</time>
      </trkpt>
      <trkpt lat="46.45199" lon="0.48832">
        <ele>132.79762242455</ele>
        <time>2021-09-13T06:35:13Z</time>
      </trkpt>
      <trkpt lat="46.45201" lon="0.48833">
        <ele>132.60187996272</ele>
        <time>2021-09-13T06:35:15Z</time>
      </trkpt>
      <trkpt lat="46.45203" lon="0.48834">
        <ele>131.77830742858</ele>
        <time>2021-09-13T06:35:17Z</time>
      </trkpt>
      <trkpt lat="46.45205" lon="0.48835">
        <ele>131.95677804668</ele>
        <time>2021-09-13T06:35:19Z</time>
      </trkpt>
      <trkpt lat="46.45206" lon="0.48837">
        <ele>132.05490599014</ele>
        <time>2021-09-13T06:35:21Z</time>
      </trkpt>
      <trkpt lat="46.45208" lon="0.48838">
        <ele>131.84141080175</ele>
        <time>2021-09-13T06:35:23Z</time>
      </trkpt>
      <trkpt lat="46.4521" lon="0.4884">
        <ele>132.9878125554</ele>
        <time>2021-09-13T06:35:25Z</time>
      </trkpt>
      <trkpt lat="46.45213" lon="0.48841">
        <ele>132.03323674295</ele>
        <time>2021-09-13T06:35:27Z</time>
      </trkpt>
      <trkpt lat="46.45214" lon="0.48843">
        <ele>131.8392282445</ele>
        <time>2021-09-13T06:35:29Z</time>
      </trkpt>
      <trkpt lat="46.45217" lon="0.48844">
        <ele>131.8780646706</ele>
        <time>2021-09-13T06:35:31Z</time>
      </trkpt>
      <trkpt lat="46.45219" lon="0.48846">
        <ele>131.73347784951</ele>
        <time>2021-09-13T06:35:33Z</time>
      </trkpt>
      <trkpt lat="46.45221" lon="0.48847">
        <ele>131.35001138784</ele>
        <time>2021-09-13T06:35:35Z</time>
      </trkpt>
      <trkpt lat="46.45223" lon="0.48849">
        <ele>131.50582695846</ele>
        <time>2021-09-13T06:35:37Z</time>
      </trkpt>
      <trkpt lat="46.45226" lon="0.4885">
        <ele>131.76338371821</ele>
        <time>2021-09-13T06:35:39Z</time>
      </trkpt>
      <trkpt lat="46.45228" lon="0.48851">
        <ele>131.77209341805</ele>
        <time>2021-09-13T06:35:41Z</time>
      </trkpt>
      <trkpt lat="46.4523" lon="0.48851">
        <ele>131.77255064622</ele>
        <time>2021-09-13T06:35:43Z</time>
      </trkpt>
      <trkpt lat="46.45232" lon="0.48852">
        <ele>131.03459521569</ele>
        <time>2021-09-13T06:35:45Z</time>
      </trkpt>
      <trkpt lat="46.45235" lon="0.48854">
        <ele>132.21523876116</ele>
        <time>2021-09-13T06:35:47Z</time>
      </trkpt>
      <trkpt lat="46.45236" lon="0.48855">
        <ele>131.43896873575</ele>
        <time>2021-09-13T06:35:49Z</time>
      </trkpt>
      <trkpt lat="46.45238" lon="0.48856">
        <ele>131.2483710004</ele>
        <time>2021-09-13T06:35:51Z</time>
      </trkpt>
      <trkpt lat="46.4524" lon="0.48858">
        <ele>131.4986141501</ele>
        <time>2021-09-13T06:35:53Z</time>
      </trkpt>
      <trkpt lat="46.45243" lon="0.4886">
        <ele>131.80645025615</ele>
        <time>2021-09-13T06:35:55Z</time>
      </trkpt>
      <trkpt lat="46.45245" lon="0.48861">
        <ele>131.61892855447</ele>
        <time>2021-09-13T06:35:57Z</time>
      </trkpt>
      <trkpt lat="46.45247" lon="0.48863">
        <ele>131.65306913294</ele>
        <time>2021-09-13T06:35:59Z</time>
      </trkpt>
      <trkpt lat="46.45249" lon="0.48864">
        <ele>132.15953876544</ele>
        <time>2021-09-13T06:36:01Z</time>
      </trkpt>
      <trkpt lat="46.4525" lon="0.48866">
        <ele>131.53538338933</ele>
        <time>2021-09-13T06:36:03Z</time>
      </trkpt>
      <trkpt lat="46.45252" lon="0.48868">
        <ele>131.46683289483</ele>
        <time>2021-09-13T06:36:05Z</time>
      </trkpt>
      <trkpt lat="46.45254" lon="0.48869">
        <ele>131.26650560927</ele>
        <time>2021-09-13T06:36:07Z</time>
      </trkpt>
      <trkpt lat="46.45256" lon="0.4887">
        <ele>130.872643888</ele>
        <time>2021-09-13T06:36:10Z</time>
      </trkpt>
      <trkpt lat="46.45258" lon="0.48872">
        <ele>131.28554567415</ele>
        <time>2021-09-13T06:36:11Z</time>
      </trkpt>
      <trkpt lat="46.4526" lon="0.48873">
        <ele>131.60988164507</ele>
        <time>2021-09-13T06:36:13Z</time>
      </trkpt>
      <trkpt lat="46.45262" lon="0.48875">
        <ele>130.99774041027</ele>
        <time>2021-09-13T06:36:15Z</time>
      </trkpt>
      <trkpt lat="46.45264" lon="0.48876">
        <ele>131.23502932675</ele>
        <time>2021-09-13T06:36:17Z</time>
      </trkpt>
      <trkpt lat="46.45266" lon="0.48878">
        <ele>130.84374276828</ele>
        <time>2021-09-13T06:36:19Z</time>
      </trkpt>
      <trkpt lat="46.45267" lon="0.4888">
        <ele>130.86982563324</ele>
        <time>2021-09-13T06:36:21Z</time>
      </trkpt>
      <trkpt lat="46.45269" lon="0.48882">
        <ele>130.83151240926</ele>
        <time>2021-09-13T06:36:23Z</time>
      </trkpt>
      <trkpt lat="46.45271" lon="0.48884">
        <ele>130.19547188655</ele>
        <time>2021-09-13T06:36:26Z</time>
      </trkpt>
      <trkpt lat="46.45272" lon="0.48886">
        <ele>130.13908692822</ele>
        <time>2021-09-13T06:36:28Z</time>
      </trkpt>
      <trkpt lat="46.45274" lon="0.48889">
        <ele>130.70252380427</ele>
        <time>2021-09-13T06:36:30Z</time>
      </trkpt>
      <trkpt lat="46.45275" lon="0.48891">
        <ele>130.7806345718</ele>
        <time>2021-09-13T06:36:32Z</time>
      </trkpt>
      <trkpt lat="46.45277" lon="0.48895">
        <ele>130.65118921921</ele>
        <time>2021-09-13T06:36:35Z</time>
      </trkpt>
      <trkpt lat="46.45279" lon="0.48897">
        <ele>130.36377858929</ele>
        <time>2021-09-13T06:36:37Z</time>
      </trkpt>
      <trkpt lat="46.45281" lon="0.489">
        <ele>130.30567912199</ele>
        <time>2021-09-13T06:36:40Z</time>
      </trkpt>
      <trkpt lat="46.45283" lon="0.48902">
        <ele>130.69169457536</ele>
        <time>2021-09-13T06:36:42Z</time>
      </trkpt>
      <trkpt lat="46.45284" lon="0.48904">
        <ele>130.03160773776</ele>
        <time>2021-09-13T06:36:44Z</time>
      </trkpt>
      <trkpt lat="46.45285" lon="0.48907">
        <ele>130.72646051459</ele>
        <time>2021-09-13T06:36:46Z</time>
      </trkpt>
      <trkpt lat="46.45287" lon="0.48909">
        <ele>130.30128736421</ele>
        <time>2021-09-13T06:36:48Z</time>
      </trkpt>
      <trkpt lat="46.45288" lon="0.48911">
        <ele>130.69037257507</ele>
        <time>2021-09-13T06:36:50Z</time>
      </trkpt>
      <trkpt lat="46.4529" lon="0.48913">
        <ele>129.66529464535</ele>
        <time>2021-09-13T06:36:52Z</time>
      </trkpt>
      <trkpt lat="46.45292" lon="0.48916">
        <ele>129.82876583282</ele>
        <time>2021-09-13T06:36:55Z</time>
      </trkpt>
      <trkpt lat="46.45294" lon="0.48918">
        <ele>129.99916898459</ele>
        <time>2021-09-13T06:36:57Z</time>
      </trkpt>
      <trkpt lat="46.45295" lon="0.4892">
        <ele>130.02667063102</ele>
        <time>2021-09-13T06:36:59Z</time>
      </trkpt>
      <trkpt lat="46.45296" lon="0.48923">
        <ele>130.17212660797</ele>
        <time>2021-09-13T06:37:01Z</time>
      </trkpt>
      <trkpt lat="46.45298" lon="0.48925">
        <ele>129.63849321008</ele>
        <time>2021-09-13T06:37:03Z</time>
      </trkpt>
      <trkpt lat="46.453" lon="0.48928">
        <ele>130.39403374959</ele>
        <time>2021-09-13T06:37:06Z</time>
      </trkpt>
      <trkpt lat="46.45301" lon="0.48931">
        <ele>129.48484434001</ele>
        <time>2021-09-13T06:37:08Z</time>
      </trkpt>
      <trkpt lat="46.45302" lon="0.48932">
        <ele>129.60122062638</ele>
        <time>2021-09-13T06:37:10Z</time>
      </trkpt>
      <trkpt lat="46.45304" lon="0.48934">
        <ele>130.68411322869</ele>
        <time>2021-09-13T06:37:12Z</time>
      </trkpt>
      <trkpt lat="46.45305" lon="0.48937">
        <ele>129.75998984836</ele>
        <time>2021-09-13T06:37:14Z</time>
      </trkpt>
      <trkpt lat="46.45307" lon="0.48939">
        <ele>129.94855409674</ele>
        <time>2021-09-13T06:37:16Z</time>
      </trkpt>
      <trkpt lat="46.45308" lon="0.48941">
        <ele>129.27220670879</ele>
        <time>2021-09-13T06:37:18Z</time>
      </trkpt>
      <trkpt lat="46.4531" lon="0.48944">
        <ele>129.35243759956</ele>
        <time>2021-09-13T06:37:20Z</time>
      </trkpt>
      <trkpt lat="46.45311" lon="0.48946">
        <ele>129.69511546008</ele>
        <time>2021-09-13T06:37:23Z</time>
      </trkpt>
      <trkpt lat="46.45313" lon="0.48949">
        <ele>129.59213047661</ele>
        <time>2021-09-13T06:37:25Z</time>
      </trkpt>
      <trkpt lat="46.45314" lon="0.48952">
        <ele>129.14165106695</ele>
        <time>2021-09-13T06:37:27Z</time>
      </trkpt>
      <trkpt lat="46.45316" lon="0.48954">
        <ele>128.86206544004</ele>
        <time>2021-09-13T06:37:29Z</time>
      </trkpt>
      <trkpt lat="46.45318" lon="0.48957">
        <ele>129.52870082483</ele>
        <time>2021-09-13T06:37:31Z</time>
      </trkpt>
      <trkpt lat="46.4532" lon="0.4896">
        <ele>129.14358120691</ele>
        <time>2021-09-13T06:37:33Z</time>
      </trkpt>
      <trkpt lat="46.45322" lon="0.48963">
        <ele>129.3087839568</ele>
        <time>2021-09-13T06:37:35Z</time>
      </trkpt>
      <trkpt lat="46.45324" lon="0.48965">
        <ele>129.70487907715</ele>
        <time>2021-09-13T06:37:37Z</time>
      </trkpt>
      <trkpt lat="46.45325" lon="0.48967">
        <ele>129.09786199313</ele>
        <time>2021-09-13T06:37:39Z</time>
      </trkpt>
      <trkpt lat="46.45327" lon="0.4897">
        <ele>129.34067313187</ele>
        <time>2021-09-13T06:37:41Z</time>
      </trkpt>
      <trkpt lat="46.45329" lon="0.48973">
        <ele>129.06984294951</ele>
        <time>2021-09-13T06:37:44Z</time>
      </trkpt>
      <trkpt lat="46.45331" lon="0.48975">
        <ele>129.44176609069</ele>
        <time>2021-09-13T06:37:46Z</time>
      </trkpt>
      <trkpt lat="46.45332" lon="0.48977">
        <ele>129.49832630623</ele>
        <time>2021-09-13T06:37:49Z</time>
      </trkpt>
      <trkpt lat="46.45335" lon="0.4898">
        <ele>129.33501950838</ele>
        <time>2021-09-13T06:37:51Z</time>
      </trkpt>
      <trkpt lat="46.45337" lon="0.48982">
        <ele>128.64205635898</ele>
        <time>2021-09-13T06:37:53Z</time>
      </trkpt>
      <trkpt lat="46.45339" lon="0.48984">
        <ele>128.71200312581</ele>
        <time>2021-09-13T06:37:55Z</time>
      </trkpt>
      <trkpt lat="46.4534" lon="0.48987">
        <ele>129.33365572896</ele>
        <time>2021-09-13T06:37:57Z</time>
      </trkpt>
      <trkpt lat="46.45343" lon="0.48989">
        <ele>128.37103953212</ele>
        <time>2021-09-13T06:37:59Z</time>
      </trkpt>
      <trkpt lat="46.45344" lon="0.48991">
        <ele>128.15124518238</ele>
        <time>2021-09-13T06:38:01Z</time>
      </trkpt>
      <trkpt lat="46.45346" lon="0.48993">
        <ele>129.25844719261</ele>
        <time>2021-09-13T06:38:03Z</time>
      </trkpt>
      <trkpt lat="46.45347" lon="0.48996">
        <ele>128.99092798587</ele>
        <time>2021-09-13T06:38:05Z</time>
      </trkpt>
      <trkpt lat="46.45349" lon="0.48999">
        <ele>128.51427775342</ele>
        <time>2021-09-13T06:38:07Z</time>
      </trkpt>
      <trkpt lat="46.4535" lon="0.49001">
        <ele>128.27045330498</ele>
        <time>2021-09-13T06:38:08Z</time>
      </trkpt>
      <trkpt lat="46.45352" lon="0.49003">
        <ele>128.71825280227</ele>
        <time>2021-09-13T06:38:10Z</time>
      </trkpt>
      <trkpt lat="46.45354" lon="0.49006">
        <ele>127.83907909226</ele>
        <time>2021-09-13T06:38:12Z</time>
      </trkpt>
      <trkpt lat="46.45355" lon="0.49009">
        <ele>128.4905233318</ele>
        <time>2021-09-13T06:38:14Z</time>
      </trkpt>
      <trkpt lat="46.45357" lon="0.49012">
        <ele>128.96571592148</ele>
        <time>2021-09-13T06:38:16Z</time>
      </trkpt>
      <trkpt lat="46.45359" lon="0.49016">
        <ele>128.10888967011</ele>
        <time>2021-09-13T06:38:18Z</time>
      </trkpt>
      <trkpt lat="46.4536" lon="0.49018">
        <ele>128.70562553406</ele>
        <time>2021-09-13T06:38:20Z</time>
      </trkpt>
      <trkpt lat="46.45362" lon="0.49021">
        <ele>128.44099561404</ele>
        <time>2021-09-13T06:38:22Z</time>
      </trkpt>
      <trkpt lat="46.45364" lon="0.49023">
        <ele>128.68238497246</ele>
        <time>2021-09-13T06:38:26Z</time>
      </trkpt>
      <trkpt lat="46.45366" lon="0.49023">
        <ele>129.0591102615</ele>
        <time>2021-09-13T06:38:28Z</time>
      </trkpt>
      <trkpt lat="46.45369" lon="0.49022">
        <ele>128.66758148465</ele>
        <time>2021-09-13T06:38:32Z</time>
      </trkpt>
      <trkpt lat="46.45372" lon="0.49019">
        <ele>129.46668254863</ele>
        <time>2021-09-13T06:38:34Z</time>
      </trkpt>
      <trkpt lat="46.45375" lon="0.49018">
        <ele>127.86012760829</ele>
        <time>2021-09-13T06:38:36Z</time>
      </trkpt>
      <trkpt lat="46.45377" lon="0.49016">
        <ele>128.32620727737</ele>
        <time>2021-09-13T06:38:38Z</time>
      </trkpt>
      <trkpt lat="46.45379" lon="0.49014">
        <ele>129.01764438767</ele>
        <time>2021-09-13T06:38:40Z</time>
      </trkpt>
      <trkpt lat="46.45382" lon="0.49012">
        <ele>128.89747871272</ele>
        <time>2021-09-13T06:38:42Z</time>
      </trkpt>
      <trkpt lat="46.45384" lon="0.49009">
        <ele>129.23467520531</ele>
        <time>2021-09-13T06:38:45Z</time>
      </trkpt>
      <trkpt lat="46.45386" lon="0.49007">
        <ele>128.01500569936</ele>
        <time>2021-09-13T06:38:47Z</time>
      </trkpt>
      <trkpt lat="46.45388" lon="0.49005">
        <ele>128.69159293082</ele>
        <time>2021-09-13T06:38:49Z</time>
      </trkpt>
      <trkpt lat="46.4539" lon="0.49003">
        <ele>129.19037197344</ele>
        <time>2021-09-13T06:38:51Z</time>
      </trkpt>
      <trkpt lat="46.45392" lon="0.49">
        <ele>128.46908776462</ele>
        <time>2021-09-13T06:38:53Z</time>
      </trkpt>
      <trkpt lat="46.45394" lon="0.48998">
        <ele>128.5619742116</ele>
        <time>2021-09-13T06:38:55Z</time>
      </trkpt>
      <trkpt lat="46.45396" lon="0.48996">
        <ele>128.72651231382</ele>
        <time>2021-09-13T06:38:57Z</time>
      </trkpt>
      <trkpt lat="46.45398" lon="0.48994">
        <ele>129.60387482215</ele>
        <time>2021-09-13T06:38:59Z</time>
      </trkpt>
      <trkpt lat="46.454" lon="0.48991">
        <ele>128.34622046538</ele>
        <time>2021-09-13T06:39:01Z</time>
      </trkpt>
      <trkpt lat="46.45402" lon="0.48989">
        <ele>128.71684735455</ele>
        <time>2021-09-13T06:39:03Z</time>
      </trkpt>
      <trkpt lat="46.45404" lon="0.48987">
        <ele>127.87046490796</ele>
        <time>2021-09-13T06:39:05Z</time>
      </trkpt>
      <trkpt lat="46.45406" lon="0.48985">
        <ele>128.73019375093</ele>
        <time>2021-09-13T06:39:07Z</time>
      </trkpt>
      <trkpt lat="46.45408" lon="0.48983">
        <ele>128.34075239208</ele>
        <time>2021-09-13T06:39:09Z</time>
      </trkpt>
      <trkpt lat="46.4541" lon="0.48981">
        <ele>128.76725429669</ele>
        <time>2021-09-13T06:39:10Z</time>
      </trkpt>
      <trkpt lat="46.45411" lon="0.4898">
        <ele>128.34360758401</ele>
        <time>2021-09-13T06:39:12Z</time>
      </trkpt>
      <trkpt lat="46.45414" lon="0.48977">
        <ele>129.42949993536</ele>
        <time>2021-09-13T06:39:14Z</time>
      </trkpt>
      <trkpt lat="46.45416" lon="0.48975">
        <ele>128.14665552974</ele>
        <time>2021-09-13T06:39:16Z</time>
      </trkpt>
      <trkpt lat="46.45417" lon="0.48972">
        <ele>128.52109252103</ele>
        <time>2021-09-13T06:39:18Z</time>
      </trkpt>
      <trkpt lat="46.45419" lon="0.4897">
        <ele>128.66603924055</ele>
        <time>2021-09-13T06:39:20Z</time>
      </trkpt>
      <trkpt lat="46.45421" lon="0.48968">
        <ele>128.67510312982</ele>
        <time>2021-09-13T06:39:22Z</time>
      </trkpt>
      <trkpt lat="46.45424" lon="0.48965">
        <ele>129.13320679404</ele>
        <time>2021-09-13T06:39:24Z</time>
      </trkpt>
      <trkpt lat="46.45425" lon="0.48963">
        <ele>128.39436002169</ele>
        <time>2021-09-13T06:39:27Z</time>
      </trkpt>
      <trkpt lat="46.45426" lon="0.48961">
        <ele>128.23424365558</ele>
        <time>2021-09-13T06:39:29Z</time>
      </trkpt>
      <trkpt lat="46.45429" lon="0.48958">
        <ele>129.02787001058</ele>
        <time>2021-09-13T06:39:31Z</time>
      </trkpt>
      <trkpt lat="46.4543" lon="0.48957">
        <ele>128.64423043281</ele>
        <time>2021-09-13T06:39:33Z</time>
      </trkpt>
      <trkpt lat="46.45432" lon="0.48954">
        <ele>127.79392180778</ele>
        <time>2021-09-13T06:39:35Z</time>
      </trkpt>
      <trkpt lat="46.45434" lon="0.48952">
        <ele>128.37576448265</ele>
        <time>2021-09-13T06:39:37Z</time>
      </trkpt>
      <trkpt lat="46.45436" lon="0.48949">
        <ele>128.71528260782</ele>
        <time>2021-09-13T06:39:39Z</time>
      </trkpt>
      <trkpt lat="46.45437" lon="0.48947">
        <ele>128.96492255013</ele>
        <time>2021-09-13T06:39:41Z</time>
      </trkpt>
      <trkpt lat="46.45439" lon="0.48946">
        <ele>128.17032671347</ele>
        <time>2021-09-13T06:39:43Z</time>
      </trkpt>
      <trkpt lat="46.45442" lon="0.48944">
        <ele>128.32794749923</ele>
        <time>2021-09-13T06:39:45Z</time>
      </trkpt>
      <trkpt lat="46.45445" lon="0.48942">
        <ele>129.03127851803</ele>
        <time>2021-09-13T06:39:47Z</time>
      </trkpt>
      <trkpt lat="46.45447" lon="0.48941">
        <ele>128.60973701905</ele>
        <time>2021-09-13T06:39:49Z</time>
      </trkpt>
      <trkpt lat="46.45449" lon="0.48939">
        <ele>128.50478349812</ele>
        <time>2021-09-13T06:39:51Z</time>
      </trkpt>
      <trkpt lat="46.45451" lon="0.48937">
        <ele>128.42016045935</ele>
        <time>2021-09-13T06:39:53Z</time>
      </trkpt>
      <trkpt lat="46.45453" lon="0.48936">
        <ele>128.35801708046</ele>
        <time>2021-09-13T06:39:55Z</time>
      </trkpt>
      <trkpt lat="46.45455" lon="0.48933">
        <ele>128.72249178961</ele>
        <time>2021-09-13T06:39:57Z</time>
      </trkpt>
      <trkpt lat="46.45457" lon="0.48932">
        <ele>128.52409782913</ele>
        <time>2021-09-13T06:39:59Z</time>
      </trkpt>
      <trkpt lat="46.45458" lon="0.4893">
        <ele>128.98149769101</ele>
        <time>2021-09-13T06:40:01Z</time>
      </trkpt>
      <trkpt lat="46.4546" lon="0.48927">
        <ele>128.89938955475</ele>
        <time>2021-09-13T06:40:04Z</time>
      </trkpt>
      <trkpt lat="46.45462" lon="0.48925">
        <ele>128.72086735908</ele>
        <time>2021-09-13T06:40:07Z</time>
      </trkpt>
      <trkpt lat="46.45464" lon="0.48923">
        <ele>129.47216147836</ele>
        <time>2021-09-13T06:40:09Z</time>
      </trkpt>
      <trkpt lat="46.45466" lon="0.48921">
        <ele>128.82215114683</ele>
        <time>2021-09-13T06:40:11Z</time>
      </trkpt>
      <trkpt lat="46.45468" lon="0.4892">
        <ele>128.83062118199</ele>
        <time>2021-09-13T06:40:13Z</time>
      </trkpt>
      <trkpt lat="46.4547" lon="0.48918">
        <ele>128.70628787857</ele>
        <time>2021-09-13T06:40:15Z</time>
      </trkpt>
      <trkpt lat="46.45472" lon="0.48916">
        <ele>128.46456691809</ele>
        <time>2021-09-13T06:40:17Z</time>
      </trkpt>
      <trkpt lat="46.45474" lon="0.48915">
        <ele>128.74124468956</ele>
        <time>2021-09-13T06:40:19Z</time>
      </trkpt>
      <trkpt lat="46.45476" lon="0.48913">
        <ele>128.39458503854</ele>
        <time>2021-09-13T06:40:22Z</time>
      </trkpt>
      <trkpt lat="46.45478" lon="0.48911">
        <ele>128.72527257632</ele>
        <time>2021-09-13T06:40:24Z</time>
      </trkpt>
      <trkpt lat="46.45479" lon="0.48909">
        <ele>128.61067047995</ele>
        <time>2021-09-13T06:40:26Z</time>
      </trkpt>
      <trkpt lat="46.45482" lon="0.48907">
        <ele>128.5757485209</ele>
        <time>2021-09-13T06:40:28Z</time>
      </trkpt>
      <trkpt lat="46.45484" lon="0.48906">
        <ele>128.71220315713</ele>
        <time>2021-09-13T06:40:30Z</time>
      </trkpt>
      <trkpt lat="46.45485" lon="0.48904">
        <ele>128.54315896332</ele>
        <time>2021-09-13T06:40:32Z</time>
      </trkpt>
      <trkpt lat="46.45487" lon="0.48903">
        <ele>129.25744080823</ele>
        <time>2021-09-13T06:40:34Z</time>
      </trkpt>
      <trkpt lat="46.45489" lon="0.48902">
        <ele>129.61305526458</ele>
        <time>2021-09-13T06:40:36Z</time>
      </trkpt>
      <trkpt lat="46.45491" lon="0.489">
        <ele>129.18311435264</ele>
        <time>2021-09-13T06:40:38Z</time>
      </trkpt>
      <trkpt lat="46.45494" lon="0.48898">
        <ele>129.17255555838</ele>
        <time>2021-09-13T06:40:41Z</time>
      </trkpt>
      <trkpt lat="46.45496" lon="0.48896">
        <ele>129.57309070695</ele>
        <time>2021-09-13T06:40:43Z</time>
      </trkpt>
      <trkpt lat="46.45499" lon="0.48894">
        <ele>129.63430643827</ele>
        <time>2021-09-13T06:40:46Z</time>
      </trkpt>
      <trkpt lat="46.45501" lon="0.48892">
        <ele>129.60945511237</ele>
        <time>2021-09-13T06:40:48Z</time>
      </trkpt>
      <trkpt lat="46.45503" lon="0.48891">
        <ele>129.88120740838</ele>
        <time>2021-09-13T06:40:50Z</time>
      </trkpt>
      <trkpt lat="46.45505" lon="0.48889">
        <ele>129.43630920257</ele>
        <time>2021-09-13T06:40:52Z</time>
      </trkpt>
      <trkpt lat="46.45507" lon="0.48887">
        <ele>130.02591736615</ele>
        <time>2021-09-13T06:40:54Z</time>
      </trkpt>
      <trkpt lat="46.4551" lon="0.48884">
        <ele>129.59056961071</ele>
        <time>2021-09-13T06:40:56Z</time>
      </trkpt>
      <trkpt lat="46.45512" lon="0.48883">
        <ele>129.44307591673</ele>
        <time>2021-09-13T06:40:58Z</time>
      </trkpt>
      <trkpt lat="46.45514" lon="0.48881">
        <ele>130.15853756201</ele>
        <time>2021-09-13T06:41:00Z</time>
      </trkpt>
      <trkpt lat="46.45516" lon="0.4888">
        <ele>129.95152794011</ele>
        <time>2021-09-13T06:41:02Z</time>
      </trkpt>
      <trkpt lat="46.45518" lon="0.48878">
        <ele>130.08770867158</ele>
        <time>2021-09-13T06:41:04Z</time>
      </trkpt>
      <trkpt lat="46.4552" lon="0.48876">
        <ele>129.99777330179</ele>
        <time>2021-09-13T06:41:06Z</time>
      </trkpt>
      <trkpt lat="46.45522" lon="0.48875">
        <ele>130.29569014907</ele>
        <time>2021-09-13T06:41:08Z</time>
      </trkpt>
      <trkpt lat="46.45524" lon="0.48874">
        <ele>130.22353486437</ele>
        <time>2021-09-13T06:41:10Z</time>
      </trkpt>
      <trkpt lat="46.45526" lon="0.48872">
        <ele>130.08366469573</ele>
        <time>2021-09-13T06:41:12Z</time>
      </trkpt>
      <trkpt lat="46.45528" lon="0.48871">
        <ele>130.44951728173</ele>
        <time>2021-09-13T06:41:14Z</time>
      </trkpt>
      <trkpt lat="46.4553" lon="0.48868">
        <ele>129.99026072863</ele>
        <time>2021-09-13T06:41:16Z</time>
      </trkpt>
      <trkpt lat="46.45533" lon="0.48865">
        <ele>130.08025430236</ele>
        <time>2021-09-13T06:41:18Z</time>
      </trkpt>
      <trkpt lat="46.45535" lon="0.48863">
        <ele>129.62481865194</ele>
        <time>2021-09-13T06:41:20Z</time>
      </trkpt>
      <trkpt lat="46.45537" lon="0.48861">
        <ele>130.13583411649</ele>
        <time>2021-09-13T06:41:22Z</time>
      </trkpt>
      <trkpt lat="46.45539" lon="0.48859">
        <ele>130.19533285405</ele>
        <time>2021-09-13T06:41:24Z</time>
      </trkpt>
      <trkpt lat="46.4554" lon="0.48857">
        <ele>129.77584163565</ele>
        <time>2021-09-13T06:41:26Z</time>
      </trkpt>
      <trkpt lat="46.45543" lon="0.48855">
        <ele>129.82047960907</ele>
        <time>2021-09-13T06:41:28Z</time>
      </trkpt>
      <trkpt lat="46.45544" lon="0.48853">
        <ele>129.92290638294</ele>
        <time>2021-09-13T06:41:30Z</time>
      </trkpt>
      <trkpt lat="46.45547" lon="0.48851">
        <ele>130.11819322873</ele>
        <time>2021-09-13T06:41:32Z</time>
      </trkpt>
      <trkpt lat="46.45548" lon="0.48849">
        <ele>130.39031477552</ele>
        <time>2021-09-13T06:41:35Z</time>
      </trkpt>
      <trkpt lat="46.4555" lon="0.48848">
        <ele>130.38008336071</ele>
        <time>2021-09-13T06:41:37Z</time>
      </trkpt>
      <trkpt lat="46.45551" lon="0.48846">
        <ele>130.20087774284</ele>
        <time>2021-09-13T06:41:39Z</time>
      </trkpt>
      <trkpt lat="46.45553" lon="0.48844">
        <ele>130.20257550012</ele>
        <time>2021-09-13T06:41:41Z</time>
      </trkpt>
      <trkpt lat="46.45555" lon="0.48841">
        <ele>131.14461413305</ele>
        <time>2021-09-13T06:41:44Z</time>
      </trkpt>
      <trkpt lat="46.45557" lon="0.4884">
        <ele>131.33311550878</ele>
        <time>2021-09-13T06:41:46Z</time>
      </trkpt>
      <trkpt lat="46.45559" lon="0.48838">
        <ele>131.37943819538</ele>
        <time>2021-09-13T06:41:49Z</time>
      </trkpt>
      <trkpt lat="46.45562" lon="0.48836">
        <ele>130.79972949065</ele>
        <time>2021-09-13T06:41:51Z</time>
      </trkpt>
      <trkpt lat="46.45564" lon="0.48834">
        <ele>131.23471723031</ele>
        <time>2021-09-13T06:41:53Z</time>
      </trkpt>
      <trkpt lat="46.45566" lon="0.48832">
        <ele>131.06052429415</ele>
        <time>2021-09-13T06:41:54Z</time>
      </trkpt>
      <trkpt lat="46.45568" lon="0.48829">
        <ele>130.84305831231</ele>
        <time>2021-09-13T06:41:56Z</time>
      </trkpt>
      <trkpt lat="46.4557" lon="0.48827">
        <ele>131.21748909447</ele>
        <time>2021-09-13T06:41:58Z</time>
      </trkpt>
      <trkpt lat="46.45571" lon="0.48824">
        <ele>130.72592560668</ele>
        <time>2021-09-13T06:42:00Z</time>
      </trkpt>
      <trkpt lat="46.45573" lon="0.48823">
        <ele>131.25023055915</ele>
        <time>2021-09-13T06:42:02Z</time>
      </trkpt>
      <trkpt lat="46.45576" lon="0.48819">
        <ele>131.46201273426</ele>
        <time>2021-09-13T06:42:05Z</time>
      </trkpt>
      <trkpt lat="46.45578" lon="0.48816">
        <ele>131.27651907317</ele>
        <time>2021-09-13T06:42:07Z</time>
      </trkpt>
      <trkpt lat="46.4558" lon="0.48815">
        <ele>131.5970382588</ele>
        <time>2021-09-13T06:42:09Z</time>
      </trkpt>
      <trkpt lat="46.45582" lon="0.48814">
        <ele>131.02370775398</ele>
        <time>2021-09-13T06:42:11Z</time>
      </trkpt>
      <trkpt lat="46.45584" lon="0.48811">
        <ele>131.93149137497</ele>
        <time>2021-09-13T06:42:13Z</time>
      </trkpt>
      <trkpt lat="46.45586" lon="0.4881">
        <ele>131.57717765495</ele>
        <time>2021-09-13T06:42:16Z</time>
      </trkpt>
      <trkpt lat="46.45588" lon="0.48808">
        <ele>131.6231361255</ele>
        <time>2021-09-13T06:42:18Z</time>
      </trkpt>
      <trkpt lat="46.45589" lon="0.48806">
        <ele>131.77029826492</ele>
        <time>2021-09-13T06:42:19Z</time>
      </trkpt>
      <trkpt lat="46.45591" lon="0.48804">
        <ele>131.82702373993</ele>
        <time>2021-09-13T06:42:22Z</time>
      </trkpt>
      <trkpt lat="46.45594" lon="0.48803">
        <ele>131.88077737205</ele>
        <time>2021-09-13T06:42:25Z</time>
      </trkpt>
      <trkpt lat="46.45597" lon="0.48801">
        <ele>132.021721486</ele>
        <time>2021-09-13T06:42:27Z</time>
      </trkpt>
      <trkpt lat="46.45599" lon="0.488">
        <ele>131.72913279012</ele>
        <time>2021-09-13T06:42:29Z</time>
      </trkpt>
      <trkpt lat="46.456" lon="0.48798">
        <ele>131.73607619666</ele>
        <time>2021-09-13T06:42:31Z</time>
      </trkpt>
      <trkpt lat="46.45602" lon="0.48796">
        <ele>132.01388456114</ele>
        <time>2021-09-13T06:42:34Z</time>
      </trkpt>
      <trkpt lat="46.45604" lon="0.48793">
        <ele>131.82627927326</ele>
        <time>2021-09-13T06:42:36Z</time>
      </trkpt>
      <trkpt lat="46.45606" lon="0.48792">
        <ele>132.41340875346</ele>
        <time>2021-09-13T06:42:39Z</time>
      </trkpt>
      <trkpt lat="46.45609" lon="0.4879">
        <ele>131.72471434902</ele>
        <time>2021-09-13T06:42:41Z</time>
      </trkpt>
      <trkpt lat="46.45611" lon="0.48789">
        <ele>131.93109576404</ele>
        <time>2021-09-13T06:42:43Z</time>
      </trkpt>
      <trkpt lat="46.45613" lon="0.48787">
        <ele>131.67622588016</ele>
        <time>2021-09-13T06:42:46Z</time>
      </trkpt>
      <trkpt lat="46.45616" lon="0.48784">
        <ele>131.73913948517</ele>
        <time>2021-09-13T06:42:48Z</time>
      </trkpt>
      <trkpt lat="46.45618" lon="0.48783">
        <ele>131.39660358988</ele>
        <time>2021-09-13T06:42:50Z</time>
      </trkpt>
      <trkpt lat="46.4562" lon="0.48781">
        <ele>131.78307324648</ele>
        <time>2021-09-13T06:42:52Z</time>
      </trkpt>
      <trkpt lat="46.45621" lon="0.48778">
        <ele>131.95886404067</ele>
        <time>2021-09-13T06:42:54Z</time>
      </trkpt>
      <trkpt lat="46.45624" lon="0.48777">
        <ele>131.61449370161</ele>
        <time>2021-09-13T06:42:56Z</time>
      </trkpt>
      <trkpt lat="46.45626" lon="0.48776">
        <ele>131.54892092012</ele>
        <time>2021-09-13T06:42:58Z</time>
      </trkpt>
      <trkpt lat="46.45627" lon="0.48774">
        <ele>131.32468615845</ele>
        <time>2021-09-13T06:42:59Z</time>
      </trkpt>
      <trkpt lat="46.45629" lon="0.48772">
        <ele>132.10183873773</ele>
        <time>2021-09-13T06:43:01Z</time>
      </trkpt>
      <trkpt lat="46.45632" lon="0.48769">
        <ele>131.27160220966</ele>
        <time>2021-09-13T06:43:03Z</time>
      </trkpt>
      <trkpt lat="46.45635" lon="0.48766">
        <ele>131.89901151601</ele>
        <time>2021-09-13T06:43:05Z</time>
      </trkpt>
      <trkpt lat="46.45636" lon="0.48762">
        <ele>131.60339789744</ele>
        <time>2021-09-13T06:43:07Z</time>
      </trkpt>
      <trkpt lat="46.45637" lon="0.48759">
        <ele>131.39477739483</ele>
        <time>2021-09-13T06:43:09Z</time>
      </trkpt>
      <trkpt lat="46.45639" lon="0.48757">
        <ele>131.98134240136</ele>
        <time>2021-09-13T06:43:11Z</time>
      </trkpt>
      <trkpt lat="46.4564" lon="0.48754">
        <ele>131.6164583629</ele>
        <time>2021-09-13T06:43:13Z</time>
      </trkpt>
      <trkpt lat="46.45642" lon="0.48752">
        <ele>131.7281793654</ele>
        <time>2021-09-13T06:43:15Z</time>
      </trkpt>
      <trkpt lat="46.45643" lon="0.48749">
        <ele>131.98395814467</ele>
        <time>2021-09-13T06:43:17Z</time>
      </trkpt>
      <trkpt lat="46.45645" lon="0.48746">
        <ele>131.15180729609</ele>
        <time>2021-09-13T06:43:19Z</time>
      </trkpt>
      <trkpt lat="46.45646" lon="0.48743">
        <ele>131.62941773608</ele>
        <time>2021-09-13T06:43:21Z</time>
      </trkpt>
      <trkpt lat="46.45647" lon="0.4874">
        <ele>131.51306263544</ele>
        <time>2021-09-13T06:43:23Z</time>
      </trkpt>
      <trkpt lat="46.45648" lon="0.48735">
        <ele>131.25200013909</ele>
        <time>2021-09-13T06:43:26Z</time>
      </trkpt>
      <trkpt lat="46.45649" lon="0.48731">
        <ele>131.88530007843</ele>
        <time>2021-09-13T06:43:28Z</time>
      </trkpt>
      <trkpt lat="46.45651" lon="0.48729">
        <ele>131.93770479131</ele>
        <time>2021-09-13T06:43:30Z</time>
      </trkpt>
      <trkpt lat="46.45651" lon="0.48725">
        <ele>132.21797525324</ele>
        <time>2021-09-13T06:43:32Z</time>
      </trkpt>
      <trkpt lat="46.45651" lon="0.48723">
        <ele>131.50114235189</ele>
        <time>2021-09-13T06:43:34Z</time>
      </trkpt>
      <trkpt lat="46.45653" lon="0.48719">
        <ele>131.81284536887</ele>
        <time>2021-09-13T06:43:36Z</time>
      </trkpt>
      <trkpt lat="46.45654" lon="0.48716">
        <ele>131.34587051254</ele>
        <time>2021-09-13T06:43:38Z</time>
      </trkpt>
      <trkpt lat="46.45655" lon="0.48713">
        <ele>131.45907903463</ele>
        <time>2021-09-13T06:43:40Z</time>
      </trkpt>
      <trkpt lat="46.45657" lon="0.48709">
        <ele>131.89938433375</ele>
        <time>2021-09-13T06:43:42Z</time>
      </trkpt>
      <trkpt lat="46.45658" lon="0.48706">
        <ele>131.27955157124</ele>
        <time>2021-09-13T06:43:44Z</time>
      </trkpt>
      <trkpt lat="46.45659" lon="0.48703">
        <ele>131.69603223354</ele>
        <time>2021-09-13T06:43:46Z</time>
      </trkpt>
      <trkpt lat="46.45658" lon="0.48699">
        <ele>131.69734916743</ele>
        <time>2021-09-13T06:43:48Z</time>
      </trkpt>
      <trkpt lat="46.45659" lon="0.48695">
        <ele>131.19028017484</ele>
        <time>2021-09-13T06:43:50Z</time>
      </trkpt>
      <trkpt lat="46.4566" lon="0.48692">
        <ele>131.56013792567</ele>
        <time>2021-09-13T06:43:53Z</time>
      </trkpt>
      <trkpt lat="46.4566" lon="0.48689">
        <ele>131.60975012183</ele>
        <time>2021-09-13T06:43:54Z</time>
      </trkpt>
      <trkpt lat="46.45661" lon="0.48686">
        <ele>131.76524927467</ele>
        <time>2021-09-13T06:43:56Z</time>
      </trkpt>
      <trkpt lat="46.45663" lon="0.48683">
        <ele>132.23592800088</ele>
        <time>2021-09-13T06:43:58Z</time>
      </trkpt>
      <trkpt lat="46.45663" lon="0.4868">
        <ele>131.51144281402</ele>
        <time>2021-09-13T06:44:00Z</time>
      </trkpt>
      <trkpt lat="46.45664" lon="0.48677">
        <ele>131.62872084137</ele>
        <time>2021-09-13T06:44:02Z</time>
      </trkpt>
      <trkpt lat="46.45665" lon="0.48673">
        <ele>131.81593551207</ele>
        <time>2021-09-13T06:44:05Z</time>
      </trkpt>
      <trkpt lat="46.45665" lon="0.4867">
        <ele>131.58731993474</ele>
        <time>2021-09-13T06:44:07Z</time>
      </trkpt>
      <trkpt lat="46.45666" lon="0.48667">
        <ele>132.009801968</ele>
        <time>2021-09-13T06:44:09Z</time>
      </trkpt>
      <trkpt lat="46.45666" lon="0.48664">
        <ele>131.20385159366</ele>
        <time>2021-09-13T06:44:11Z</time>
      </trkpt>
      <trkpt lat="46.45667" lon="0.4866">
        <ele>131.50473628752</ele>
        <time>2021-09-13T06:44:13Z</time>
      </trkpt>
      <trkpt lat="46.45667" lon="0.48657">
        <ele>131.3846785631</ele>
        <time>2021-09-13T06:44:15Z</time>
      </trkpt>
      <trkpt lat="46.45668" lon="0.48653">
        <ele>132.22960328031</ele>
        <time>2021-09-13T06:44:18Z</time>
      </trkpt>
      <trkpt lat="46.45669" lon="0.4865">
        <ele>131.94793709181</ele>
        <time>2021-09-13T06:44:20Z</time>
      </trkpt>
      <trkpt lat="46.4567" lon="0.48646">
        <ele>132.47936863732</ele>
        <time>2021-09-13T06:44:22Z</time>
      </trkpt>
      <trkpt lat="46.45671" lon="0.48644">
        <ele>132.1798332734</ele>
        <time>2021-09-13T06:44:24Z</time>
      </trkpt>
      <trkpt lat="46.45673" lon="0.48641">
        <ele>132.5707070278</ele>
        <time>2021-09-13T06:44:26Z</time>
      </trkpt>
      <trkpt lat="46.45675" lon="0.48638">
        <ele>132.29902620707</ele>
        <time>2021-09-13T06:44:28Z</time>
      </trkpt>
      <trkpt lat="46.45676" lon="0.48635">
        <ele>132.29922443442</ele>
        <time>2021-09-13T06:44:29Z</time>
      </trkpt>
      <trkpt lat="46.45676" lon="0.48632">
        <ele>132.83046673331</ele>
        <time>2021-09-13T06:44:32Z</time>
      </trkpt>
      <trkpt lat="46.45677" lon="0.48629">
        <ele>132.37624552939</ele>
        <time>2021-09-13T06:44:34Z</time>
      </trkpt>
      <trkpt lat="46.45678" lon="0.48626">
        <ele>132.60199506674</ele>
        <time>2021-09-13T06:44:36Z</time>
      </trkpt>
      <trkpt lat="46.45679" lon="0.48622">
        <ele>132.45693724882</ele>
        <time>2021-09-13T06:44:38Z</time>
      </trkpt>
      <trkpt lat="46.4568" lon="0.48618">
        <ele>131.94732179958</ele>
        <time>2021-09-13T06:44:40Z</time>
      </trkpt>
      <trkpt lat="46.45681" lon="0.48616">
        <ele>132.23126816656</ele>
        <time>2021-09-13T06:44:42Z</time>
      </trkpt>
      <trkpt lat="46.45681" lon="0.48613">
        <ele>132.46144072898</ele>
        <time>2021-09-13T06:44:44Z</time>
      </trkpt>
      <trkpt lat="46.45682" lon="0.4861">
        <ele>132.15621683374</ele>
        <time>2021-09-13T06:44:46Z</time>
      </trkpt>
      <trkpt lat="46.45683" lon="0.48606">
        <ele>132.25155101251</ele>
        <time>2021-09-13T06:44:48Z</time>
      </trkpt>
      <trkpt lat="46.45684" lon="0.48603">
        <ele>132.28298524488</ele>
        <time>2021-09-13T06:44:51Z</time>
      </trkpt>
      <trkpt lat="46.45684" lon="0.486">
        <ele>132.61746880971</ele>
        <time>2021-09-13T06:44:53Z</time>
      </trkpt>
      <trkpt lat="46.45686" lon="0.48595">
        <ele>132.55459458474</ele>
        <time>2021-09-13T06:44:55Z</time>
      </trkpt>
      <trkpt lat="46.45687" lon="0.48592">
        <ele>132.63301080931</ele>
        <time>2021-09-13T06:44:57Z</time>
      </trkpt>
      <trkpt lat="46.45688" lon="0.48588">
        <ele>130.99817618728</ele>
        <time>2021-09-13T06:44:59Z</time>
      </trkpt>
      <trkpt lat="46.45689" lon="0.48585">
        <ele>132.63629595842</ele>
        <time>2021-09-13T06:45:01Z</time>
      </trkpt>
      <trkpt lat="46.4569" lon="0.48582">
        <ele>132.42772022821</ele>
        <time>2021-09-13T06:45:03Z</time>
      </trkpt>
      <trkpt lat="46.45692" lon="0.48579">
        <ele>132.05697916541</ele>
        <time>2021-09-13T06:45:05Z</time>
      </trkpt>
      <trkpt lat="46.45693" lon="0.48576">
        <ele>132.83446174767</ele>
        <time>2021-09-13T06:45:07Z</time>
      </trkpt>
      <trkpt lat="46.45694" lon="0.48572">
        <ele>132.63781131431</ele>
        <time>2021-09-13T06:45:10Z</time>
      </trkpt>
      <trkpt lat="46.45694" lon="0.48569">
        <ele>132.94121794961</ele>
        <time>2021-09-13T06:45:12Z</time>
      </trkpt>
      <trkpt lat="46.45695" lon="0.48567">
        <ele>132.82167343888</ele>
        <time>2021-09-13T06:45:15Z</time>
      </trkpt>
      <trkpt lat="46.45696" lon="0.48564">
        <ele>132.58954316471</ele>
        <time>2021-09-13T06:45:18Z</time>
      </trkpt>
      <trkpt lat="46.45696" lon="0.4856">
        <ele>132.76308745798</ele>
        <time>2021-09-13T06:45:20Z</time>
      </trkpt>
      <trkpt lat="46.45697" lon="0.48558">
        <ele>132.35035905614</ele>
        <time>2021-09-13T06:45:22Z</time>
      </trkpt>
      <trkpt lat="46.45698" lon="0.48555">
        <ele>132.1233165497</ele>
        <time>2021-09-13T06:45:24Z</time>
      </trkpt>
      <trkpt lat="46.45699" lon="0.48552">
        <ele>132.18697267026</ele>
        <time>2021-09-13T06:45:26Z</time>
      </trkpt>
      <trkpt lat="46.45701" lon="0.4855">
        <ele>132.26432896312</ele>
        <time>2021-09-13T06:45:29Z</time>
      </trkpt>
      <trkpt lat="46.45702" lon="0.48545">
        <ele>132.4330438152</ele>
        <time>2021-09-13T06:45:31Z</time>
      </trkpt>
      <trkpt lat="46.45704" lon="0.48542">
        <ele>132.2947293641</ele>
        <time>2021-09-13T06:45:33Z</time>
      </trkpt>
      <trkpt lat="46.45704" lon="0.48539">
        <ele>132.21984920278</ele>
        <time>2021-09-13T06:45:35Z</time>
      </trkpt>
      <trkpt lat="46.45705" lon="0.48536">
        <ele>132.49203892983</ele>
        <time>2021-09-13T06:45:37Z</time>
      </trkpt>
      <trkpt lat="46.45706" lon="0.48534">
        <ele>131.81368417479</ele>
        <time>2021-09-13T06:45:39Z</time>
      </trkpt>
      <trkpt lat="46.45707" lon="0.4853">
        <ele>131.6568716662</ele>
        <time>2021-09-13T06:45:41Z</time>
      </trkpt>
      <trkpt lat="46.45708" lon="0.48526">
        <ele>131.53054769617</ele>
        <time>2021-09-13T06:45:43Z</time>
      </trkpt>
      <trkpt lat="46.45709" lon="0.48522">
        <ele>131.39925430156</ele>
        <time>2021-09-13T06:45:45Z</time>
      </trkpt>
      <trkpt lat="46.45709" lon="0.48519">
        <ele>131.82608432416</ele>
        <time>2021-09-13T06:45:47Z</time>
      </trkpt>
      <trkpt lat="46.45709" lon="0.48516">
        <ele>131.49426196981</ele>
        <time>2021-09-13T06:45:49Z</time>
      </trkpt>
      <trkpt lat="46.45709" lon="0.48512">
        <ele>131.6602679519</ele>
        <time>2021-09-13T06:45:52Z</time>
      </trkpt>
      <trkpt lat="46.4571" lon="0.4851">
        <ele>131.20839267038</ele>
        <time>2021-09-13T06:45:54Z</time>
      </trkpt>
      <trkpt lat="46.4571" lon="0.48506">
        <ele>131.80901090428</ele>
        <time>2021-09-13T06:45:56Z</time>
      </trkpt>
      <trkpt lat="46.45711" lon="0.48502">
        <ele>131.53178869188</ele>
        <time>2021-09-13T06:45:58Z</time>
      </trkpt>
      <trkpt lat="46.45712" lon="0.48498">
        <ele>131.2867742544</ele>
        <time>2021-09-13T06:46:01Z</time>
      </trkpt>
      <trkpt lat="46.45712" lon="0.48495">
        <ele>131.51570243947</ele>
        <time>2021-09-13T06:46:03Z</time>
      </trkpt>
      <trkpt lat="46.45713" lon="0.48491">
        <ele>131.59669790138</ele>
        <time>2021-09-13T06:46:05Z</time>
      </trkpt>
      <trkpt lat="46.45714" lon="0.48488">
        <ele>131.56174838822</ele>
        <time>2021-09-13T06:46:08Z</time>
      </trkpt>
      <trkpt lat="46.45713" lon="0.48484">
        <ele>131.78399305791</ele>
        <time>2021-09-13T06:46:10Z</time>
      </trkpt>
      <trkpt lat="46.45714" lon="0.4848">
        <ele>131.92369638011</ele>
        <time>2021-09-13T06:46:12Z</time>
      </trkpt>
      <trkpt lat="46.45715" lon="0.48476">
        <ele>131.77669521794</ele>
        <time>2021-09-13T06:46:14Z</time>
      </trkpt>
      <trkpt lat="46.45717" lon="0.48474">
        <ele>131.56282675173</ele>
        <time>2021-09-13T06:46:16Z</time>
      </trkpt>
      <trkpt lat="46.45717" lon="0.48471">
        <ele>131.66484755743</ele>
        <time>2021-09-13T06:46:18Z</time>
      </trkpt>
      <trkpt lat="46.45719" lon="0.48467">
        <ele>132.00005055219</ele>
        <time>2021-09-13T06:46:20Z</time>
      </trkpt>
      <trkpt lat="46.4572" lon="0.48464">
        <ele>131.88606989663</ele>
        <time>2021-09-13T06:46:22Z</time>
      </trkpt>
      <trkpt lat="46.45722" lon="0.48461">
        <ele>131.35260729492</ele>
        <time>2021-09-13T06:46:24Z</time>
      </trkpt>
      <trkpt lat="46.45723" lon="0.48458">
        <ele>131.67445227504</ele>
        <time>2021-09-13T06:46:26Z</time>
      </trkpt>
      <trkpt lat="46.45724" lon="0.48456">
        <ele>131.46456501354</ele>
        <time>2021-09-13T06:46:28Z</time>
      </trkpt>
      <trkpt lat="46.45725" lon="0.48453">
        <ele>131.86495193467</ele>
        <time>2021-09-13T06:46:30Z</time>
      </trkpt>
      <trkpt lat="46.45726" lon="0.48449">
        <ele>131.34915371891</ele>
        <time>2021-09-13T06:46:32Z</time>
      </trkpt>
      <trkpt lat="46.45727" lon="0.48447">
        <ele>131.54414444882</ele>
        <time>2021-09-13T06:46:34Z</time>
      </trkpt>
      <trkpt lat="46.45727" lon="0.48443">
        <ele>131.85394695122</ele>
        <time>2021-09-13T06:46:37Z</time>
      </trkpt>
      <trkpt lat="46.45729" lon="0.4844">
        <ele>131.38520420715</ele>
        <time>2021-09-13T06:46:39Z</time>
      </trkpt>
      <trkpt lat="46.4573" lon="0.48438">
        <ele>131.40431657434</ele>
        <time>2021-09-13T06:46:41Z</time>
      </trkpt>
      <trkpt lat="46.4573" lon="0.48435">
        <ele>132.01355249435</ele>
        <time>2021-09-13T06:46:43Z</time>
      </trkpt>
      <trkpt lat="46.45731" lon="0.48432">
        <ele>131.43334010616</ele>
        <time>2021-09-13T06:46:45Z</time>
      </trkpt>
      <trkpt lat="46.45732" lon="0.48429">
        <ele>131.76788826566</ele>
        <time>2021-09-13T06:46:47Z</time>
      </trkpt>
      <trkpt lat="46.45733" lon="0.48426">
        <ele>131.15172922611</ele>
        <time>2021-09-13T06:46:49Z</time>
      </trkpt>
      <trkpt lat="46.45734" lon="0.48422">
        <ele>132.18078286573</ele>
        <time>2021-09-13T06:46:51Z</time>
      </trkpt>
      <trkpt lat="46.45736" lon="0.48419">
        <ele>131.26269384567</ele>
        <time>2021-09-13T06:46:53Z</time>
      </trkpt>
      <trkpt lat="46.45737" lon="0.48416">
        <ele>131.84367557243</ele>
        <time>2021-09-13T06:46:55Z</time>
      </trkpt>
      <trkpt lat="46.45739" lon="0.48413">
        <ele>131.84319412149</ele>
        <time>2021-09-13T06:46:57Z</time>
      </trkpt>
      <trkpt lat="46.45741" lon="0.4841">
        <ele>131.55468190555</ele>
        <time>2021-09-13T06:46:59Z</time>
      </trkpt>
      <trkpt lat="46.45742" lon="0.48407">
        <ele>131.9710024884</ele>
        <time>2021-09-13T06:47:01Z</time>
      </trkpt>
      <trkpt lat="46.45744" lon="0.48404">
        <ele>131.96959100105</ele>
        <time>2021-09-13T06:47:02Z</time>
      </trkpt>
      <trkpt lat="46.45745" lon="0.48401">
        <ele>131.33629878983</ele>
        <time>2021-09-13T06:47:04Z</time>
      </trkpt>
      <trkpt lat="46.45747" lon="0.48399">
        <ele>131.21115834266</ele>
        <time>2021-09-13T06:47:06Z</time>
      </trkpt>
      <trkpt lat="46.45749" lon="0.48396">
        <ele>131.57577690016</ele>
        <time>2021-09-13T06:47:08Z</time>
      </trkpt>
      <trkpt lat="46.4575" lon="0.48393">
        <ele>131.68083367869</ele>
        <time>2021-09-13T06:47:10Z</time>
      </trkpt>
      <trkpt lat="46.45751" lon="0.4839">
        <ele>131.6628126651</ele>
        <time>2021-09-13T06:47:13Z</time>
      </trkpt>
      <trkpt lat="46.45752" lon="0.48386">
        <ele>131.87032432761</ele>
        <time>2021-09-13T06:47:16Z</time>
      </trkpt>
      <trkpt lat="46.45753" lon="0.48384">
        <ele>131.53373679798</ele>
        <time>2021-09-13T06:47:18Z</time>
      </trkpt>
      <trkpt lat="46.45754" lon="0.48381">
        <ele>132.02275858354</ele>
        <time>2021-09-13T06:47:20Z</time>
      </trkpt>
      <trkpt lat="46.45755" lon="0.48378">
        <ele>131.5122413598</ele>
        <time>2021-09-13T06:47:22Z</time>
      </trkpt>
      <trkpt lat="46.45756" lon="0.48376">
        <ele>131.99011939671</ele>
        <time>2021-09-13T06:47:24Z</time>
      </trkpt>
      <trkpt lat="46.45757" lon="0.48374">
        <ele>131.7303030584</ele>
        <time>2021-09-13T06:47:26Z</time>
      </trkpt>
      <trkpt lat="46.45758" lon="0.48371">
        <ele>131.9139423063</ele>
        <time>2021-09-13T06:47:28Z</time>
      </trkpt>
      <trkpt lat="46.4576" lon="0.48368">
        <ele>131.99339754693</ele>
        <time>2021-09-13T06:47:30Z</time>
      </trkpt>
      <trkpt lat="46.45761" lon="0.48365">
        <ele>131.90314646997</ele>
        <time>2021-09-13T06:47:32Z</time>
      </trkpt>
      <trkpt lat="46.45762" lon="0.48361">
        <ele>131.68107577972</ele>
        <time>2021-09-13T06:47:34Z</time>
      </trkpt>
      <trkpt lat="46.45764" lon="0.48359">
        <ele>131.63585836999</ele>
        <time>2021-09-13T06:47:36Z</time>
      </trkpt>
      <trkpt lat="46.45766" lon="0.48355">
        <ele>132.12056680769</ele>
        <time>2021-09-13T06:47:38Z</time>
      </trkpt>
      <trkpt lat="46.45766" lon="0.48351">
        <ele>131.82897328772</ele>
        <time>2021-09-13T06:47:40Z</time>
      </trkpt>
      <trkpt lat="46.45766" lon="0.48348">
        <ele>131.60008516256</ele>
        <time>2021-09-13T06:47:42Z</time>
      </trkpt>
      <trkpt lat="46.45766" lon="0.48345">
        <ele>131.86146450881</ele>
        <time>2021-09-13T06:47:44Z</time>
      </trkpt>
      <trkpt lat="46.45766" lon="0.48341">
        <ele>130.80319289956</ele>
        <time>2021-09-13T06:47:46Z</time>
      </trkpt>
      <trkpt lat="46.45765" lon="0.48338">
        <ele>132.40680295508</ele>
        <time>2021-09-13T06:47:48Z</time>
      </trkpt>
      <trkpt lat="46.45764" lon="0.48335">
        <ele>131.51177674904</ele>
        <time>2021-09-13T06:47:51Z</time>
      </trkpt>
      <trkpt lat="46.45764" lon="0.48332">
        <ele>131.52433930617</ele>
        <time>2021-09-13T06:47:53Z</time>
      </trkpt>
      <trkpt lat="46.45763" lon="0.48329">
        <ele>131.48360919952</ele>
        <time>2021-09-13T06:47:55Z</time>
      </trkpt>
      <trkpt lat="46.45764" lon="0.48326">
        <ele>131.42520226166</ele>
        <time>2021-09-13T06:47:57Z</time>
      </trkpt>
      <trkpt lat="46.45764" lon="0.48323">
        <ele>131.52763542626</ele>
        <time>2021-09-13T06:47:59Z</time>
      </trkpt>
      <trkpt lat="46.45764" lon="0.48319">
        <ele>131.93677073903</ele>
        <time>2021-09-13T06:48:01Z</time>
      </trkpt>
      <trkpt lat="46.45764" lon="0.48317">
        <ele>131.62715758849</ele>
        <time>2021-09-13T06:48:03Z</time>
      </trkpt>
      <trkpt lat="46.45764" lon="0.48313">
        <ele>131.40180364996</ele>
        <time>2021-09-13T06:48:06Z</time>
      </trkpt>
      <trkpt lat="46.45764" lon="0.4831">
        <ele>131.60134404618</ele>
        <time>2021-09-13T06:48:08Z</time>
      </trkpt>
      <trkpt lat="46.45764" lon="0.48306">
        <ele>131.7490593195</ele>
        <time>2021-09-13T06:48:10Z</time>
      </trkpt>
      <trkpt lat="46.45764" lon="0.48303">
        <ele>131.42899352778</ele>
        <time>2021-09-13T06:48:12Z</time>
      </trkpt>
      <trkpt lat="46.45764" lon="0.483">
        <ele>131.7277942067</ele>
        <time>2021-09-13T06:48:14Z</time>
      </trkpt>
      <trkpt lat="46.45764" lon="0.48297">
        <ele>131.63649443258</ele>
        <time>2021-09-13T06:48:16Z</time>
      </trkpt>
      <trkpt lat="46.45764" lon="0.48294">
        <ele>131.78192790039</ele>
        <time>2021-09-13T06:48:18Z</time>
      </trkpt>
      <trkpt lat="46.45764" lon="0.4829">
        <ele>131.10423771106</ele>
        <time>2021-09-13T06:48:20Z</time>
      </trkpt>
      <trkpt lat="46.45763" lon="0.48286">
        <ele>131.32150250021</ele>
        <time>2021-09-13T06:48:22Z</time>
      </trkpt>
      <trkpt lat="46.45764" lon="0.48283">
        <ele>131.87953886017</ele>
        <time>2021-09-13T06:48:24Z</time>
      </trkpt>
      <trkpt lat="46.45763" lon="0.48279">
        <ele>131.3471684251</ele>
        <time>2021-09-13T06:48:26Z</time>
      </trkpt>
      <trkpt lat="46.45764" lon="0.48276">
        <ele>131.83518754318</ele>
        <time>2021-09-13T06:48:28Z</time>
      </trkpt>
      <trkpt lat="46.45764" lon="0.48273">
        <ele>131.25599740818</ele>
        <time>2021-09-13T06:48:30Z</time>
      </trkpt>
      <trkpt lat="46.45765" lon="0.4827">
        <ele>132.36051829625</ele>
        <time>2021-09-13T06:48:32Z</time>
      </trkpt>
      <trkpt lat="46.45765" lon="0.48267">
        <ele>131.40368121117</ele>
        <time>2021-09-13T06:48:34Z</time>
      </trkpt>
      <trkpt lat="46.45765" lon="0.48262">
        <ele>131.64128553774</ele>
        <time>2021-09-13T06:48:36Z</time>
      </trkpt>
      <trkpt lat="46.45764" lon="0.48259">
        <ele>131.561835411</ele>
        <time>2021-09-13T06:48:38Z</time>
      </trkpt>
      <trkpt lat="46.45764" lon="0.48255">
        <ele>131.56192208081</ele>
        <time>2021-09-13T06:48:41Z</time>
      </trkpt>
      <trkpt lat="46.45764" lon="0.48251">
        <ele>131.86003872566</ele>
        <time>2021-09-13T06:48:43Z</time>
      </trkpt>
      <trkpt lat="46.45763" lon="0.48248">
        <ele>131.42378428858</ele>
        <time>2021-09-13T06:48:45Z</time>
      </trkpt>
      <trkpt lat="46.45764" lon="0.48245">
        <ele>132.23556328379</ele>
        <time>2021-09-13T06:48:47Z</time>
      </trkpt>
      <trkpt lat="46.45764" lon="0.48241">
        <ele>131.30856722966</ele>
        <time>2021-09-13T06:48:49Z</time>
      </trkpt>
      <trkpt lat="46.45763" lon="0.48238">
        <ele>131.74493262731</ele>
        <time>2021-09-13T06:48:51Z</time>
      </trkpt>
      <trkpt lat="46.45762" lon="0.48235">
        <ele>132.36493518297</ele>
        <time>2021-09-13T06:48:53Z</time>
      </trkpt>
      <trkpt lat="46.45762" lon="0.48231">
        <ele>131.6528220959</ele>
        <time>2021-09-13T06:48:55Z</time>
      </trkpt>
      <trkpt lat="46.45762" lon="0.48227">
        <ele>131.33933244459</ele>
        <time>2021-09-13T06:48:58Z</time>
      </trkpt>
      <trkpt lat="46.45761" lon="0.48224">
        <ele>131.74696653057</ele>
        <time>2021-09-13T06:49:00Z</time>
      </trkpt>
      <trkpt lat="46.45762" lon="0.48221">
        <ele>131.9822897315</ele>
        <time>2021-09-13T06:49:02Z</time>
      </trkpt>
      <trkpt lat="46.45761" lon="0.48219">
        <ele>131.41745615471</ele>
        <time>2021-09-13T06:49:04Z</time>
      </trkpt>
      <trkpt lat="46.45761" lon="0.48216">
        <ele>131.50256815273</ele>
        <time>2021-09-13T06:49:06Z</time>
      </trkpt>
      <trkpt lat="46.4576" lon="0.48212">
        <ele>131.68763125129</ele>
        <time>2021-09-13T06:49:09Z</time>
      </trkpt>
      <trkpt lat="46.4576" lon="0.48208">
        <ele>131.73492156621</ele>
        <time>2021-09-13T06:49:11Z</time>
      </trkpt>
      <trkpt lat="46.4576" lon="0.48204">
        <ele>131.89029419702</ele>
        <time>2021-09-13T06:49:13Z</time>
      </trkpt>
      <trkpt lat="46.4576" lon="0.482">
        <ele>131.76367941592</ele>
        <time>2021-09-13T06:49:15Z</time>
      </trkpt>
      <trkpt lat="46.45759" lon="0.48196">
        <ele>130.86295607034</ele>
        <time>2021-09-13T06:49:17Z</time>
      </trkpt>
      <trkpt lat="46.4576" lon="0.48193">
        <ele>131.57465237472</ele>
        <time>2021-09-13T06:49:19Z</time>
      </trkpt>
      <trkpt lat="46.4576" lon="0.4819">
        <ele>131.1759545682</ele>
        <time>2021-09-13T06:49:21Z</time>
      </trkpt>
      <trkpt lat="46.4576" lon="0.48187">
        <ele>131.66382180247</ele>
        <time>2021-09-13T06:49:24Z</time>
      </trkpt>
      <trkpt lat="46.45759" lon="0.48183">
        <ele>132.16079015937</ele>
        <time>2021-09-13T06:49:26Z</time>
      </trkpt>
      <trkpt lat="46.45759" lon="0.48181">
        <ele>131.3183125183</ele>
        <time>2021-09-13T06:49:28Z</time>
      </trkpt>
      <trkpt lat="46.45758" lon="0.48176">
        <ele>131.48668069672</ele>
        <time>2021-09-13T06:49:31Z</time>
      </trkpt>
      <trkpt lat="46.45757" lon="0.48171">
        <ele>131.55844020937</ele>
        <time>2021-09-13T06:49:33Z</time>
      </trkpt>
      <trkpt lat="46.45756" lon="0.48167">
        <ele>131.32046232838</ele>
        <time>2021-09-13T06:49:35Z</time>
      </trkpt>
      <trkpt lat="46.45756" lon="0.48164">
        <ele>131.22628331743</ele>
        <time>2021-09-13T06:49:37Z</time>
      </trkpt>
      <trkpt lat="46.45755" lon="0.48161">
        <ele>131.32748047728</ele>
        <time>2021-09-13T06:49:39Z</time>
      </trkpt>
      <trkpt lat="46.45754" lon="0.48158">
        <ele>131.61071317177</ele>
        <time>2021-09-13T06:49:41Z</time>
      </trkpt>
      <trkpt lat="46.45754" lon="0.48153">
        <ele>130.86076519545</ele>
        <time>2021-09-13T06:49:43Z</time>
      </trkpt>
      <trkpt lat="46.45755" lon="0.48149">
        <ele>131.6735201804</ele>
        <time>2021-09-13T06:49:45Z</time>
      </trkpt>
      <trkpt lat="46.45755" lon="0.48146">
        <ele>131.6487007821</ele>
        <time>2021-09-13T06:49:47Z</time>
      </trkpt>
      <trkpt lat="46.45755" lon="0.48142">
        <ele>131.76983680762</ele>
        <time>2021-09-13T06:49:49Z</time>
      </trkpt>
      <trkpt lat="46.45755" lon="0.48139">
        <ele>131.99544787034</ele>
        <time>2021-09-13T06:49:52Z</time>
      </trkpt>
      <trkpt lat="46.45754" lon="0.48136">
        <ele>132.54320880957</ele>
        <time>2021-09-13T06:49:54Z</time>
      </trkpt>
      <trkpt lat="46.45754" lon="0.48133">
        <ele>131.62503313553</ele>
        <time>2021-09-13T06:49:56Z</time>
      </trkpt>
      <trkpt lat="46.45753" lon="0.48129">
        <ele>131.67709838878</ele>
        <time>2021-09-13T06:49:58Z</time>
      </trkpt>
      <trkpt lat="46.45753" lon="0.48126">
        <ele>131.96441314835</ele>
        <time>2021-09-13T06:50:01Z</time>
      </trkpt>
      <trkpt lat="46.45751" lon="0.4812">
        <ele>131.40485415608</ele>
        <time>2021-09-13T06:50:04Z</time>
      </trkpt>
      <trkpt lat="46.45751" lon="0.48116">
        <ele>131.75171809923</ele>
        <time>2021-09-13T06:50:06Z</time>
      </trkpt>
      <trkpt lat="46.4575" lon="0.48113">
        <ele>130.85057705734</ele>
        <time>2021-09-13T06:50:08Z</time>
      </trkpt>
      <trkpt lat="46.45749" lon="0.4811">
        <ele>131.9079056792</ele>
        <time>2021-09-13T06:50:10Z</time>
      </trkpt>
      <trkpt lat="46.45749" lon="0.48107">
        <ele>131.58618025668</ele>
        <time>2021-09-13T06:50:12Z</time>
      </trkpt>
      <trkpt lat="46.45748" lon="0.48103">
        <ele>131.65161439124</ele>
        <time>2021-09-13T06:50:14Z</time>
      </trkpt>
      <trkpt lat="46.45748" lon="0.48099">
        <ele>131.30721977353</ele>
        <time>2021-09-13T06:50:16Z</time>
      </trkpt>
      <trkpt lat="46.45747" lon="0.48095">
        <ele>131.6513401838</ele>
        <time>2021-09-13T06:50:18Z</time>
      </trkpt>
      <trkpt lat="46.45747" lon="0.48092">
        <ele>131.43927703798</ele>
        <time>2021-09-13T06:50:20Z</time>
      </trkpt>
      <trkpt lat="46.45748" lon="0.48089">
        <ele>131.214601418</ele>
        <time>2021-09-13T06:50:22Z</time>
      </trkpt>
      <trkpt lat="46.45747" lon="0.48086">
        <ele>130.54589029402</ele>
        <time>2021-09-13T06:50:24Z</time>
      </trkpt>
      <trkpt lat="46.45747" lon="0.48082">
        <ele>130.66522220336</ele>
        <time>2021-09-13T06:50:26Z</time>
      </trkpt>
      <trkpt lat="46.45746" lon="0.48077">
        <ele>130.50518244412</ele>
        <time>2021-09-13T06:50:28Z</time>
      </trkpt>
      <trkpt lat="46.45745" lon="0.48074">
        <ele>130.6143820649</ele>
        <time>2021-09-13T06:50:31Z</time>
      </trkpt>
      <trkpt lat="46.45745" lon="0.48071">
        <ele>130.59918801486</ele>
        <time>2021-09-13T06:50:33Z</time>
      </trkpt>
      <trkpt lat="46.45744" lon="0.48068">
        <ele>130.46716911253</ele>
        <time>2021-09-13T06:50:35Z</time>
      </trkpt>
      <trkpt lat="46.45744" lon="0.48065">
        <ele>130.73400708847</ele>
        <time>2021-09-13T06:50:37Z</time>
      </trkpt>
      <trkpt lat="46.45743" lon="0.48062">
        <ele>130.0853002416</ele>
        <time>2021-09-13T06:50:40Z</time>
      </trkpt>
      <trkpt lat="46.45743" lon="0.48059">
        <ele>130.61167603917</ele>
        <time>2021-09-13T06:50:42Z</time>
      </trkpt>
      <trkpt lat="46.45744" lon="0.48055">
        <ele>130.49397426192</ele>
        <time>2021-09-13T06:50:44Z</time>
      </trkpt>
      <trkpt lat="46.45744" lon="0.48051">
        <ele>130.78524432424</ele>
        <time>2021-09-13T06:50:51Z</time>
      </trkpt>
      <trkpt lat="46.45742" lon="0.48048">
        <ele>130.51772021689</ele>
        <time>2021-09-13T06:50:53Z</time>
      </trkpt>
      <trkpt lat="46.45742" lon="0.48046">
        <ele>130.0710673891</ele>
        <time>2021-09-13T06:50:55Z</time>
      </trkpt>
      <trkpt lat="46.45741" lon="0.48043">
        <ele>130.5618968308</ele>
        <time>2021-09-13T06:50:57Z</time>
      </trkpt>
      <trkpt lat="46.4574" lon="0.48039">
        <ele>130.59208844043</ele>
        <time>2021-09-13T06:51:00Z</time>
      </trkpt>
      <trkpt lat="46.45739" lon="0.48036">
        <ele>129.9703152189</ele>
        <time>2021-09-13T06:51:02Z</time>
      </trkpt>
      <trkpt lat="46.45737" lon="0.48032">
        <ele>130.73596522585</ele>
        <time>2021-09-13T06:51:04Z</time>
      </trkpt>
      <trkpt lat="46.45736" lon="0.48029">
        <ele>130.63225972839</ele>
        <time>2021-09-13T06:51:06Z</time>
      </trkpt>
      <trkpt lat="46.45735" lon="0.48027">
        <ele>129.94188015535</ele>
        <time>2021-09-13T06:51:08Z</time>
      </trkpt>
      <trkpt lat="46.45734" lon="0.48024">
        <ele>130.85504118353</ele>
        <time>2021-09-13T06:51:10Z</time>
      </trkpt>
      <trkpt lat="46.45733" lon="0.4802">
        <ele>130.29198005516</ele>
        <time>2021-09-13T06:51:12Z</time>
      </trkpt>
      <trkpt lat="46.45732" lon="0.48017">
        <ele>130.41407208424</ele>
        <time>2021-09-13T06:51:14Z</time>
      </trkpt>
      <trkpt lat="46.4573" lon="0.48014">
        <ele>130.40890214778</ele>
        <time>2021-09-13T06:51:16Z</time>
      </trkpt>
      <trkpt lat="46.45729" lon="0.48011">
        <ele>130.48583961837</ele>
        <time>2021-09-13T06:51:18Z</time>
      </trkpt>
      <trkpt lat="46.45729" lon="0.48007">
        <ele>130.4037427688</ele>
        <time>2021-09-13T06:51:21Z</time>
      </trkpt>
      <trkpt lat="46.45727" lon="0.48004">
        <ele>130.2762938058</ele>
        <time>2021-09-13T06:51:23Z</time>
      </trkpt>
      <trkpt lat="46.45726" lon="0.48">
        <ele>130.66577783413</ele>
        <time>2021-09-13T06:51:25Z</time>
      </trkpt>
      <trkpt lat="46.45724" lon="0.47997">
        <ele>130.65578270983</ele>
        <time>2021-09-13T06:51:27Z</time>
      </trkpt>
      <trkpt lat="46.45723" lon="0.47993">
        <ele>130.29707026109</ele>
        <time>2021-09-13T06:51:29Z</time>
      </trkpt>
      <trkpt lat="46.45723" lon="0.47989">
        <ele>130.39101919439</ele>
        <time>2021-09-13T06:51:31Z</time>
      </trkpt>
      <trkpt lat="46.45722" lon="0.47986">
        <ele>130.63753055409</ele>
        <time>2021-09-13T06:51:33Z</time>
      </trkpt>
      <trkpt lat="46.45721" lon="0.47983">
        <ele>129.97679703869</ele>
        <time>2021-09-13T06:51:35Z</time>
      </trkpt>
      <trkpt lat="46.4572" lon="0.4798">
        <ele>129.86826622207</ele>
        <time>2021-09-13T06:51:37Z</time>
      </trkpt>
      <trkpt lat="46.45719" lon="0.47977">
        <ele>129.86182188988</ele>
        <time>2021-09-13T06:51:39Z</time>
      </trkpt>
      <trkpt lat="46.45718" lon="0.47974">
        <ele>129.55096184369</ele>
        <time>2021-09-13T06:51:41Z</time>
      </trkpt>
      <trkpt lat="46.45717" lon="0.47971">
        <ele>129.33784358017</ele>
        <time>2021-09-13T06:51:43Z</time>
      </trkpt>
      <trkpt lat="46.45715" lon="0.47968">
        <ele>129.37297533918</ele>
        <time>2021-09-13T06:51:45Z</time>
      </trkpt>
      <trkpt lat="46.45715" lon="0.47965">
        <ele>130.13936225139</ele>
        <time>2021-09-13T06:51:47Z</time>
      </trkpt>
      <trkpt lat="46.45713" lon="0.47961">
        <ele>129.22976129036</ele>
        <time>2021-09-13T06:51:49Z</time>
      </trkpt>
      <trkpt lat="46.45712" lon="0.47958">
        <ele>129.00469735358</ele>
        <time>2021-09-13T06:51:50Z</time>
      </trkpt>
      <trkpt lat="46.45711" lon="0.47955">
        <ele>129.0043786373</ele>
        <time>2021-09-13T06:51:51Z</time>
      </trkpt>
      <trkpt lat="46.45709" lon="0.47952">
        <ele>129.58638718911</ele>
        <time>2021-09-13T06:51:53Z</time>
      </trkpt>
      <trkpt lat="46.45708" lon="0.47948">
        <ele>129.73977084644</ele>
        <time>2021-09-13T06:51:55Z</time>
      </trkpt>
      <trkpt lat="46.45707" lon="0.47945">
        <ele>129.48385699559</ele>
        <time>2021-09-13T06:51:57Z</time>
      </trkpt>
      <trkpt lat="46.45705" lon="0.47942">
        <ele>129.2075535031</ele>
        <time>2021-09-13T06:51:59Z</time>
      </trkpt>
      <trkpt lat="46.45703" lon="0.47939">
        <ele>129.05754900537</ele>
        <time>2021-09-13T06:52:01Z</time>
      </trkpt>
      <trkpt lat="46.45703" lon="0.47936">
        <ele>129.80510482471</ele>
        <time>2021-09-13T06:52:03Z</time>
      </trkpt>
      <trkpt lat="46.45701" lon="0.47933">
        <ele>129.07490280084</ele>
        <time>2021-09-13T06:52:05Z</time>
      </trkpt>
      <trkpt lat="46.457" lon="0.47929">
        <ele>129.30837507546</ele>
        <time>2021-09-13T06:52:07Z</time>
      </trkpt>
      <trkpt lat="46.457" lon="0.47927">
        <ele>128.87947451416</ele>
        <time>2021-09-13T06:52:09Z</time>
      </trkpt>
      <trkpt lat="46.45698" lon="0.47924">
        <ele>128.98318229336</ele>
        <time>2021-09-13T06:52:11Z</time>
      </trkpt>
      <trkpt lat="46.45697" lon="0.4792">
        <ele>129.25731156766</ele>
        <time>2021-09-13T06:52:13Z</time>
      </trkpt>
      <trkpt lat="46.45695" lon="0.47918">
        <ele>128.63681712002</ele>
        <time>2021-09-13T06:52:15Z</time>
      </trkpt>
      <trkpt lat="46.45694" lon="0.47915">
        <ele>128.27546267584</ele>
        <time>2021-09-13T06:52:17Z</time>
      </trkpt>
      <trkpt lat="46.45693" lon="0.47911">
        <ele>128.4129538741</ele>
        <time>2021-09-13T06:52:19Z</time>
      </trkpt>
      <trkpt lat="46.45692" lon="0.47909">
        <ele>128.50390260294</ele>
        <time>2021-09-13T06:52:21Z</time>
      </trkpt>
      <trkpt lat="46.45691" lon="0.47906">
        <ele>128.38137202617</ele>
        <time>2021-09-13T06:52:23Z</time>
      </trkpt>
      <trkpt lat="46.4569" lon="0.47903">
        <ele>128.51296219788</ele>
        <time>2021-09-13T06:52:25Z</time>
      </trkpt>
      <trkpt lat="46.45688" lon="0.47899">
        <ele>128.16783300228</ele>
        <time>2021-09-13T06:52:27Z</time>
      </trkpt>
      <trkpt lat="46.45688" lon="0.47896">
        <ele>128.35120108444</ele>
        <time>2021-09-13T06:52:29Z</time>
      </trkpt>
      <trkpt lat="46.45687" lon="0.47893">
        <ele>127.71395776607</ele>
        <time>2021-09-13T06:52:31Z</time>
      </trkpt>
      <trkpt lat="46.45686" lon="0.4789">
        <ele>128.34988433588</ele>
        <time>2021-09-13T06:52:33Z</time>
      </trkpt>
      <trkpt lat="46.45685" lon="0.47886">
        <ele>128.31914742943</ele>
        <time>2021-09-13T06:52:36Z</time>
      </trkpt>
      <trkpt lat="46.45683" lon="0.47883">
        <ele>128.23319920432</ele>
        <time>2021-09-13T06:52:38Z</time>
      </trkpt>
      <trkpt lat="46.45683" lon="0.47879">
        <ele>128.56179776415</ele>
        <time>2021-09-13T06:52:40Z</time>
      </trkpt>
      <trkpt lat="46.45682" lon="0.47876">
        <ele>128.51473027747</ele>
        <time>2021-09-13T06:52:42Z</time>
      </trkpt>
      <trkpt lat="46.4568" lon="0.47873">
        <ele>128.59678263217</ele>
        <time>2021-09-13T06:52:44Z</time>
      </trkpt>
      <trkpt lat="46.45679" lon="0.4787">
        <ele>127.79276033491</ele>
        <time>2021-09-13T06:52:46Z</time>
      </trkpt>
      <trkpt lat="46.45678" lon="0.47867">
        <ele>128.44048503693</ele>
        <time>2021-09-13T06:52:48Z</time>
      </trkpt>
      <trkpt lat="46.45676" lon="0.47865">
        <ele>128.06651232485</ele>
        <time>2021-09-13T06:52:50Z</time>
      </trkpt>
      <trkpt lat="46.45676" lon="0.47862">
        <ele>127.91300576087</ele>
        <time>2021-09-13T06:52:52Z</time>
      </trkpt>
      <trkpt lat="46.45675" lon="0.47859">
        <ele>127.94342069607</ele>
        <time>2021-09-13T06:52:54Z</time>
      </trkpt>
      <trkpt lat="46.45673" lon="0.47856">
        <ele>127.66994704865</ele>
        <time>2021-09-13T06:52:56Z</time>
      </trkpt>
      <trkpt lat="46.45673" lon="0.47853">
        <ele>127.87196010537</ele>
        <time>2021-09-13T06:52:58Z</time>
      </trkpt>
      <trkpt lat="46.45671" lon="0.47852">
        <ele>127.91752250493</ele>
        <time>2021-09-13T06:53:00Z</time>
      </trkpt>
      <trkpt lat="46.45669" lon="0.4785">
        <ele>127.2541302396</ele>
        <time>2021-09-13T06:53:02Z</time>
      </trkpt>
      <trkpt lat="46.45666" lon="0.47847">
        <ele>126.72814078629</ele>
        <time>2021-09-13T06:53:05Z</time>
      </trkpt>
      <trkpt lat="46.45665" lon="0.47845">
        <ele>127.34587528836</ele>
        <time>2021-09-13T06:53:07Z</time>
      </trkpt>
      <trkpt lat="46.45663" lon="0.47841">
        <ele>127.47936789785</ele>
        <time>2021-09-13T06:53:09Z</time>
      </trkpt>
      <trkpt lat="46.45662" lon="0.47838">
        <ele>127.71137909964</ele>
        <time>2021-09-13T06:53:11Z</time>
      </trkpt>
      <trkpt lat="46.45661" lon="0.47835">
        <ele>127.07821648847</ele>
        <time>2021-09-13T06:53:13Z</time>
      </trkpt>
      <trkpt lat="46.45659" lon="0.47832">
        <ele>127.62746648956</ele>
        <time>2021-09-13T06:53:15Z</time>
      </trkpt>
      <trkpt lat="46.45658" lon="0.47829">
        <ele>127.63188872766</ele>
        <time>2021-09-13T06:53:17Z</time>
      </trkpt>
      <trkpt lat="46.45657" lon="0.47826">
        <ele>127.41897817049</ele>
        <time>2021-09-13T06:53:19Z</time>
      </trkpt>
      <trkpt lat="46.45657" lon="0.47823">
        <ele>127.27116531692</ele>
        <time>2021-09-13T06:53:21Z</time>
      </trkpt>
      <trkpt lat="46.45656" lon="0.47818">
        <ele>128.02651292086</ele>
        <time>2021-09-13T06:53:23Z</time>
      </trkpt>
      <trkpt lat="46.45654" lon="0.47816">
        <ele>127.79694526177</ele>
        <time>2021-09-13T06:53:26Z</time>
      </trkpt>
      <trkpt lat="46.45654" lon="0.47813">
        <ele>127.03259182908</ele>
        <time>2021-09-13T06:53:28Z</time>
      </trkpt>
      <trkpt lat="46.45653" lon="0.4781">
        <ele>127.09773719124</ele>
        <time>2021-09-13T06:53:30Z</time>
      </trkpt>
      <trkpt lat="46.45651" lon="0.47807">
        <ele>127.84458922688</ele>
        <time>2021-09-13T06:53:32Z</time>
      </trkpt>
      <trkpt lat="46.4565" lon="0.47804">
        <ele>126.89954412449</ele>
        <time>2021-09-13T06:53:34Z</time>
      </trkpt>
      <trkpt lat="46.4565" lon="0.47801">
        <ele>127.5877597509</ele>
        <time>2021-09-13T06:53:37Z</time>
      </trkpt>
      <trkpt lat="46.45649" lon="0.47797">
        <ele>126.73969309963</ele>
        <time>2021-09-13T06:53:39Z</time>
      </trkpt>
      <trkpt lat="46.45648" lon="0.47793">
        <ele>126.90837005526</ele>
        <time>2021-09-13T06:53:41Z</time>
      </trkpt>
      <trkpt lat="46.45646" lon="0.47791">
        <ele>126.77870373428</ele>
        <time>2021-09-13T06:53:43Z</time>
      </trkpt>
      <trkpt lat="46.45646" lon="0.47788">
        <ele>126.21263006702</ele>
        <time>2021-09-13T06:53:45Z</time>
      </trkpt>
      <trkpt lat="46.45644" lon="0.47785">
        <ele>126.64791264199</ele>
        <time>2021-09-13T06:53:47Z</time>
      </trkpt>
      <trkpt lat="46.45644" lon="0.47782">
        <ele>126.44931809511</ele>
        <time>2021-09-13T06:53:49Z</time>
      </trkpt>
      <trkpt lat="46.45643" lon="0.47779">
        <ele>126.52841702569</ele>
        <time>2021-09-13T06:53:51Z</time>
      </trkpt>
      <trkpt lat="46.45641" lon="0.47776">
        <ele>126.25178251881</ele>
        <time>2021-09-13T06:53:53Z</time>
      </trkpt>
      <trkpt lat="46.4564" lon="0.47773">
        <ele>126.03701438475</ele>
        <time>2021-09-13T06:53:55Z</time>
      </trkpt>
      <trkpt lat="46.4564" lon="0.47771">
        <ele>126.66513188183</ele>
        <time>2021-09-13T06:53:57Z</time>
      </trkpt>
      <trkpt lat="46.45639" lon="0.47768">
        <ele>126.50319366809</ele>
        <time>2021-09-13T06:53:59Z</time>
      </trkpt>
      <trkpt lat="46.45638" lon="0.47765">
        <ele>125.71359445713</ele>
        <time>2021-09-13T06:54:01Z</time>
      </trkpt>
      <trkpt lat="46.45637" lon="0.47762">
        <ele>126.28214472625</ele>
        <time>2021-09-13T06:54:03Z</time>
      </trkpt>
      <trkpt lat="46.45636" lon="0.47758">
        <ele>126.07065479923</ele>
        <time>2021-09-13T06:54:05Z</time>
      </trkpt>
      <trkpt lat="46.45635" lon="0.47755">
        <ele>126.3209999539</ele>
        <time>2021-09-13T06:54:07Z</time>
      </trkpt>
      <trkpt lat="46.45633" lon="0.47752">
        <ele>126.17545064446</ele>
        <time>2021-09-13T06:54:10Z</time>
      </trkpt>
      <trkpt lat="46.45632" lon="0.47748">
        <ele>126.44077674672</ele>
        <time>2021-09-13T06:54:12Z</time>
      </trkpt>
      <trkpt lat="46.45631" lon="0.47745">
        <ele>126.70355668012</ele>
        <time>2021-09-13T06:54:14Z</time>
      </trkpt>
      <trkpt lat="46.4563" lon="0.47741">
        <ele>126.52005520929</ele>
        <time>2021-09-13T06:54:16Z</time>
      </trkpt>
      <trkpt lat="46.45629" lon="0.47737">
        <ele>125.7396773193</ele>
        <time>2021-09-13T06:54:19Z</time>
      </trkpt>
      <trkpt lat="46.45628" lon="0.47734">
        <ele>125.79658005573</ele>
        <time>2021-09-13T06:54:21Z</time>
      </trkpt>
      <trkpt lat="46.45627" lon="0.47732">
        <ele>125.39692786615</ele>
        <time>2021-09-13T06:54:23Z</time>
      </trkpt>
      <trkpt lat="46.45627" lon="0.47728">
        <ele>125.45415291656</ele>
        <time>2021-09-13T06:54:25Z</time>
      </trkpt>
      <trkpt lat="46.45626" lon="0.47725">
        <ele>125.72625760827</ele>
        <time>2021-09-13T06:54:27Z</time>
      </trkpt>
      <trkpt lat="46.45625" lon="0.47722">
        <ele>125.19722009636</ele>
        <time>2021-09-13T06:54:29Z</time>
      </trkpt>
      <trkpt lat="46.45623" lon="0.47719">
        <ele>125.42363710981</ele>
        <time>2021-09-13T06:54:31Z</time>
      </trkpt>
      <trkpt lat="46.45622" lon="0.47715">
        <ele>125.82878443226</ele>
        <time>2021-09-13T06:54:33Z</time>
      </trkpt>
      <trkpt lat="46.45621" lon="0.47712">
        <ele>125.65129798837</ele>
        <time>2021-09-13T06:54:35Z</time>
      </trkpt>
      <trkpt lat="46.4562" lon="0.47709">
        <ele>125.40941500943</ele>
        <time>2021-09-13T06:54:37Z</time>
      </trkpt>
      <trkpt lat="46.45619" lon="0.47705">
        <ele>125.53108521085</ele>
        <time>2021-09-13T06:54:39Z</time>
      </trkpt>
      <trkpt lat="46.45619" lon="0.47701">
        <ele>125.12301905453</ele>
        <time>2021-09-13T06:54:41Z</time>
      </trkpt>
      <trkpt lat="46.45617" lon="0.47697">
        <ele>125.44469073694</ele>
        <time>2021-09-13T06:54:43Z</time>
      </trkpt>
      <trkpt lat="46.45616" lon="0.47695">
        <ele>125.80584346317</ele>
        <time>2021-09-13T06:54:45Z</time>
      </trkpt>
      <trkpt lat="46.45615" lon="0.47691">
        <ele>125.43555400986</ele>
        <time>2021-09-13T06:54:47Z</time>
      </trkpt>
      <trkpt lat="46.45614" lon="0.47687">
        <ele>125.87797126826</ele>
        <time>2021-09-13T06:54:49Z</time>
      </trkpt>
      <trkpt lat="46.45613" lon="0.47683">
        <ele>125.60294633824</ele>
        <time>2021-09-13T06:54:51Z</time>
      </trkpt>
      <trkpt lat="46.45611" lon="0.47681">
        <ele>124.66561578307</ele>
        <time>2021-09-13T06:54:53Z</time>
      </trkpt>
      <trkpt lat="46.4561" lon="0.47678">
        <ele>125.09412860777</ele>
        <time>2021-09-13T06:54:55Z</time>
      </trkpt>
      <trkpt lat="46.4561" lon="0.47675">
        <ele>125.42258417606</ele>
        <time>2021-09-13T06:54:56Z</time>
      </trkpt>
      <trkpt lat="46.45608" lon="0.47672">
        <ele>125.39572716691</ele>
        <time>2021-09-13T06:54:58Z</time>
      </trkpt>
      <trkpt lat="46.45607" lon="0.47669">
        <ele>125.48203854077</ele>
        <time>2021-09-13T06:55:00Z</time>
      </trkpt>
      <trkpt lat="46.45606" lon="0.47666">
        <ele>126.05567458645</ele>
        <time>2021-09-13T06:55:02Z</time>
      </trkpt>
      <trkpt lat="46.45605" lon="0.47663">
        <ele>125.61154041067</ele>
        <time>2021-09-13T06:55:04Z</time>
      </trkpt>
      <trkpt lat="46.45604" lon="0.47659">
        <ele>125.72497672215</ele>
        <time>2021-09-13T06:55:06Z</time>
      </trkpt>
      <trkpt lat="46.45603" lon="0.47656">
        <ele>126.03469543438</ele>
        <time>2021-09-13T06:55:08Z</time>
      </trkpt>
      <trkpt lat="46.45602" lon="0.47653">
        <ele>125.81911351532</ele>
        <time>2021-09-13T06:55:10Z</time>
      </trkpt>
      <trkpt lat="46.45601" lon="0.4765">
        <ele>126.43920178246</ele>
        <time>2021-09-13T06:55:12Z</time>
      </trkpt>
      <trkpt lat="46.456" lon="0.47646">
        <ele>126.38682667725</ele>
        <time>2021-09-13T06:55:14Z</time>
      </trkpt>
      <trkpt lat="46.45598" lon="0.47643">
        <ele>125.88979678787</ele>
        <time>2021-09-13T06:55:17Z</time>
      </trkpt>
      <trkpt lat="46.45597" lon="0.47639">
        <ele>125.77783209179</ele>
        <time>2021-09-13T06:55:19Z</time>
      </trkpt>
      <trkpt lat="46.45596" lon="0.47637">
        <ele>126.41145475395</ele>
        <time>2021-09-13T06:55:21Z</time>
      </trkpt>
      <trkpt lat="46.45595" lon="0.47634">
        <ele>126.55738741811</ele>
        <time>2021-09-13T06:55:23Z</time>
      </trkpt>
      <trkpt lat="46.45594" lon="0.47631">
        <ele>125.87396372017</ele>
        <time>2021-09-13T06:55:25Z</time>
      </trkpt>
      <trkpt lat="46.45593" lon="0.47628">
        <ele>126.50275232922</ele>
        <time>2021-09-13T06:55:27Z</time>
      </trkpt>
      <trkpt lat="46.45591" lon="0.47624">
        <ele>126.96928720176</ele>
        <time>2021-09-13T06:55:29Z</time>
      </trkpt>
      <trkpt lat="46.4559" lon="0.47622">
        <ele>126.86285326816</ele>
        <time>2021-09-13T06:55:31Z</time>
      </trkpt>
      <trkpt lat="46.45589" lon="0.47618">
        <ele>126.63105011173</ele>
        <time>2021-09-13T06:55:33Z</time>
      </trkpt>
      <trkpt lat="46.45587" lon="0.47615">
        <ele>126.76830677781</ele>
        <time>2021-09-13T06:55:36Z</time>
      </trkpt>
      <trkpt lat="46.45585" lon="0.47612">
        <ele>127.00868007448</ele>
        <time>2021-09-13T06:55:38Z</time>
      </trkpt>
      <trkpt lat="46.45584" lon="0.4761">
        <ele>127.35570734739</ele>
        <time>2021-09-13T06:55:40Z</time>
      </trkpt>
      <trkpt lat="46.45582" lon="0.47608">
        <ele>126.44028149731</ele>
        <time>2021-09-13T06:55:42Z</time>
      </trkpt>
      <trkpt lat="46.45581" lon="0.47606">
        <ele>126.50696805492</ele>
        <time>2021-09-13T06:55:44Z</time>
      </trkpt>
      <trkpt lat="46.45579" lon="0.47604">
        <ele>126.71497108787</ele>
        <time>2021-09-13T06:55:45Z</time>
      </trkpt>
      <trkpt lat="46.45577" lon="0.47601">
        <ele>126.85493673477</ele>
        <time>2021-09-13T06:55:47Z</time>
      </trkpt>
      <trkpt lat="46.45576" lon="0.47598">
        <ele>126.1435624864</ele>
        <time>2021-09-13T06:55:49Z</time>
      </trkpt>
      <trkpt lat="46.45573" lon="0.47595">
        <ele>127.23203842249</ele>
        <time>2021-09-13T06:55:52Z</time>
      </trkpt>
      <trkpt lat="46.45572" lon="0.47593">
        <ele>126.57830622699</ele>
        <time>2021-09-13T06:55:54Z</time>
      </trkpt>
      <trkpt lat="46.4557" lon="0.4759">
        <ele>126.58472251333</ele>
        <time>2021-09-13T06:55:57Z</time>
      </trkpt>
      <trkpt lat="46.45568" lon="0.47587">
        <ele>126.87955475785</ele>
        <time>2021-09-13T06:55:59Z</time>
      </trkpt>
      <trkpt lat="46.45567" lon="0.47585">
        <ele>127.02191827819</ele>
        <time>2021-09-13T06:56:01Z</time>
      </trkpt>
      <trkpt lat="46.45565" lon="0.47583">
        <ele>126.5645422386</ele>
        <time>2021-09-13T06:56:03Z</time>
      </trkpt>
      <trkpt lat="46.45564" lon="0.47581">
        <ele>126.43064531125</ele>
        <time>2021-09-13T06:56:04Z</time>
      </trkpt>
      <trkpt lat="46.45562" lon="0.47579">
        <ele>127.35294888169</ele>
        <time>2021-09-13T06:56:06Z</time>
      </trkpt>
      <trkpt lat="46.4556" lon="0.47576">
        <ele>126.75548630953</ele>
        <time>2021-09-13T06:56:08Z</time>
      </trkpt>
      <trkpt lat="46.45558" lon="0.47572">
        <ele>126.69122748449</ele>
        <time>2021-09-13T06:56:10Z</time>
      </trkpt>
      <trkpt lat="46.45557" lon="0.47569">
        <ele>126.34040513635</ele>
        <time>2021-09-13T06:56:12Z</time>
      </trkpt>
      <trkpt lat="46.45555" lon="0.47567">
        <ele>126.98980899528</ele>
        <time>2021-09-13T06:56:14Z</time>
      </trkpt>
      <trkpt lat="46.45553" lon="0.47563">
        <ele>127.56874829531</ele>
        <time>2021-09-13T06:56:16Z</time>
      </trkpt>
      <trkpt lat="46.45551" lon="0.47561">
        <ele>127.3592405105</ele>
        <time>2021-09-13T06:56:18Z</time>
      </trkpt>
      <trkpt lat="46.4555" lon="0.47559">
        <ele>127.29412875418</ele>
        <time>2021-09-13T06:56:20Z</time>
      </trkpt>
      <trkpt lat="46.45548" lon="0.47556">
        <ele>127.61235116422</ele>
        <time>2021-09-13T06:56:22Z</time>
      </trkpt>
      <trkpt lat="46.45546" lon="0.47554">
        <ele>127.31126551889</ele>
        <time>2021-09-13T06:56:24Z</time>
      </trkpt>
      <trkpt lat="46.45544" lon="0.4755">
        <ele>128.10221784376</ele>
        <time>2021-09-13T06:56:26Z</time>
      </trkpt>
      <trkpt lat="46.45543" lon="0.47547">
        <ele>127.78229782265</ele>
        <time>2021-09-13T06:56:29Z</time>
      </trkpt>
      <trkpt lat="46.45541" lon="0.47545">
        <ele>127.94475022331</ele>
        <time>2021-09-13T06:56:31Z</time>
      </trkpt>
      <trkpt lat="46.45539" lon="0.47543">
        <ele>127.89595141821</ele>
        <time>2021-09-13T06:56:33Z</time>
      </trkpt>
      <trkpt lat="46.45537" lon="0.47541">
        <ele>127.94839813374</ele>
        <time>2021-09-13T06:56:35Z</time>
      </trkpt>
      <trkpt lat="46.45536" lon="0.47537">
        <ele>127.41115837917</ele>
        <time>2021-09-13T06:56:38Z</time>
      </trkpt>
      <trkpt lat="46.45535" lon="0.47535">
        <ele>126.85077534337</ele>
        <time>2021-09-13T06:56:40Z</time>
      </trkpt>
      <trkpt lat="46.45533" lon="0.47531">
        <ele>129.05679175723</ele>
        <time>2021-09-13T06:56:42Z</time>
      </trkpt>
      <trkpt lat="46.4553" lon="0.47528">
        <ele>127.75948171318</ele>
        <time>2021-09-13T06:56:44Z</time>
      </trkpt>
      <trkpt lat="46.45528" lon="0.47525">
        <ele>127.63365006912</ele>
        <time>2021-09-13T06:56:46Z</time>
      </trkpt>
      <trkpt lat="46.45527" lon="0.47522">
        <ele>127.62207281962</ele>
        <time>2021-09-13T06:56:49Z</time>
      </trkpt>
      <trkpt lat="46.45525" lon="0.47519">
        <ele>127.73832104169</ele>
        <time>2021-09-13T06:56:51Z</time>
      </trkpt>
      <trkpt lat="46.45523" lon="0.47516">
        <ele>127.8977531977</ele>
        <time>2021-09-13T06:56:53Z</time>
      </trkpt>
      <trkpt lat="46.45521" lon="0.47512">
        <ele>126.85042215884</ele>
        <time>2021-09-13T06:56:55Z</time>
      </trkpt>
      <trkpt lat="46.4552" lon="0.4751">
        <ele>128.48284784239</ele>
        <time>2021-09-13T06:56:57Z</time>
      </trkpt>
      <trkpt lat="46.45518" lon="0.47506">
        <ele>127.64504832774</ele>
        <time>2021-09-13T06:56:59Z</time>
      </trkpt>
      <trkpt lat="46.45516" lon="0.47503">
        <ele>127.73593930714</ele>
        <time>2021-09-13T06:57:02Z</time>
      </trkpt>
      <trkpt lat="46.45515" lon="0.475">
        <ele>127.64821735676</ele>
        <time>2021-09-13T06:57:03Z</time>
      </trkpt>
      <trkpt lat="46.45514" lon="0.47496">
        <ele>127.84053488262</ele>
        <time>2021-09-13T06:57:05Z</time>
      </trkpt>
      <trkpt lat="46.45513" lon="0.47493">
        <ele>127.43612572271</ele>
        <time>2021-09-13T06:57:07Z</time>
      </trkpt>
      <trkpt lat="46.45512" lon="0.47488">
        <ele>128.08365468308</ele>
        <time>2021-09-13T06:57:09Z</time>
      </trkpt>
      <trkpt lat="46.45511" lon="0.47485">
        <ele>126.82536900416</ele>
        <time>2021-09-13T06:57:11Z</time>
      </trkpt>
      <trkpt lat="46.4551" lon="0.47481">
        <ele>127.40638619009</ele>
        <time>2021-09-13T06:57:13Z</time>
      </trkpt>
      <trkpt lat="46.4551" lon="0.47476">
        <ele>127.38822494354</ele>
        <time>2021-09-13T06:57:15Z</time>
      </trkpt>
      <trkpt lat="46.4551" lon="0.47474">
        <ele>127.3049940262</ele>
        <time>2021-09-13T06:57:17Z</time>
      </trkpt>
      <trkpt lat="46.4551" lon="0.4747">
        <ele>126.47275013104</ele>
        <time>2021-09-13T06:57:19Z</time>
      </trkpt>
      <trkpt lat="46.4551" lon="0.47464">
        <ele>128.01739654411</ele>
        <time>2021-09-13T06:57:21Z</time>
      </trkpt>
      <trkpt lat="46.4551" lon="0.47462">
        <ele>127.04797012173</ele>
        <time>2021-09-13T06:57:23Z</time>
      </trkpt>
      <trkpt lat="46.4551" lon="0.47458">
        <ele>126.63381373696</ele>
        <time>2021-09-13T06:57:25Z</time>
      </trkpt>
      <trkpt lat="46.45511" lon="0.47456">
        <ele>127.57523227949</ele>
        <time>2021-09-13T06:57:26Z</time>
      </trkpt>
      <trkpt lat="46.4551" lon="0.47453">
        <ele>126.86341406405</ele>
        <time>2021-09-13T06:57:28Z</time>
      </trkpt>
      <trkpt lat="46.45511" lon="0.47449">
        <ele>126.70289215818</ele>
        <time>2021-09-13T06:57:30Z</time>
      </trkpt>
      <trkpt lat="46.45511" lon="0.47446">
        <ele>126.56387960818</ele>
        <time>2021-09-13T06:57:32Z</time>
      </trkpt>
      <trkpt lat="46.45512" lon="0.47442">
        <ele>127.72522647865</ele>
        <time>2021-09-13T06:57:34Z</time>
      </trkpt>
      <trkpt lat="46.45512" lon="0.47438">
        <ele>126.92414980941</ele>
        <time>2021-09-13T06:57:36Z</time>
      </trkpt>
      <trkpt lat="46.45512" lon="0.47435">
        <ele>126.56014619768</ele>
        <time>2021-09-13T06:57:38Z</time>
      </trkpt>
      <trkpt lat="46.45512" lon="0.47432">
        <ele>127.00881955773</ele>
        <time>2021-09-13T06:57:40Z</time>
      </trkpt>
      <trkpt lat="46.45512" lon="0.47428">
        <ele>126.86996908113</ele>
        <time>2021-09-13T06:57:42Z</time>
      </trkpt>
      <trkpt lat="46.45512" lon="0.47424">
        <ele>126.38113376126</ele>
        <time>2021-09-13T06:57:44Z</time>
      </trkpt>
      <trkpt lat="46.45512" lon="0.47421">
        <ele>127.50449561235</ele>
        <time>2021-09-13T06:57:45Z</time>
      </trkpt>
      <trkpt lat="46.45511" lon="0.47417">
        <ele>126.46460967977</ele>
        <time>2021-09-13T06:57:48Z</time>
      </trkpt>
      <trkpt lat="46.45511" lon="0.47414">
        <ele>126.64559089858</ele>
        <time>2021-09-13T06:57:50Z</time>
      </trkpt>
      <trkpt lat="46.45511" lon="0.47411">
        <ele>126.49215951376</ele>
        <time>2021-09-13T06:57:52Z</time>
      </trkpt>
      <trkpt lat="46.45511" lon="0.47407">
        <ele>126.54623846523</ele>
        <time>2021-09-13T06:57:54Z</time>
      </trkpt>
      <trkpt lat="46.45511" lon="0.47403">
        <ele>126.83215179015</ele>
        <time>2021-09-13T06:57:56Z</time>
      </trkpt>
      <trkpt lat="46.45512" lon="0.47399">
        <ele>126.88977826666</ele>
        <time>2021-09-13T06:57:58Z</time>
      </trkpt>
      <trkpt lat="46.45512" lon="0.47396">
        <ele>126.01765666995</ele>
        <time>2021-09-13T06:58:00Z</time>
      </trkpt>
      <trkpt lat="46.45512" lon="0.47392">
        <ele>126.03627534956</ele>
        <time>2021-09-13T06:58:02Z</time>
      </trkpt>
      <trkpt lat="46.45512" lon="0.47389">
        <ele>126.81621497218</ele>
        <time>2021-09-13T06:58:04Z</time>
      </trkpt>
      <trkpt lat="46.45512" lon="0.47386">
        <ele>126.12533543818</ele>
        <time>2021-09-13T06:58:06Z</time>
      </trkpt>
      <trkpt lat="46.45513" lon="0.47383">
        <ele>126.3556047054</ele>
        <time>2021-09-13T06:58:08Z</time>
      </trkpt>
      <trkpt lat="46.45513" lon="0.47379">
        <ele>126.44141877722</ele>
        <time>2021-09-13T06:58:10Z</time>
      </trkpt>
      <trkpt lat="46.45513" lon="0.47375">
        <ele>126.332133458</ele>
        <time>2021-09-13T06:58:12Z</time>
      </trkpt>
      <trkpt lat="46.45513" lon="0.47373">
        <ele>126.40842360165</ele>
        <time>2021-09-13T06:58:14Z</time>
      </trkpt>
      <trkpt lat="46.45513" lon="0.47368">
        <ele>126.82468609139</ele>
        <time>2021-09-13T06:58:16Z</time>
      </trkpt>
      <trkpt lat="46.45513" lon="0.47365">
        <ele>126.18621847499</ele>
        <time>2021-09-13T06:58:18Z</time>
      </trkpt>
      <trkpt lat="46.45513" lon="0.47362">
        <ele>126.57210988924</ele>
        <time>2021-09-13T06:58:20Z</time>
      </trkpt>
      <trkpt lat="46.45513" lon="0.47358">
        <ele>125.85230944864</ele>
        <time>2021-09-13T06:58:22Z</time>
      </trkpt>
      <trkpt lat="46.45513" lon="0.47355">
        <ele>126.7233061241</ele>
        <time>2021-09-13T06:58:24Z</time>
      </trkpt>
      <trkpt lat="46.45514" lon="0.47351">
        <ele>126.22144707851</ele>
        <time>2021-09-13T06:58:26Z</time>
      </trkpt>
      <trkpt lat="46.45514" lon="0.47348">
        <ele>125.87908604182</ele>
        <time>2021-09-13T06:58:28Z</time>
      </trkpt>
      <trkpt lat="46.45513" lon="0.47345">
        <ele>126.38784730434</ele>
        <time>2021-09-13T06:58:30Z</time>
      </trkpt>
      <trkpt lat="46.45514" lon="0.47342">
        <ele>124.98218080215</ele>
        <time>2021-09-13T06:58:32Z</time>
      </trkpt>
      <trkpt lat="46.45514" lon="0.47338">
        <ele>126.52706690971</ele>
        <time>2021-09-13T06:58:34Z</time>
      </trkpt>
      <trkpt lat="46.45514" lon="0.47335">
        <ele>126.33207660913</ele>
        <time>2021-09-13T06:58:36Z</time>
      </trkpt>
      <trkpt lat="46.45514" lon="0.47332">
        <ele>126.22805355862</ele>
        <time>2021-09-13T06:58:38Z</time>
      </trkpt>
      <trkpt lat="46.45514" lon="0.47329">
        <ele>126.25547999982</ele>
        <time>2021-09-13T06:58:40Z</time>
      </trkpt>
      <trkpt lat="46.45515" lon="0.47326">
        <ele>126.31549769174</ele>
        <time>2021-09-13T06:58:41Z</time>
      </trkpt>
      <trkpt lat="46.45515" lon="0.47322">
        <ele>125.30900374055</ele>
        <time>2021-09-13T06:58:43Z</time>
      </trkpt>
      <trkpt lat="46.45515" lon="0.47319">
        <ele>126.62146534957</ele>
        <time>2021-09-13T06:58:45Z</time>
      </trkpt>
      <trkpt lat="46.45515" lon="0.47316">
        <ele>126.34496736247</ele>
        <time>2021-09-13T06:58:47Z</time>
      </trkpt>
      <trkpt lat="46.45516" lon="0.47312">
        <ele>126.35510185733</ele>
        <time>2021-09-13T06:58:49Z</time>
      </trkpt>
      <trkpt lat="46.45516" lon="0.47308">
        <ele>125.85891456623</ele>
        <time>2021-09-13T06:58:52Z</time>
      </trkpt>
      <trkpt lat="46.45516" lon="0.47305">
        <ele>126.59853362292</ele>
        <time>2021-09-13T06:58:53Z</time>
      </trkpt>
      <trkpt lat="46.45516" lon="0.473">
        <ele>126.6762641659</ele>
        <time>2021-09-13T06:58:56Z</time>
      </trkpt>
      <trkpt lat="46.45516" lon="0.47297">
        <ele>126.62962624617</ele>
        <time>2021-09-13T06:58:58Z</time>
      </trkpt>
      <trkpt lat="46.45516" lon="0.47294">
        <ele>126.19152939226</ele>
        <time>2021-09-13T06:59:00Z</time>
      </trkpt>
      <trkpt lat="46.45516" lon="0.4729">
        <ele>126.94222434983</ele>
        <time>2021-09-13T06:59:02Z</time>
      </trkpt>
      <trkpt lat="46.45516" lon="0.47287">
        <ele>127.00761014596</ele>
        <time>2021-09-13T06:59:03Z</time>
      </trkpt>
      <trkpt lat="46.45516" lon="0.47283">
        <ele>125.97522652894</ele>
        <time>2021-09-13T06:59:06Z</time>
      </trkpt>
      <trkpt lat="46.45516" lon="0.4728">
        <ele>125.81585772801</ele>
        <time>2021-09-13T06:59:08Z</time>
      </trkpt>
      <trkpt lat="46.45516" lon="0.47276">
        <ele>126.5443153223</ele>
        <time>2021-09-13T06:59:10Z</time>
      </trkpt>
      <trkpt lat="46.45516" lon="0.47273">
        <ele>126.30023232196</ele>
        <time>2021-09-13T06:59:12Z</time>
      </trkpt>
      <trkpt lat="46.45516" lon="0.4727">
        <ele>126.99389507994</ele>
        <time>2021-09-13T06:59:14Z</time>
      </trkpt>
      <trkpt lat="46.45516" lon="0.47267">
        <ele>125.97245311365</ele>
        <time>2021-09-13T06:59:16Z</time>
      </trkpt>
      <trkpt lat="46.45517" lon="0.47263">
        <ele>126.61616475135</ele>
        <time>2021-09-13T06:59:18Z</time>
      </trkpt>
      <trkpt lat="46.45517" lon="0.47259">
        <ele>126.27809402719</ele>
        <time>2021-09-13T06:59:21Z</time>
      </trkpt>
      <trkpt lat="46.45517" lon="0.47254">
        <ele>126.61270262673</ele>
        <time>2021-09-13T06:59:24Z</time>
      </trkpt>
      <trkpt lat="46.45516" lon="0.47251">
        <ele>126.3298550779</ele>
        <time>2021-09-13T06:59:26Z</time>
      </trkpt>
      <trkpt lat="46.45517" lon="0.47248">
        <ele>126.06302894466</ele>
        <time>2021-09-13T06:59:27Z</time>
      </trkpt>
      <trkpt lat="46.45517" lon="0.47245">
        <ele>125.49710285105</ele>
        <time>2021-09-13T06:59:29Z</time>
      </trkpt>
      <trkpt lat="46.45517" lon="0.47241">
        <ele>126.24731868599</ele>
        <time>2021-09-13T06:59:31Z</time>
      </trkpt>
      <trkpt lat="46.45517" lon="0.47238">
        <ele>125.99897821248</ele>
        <time>2021-09-13T06:59:33Z</time>
      </trkpt>
      <trkpt lat="46.45517" lon="0.47235">
        <ele>127.33567105979</ele>
        <time>2021-09-13T06:59:35Z</time>
      </trkpt>
      <trkpt lat="46.45518" lon="0.47232">
        <ele>126.18775596377</ele>
        <time>2021-09-13T06:59:37Z</time>
      </trkpt>
      <trkpt lat="46.45517" lon="0.47228">
        <ele>126.44645296875</ele>
        <time>2021-09-13T06:59:39Z</time>
      </trkpt>
      <trkpt lat="46.45517" lon="0.47224">
        <ele>126.26884741895</ele>
        <time>2021-09-13T06:59:41Z</time>
      </trkpt>
      <trkpt lat="46.45518" lon="0.47221">
        <ele>126.22522928566</ele>
        <time>2021-09-13T06:59:43Z</time>
      </trkpt>
      <trkpt lat="46.45518" lon="0.47217">
        <ele>127.26611720677</ele>
        <time>2021-09-13T06:59:45Z</time>
      </trkpt>
      <trkpt lat="46.45519" lon="0.47212">
        <ele>125.92973043118</ele>
        <time>2021-09-13T06:59:48Z</time>
      </trkpt>
      <trkpt lat="46.45519" lon="0.47208">
        <ele>126.4480157746</ele>
        <time>2021-09-13T06:59:51Z</time>
      </trkpt>
      <trkpt lat="46.45519" lon="0.47203">
        <ele>126.45967470203</ele>
        <time>2021-09-13T06:59:53Z</time>
      </trkpt>
      <trkpt lat="46.45518" lon="0.47199">
        <ele>126.81423323415</ele>
        <time>2021-09-13T06:59:55Z</time>
      </trkpt>
      <trkpt lat="46.45518" lon="0.47197">
        <ele>125.23905702028</ele>
        <time>2021-09-13T06:59:57Z</time>
      </trkpt>
      <trkpt lat="46.45518" lon="0.47194">
        <ele>125.07751027774</ele>
        <time>2021-09-13T06:59:59Z</time>
      </trkpt>
      <trkpt lat="46.45518" lon="0.47189">
        <ele>125.6035153335</ele>
        <time>2021-09-13T07:00:01Z</time>
      </trkpt>
      <trkpt lat="46.45517" lon="0.47186">
        <ele>125.19396703597</ele>
        <time>2021-09-13T07:00:03Z</time>
      </trkpt>
      <trkpt lat="46.45517" lon="0.47184">
        <ele>125.87972409092</ele>
        <time>2021-09-13T07:00:05Z</time>
      </trkpt>
      <trkpt lat="46.45516" lon="0.47181">
        <ele>125.4961841302</ele>
        <time>2021-09-13T07:00:07Z</time>
      </trkpt>
      <trkpt lat="46.45516" lon="0.47177">
        <ele>124.65398145467</ele>
        <time>2021-09-13T07:00:09Z</time>
      </trkpt>
      <trkpt lat="46.45515" lon="0.47174">
        <ele>125.63643752504</ele>
        <time>2021-09-13T07:00:11Z</time>
      </trkpt>
      <trkpt lat="46.45514" lon="0.47171">
        <ele>125.27457087301</ele>
        <time>2021-09-13T07:00:13Z</time>
      </trkpt>
      <trkpt lat="46.45513" lon="0.47168">
        <ele>125.56977855042</ele>
        <time>2021-09-13T07:00:15Z</time>
      </trkpt>
      <trkpt lat="46.45511" lon="0.47165">
        <ele>125.16633459833</ele>
        <time>2021-09-13T07:00:17Z</time>
      </trkpt>
      <trkpt lat="46.45511" lon="0.47161">
        <ele>125.04032977764</ele>
        <time>2021-09-13T07:00:19Z</time>
      </trkpt>
      <trkpt lat="46.45509" lon="0.47158">
        <ele>125.87084540352</ele>
        <time>2021-09-13T07:00:21Z</time>
      </trkpt>
      <trkpt lat="46.45509" lon="0.47155">
        <ele>125.435532053</ele>
        <time>2021-09-13T07:00:23Z</time>
      </trkpt>
      <trkpt lat="46.45508" lon="0.47152">
        <ele>126.23792905733</ele>
        <time>2021-09-13T07:00:25Z</time>
      </trkpt>
      <trkpt lat="46.45508" lon="0.47149">
        <ele>125.87741118576</ele>
        <time>2021-09-13T07:00:27Z</time>
      </trkpt>
      <trkpt lat="46.45507" lon="0.47145">
        <ele>124.87367728353</ele>
        <time>2021-09-13T07:00:29Z</time>
      </trkpt>
      <trkpt lat="46.45506" lon="0.47143">
        <ele>125.73908804823</ele>
        <time>2021-09-13T07:00:31Z</time>
      </trkpt>
      <trkpt lat="46.45506" lon="0.4714">
        <ele>124.35792043805</ele>
        <time>2021-09-13T07:00:33Z</time>
      </trkpt>
      <trkpt lat="46.45506" lon="0.47137">
        <ele>126.49393100664</ele>
        <time>2021-09-13T07:00:34Z</time>
      </trkpt>
      <trkpt lat="46.45505" lon="0.47134">
        <ele>125.61929149181</ele>
        <time>2021-09-13T07:00:36Z</time>
      </trkpt>
      <trkpt lat="46.45504" lon="0.47131">
        <ele>125.65805951785</ele>
        <time>2021-09-13T07:00:39Z</time>
      </trkpt>
      <trkpt lat="46.45503" lon="0.47127">
        <ele>124.83714071754</ele>
        <time>2021-09-13T07:00:41Z</time>
      </trkpt>
      <trkpt lat="46.45502" lon="0.47124">
        <ele>125.62334579416</ele>
        <time>2021-09-13T07:00:43Z</time>
      </trkpt>
      <trkpt lat="46.45501" lon="0.47121">
        <ele>125.31569092907</ele>
        <time>2021-09-13T07:00:45Z</time>
      </trkpt>
      <trkpt lat="46.45501" lon="0.47118">
        <ele>125.92151396349</ele>
        <time>2021-09-13T07:00:47Z</time>
      </trkpt>
      <trkpt lat="46.455" lon="0.47114">
        <ele>125.50629602093</ele>
        <time>2021-09-13T07:00:49Z</time>
      </trkpt>
      <trkpt lat="46.45499" lon="0.47112">
        <ele>125.80121248215</ele>
        <time>2021-09-13T07:00:51Z</time>
      </trkpt>
      <trkpt lat="46.45498" lon="0.47109">
        <ele>125.31253426522</ele>
        <time>2021-09-13T07:00:53Z</time>
      </trkpt>
      <trkpt lat="46.45497" lon="0.47106">
        <ele>125.41933470033</ele>
        <time>2021-09-13T07:00:55Z</time>
      </trkpt>
      <trkpt lat="46.45497" lon="0.47103">
        <ele>126.09167319536</ele>
        <time>2021-09-13T07:00:56Z</time>
      </trkpt>
      <trkpt lat="46.45496" lon="0.471">
        <ele>125.67831866164</ele>
        <time>2021-09-13T07:00:58Z</time>
      </trkpt>
      <trkpt lat="46.45496" lon="0.47096">
        <ele>125.00740892719</ele>
        <time>2021-09-13T07:01:00Z</time>
      </trkpt>
      <trkpt lat="46.45494" lon="0.47094">
        <ele>126.49925232679</ele>
        <time>2021-09-13T07:01:02Z</time>
      </trkpt>
      <trkpt lat="46.45494" lon="0.47091">
        <ele>125.82351404987</ele>
        <time>2021-09-13T07:01:03Z</time>
      </trkpt>
      <trkpt lat="46.45493" lon="0.47089">
        <ele>125.86144783348</ele>
        <time>2021-09-13T07:01:05Z</time>
      </trkpt>
      <trkpt lat="46.45493" lon="0.47085">
        <ele>126.42688447796</ele>
        <time>2021-09-13T07:01:07Z</time>
      </trkpt>
      <trkpt lat="46.45492" lon="0.47081">
        <ele>126.37721622456</ele>
        <time>2021-09-13T07:01:09Z</time>
      </trkpt>
      <trkpt lat="46.45491" lon="0.47079">
        <ele>124.87911618501</ele>
        <time>2021-09-13T07:01:11Z</time>
      </trkpt>
      <trkpt lat="46.4549" lon="0.47075">
        <ele>125.80398575589</ele>
        <time>2021-09-13T07:01:13Z</time>
      </trkpt>
      <trkpt lat="46.45489" lon="0.47072">
        <ele>126.04476816021</ele>
        <time>2021-09-13T07:01:15Z</time>
      </trkpt>
      <trkpt lat="46.45488" lon="0.47068">
        <ele>125.93260931876</ele>
        <time>2021-09-13T07:01:17Z</time>
      </trkpt>
      <trkpt lat="46.45488" lon="0.47065">
        <ele>126.04108480271</ele>
        <time>2021-09-13T07:01:19Z</time>
      </trkpt>
      <trkpt lat="46.45487" lon="0.47062">
        <ele>125.72814880591</ele>
        <time>2021-09-13T07:01:21Z</time>
      </trkpt>
      <trkpt lat="46.45486" lon="0.4706">
        <ele>126.62523118034</ele>
        <time>2021-09-13T07:01:22Z</time>
      </trkpt>
      <trkpt lat="46.45486" lon="0.47057">
        <ele>126.20469972864</ele>
        <time>2021-09-13T07:01:24Z</time>
      </trkpt>
      <trkpt lat="46.45485" lon="0.47054">
        <ele>126.24077218398</ele>
        <time>2021-09-13T07:01:26Z</time>
      </trkpt>
      <trkpt lat="46.45484" lon="0.4705">
        <ele>126.50498194247</ele>
        <time>2021-09-13T07:01:28Z</time>
      </trkpt>
      <trkpt lat="46.45484" lon="0.47047">
        <ele>125.35050562955</ele>
        <time>2021-09-13T07:01:30Z</time>
      </trkpt>
      <trkpt lat="46.45483" lon="0.47044">
        <ele>126.29819953535</ele>
        <time>2021-09-13T07:01:32Z</time>
      </trkpt>
      <trkpt lat="46.45483" lon="0.47041">
        <ele>126.18586097471</ele>
        <time>2021-09-13T07:01:34Z</time>
      </trkpt>
      <trkpt lat="46.45482" lon="0.47038">
        <ele>125.96646176465</ele>
        <time>2021-09-13T07:01:36Z</time>
      </trkpt>
      <trkpt lat="46.45481" lon="0.47034">
        <ele>126.1839783648</ele>
        <time>2021-09-13T07:01:38Z</time>
      </trkpt>
      <trkpt lat="46.4548" lon="0.47031">
        <ele>125.28596651647</ele>
        <time>2021-09-13T07:01:40Z</time>
      </trkpt>
      <trkpt lat="46.45479" lon="0.47029">
        <ele>126.16009361763</ele>
        <time>2021-09-13T07:01:42Z</time>
      </trkpt>
      <trkpt lat="46.45479" lon="0.47026">
        <ele>126.51093215588</ele>
        <time>2021-09-13T07:01:44Z</time>
      </trkpt>
      <trkpt lat="46.45478" lon="0.47023">
        <ele>126.09330720361</ele>
        <time>2021-09-13T07:01:46Z</time>
      </trkpt>
      <trkpt lat="46.45477" lon="0.4702">
        <ele>127.47457860038</ele>
        <time>2021-09-13T07:01:48Z</time>
      </trkpt>
      <trkpt lat="46.45477" lon="0.47016">
        <ele>126.37783106603</ele>
        <time>2021-09-13T07:01:50Z</time>
      </trkpt>
      <trkpt lat="46.45476" lon="0.47014">
        <ele>126.80060529988</ele>
        <time>2021-09-13T07:01:52Z</time>
      </trkpt>
      <trkpt lat="46.45475" lon="0.4701">
        <ele>126.51335885096</ele>
        <time>2021-09-13T07:01:54Z</time>
      </trkpt>
      <trkpt lat="46.45474" lon="0.47008">
        <ele>125.48729800899</ele>
        <time>2021-09-13T07:01:56Z</time>
      </trkpt>
      <trkpt lat="46.45473" lon="0.47004">
        <ele>127.28900396824</ele>
        <time>2021-09-13T07:01:58Z</time>
      </trkpt>
      <trkpt lat="46.45473" lon="0.47">
        <ele>126.59866578225</ele>
        <time>2021-09-13T07:02:00Z</time>
      </trkpt>
      <trkpt lat="46.45472" lon="0.46997">
        <ele>126.0939172497</ele>
        <time>2021-09-13T07:02:02Z</time>
      </trkpt>
      <trkpt lat="46.45471" lon="0.46994">
        <ele>126.75628793333</ele>
        <time>2021-09-13T07:02:04Z</time>
      </trkpt>
      <trkpt lat="46.4547" lon="0.4699">
        <ele>126.6745922314</ele>
        <time>2021-09-13T07:02:06Z</time>
      </trkpt>
      <trkpt lat="46.45469" lon="0.46987">
        <ele>127.59810173698</ele>
        <time>2021-09-13T07:02:08Z</time>
      </trkpt>
      <trkpt lat="46.45469" lon="0.46984">
        <ele>126.27602486312</ele>
        <time>2021-09-13T07:02:10Z</time>
      </trkpt>
      <trkpt lat="46.45468" lon="0.4698">
        <ele>126.72068977728</ele>
        <time>2021-09-13T07:02:12Z</time>
      </trkpt>
      <trkpt lat="46.45468" lon="0.46978">
        <ele>126.70191736426</ele>
        <time>2021-09-13T07:02:13Z</time>
      </trkpt>
      <trkpt lat="46.45467" lon="0.46975">
        <ele>126.43370157573</ele>
        <time>2021-09-13T07:02:16Z</time>
      </trkpt>
      <trkpt lat="46.45466" lon="0.46972">
        <ele>126.47006165422</ele>
        <time>2021-09-13T07:02:18Z</time>
      </trkpt>
      <trkpt lat="46.45465" lon="0.46968">
        <ele>126.66156341136</ele>
        <time>2021-09-13T07:02:20Z</time>
      </trkpt>
      <trkpt lat="46.45465" lon="0.46965">
        <ele>126.5401450498</ele>
        <time>2021-09-13T07:02:21Z</time>
      </trkpt>
      <trkpt lat="46.45464" lon="0.46962">
        <ele>126.82621649094</ele>
        <time>2021-09-13T07:02:24Z</time>
      </trkpt>
      <trkpt lat="46.45463" lon="0.46958">
        <ele>126.47933379095</ele>
        <time>2021-09-13T07:02:26Z</time>
      </trkpt>
      <trkpt lat="46.45462" lon="0.46954">
        <ele>126.98120675143</ele>
        <time>2021-09-13T07:02:28Z</time>
      </trkpt>
      <trkpt lat="46.45462" lon="0.46951">
        <ele>127.09930279478</ele>
        <time>2021-09-13T07:02:30Z</time>
      </trkpt>
      <trkpt lat="46.45461" lon="0.46949">
        <ele>126.69138516579</ele>
        <time>2021-09-13T07:02:32Z</time>
      </trkpt>
      <trkpt lat="46.45459" lon="0.46945">
        <ele>126.83906166349</ele>
        <time>2021-09-13T07:02:34Z</time>
      </trkpt>
      <trkpt lat="46.45459" lon="0.46943">
        <ele>126.60707781278</ele>
        <time>2021-09-13T07:02:36Z</time>
      </trkpt>
      <trkpt lat="46.45458" lon="0.46939">
        <ele>127.71879071277</ele>
        <time>2021-09-13T07:02:38Z</time>
      </trkpt>
      <trkpt lat="46.45457" lon="0.46936">
        <ele>127.04430208448</ele>
        <time>2021-09-13T07:02:40Z</time>
      </trkpt>
      <trkpt lat="46.45456" lon="0.46932">
        <ele>126.92354748864</ele>
        <time>2021-09-13T07:02:42Z</time>
      </trkpt>
      <trkpt lat="46.45455" lon="0.46929">
        <ele>127.15360417869</ele>
        <time>2021-09-13T07:02:44Z</time>
      </trkpt>
      <trkpt lat="46.45454" lon="0.46925">
        <ele>126.6318115592</ele>
        <time>2021-09-13T07:02:47Z</time>
      </trkpt>
      <trkpt lat="46.45454" lon="0.46922">
        <ele>128.03967199661</ele>
        <time>2021-09-13T07:02:48Z</time>
      </trkpt>
      <trkpt lat="46.45452" lon="0.46919">
        <ele>127.35370619223</ele>
        <time>2021-09-13T07:02:51Z</time>
      </trkpt>
      <trkpt lat="46.45452" lon="0.46916">
        <ele>127.50880006421</ele>
        <time>2021-09-13T07:02:53Z</time>
      </trkpt>
      <trkpt lat="46.45451" lon="0.46912">
        <ele>127.39967001788</ele>
        <time>2021-09-13T07:02:55Z</time>
      </trkpt>
      <trkpt lat="46.4545" lon="0.46909">
        <ele>127.48830188066</ele>
        <time>2021-09-13T07:02:57Z</time>
      </trkpt>
      <trkpt lat="46.4545" lon="0.46906">
        <ele>127.2735711718</ele>
        <time>2021-09-13T07:02:59Z</time>
      </trkpt>
      <trkpt lat="46.45449" lon="0.46902">
        <ele>126.91195556615</ele>
        <time>2021-09-13T07:03:01Z</time>
      </trkpt>
      <trkpt lat="46.45448" lon="0.46899">
        <ele>127.64967477322</ele>
        <time>2021-09-13T07:03:03Z</time>
      </trkpt>
      <trkpt lat="46.45447" lon="0.46896">
        <ele>127.24633574113</ele>
        <time>2021-09-13T07:03:05Z</time>
      </trkpt>
      <trkpt lat="46.45446" lon="0.46893">
        <ele>127.35113824252</ele>
        <time>2021-09-13T07:03:07Z</time>
      </trkpt>
      <trkpt lat="46.45445" lon="0.46889">
        <ele>127.30702218227</ele>
        <time>2021-09-13T07:03:09Z</time>
      </trkpt>
      <trkpt lat="46.45444" lon="0.46887">
        <ele>127.79443669971</ele>
        <time>2021-09-13T07:03:11Z</time>
      </trkpt>
      <trkpt lat="46.45443" lon="0.46883">
        <ele>126.69282565452</ele>
        <time>2021-09-13T07:03:14Z</time>
      </trkpt>
      <trkpt lat="46.45442" lon="0.4688">
        <ele>128.21629221085</ele>
        <time>2021-09-13T07:03:15Z</time>
      </trkpt>
      <trkpt lat="46.45442" lon="0.46878">
        <ele>127.33837286104</ele>
        <time>2021-09-13T07:03:17Z</time>
      </trkpt>
      <trkpt lat="46.4544" lon="0.46875">
        <ele>127.00970467832</ele>
        <time>2021-09-13T07:03:19Z</time>
      </trkpt>
      <trkpt lat="46.4544" lon="0.46872">
        <ele>128.86050615646</ele>
        <time>2021-09-13T07:03:21Z</time>
      </trkpt>
      <trkpt lat="46.45439" lon="0.46869">
        <ele>127.57373498194</ele>
        <time>2021-09-13T07:03:23Z</time>
      </trkpt>
      <trkpt lat="46.45438" lon="0.46865">
        <ele>128.61795861647</ele>
        <time>2021-09-13T07:03:25Z</time>
      </trkpt>
      <trkpt lat="46.45438" lon="0.46861">
        <ele>127.07887080777</ele>
        <time>2021-09-13T07:03:28Z</time>
      </trkpt>
      <trkpt lat="46.45437" lon="0.46858">
        <ele>127.49479766097</ele>
        <time>2021-09-13T07:03:30Z</time>
      </trkpt>
      <trkpt lat="46.45436" lon="0.46855">
        <ele>127.9653155664</ele>
        <time>2021-09-13T07:03:32Z</time>
      </trkpt>
      <trkpt lat="46.45436" lon="0.46851">
        <ele>127.7957506869</ele>
        <time>2021-09-13T07:03:35Z</time>
      </trkpt>
      <trkpt lat="46.45435" lon="0.46848">
        <ele>126.83752946462</ele>
        <time>2021-09-13T07:03:37Z</time>
      </trkpt>
      <trkpt lat="46.45435" lon="0.46846">
        <ele>127.4631793173</ele>
        <time>2021-09-13T07:03:39Z</time>
      </trkpt>
      <trkpt lat="46.45435" lon="0.46842">
        <ele>127.83626923896</ele>
        <time>2021-09-13T07:03:43Z</time>
      </trkpt>
      <trkpt lat="46.45435" lon="0.46838">
        <ele>127.68218874466</ele>
        <time>2021-09-13T07:03:45Z</time>
      </trkpt>
      <trkpt lat="46.45435" lon="0.46835">
        <ele>127.41022668034</ele>
        <time>2021-09-13T07:03:47Z</time>
      </trkpt>
      <trkpt lat="46.45433" lon="0.46832">
        <ele>127.04705847241</ele>
        <time>2021-09-13T07:03:49Z</time>
      </trkpt>
      <trkpt lat="46.45432" lon="0.4683">
        <ele>127.49515825883</ele>
        <time>2021-09-13T07:03:51Z</time>
      </trkpt>
      <trkpt lat="46.4543" lon="0.46827">
        <ele>128.15424788184</ele>
        <time>2021-09-13T07:03:53Z</time>
      </trkpt>
      <trkpt lat="46.45428" lon="0.46824">
        <ele>127.7307744585</ele>
        <time>2021-09-13T07:03:55Z</time>
      </trkpt>
      <trkpt lat="46.45426" lon="0.46821">
        <ele>127.77096294519</ele>
        <time>2021-09-13T07:03:57Z</time>
      </trkpt>
      <trkpt lat="46.45425" lon="0.46818">
        <ele>127.8201934956</ele>
        <time>2021-09-13T07:04:00Z</time>
      </trkpt>
      <trkpt lat="46.45423" lon="0.46815">
        <ele>128.98690488469</ele>
        <time>2021-09-13T07:04:02Z</time>
      </trkpt>
      <trkpt lat="46.45421" lon="0.46813">
        <ele>127.9631473301</ele>
        <time>2021-09-13T07:04:04Z</time>
      </trkpt>
      <trkpt lat="46.4542" lon="0.46809">
        <ele>128.15879386477</ele>
        <time>2021-09-13T07:04:07Z</time>
      </trkpt>
      <trkpt lat="46.45419" lon="0.46807">
        <ele>128.10293859337</ele>
        <time>2021-09-13T07:04:09Z</time>
      </trkpt>
      <trkpt lat="46.45417" lon="0.46804">
        <ele>128.90543631837</ele>
        <time>2021-09-13T07:04:11Z</time>
      </trkpt>
      <trkpt lat="46.45416" lon="0.46801">
        <ele>128.98978843167</ele>
        <time>2021-09-13T07:04:13Z</time>
      </trkpt>
      <trkpt lat="46.45415" lon="0.46798">
        <ele>128.43059761636</ele>
        <time>2021-09-13T07:04:15Z</time>
      </trkpt>
      <trkpt lat="46.45413" lon="0.46795">
        <ele>128.78437666129</ele>
        <time>2021-09-13T07:04:17Z</time>
      </trkpt>
      <trkpt lat="46.45412" lon="0.46793">
        <ele>127.95914760698</ele>
        <time>2021-09-13T07:04:19Z</time>
      </trkpt>
      <trkpt lat="46.4541" lon="0.46791">
        <ele>128.16888003796</ele>
        <time>2021-09-13T07:04:21Z</time>
      </trkpt>
      <trkpt lat="46.45409" lon="0.46788">
        <ele>128.35120682977</ele>
        <time>2021-09-13T07:04:23Z</time>
      </trkpt>
      <trkpt lat="46.45407" lon="0.46785">
        <ele>128.14818417374</ele>
        <time>2021-09-13T07:04:25Z</time>
      </trkpt>
      <trkpt lat="46.45407" lon="0.46781">
        <ele>127.93573106825</ele>
        <time>2021-09-13T07:04:27Z</time>
      </trkpt>
      <trkpt lat="46.45405" lon="0.46778">
        <ele>128.12032849714</ele>
        <time>2021-09-13T07:04:29Z</time>
      </trkpt>
      <trkpt lat="46.45404" lon="0.46775">
        <ele>127.64799889736</ele>
        <time>2021-09-13T07:04:31Z</time>
      </trkpt>
      <trkpt lat="46.45402" lon="0.46773">
        <ele>127.82234927453</ele>
        <time>2021-09-13T07:04:33Z</time>
      </trkpt>
      <trkpt lat="46.45401" lon="0.46769">
        <ele>127.53856788483</ele>
        <time>2021-09-13T07:04:35Z</time>
      </trkpt>
      <trkpt lat="46.45399" lon="0.46765">
        <ele>128.70386592764</ele>
        <time>2021-09-13T07:04:37Z</time>
      </trkpt>
      <trkpt lat="46.45398" lon="0.46762">
        <ele>127.37449353281</ele>
        <time>2021-09-13T07:04:39Z</time>
      </trkpt>
      <trkpt lat="46.45397" lon="0.46759">
        <ele>127.86451977864</ele>
        <time>2021-09-13T07:04:41Z</time>
      </trkpt>
      <trkpt lat="46.45395" lon="0.46756">
        <ele>127.06493316684</ele>
        <time>2021-09-13T07:04:43Z</time>
      </trkpt>
      <trkpt lat="46.45393" lon="0.46754">
        <ele>127.90434505697</ele>
        <time>2021-09-13T07:04:45Z</time>
      </trkpt>
      <trkpt lat="46.45392" lon="0.46751">
        <ele>126.9687864352</ele>
        <time>2021-09-13T07:04:47Z</time>
      </trkpt>
      <trkpt lat="46.45391" lon="0.46748">
        <ele>127.80530927703</ele>
        <time>2021-09-13T07:04:48Z</time>
      </trkpt>
      <trkpt lat="46.45389" lon="0.46747">
        <ele>127.28310754895</ele>
        <time>2021-09-13T07:04:50Z</time>
      </trkpt>
      <trkpt lat="46.45388" lon="0.46743">
        <ele>126.86853540689</ele>
        <time>2021-09-13T07:04:52Z</time>
      </trkpt>
      <trkpt lat="46.45386" lon="0.4674">
        <ele>128.62752482574</ele>
        <time>2021-09-13T07:04:54Z</time>
      </trkpt>
      <trkpt lat="46.45385" lon="0.46736">
        <ele>127.36863270029</ele>
        <time>2021-09-13T07:04:57Z</time>
      </trkpt>
      <trkpt lat="46.45383" lon="0.46734">
        <ele>127.57046105713</ele>
        <time>2021-09-13T07:04:58Z</time>
      </trkpt>
      <trkpt lat="46.45381" lon="0.46732">
        <ele>127.48079706728</ele>
        <time>2021-09-13T07:05:00Z</time>
      </trkpt>
      <trkpt lat="46.4538" lon="0.46729">
        <ele>127.47311881743</ele>
        <time>2021-09-13T07:05:02Z</time>
      </trkpt>
      <trkpt lat="46.45379" lon="0.46726">
        <ele>128.03700078838</ele>
        <time>2021-09-13T07:05:04Z</time>
      </trkpt>
      <trkpt lat="46.45377" lon="0.46722">
        <ele>127.73926248029</ele>
        <time>2021-09-13T07:05:06Z</time>
      </trkpt>
      <trkpt lat="46.45376" lon="0.46719">
        <ele>127.79147089738</ele>
        <time>2021-09-13T07:05:08Z</time>
      </trkpt>
      <trkpt lat="46.45375" lon="0.46716">
        <ele>127.57863079291</ele>
        <time>2021-09-13T07:05:10Z</time>
      </trkpt>
      <trkpt lat="46.45373" lon="0.46714">
        <ele>126.93346853647</ele>
        <time>2021-09-13T07:05:12Z</time>
      </trkpt>
      <trkpt lat="46.45371" lon="0.4671">
        <ele>128.3714435529</ele>
        <time>2021-09-13T07:05:14Z</time>
      </trkpt>
      <trkpt lat="46.4537" lon="0.46707">
        <ele>128.0880909618</ele>
        <time>2021-09-13T07:05:16Z</time>
      </trkpt>
      <trkpt lat="46.45369" lon="0.46704">
        <ele>127.69476581644</ele>
        <time>2021-09-13T07:05:18Z</time>
      </trkpt>
      <trkpt lat="46.45367" lon="0.46701">
        <ele>127.36674793251</ele>
        <time>2021-09-13T07:05:20Z</time>
      </trkpt>
      <trkpt lat="46.45366" lon="0.46698">
        <ele>127.30377090629</ele>
        <time>2021-09-13T07:05:22Z</time>
      </trkpt>
      <trkpt lat="46.45364" lon="0.46694">
        <ele>127.82366498094</ele>
        <time>2021-09-13T07:05:24Z</time>
      </trkpt>
      <trkpt lat="46.45362" lon="0.4669">
        <ele>127.85128319543</ele>
        <time>2021-09-13T07:05:26Z</time>
      </trkpt>
      <trkpt lat="46.45361" lon="0.46688">
        <ele>127.64655623492</ele>
        <time>2021-09-13T07:05:28Z</time>
      </trkpt>
      <trkpt lat="46.4536" lon="0.46684">
        <ele>127.81181558035</ele>
        <time>2021-09-13T07:05:30Z</time>
      </trkpt>
      <trkpt lat="46.45359" lon="0.46682">
        <ele>127.22805912327</ele>
        <time>2021-09-13T07:05:32Z</time>
      </trkpt>
      <trkpt lat="46.45358" lon="0.46679">
        <ele>127.15307475161</ele>
        <time>2021-09-13T07:05:33Z</time>
      </trkpt>
      <trkpt lat="46.45357" lon="0.46677">
        <ele>127.8900103895</ele>
        <time>2021-09-13T07:05:35Z</time>
      </trkpt>
      <trkpt lat="46.45355" lon="0.46674">
        <ele>128.52077433467</ele>
        <time>2021-09-13T07:05:37Z</time>
      </trkpt>
      <trkpt lat="46.45354" lon="0.46672">
        <ele>127.63137487229</ele>
        <time>2021-09-13T07:05:38Z</time>
      </trkpt>
      <trkpt lat="46.45352" lon="0.46668">
        <ele>127.31392199174</ele>
        <time>2021-09-13T07:05:41Z</time>
      </trkpt>
      <trkpt lat="46.4535" lon="0.46665">
        <ele>127.94692212623</ele>
        <time>2021-09-13T07:05:43Z</time>
      </trkpt>
      <trkpt lat="46.45349" lon="0.46663">
        <ele>127.76610592194</ele>
        <time>2021-09-13T07:05:45Z</time>
      </trkpt>
      <trkpt lat="46.45348" lon="0.4666">
        <ele>127.8412141595</ele>
        <time>2021-09-13T07:05:47Z</time>
      </trkpt>
      <trkpt lat="46.45346" lon="0.46657">
        <ele>127.59008300118</ele>
        <time>2021-09-13T07:05:49Z</time>
      </trkpt>
      <trkpt lat="46.45345" lon="0.46655">
        <ele>127.24564884137</ele>
        <time>2021-09-13T07:05:50Z</time>
      </trkpt>
      <trkpt lat="46.45344" lon="0.46651">
        <ele>128.21512452234</ele>
        <time>2021-09-13T07:05:52Z</time>
      </trkpt>
      <trkpt lat="46.45343" lon="0.46648">
        <ele>128.50178220402</ele>
        <time>2021-09-13T07:05:54Z</time>
      </trkpt>
      <trkpt lat="46.45341" lon="0.46645">
        <ele>127.07414609473</ele>
        <time>2021-09-13T07:05:56Z</time>
      </trkpt>
      <trkpt lat="46.4534" lon="0.46643">
        <ele>127.26425296627</ele>
        <time>2021-09-13T07:05:58Z</time>
      </trkpt>
      <trkpt lat="46.45339" lon="0.46639">
        <ele>127.20055145398</ele>
        <time>2021-09-13T07:06:00Z</time>
      </trkpt>
      <trkpt lat="46.45338" lon="0.46637">
        <ele>127.57217489369</ele>
        <time>2021-09-13T07:06:02Z</time>
      </trkpt>
      <trkpt lat="46.45336" lon="0.46634">
        <ele>127.35838837363</ele>
        <time>2021-09-13T07:06:04Z</time>
      </trkpt>
      <trkpt lat="46.45335" lon="0.46631">
        <ele>129.18039181735</ele>
        <time>2021-09-13T07:06:06Z</time>
      </trkpt>
      <trkpt lat="46.45333" lon="0.46628">
        <ele>128.54959601536</ele>
        <time>2021-09-13T07:06:08Z</time>
      </trkpt>
      <trkpt lat="46.45332" lon="0.46625">
        <ele>127.93143576756</ele>
        <time>2021-09-13T07:06:10Z</time>
      </trkpt>
      <trkpt lat="46.4533" lon="0.46622">
        <ele>127.88632284012</ele>
        <time>2021-09-13T07:06:12Z</time>
      </trkpt>
      <trkpt lat="46.45328" lon="0.4662">
        <ele>127.34485799167</ele>
        <time>2021-09-13T07:06:14Z</time>
      </trkpt>
      <trkpt lat="46.45327" lon="0.46616">
        <ele>128.11406345665</ele>
        <time>2021-09-13T07:06:16Z</time>
      </trkpt>
      <trkpt lat="46.45324" lon="0.46614">
        <ele>127.86286757793</ele>
        <time>2021-09-13T07:06:18Z</time>
      </trkpt>
      <trkpt lat="46.45323" lon="0.4661">
        <ele>128.47591098305</ele>
        <time>2021-09-13T07:06:20Z</time>
      </trkpt>
      <trkpt lat="46.45322" lon="0.46608">
        <ele>128.59392555803</ele>
        <time>2021-09-13T07:06:22Z</time>
      </trkpt>
      <trkpt lat="46.4532" lon="0.46606">
        <ele>128.34500936233</ele>
        <time>2021-09-13T07:06:23Z</time>
      </trkpt>
      <trkpt lat="46.45319" lon="0.46604">
        <ele>127.72056814469</ele>
        <time>2021-09-13T07:06:25Z</time>
      </trkpt>
      <trkpt lat="46.45317" lon="0.46601">
        <ele>127.7877053041</ele>
        <time>2021-09-13T07:06:27Z</time>
      </trkpt>
      <trkpt lat="46.45315" lon="0.46599">
        <ele>127.44871476479</ele>
        <time>2021-09-13T07:06:29Z</time>
      </trkpt>
      <trkpt lat="46.45313" lon="0.46597">
        <ele>128.28892867267</ele>
        <time>2021-09-13T07:06:31Z</time>
      </trkpt>
      <trkpt lat="46.45312" lon="0.46595">
        <ele>128.81120189559</ele>
        <time>2021-09-13T07:06:32Z</time>
      </trkpt>
      <trkpt lat="46.4531" lon="0.46593">
        <ele>128.47965246439</ele>
        <time>2021-09-13T07:06:34Z</time>
      </trkpt>
      <trkpt lat="46.45308" lon="0.46591">
        <ele>127.25669391081</ele>
        <time>2021-09-13T07:06:36Z</time>
      </trkpt>
      <trkpt lat="46.45306" lon="0.4659">
        <ele>127.51497720648</ele>
        <time>2021-09-13T07:06:38Z</time>
      </trkpt>
      <trkpt lat="46.45304" lon="0.46588">
        <ele>127.04809912574</ele>
        <time>2021-09-13T07:06:40Z</time>
      </trkpt>
      <trkpt lat="46.45302" lon="0.46586">
        <ele>127.65290489607</ele>
        <time>2021-09-13T07:06:42Z</time>
      </trkpt>
      <trkpt lat="46.453" lon="0.46585">
        <ele>126.93875338044</ele>
        <time>2021-09-13T07:06:44Z</time>
      </trkpt>
      <trkpt lat="46.45298" lon="0.46583">
        <ele>127.93386542611</ele>
        <time>2021-09-13T07:06:46Z</time>
      </trkpt>
      <trkpt lat="46.45295" lon="0.4658">
        <ele>127.43981183227</ele>
        <time>2021-09-13T07:06:49Z</time>
      </trkpt>
      <trkpt lat="46.45292" lon="0.46579">
        <ele>127.0308381198</ele>
        <time>2021-09-13T07:06:51Z</time>
      </trkpt>
      <trkpt lat="46.45289" lon="0.46577">
        <ele>127.79056303948</ele>
        <time>2021-09-13T07:06:53Z</time>
      </trkpt>
      <trkpt lat="46.45287" lon="0.46575">
        <ele>128.41783625819</ele>
        <time>2021-09-13T07:06:55Z</time>
      </trkpt>
      <trkpt lat="46.45284" lon="0.46573">
        <ele>127.74210400321</ele>
        <time>2021-09-13T07:06:57Z</time>
      </trkpt>
      <trkpt lat="46.45282" lon="0.46572">
        <ele>127.18030914851</ele>
        <time>2021-09-13T07:06:59Z</time>
      </trkpt>
      <trkpt lat="46.4528" lon="0.46571">
        <ele>127.27718890458</ele>
        <time>2021-09-13T07:07:01Z</time>
      </trkpt>
      <trkpt lat="46.45278" lon="0.46569">
        <ele>127.14723860007</ele>
        <time>2021-09-13T07:07:03Z</time>
      </trkpt>
      <trkpt lat="46.45276" lon="0.46568">
        <ele>127.66391356196</ele>
        <time>2021-09-13T07:07:05Z</time>
      </trkpt>
      <trkpt lat="46.45274" lon="0.46567">
        <ele>127.87893081829</ele>
        <time>2021-09-13T07:07:06Z</time>
      </trkpt>
      <trkpt lat="46.45272" lon="0.46566">
        <ele>127.76931251865</ele>
        <time>2021-09-13T07:07:08Z</time>
      </trkpt>
      <trkpt lat="46.4527" lon="0.46565">
        <ele>127.23736571334</ele>
        <time>2021-09-13T07:07:09Z</time>
      </trkpt>
      <trkpt lat="46.45268" lon="0.46562">
        <ele>127.68550525326</ele>
        <time>2021-09-13T07:07:11Z</time>
      </trkpt>
      <trkpt lat="46.45266" lon="0.46561">
        <ele>127.14187780209</ele>
        <time>2021-09-13T07:07:13Z</time>
      </trkpt>
      <trkpt lat="46.45264" lon="0.46559">
        <ele>127.28743901942</ele>
        <time>2021-09-13T07:07:15Z</time>
      </trkpt>
      <trkpt lat="46.45262" lon="0.46557">
        <ele>126.51345689781</ele>
        <time>2021-09-13T07:07:17Z</time>
      </trkpt>
      <trkpt lat="46.4526" lon="0.46556">
        <ele>126.39855985623</ele>
        <time>2021-09-13T07:07:18Z</time>
      </trkpt>
      <trkpt lat="46.45258" lon="0.46555">
        <ele>127.04847375862</ele>
        <time>2021-09-13T07:07:20Z</time>
      </trkpt>
      <trkpt lat="46.45256" lon="0.46553">
        <ele>127.88528434467</ele>
        <time>2021-09-13T07:07:22Z</time>
      </trkpt>
      <trkpt lat="46.45254" lon="0.4655">
        <ele>127.17071442306</ele>
        <time>2021-09-13T07:07:24Z</time>
      </trkpt>
      <trkpt lat="46.45251" lon="0.46548">
        <ele>126.44992337748</ele>
        <time>2021-09-13T07:07:26Z</time>
      </trkpt>
      <trkpt lat="46.45248" lon="0.46546">
        <ele>126.64258903358</ele>
        <time>2021-09-13T07:07:28Z</time>
      </trkpt>
      <trkpt lat="46.45246" lon="0.46545">
        <ele>126.92960598134</ele>
        <time>2021-09-13T07:07:30Z</time>
      </trkpt>
      <trkpt lat="46.45244" lon="0.46544">
        <ele>127.15650346503</ele>
        <time>2021-09-13T07:07:32Z</time>
      </trkpt>
      <trkpt lat="46.45242" lon="0.46542">
        <ele>126.88532914687</ele>
        <time>2021-09-13T07:07:34Z</time>
      </trkpt>
      <trkpt lat="46.45239" lon="0.46539">
        <ele>126.94675667211</ele>
        <time>2021-09-13T07:07:36Z</time>
      </trkpt>
      <trkpt lat="46.45236" lon="0.46537">
        <ele>127.00694730319</ele>
        <time>2021-09-13T07:07:38Z</time>
      </trkpt>
      <trkpt lat="46.45234" lon="0.46536">
        <ele>126.30648618098</ele>
        <time>2021-09-13T07:07:40Z</time>
      </trkpt>
      <trkpt lat="46.45232" lon="0.46535">
        <ele>126.7201765636</ele>
        <time>2021-09-13T07:07:41Z</time>
      </trkpt>
      <trkpt lat="46.45229" lon="0.46534">
        <ele>127.6444581924</ele>
        <time>2021-09-13T07:07:43Z</time>
      </trkpt>
      <trkpt lat="46.45228" lon="0.46531">
        <ele>126.68119695876</ele>
        <time>2021-09-13T07:07:45Z</time>
      </trkpt>
      <trkpt lat="46.45226" lon="0.46529">
        <ele>126.67147234455</ele>
        <time>2021-09-13T07:07:47Z</time>
      </trkpt>
      <trkpt lat="46.45223" lon="0.46527">
        <ele>126.65150414594</ele>
        <time>2021-09-13T07:07:49Z</time>
      </trkpt>
      <trkpt lat="46.45221" lon="0.46525">
        <ele>126.96193727292</ele>
        <time>2021-09-13T07:07:51Z</time>
      </trkpt>
      <trkpt lat="46.45219" lon="0.46522">
        <ele>126.88570042606</ele>
        <time>2021-09-13T07:07:53Z</time>
      </trkpt>
      <trkpt lat="46.45216" lon="0.46521">
        <ele>126.50838628784</ele>
        <time>2021-09-13T07:07:56Z</time>
      </trkpt>
      <trkpt lat="46.45214" lon="0.4652">
        <ele>125.98924309853</ele>
        <time>2021-09-13T07:07:58Z</time>
      </trkpt>
      <trkpt lat="46.45212" lon="0.46519">
        <ele>126.46691716183</ele>
        <time>2021-09-13T07:08:00Z</time>
      </trkpt>
      <trkpt lat="46.4521" lon="0.46517">
        <ele>126.30402301252</ele>
        <time>2021-09-13T07:08:02Z</time>
      </trkpt>
      <trkpt lat="46.45208" lon="0.46516">
        <ele>125.7869554786</ele>
        <time>2021-09-13T07:08:04Z</time>
      </trkpt>
      <trkpt lat="46.45205" lon="0.46514">
        <ele>126.2219137568</ele>
        <time>2021-09-13T07:08:06Z</time>
      </trkpt>
      <trkpt lat="46.45203" lon="0.46513">
        <ele>126.61285580229</ele>
        <time>2021-09-13T07:08:07Z</time>
      </trkpt>
      <trkpt lat="46.45201" lon="0.46511">
        <ele>126.69409118872</ele>
        <time>2021-09-13T07:08:09Z</time>
      </trkpt>
      <trkpt lat="46.45199" lon="0.46509">
        <ele>126.17500159424</ele>
        <time>2021-09-13T07:08:11Z</time>
      </trkpt>
      <trkpt lat="46.45196" lon="0.46507">
        <ele>125.84309181571</ele>
        <time>2021-09-13T07:08:13Z</time>
      </trkpt>
      <trkpt lat="46.45194" lon="0.46505">
        <ele>126.06498935353</ele>
        <time>2021-09-13T07:08:15Z</time>
      </trkpt>
      <trkpt lat="46.45192" lon="0.46503">
        <ele>126.083053248</ele>
        <time>2021-09-13T07:08:17Z</time>
      </trkpt>
      <trkpt lat="46.45189" lon="0.465">
        <ele>126.46187674068</ele>
        <time>2021-09-13T07:08:19Z</time>
      </trkpt>
      <trkpt lat="46.45188" lon="0.46499">
        <ele>125.52441803273</ele>
        <time>2021-09-13T07:08:21Z</time>
      </trkpt>
      <trkpt lat="46.45186" lon="0.46497">
        <ele>126.25900084525</ele>
        <time>2021-09-13T07:08:23Z</time>
      </trkpt>
      <trkpt lat="46.45183" lon="0.46494">
        <ele>126.32154852524</ele>
        <time>2021-09-13T07:08:25Z</time>
      </trkpt>
      <trkpt lat="46.45181" lon="0.46491">
        <ele>126.04236996267</ele>
        <time>2021-09-13T07:08:27Z</time>
      </trkpt>
      <trkpt lat="46.45179" lon="0.4649">
        <ele>125.78811438195</ele>
        <time>2021-09-13T07:08:29Z</time>
      </trkpt>
      <trkpt lat="46.45177" lon="0.46486">
        <ele>125.98330925498</ele>
        <time>2021-09-13T07:08:31Z</time>
      </trkpt>
      <trkpt lat="46.45175" lon="0.46483">
        <ele>127.02276994288</ele>
        <time>2021-09-13T07:08:33Z</time>
      </trkpt>
      <trkpt lat="46.45174" lon="0.4648">
        <ele>125.47402480058</ele>
        <time>2021-09-13T07:08:35Z</time>
      </trkpt>
      <trkpt lat="46.45172" lon="0.46477">
        <ele>125.7763379747</ele>
        <time>2021-09-13T07:08:37Z</time>
      </trkpt>
      <trkpt lat="46.45171" lon="0.46475">
        <ele>125.5683063278</ele>
        <time>2021-09-13T07:08:39Z</time>
      </trkpt>
      <trkpt lat="46.45169" lon="0.46472">
        <ele>125.84266507998</ele>
        <time>2021-09-13T07:08:41Z</time>
      </trkpt>
      <trkpt lat="46.45167" lon="0.46469">
        <ele>125.53391658049</ele>
        <time>2021-09-13T07:08:43Z</time>
      </trkpt>
      <trkpt lat="46.45165" lon="0.46467">
        <ele>125.88830213808</ele>
        <time>2021-09-13T07:08:45Z</time>
      </trkpt>
      <trkpt lat="46.45164" lon="0.46465">
        <ele>125.46933750808</ele>
        <time>2021-09-13T07:08:47Z</time>
      </trkpt>
      <trkpt lat="46.45162" lon="0.46462">
        <ele>126.20008823555</ele>
        <time>2021-09-13T07:08:49Z</time>
      </trkpt>
      <trkpt lat="46.4516" lon="0.4646">
        <ele>125.49621371925</ele>
        <time>2021-09-13T07:08:51Z</time>
      </trkpt>
      <trkpt lat="46.45158" lon="0.46457">
        <ele>125.7472443115</ele>
        <time>2021-09-13T07:08:53Z</time>
      </trkpt>
      <trkpt lat="46.45157" lon="0.46455">
        <ele>125.79197350424</ele>
        <time>2021-09-13T07:08:55Z</time>
      </trkpt>
      <trkpt lat="46.45155" lon="0.46452">
        <ele>126.08126669098</ele>
        <time>2021-09-13T07:08:57Z</time>
      </trkpt>
      <trkpt lat="46.45153" lon="0.4645">
        <ele>125.50529951695</ele>
        <time>2021-09-13T07:08:59Z</time>
      </trkpt>
      <trkpt lat="46.45152" lon="0.46447">
        <ele>125.94913165364</ele>
        <time>2021-09-13T07:09:01Z</time>
      </trkpt>
      <trkpt lat="46.4515" lon="0.46444">
        <ele>125.69575453643</ele>
        <time>2021-09-13T07:09:03Z</time>
      </trkpt>
      <trkpt lat="46.45149" lon="0.46442">
        <ele>126.69139795192</ele>
        <time>2021-09-13T07:09:05Z</time>
      </trkpt>
      <trkpt lat="46.45147" lon="0.46438">
        <ele>126.25344834384</ele>
        <time>2021-09-13T07:09:07Z</time>
      </trkpt>
      <trkpt lat="46.45146" lon="0.46434">
        <ele>125.92847655155</ele>
        <time>2021-09-13T07:09:09Z</time>
      </trkpt>
      <trkpt lat="46.45146" lon="0.46431">
        <ele>126.0402233107</ele>
        <time>2021-09-13T07:09:11Z</time>
      </trkpt>
      <trkpt lat="46.45146" lon="0.46428">
        <ele>125.94532751758</ele>
        <time>2021-09-13T07:09:13Z</time>
      </trkpt>
      <trkpt lat="46.45145" lon="0.46425">
        <ele>125.26874303073</ele>
        <time>2021-09-13T07:09:15Z</time>
      </trkpt>
      <trkpt lat="46.45145" lon="0.46421">
        <ele>126.46867775451</ele>
        <time>2021-09-13T07:09:17Z</time>
      </trkpt>
      <trkpt lat="46.45144" lon="0.46419">
        <ele>125.6938182665</ele>
        <time>2021-09-13T07:09:19Z</time>
      </trkpt>
      <trkpt lat="46.45144" lon="0.46416">
        <ele>126.1158679314</ele>
        <time>2021-09-13T07:09:21Z</time>
      </trkpt>
      <trkpt lat="46.45144" lon="0.46413">
        <ele>125.72013701964</ele>
        <time>2021-09-13T07:09:23Z</time>
      </trkpt>
      <trkpt lat="46.45145" lon="0.4641">
        <ele>125.93722103722</ele>
        <time>2021-09-13T07:09:25Z</time>
      </trkpt>
      <trkpt lat="46.45145" lon="0.46407">
        <ele>125.95302994177</ele>
        <time>2021-09-13T07:09:27Z</time>
      </trkpt>
      <trkpt lat="46.45145" lon="0.46403">
        <ele>125.60439676791</ele>
        <time>2021-09-13T07:09:29Z</time>
      </trkpt>
      <trkpt lat="46.45145" lon="0.464">
        <ele>125.81203834526</ele>
        <time>2021-09-13T07:09:31Z</time>
      </trkpt>
      <trkpt lat="46.45144" lon="0.46395">
        <ele>125.69137105346</ele>
        <time>2021-09-13T07:09:34Z</time>
      </trkpt>
      <trkpt lat="46.45144" lon="0.46391">
        <ele>124.89284089115</ele>
        <time>2021-09-13T07:09:36Z</time>
      </trkpt>
      <trkpt lat="46.45144" lon="0.46388">
        <ele>126.54423248768</ele>
        <time>2021-09-13T07:09:37Z</time>
      </trkpt>
      <trkpt lat="46.45144" lon="0.46384">
        <ele>125.04533367325</ele>
        <time>2021-09-13T07:09:39Z</time>
      </trkpt>
      <trkpt lat="46.45144" lon="0.46381">
        <ele>125.14236104768</ele>
        <time>2021-09-13T07:09:41Z</time>
      </trkpt>
      <trkpt lat="46.45144" lon="0.46377">
        <ele>125.30888586212</ele>
        <time>2021-09-13T07:09:43Z</time>
      </trkpt>
      <trkpt lat="46.45144" lon="0.46374">
        <ele>125.28299242165</ele>
        <time>2021-09-13T07:09:45Z</time>
      </trkpt>
      <trkpt lat="46.45143" lon="0.46371">
        <ele>125.35048082471</ele>
        <time>2021-09-13T07:09:47Z</time>
      </trkpt>
      <trkpt lat="46.45144" lon="0.46368">
        <ele>125.09098687302</ele>
        <time>2021-09-13T07:09:49Z</time>
      </trkpt>
      <trkpt lat="46.45144" lon="0.46365">
        <ele>125.06731008086</ele>
        <time>2021-09-13T07:09:51Z</time>
      </trkpt>
      <trkpt lat="46.45145" lon="0.46362">
        <ele>125.62647287361</ele>
        <time>2021-09-13T07:09:54Z</time>
      </trkpt>
      <trkpt lat="46.45146" lon="0.4636">
        <ele>126.04207328614</ele>
        <time>2021-09-13T07:09:57Z</time>
      </trkpt>
      <trkpt lat="46.45149" lon="0.46359">
        <ele>125.80886482261</ele>
        <time>2021-09-13T07:09:59Z</time>
      </trkpt>
      <trkpt lat="46.45151" lon="0.46359">
        <ele>124.58620373346</ele>
        <time>2021-09-13T07:10:01Z</time>
      </trkpt>
      <trkpt lat="46.45154" lon="0.46359">
        <ele>125.40256916173</ele>
        <time>2021-09-13T07:10:04Z</time>
      </trkpt>
      <trkpt lat="46.45156" lon="0.46358">
        <ele>126.20242390409</ele>
        <time>2021-09-13T07:10:06Z</time>
      </trkpt>
      <trkpt lat="46.45159" lon="0.46359">
        <ele>125.32514808513</ele>
        <time>2021-09-13T07:10:09Z</time>
      </trkpt>
      <trkpt lat="46.45162" lon="0.46359">
        <ele>126.8431934882</ele>
        <time>2021-09-13T07:10:11Z</time>
      </trkpt>
      <trkpt lat="46.45164" lon="0.46358">
        <ele>125.20184465125</ele>
        <time>2021-09-13T07:10:12Z</time>
      </trkpt>
      <trkpt lat="46.45166" lon="0.46358">
        <ele>125.81934721209</ele>
        <time>2021-09-13T07:10:15Z</time>
      </trkpt>
      <trkpt lat="46.45168" lon="0.46358">
        <ele>125.55881926324</ele>
        <time>2021-09-13T07:10:16Z</time>
      </trkpt>
      <trkpt lat="46.4517" lon="0.46357">
        <ele>125.31264769379</ele>
        <time>2021-09-13T07:10:18Z</time>
      </trkpt>
      <trkpt lat="46.45173" lon="0.46358">
        <ele>125.16357807163</ele>
        <time>2021-09-13T07:10:20Z</time>
      </trkpt>
      <trkpt lat="46.45175" lon="0.46357">
        <ele>125.50272673927</ele>
        <time>2021-09-13T07:10:23Z</time>
      </trkpt>
      <trkpt lat="46.45178" lon="0.46356">
        <ele>125.65648617595</ele>
        <time>2021-09-13T07:10:25Z</time>
      </trkpt>
      <trkpt lat="46.4518" lon="0.46356">
        <ele>125.72440806869</ele>
        <time>2021-09-13T07:10:27Z</time>
      </trkpt>
      <trkpt lat="46.45182" lon="0.46357">
        <ele>126.33340876829</ele>
        <time>2021-09-13T07:10:29Z</time>
      </trkpt>
      <trkpt lat="46.45184" lon="0.46357">
        <ele>126.11387674883</ele>
        <time>2021-09-13T07:10:31Z</time>
      </trkpt>
      <trkpt lat="46.45186" lon="0.46357">
        <ele>127.12511717714</ele>
        <time>2021-09-13T07:10:34Z</time>
      </trkpt>
      <trkpt lat="46.45188" lon="0.46356">
        <ele>126.21917913016</ele>
        <time>2021-09-13T07:10:36Z</time>
      </trkpt>
      <trkpt lat="46.4519" lon="0.46357">
        <ele>126.40031399764</ele>
        <time>2021-09-13T07:10:39Z</time>
      </trkpt>
      <trkpt lat="46.45192" lon="0.46356">
        <ele>125.51561390888</ele>
        <time>2021-09-13T07:10:41Z</time>
      </trkpt>
      <trkpt lat="46.45195" lon="0.46355">
        <ele>125.56159087922</ele>
        <time>2021-09-13T07:10:43Z</time>
      </trkpt>
      <trkpt lat="46.45198" lon="0.46355">
        <ele>125.99927452393</ele>
        <time>2021-09-13T07:10:45Z</time>
      </trkpt>
      <trkpt lat="46.452" lon="0.46354">
        <ele>126.5907300869</ele>
        <time>2021-09-13T07:10:47Z</time>
      </trkpt>
      <trkpt lat="46.45203" lon="0.46354">
        <ele>126.28520453069</ele>
        <time>2021-09-13T07:10:50Z</time>
      </trkpt>
      <trkpt lat="46.45206" lon="0.46354">
        <ele>127.93164648954</ele>
        <time>2021-09-13T07:10:52Z</time>
      </trkpt>
      <trkpt lat="46.45209" lon="0.46354">
        <ele>125.74545695726</ele>
        <time>2021-09-13T07:10:54Z</time>
      </trkpt>
      <trkpt lat="46.45211" lon="0.46354">
        <ele>126.18735124823</ele>
        <time>2021-09-13T07:10:56Z</time>
      </trkpt>
      <trkpt lat="46.45214" lon="0.46353">
        <ele>126.33872296195</ele>
        <time>2021-09-13T07:10:58Z</time>
      </trkpt>
      <trkpt lat="46.45216" lon="0.46352">
        <ele>126.31943681743</ele>
        <time>2021-09-13T07:11:00Z</time>
      </trkpt>
      <trkpt lat="46.45218" lon="0.46351">
        <ele>125.43518098816</ele>
        <time>2021-09-13T07:11:02Z</time>
      </trkpt>
      <trkpt lat="46.45221" lon="0.46352">
        <ele>127.01565707568</ele>
        <time>2021-09-13T07:11:03Z</time>
      </trkpt>
      <trkpt lat="46.45223" lon="0.46352">
        <ele>126.2356165722</ele>
        <time>2021-09-13T07:11:05Z</time>
      </trkpt>
      <trkpt lat="46.45225" lon="0.46352">
        <ele>126.13916902244</ele>
        <time>2021-09-13T07:11:07Z</time>
      </trkpt>
      <trkpt lat="46.45228" lon="0.46352">
        <ele>126.44759741426</ele>
        <time>2021-09-13T07:11:09Z</time>
      </trkpt>
      <trkpt lat="46.4523" lon="0.46351">
        <ele>125.16935773939</ele>
        <time>2021-09-13T07:11:11Z</time>
      </trkpt>
      <trkpt lat="46.45232" lon="0.46352">
        <ele>126.7422149647</ele>
        <time>2021-09-13T07:11:13Z</time>
      </trkpt>
      <trkpt lat="46.45235" lon="0.46351">
        <ele>126.11595276464</ele>
        <time>2021-09-13T07:11:15Z</time>
      </trkpt>
      <trkpt lat="46.45238" lon="0.46353">
        <ele>126.15537392348</ele>
        <time>2021-09-13T07:11:18Z</time>
      </trkpt>
      <trkpt lat="46.4524" lon="0.46352">
        <ele>125.67747215275</ele>
        <time>2021-09-13T07:11:20Z</time>
      </trkpt>
      <trkpt lat="46.45242" lon="0.46353">
        <ele>126.89541965444</ele>
        <time>2021-09-13T07:11:21Z</time>
      </trkpt>
      <trkpt lat="46.45245" lon="0.46353">
        <ele>126.15089770593</ele>
        <time>2021-09-13T07:11:23Z</time>
      </trkpt>
      <trkpt lat="46.45248" lon="0.46353">
        <ele>126.41250679735</ele>
        <time>2021-09-13T07:11:25Z</time>
      </trkpt>
      <trkpt lat="46.45251" lon="0.46352">
        <ele>126.60480702296</ele>
        <time>2021-09-13T07:11:27Z</time>
      </trkpt>
      <trkpt lat="46.45253" lon="0.46351">
        <ele>125.79208436329</ele>
        <time>2021-09-13T07:11:29Z</time>
      </trkpt>
      <trkpt lat="46.45255" lon="0.46351">
        <ele>127.20977314189</ele>
        <time>2021-09-13T07:11:30Z</time>
      </trkpt>
      <trkpt lat="46.45257" lon="0.46351">
        <ele>126.30196760967</ele>
        <time>2021-09-13T07:11:32Z</time>
      </trkpt>
      <trkpt lat="46.45259" lon="0.46351">
        <ele>126.74823034741</ele>
        <time>2021-09-13T07:11:33Z</time>
      </trkpt>
      <trkpt lat="46.45262" lon="0.4635">
        <ele>125.70502528362</ele>
        <time>2021-09-13T07:11:35Z</time>
      </trkpt>
      <trkpt lat="46.45264" lon="0.46349">
        <ele>126.66265059076</ele>
        <time>2021-09-13T07:11:37Z</time>
      </trkpt>
      <trkpt lat="46.45268" lon="0.46348">
        <ele>125.53137881495</ele>
        <time>2021-09-13T07:11:39Z</time>
      </trkpt>
      <trkpt lat="46.4527" lon="0.46349">
        <ele>126.19644679874</ele>
        <time>2021-09-13T07:11:41Z</time>
      </trkpt>
      <trkpt lat="46.45272" lon="0.46349">
        <ele>126.1857159948</ele>
        <time>2021-09-13T07:11:43Z</time>
      </trkpt>
      <trkpt lat="46.45274" lon="0.46349">
        <ele>124.99666310847</ele>
        <time>2021-09-13T07:11:45Z</time>
      </trkpt>
      <trkpt lat="46.45276" lon="0.46348">
        <ele>125.5054221591</ele>
        <time>2021-09-13T07:11:47Z</time>
      </trkpt>
      <trkpt lat="46.45279" lon="0.46347">
        <ele>125.74942887761</ele>
        <time>2021-09-13T07:11:49Z</time>
      </trkpt>
      <trkpt lat="46.45282" lon="0.46347">
        <ele>125.40832530893</ele>
        <time>2021-09-13T07:11:51Z</time>
      </trkpt>
      <trkpt lat="46.45285" lon="0.46347">
        <ele>126.51572365407</ele>
        <time>2021-09-13T07:11:53Z</time>
      </trkpt>
      <trkpt lat="46.45287" lon="0.46346">
        <ele>125.78943140991</ele>
        <time>2021-09-13T07:11:55Z</time>
      </trkpt>
      <trkpt lat="46.45289" lon="0.46346">
        <ele>126.21056045499</ele>
        <time>2021-09-13T07:11:57Z</time>
      </trkpt>
      <trkpt lat="46.45292" lon="0.46346">
        <ele>125.7553106416</ele>
        <time>2021-09-13T07:11:59Z</time>
      </trkpt>
      <trkpt lat="46.45294" lon="0.46344">
        <ele>127.07936514262</ele>
        <time>2021-09-13T07:12:01Z</time>
      </trkpt>
      <trkpt lat="46.45295" lon="0.46343">
        <ele>125.68103704415</ele>
        <time>2021-09-13T07:12:03Z</time>
      </trkpt>
      <trkpt lat="46.45298" lon="0.46342">
        <ele>126.53140548803</ele>
        <time>2021-09-13T07:12:05Z</time>
      </trkpt>
      <trkpt lat="46.45301" lon="0.46341">
        <ele>126.11310958304</ele>
        <time>2021-09-13T07:12:07Z</time>
      </trkpt>
      <trkpt lat="46.45303" lon="0.4634">
        <ele>126.98696564697</ele>
        <time>2021-09-13T07:12:09Z</time>
      </trkpt>
      <trkpt lat="46.45305" lon="0.46339">
        <ele>126.78782553598</ele>
        <time>2021-09-13T07:12:11Z</time>
      </trkpt>
      <trkpt lat="46.45306" lon="0.46338">
        <ele>127.05690670852</ele>
        <time>2021-09-13T07:12:17Z</time>
      </trkpt>
      <trkpt lat="46.45309" lon="0.46337">
        <ele>126.28298396431</ele>
        <time>2021-09-13T07:12:19Z</time>
      </trkpt>
      <trkpt lat="46.4531" lon="0.46335">
        <ele>126.65832611267</ele>
        <time>2021-09-13T07:12:21Z</time>
      </trkpt>
      <trkpt lat="46.45312" lon="0.46334">
        <ele>126.40788717289</ele>
        <time>2021-09-13T07:12:23Z</time>
      </trkpt>
      <trkpt lat="46.45314" lon="0.46334">
        <ele>127.08198423777</ele>
        <time>2021-09-13T07:12:25Z</time>
      </trkpt>
      <trkpt lat="46.45316" lon="0.46332">
        <ele>126.94396109041</ele>
        <time>2021-09-13T07:12:28Z</time>
      </trkpt>
      <trkpt lat="46.45319" lon="0.4633">
        <ele>126.54751801398</ele>
        <time>2021-09-13T07:12:30Z</time>
      </trkpt>
      <trkpt lat="46.45321" lon="0.46329">
        <ele>126.6559808189</ele>
        <time>2021-09-13T07:12:32Z</time>
      </trkpt>
      <trkpt lat="46.45323" lon="0.46328">
        <ele>126.86870984733</ele>
        <time>2021-09-13T07:12:34Z</time>
      </trkpt>
      <trkpt lat="46.45325" lon="0.46327">
        <ele>125.22762618773</ele>
        <time>2021-09-13T07:12:36Z</time>
      </trkpt>
      <trkpt lat="46.45327" lon="0.46326">
        <ele>126.80852289591</ele>
        <time>2021-09-13T07:12:38Z</time>
      </trkpt>
      <trkpt lat="46.45329" lon="0.46324">
        <ele>126.25830055866</ele>
        <time>2021-09-13T07:12:40Z</time>
      </trkpt>
      <trkpt lat="46.45332" lon="0.46322">
        <ele>126.83033677749</ele>
        <time>2021-09-13T07:12:42Z</time>
      </trkpt>
      <trkpt lat="46.45334" lon="0.4632">
        <ele>126.33891560882</ele>
        <time>2021-09-13T07:12:44Z</time>
      </trkpt>
      <trkpt lat="46.45336" lon="0.46319">
        <ele>126.48615058884</ele>
        <time>2021-09-13T07:12:46Z</time>
      </trkpt>
      <trkpt lat="46.45338" lon="0.46317">
        <ele>127.25560106896</ele>
        <time>2021-09-13T07:12:48Z</time>
      </trkpt>
      <trkpt lat="46.4534" lon="0.46315">
        <ele>126.72715646867</ele>
        <time>2021-09-13T07:12:50Z</time>
      </trkpt>
      <trkpt lat="46.45342" lon="0.46312">
        <ele>127.18025478721</ele>
        <time>2021-09-13T07:12:56Z</time>
      </trkpt>
      <trkpt lat="46.45343" lon="0.4631">
        <ele>125.70608589146</ele>
        <time>2021-09-13T07:12:58Z</time>
      </trkpt>
      <trkpt lat="46.45345" lon="0.46309">
        <ele>126.83167402353</ele>
        <time>2021-09-13T07:13:00Z</time>
      </trkpt>
      <trkpt lat="46.45348" lon="0.46307">
        <ele>126.26023609377</ele>
        <time>2021-09-13T07:13:02Z</time>
      </trkpt>
      <trkpt lat="46.4535" lon="0.46305">
        <ele>126.49719936959</ele>
        <time>2021-09-13T07:13:04Z</time>
      </trkpt>
      <trkpt lat="46.45352" lon="0.46302">
        <ele>126.47663946729</ele>
        <time>2021-09-13T07:13:07Z</time>
      </trkpt>
      <trkpt lat="46.45355" lon="0.463">
        <ele>126.66836564615</ele>
        <time>2021-09-13T07:13:09Z</time>
      </trkpt>
      <trkpt lat="46.45357" lon="0.46298">
        <ele>126.16421000566</ele>
        <time>2021-09-13T07:13:11Z</time>
      </trkpt>
      <trkpt lat="46.45358" lon="0.46297">
        <ele>126.27590348478</ele>
        <time>2021-09-13T07:13:12Z</time>
      </trkpt>
      <trkpt lat="46.4536" lon="0.46294">
        <ele>126.52993150707</ele>
        <time>2021-09-13T07:13:15Z</time>
      </trkpt>
      <trkpt lat="46.45363" lon="0.46294">
        <ele>126.67745948024</ele>
        <time>2021-09-13T07:13:17Z</time>
      </trkpt>
      <trkpt lat="46.45365" lon="0.46292">
        <ele>126.25650895108</ele>
        <time>2021-09-13T07:13:18Z</time>
      </trkpt>
      <trkpt lat="46.45366" lon="0.46291">
        <ele>126.08071954269</ele>
        <time>2021-09-13T07:13:20Z</time>
      </trkpt>
      <trkpt lat="46.45369" lon="0.46289">
        <ele>126.20949029364</ele>
        <time>2021-09-13T07:13:22Z</time>
      </trkpt>
      <trkpt lat="46.45371" lon="0.46287">
        <ele>126.9314579498</ele>
        <time>2021-09-13T07:13:25Z</time>
      </trkpt>
      <trkpt lat="46.45374" lon="0.46285">
        <ele>126.20377735514</ele>
        <time>2021-09-13T07:13:27Z</time>
      </trkpt>
      <trkpt lat="46.45376" lon="0.46285">
        <ele>126.88099659421</ele>
        <time>2021-09-13T07:13:29Z</time>
      </trkpt>
      <trkpt lat="46.45378" lon="0.46284">
        <ele>126.14709487371</ele>
        <time>2021-09-13T07:13:31Z</time>
      </trkpt>
      <trkpt lat="46.4538" lon="0.46283">
        <ele>126.2196142422</ele>
        <time>2021-09-13T07:13:33Z</time>
      </trkpt>
      <trkpt lat="46.45382" lon="0.46282">
        <ele>126.12592920754</ele>
        <time>2021-09-13T07:13:34Z</time>
      </trkpt>
      <trkpt lat="46.45385" lon="0.4628">
        <ele>126.05022020824</ele>
        <time>2021-09-13T07:13:36Z</time>
      </trkpt>
      <trkpt lat="46.45387" lon="0.46279">
        <ele>125.45604257658</ele>
        <time>2021-09-13T07:13:38Z</time>
      </trkpt>
      <trkpt lat="46.45389" lon="0.46278">
        <ele>125.67499523703</ele>
        <time>2021-09-13T07:13:40Z</time>
      </trkpt>
      <trkpt lat="46.45392" lon="0.46276">
        <ele>126.00463670213</ele>
        <time>2021-09-13T07:13:43Z</time>
      </trkpt>
      <trkpt lat="46.45394" lon="0.46275">
        <ele>125.56349438708</ele>
        <time>2021-09-13T07:13:45Z</time>
      </trkpt>
      <trkpt lat="46.45396" lon="0.46274">
        <ele>124.42892496008</ele>
        <time>2021-09-13T07:13:47Z</time>
      </trkpt>
      <trkpt lat="46.45398" lon="0.46273">
        <ele>125.7881219713</ele>
        <time>2021-09-13T07:13:49Z</time>
      </trkpt>
      <trkpt lat="46.454" lon="0.46271">
        <ele>125.24533317331</ele>
        <time>2021-09-13T07:13:52Z</time>
      </trkpt>
      <trkpt lat="46.45403" lon="0.46269">
        <ele>125.49569402169</ele>
        <time>2021-09-13T07:13:54Z</time>
      </trkpt>
      <trkpt lat="46.45405" lon="0.46267">
        <ele>124.93205182161</ele>
        <time>2021-09-13T07:13:57Z</time>
      </trkpt>
      <trkpt lat="46.45407" lon="0.46266">
        <ele>125.86433506478</ele>
        <time>2021-09-13T07:13:59Z</time>
      </trkpt>
      <trkpt lat="46.4541" lon="0.46264">
        <ele>125.23521320987</ele>
        <time>2021-09-13T07:14:01Z</time>
      </trkpt>
      <trkpt lat="46.45412" lon="0.46263">
        <ele>124.60759641882</ele>
        <time>2021-09-13T07:14:03Z</time>
      </trkpt>
      <trkpt lat="46.45414" lon="0.46263">
        <ele>125.11830224097</ele>
        <time>2021-09-13T07:14:05Z</time>
      </trkpt>
      <trkpt lat="46.45416" lon="0.46261">
        <ele>124.98235525377</ele>
        <time>2021-09-13T07:14:07Z</time>
      </trkpt>
      <trkpt lat="46.45418" lon="0.46259">
        <ele>124.53667075839</ele>
        <time>2021-09-13T07:14:09Z</time>
      </trkpt>
      <trkpt lat="46.45421" lon="0.46258">
        <ele>124.70498631336</ele>
        <time>2021-09-13T07:14:11Z</time>
      </trkpt>
      <trkpt lat="46.45422" lon="0.46256">
        <ele>124.86117500067</ele>
        <time>2021-09-13T07:14:12Z</time>
      </trkpt>
      <trkpt lat="46.45425" lon="0.46254">
        <ele>124.21097290516</ele>
        <time>2021-09-13T07:14:14Z</time>
      </trkpt>
      <trkpt lat="46.45427" lon="0.46253">
        <ele>124.44663919043</ele>
        <time>2021-09-13T07:14:16Z</time>
      </trkpt>
      <trkpt lat="46.45429" lon="0.46251">
        <ele>124.24218297657</ele>
        <time>2021-09-13T07:14:18Z</time>
      </trkpt>
      <trkpt lat="46.45431" lon="0.46249">
        <ele>124.85440102126</ele>
        <time>2021-09-13T07:14:20Z</time>
      </trkpt>
      <trkpt lat="46.45433" lon="0.46247">
        <ele>124.30059206579</ele>
        <time>2021-09-13T07:14:22Z</time>
      </trkpt>
      <trkpt lat="46.45435" lon="0.46246">
        <ele>124.20120045077</ele>
        <time>2021-09-13T07:14:24Z</time>
      </trkpt>
      <trkpt lat="46.45436" lon="0.46243">
        <ele>123.9140881747</ele>
        <time>2021-09-13T07:14:26Z</time>
      </trkpt>
      <trkpt lat="46.45438" lon="0.46241">
        <ele>123.58183270693</ele>
        <time>2021-09-13T07:14:28Z</time>
      </trkpt>
      <trkpt lat="46.4544" lon="0.4624">
        <ele>123.0109534096</ele>
        <time>2021-09-13T07:14:30Z</time>
      </trkpt>
      <trkpt lat="46.45442" lon="0.46238">
        <ele>123.59414768498</ele>
        <time>2021-09-13T07:14:32Z</time>
      </trkpt>
      <trkpt lat="46.45444" lon="0.46237">
        <ele>122.68062457815</ele>
        <time>2021-09-13T07:14:33Z</time>
      </trkpt>
      <trkpt lat="46.45447" lon="0.46236">
        <ele>123.39568017609</ele>
        <time>2021-09-13T07:14:35Z</time>
      </trkpt>
      <trkpt lat="46.45448" lon="0.46233">
        <ele>123.48930594232</ele>
        <time>2021-09-13T07:14:37Z</time>
      </trkpt>
      <trkpt lat="46.4545" lon="0.4623">
        <ele>122.31825211737</ele>
        <time>2021-09-13T07:14:39Z</time>
      </trkpt>
      <trkpt lat="46.45451" lon="0.46229">
        <ele>122.80821643211</ele>
        <time>2021-09-13T07:14:40Z</time>
      </trkpt>
      <trkpt lat="46.45453" lon="0.46227">
        <ele>121.94183635246</ele>
        <time>2021-09-13T07:14:42Z</time>
      </trkpt>
      <trkpt lat="46.45455" lon="0.46225">
        <ele>122.54084958602</ele>
        <time>2021-09-13T07:14:44Z</time>
      </trkpt>
      <trkpt lat="46.45456" lon="0.46223">
        <ele>122.51935125142</ele>
        <time>2021-09-13T07:14:46Z</time>
      </trkpt>
      <trkpt lat="46.45458" lon="0.46222">
        <ele>122.69017291535</ele>
        <time>2021-09-13T07:14:48Z</time>
      </trkpt>
      <trkpt lat="46.4546" lon="0.46221">
        <ele>122.85707827006</ele>
        <time>2021-09-13T07:14:50Z</time>
      </trkpt>
      <trkpt lat="46.45463" lon="0.46219">
        <ele>122.66866225097</ele>
        <time>2021-09-13T07:14:52Z</time>
      </trkpt>
      <trkpt lat="46.45465" lon="0.46218">
        <ele>122.38623592164</ele>
        <time>2021-09-13T07:14:54Z</time>
      </trkpt>
      <trkpt lat="46.45467" lon="0.46218">
        <ele>123.77439101972</ele>
        <time>2021-09-13T07:14:56Z</time>
      </trkpt>
      <trkpt lat="46.45469" lon="0.46217">
        <ele>122.35667002387</ele>
        <time>2021-09-13T07:14:58Z</time>
      </trkpt>
      <trkpt lat="46.45471" lon="0.46216">
        <ele>122.69367153291</ele>
        <time>2021-09-13T07:15:00Z</time>
      </trkpt>
      <trkpt lat="46.45473" lon="0.46214">
        <ele>122.57169486489</ele>
        <time>2021-09-13T07:15:02Z</time>
      </trkpt>
      <trkpt lat="46.45476" lon="0.46213">
        <ele>122.05777623598</ele>
        <time>2021-09-13T07:15:04Z</time>
      </trkpt>
      <trkpt lat="46.45479" lon="0.46213">
        <ele>124.14725037757</ele>
        <time>2021-09-13T07:15:06Z</time>
      </trkpt>
      <trkpt lat="46.4548" lon="0.46212">
        <ele>122.66948729847</ele>
        <time>2021-09-13T07:15:08Z</time>
      </trkpt>
      <trkpt lat="46.45483" lon="0.4621">
        <ele>122.42898130603</ele>
        <time>2021-09-13T07:15:11Z</time>
      </trkpt>
      <trkpt lat="46.45485" lon="0.46207">
        <ele>123.49109714385</ele>
        <time>2021-09-13T07:15:14Z</time>
      </trkpt>
      <trkpt lat="46.45487" lon="0.46206">
        <ele>123.23151577916</ele>
        <time>2021-09-13T07:15:16Z</time>
      </trkpt>
      <trkpt lat="46.45488" lon="0.46208">
        <ele>123.4290321758</ele>
        <time>2021-09-13T07:15:26Z</time>
      </trkpt>
      <trkpt lat="46.4549" lon="0.46209">
        <ele>123.62227816321</ele>
        <time>2021-09-13T07:16:01Z</time>
      </trkpt>
      <trkpt lat="46.45491" lon="0.46207">
        <ele>123.44853584561</ele>
        <time>2021-09-13T07:16:08Z</time>
      </trkpt>
      <trkpt lat="46.4549" lon="0.46208">
        <ele>123.80786722619</ele>
        <time>2021-09-13T07:16:19Z</time>
      </trkpt>
      <trkpt lat="46.45488" lon="0.46208">
        <ele>122.97633896582</ele>
        <time>2021-09-13T07:16:40Z</time>
      </trkpt>
      <trkpt lat="46.45487" lon="0.4621">
        <ele>123.36818017624</ele>
        <time>2021-09-13T07:16:51Z</time>
      </trkpt>
      <trkpt lat="46.45488" lon="0.46212">
        <ele>123.63076678012</ele>
        <time>2021-09-13T07:16:58Z</time>
      </trkpt>
      <trkpt lat="46.45489" lon="0.46209">
        <ele>123.69698441401</ele>
        <time>2021-09-13T07:17:07Z</time>
      </trkpt>
      <trkpt lat="46.4549" lon="0.46206">
        <ele>123.575151328</ele>
        <time>2021-09-13T07:17:09Z</time>
      </trkpt>
      <trkpt lat="46.45493" lon="0.46205">
        <ele>123.56411730405</ele>
        <time>2021-09-13T07:17:11Z</time>
      </trkpt>
      <trkpt lat="46.45495" lon="0.46203">
        <ele>123.69199569151</ele>
        <time>2021-09-13T07:17:13Z</time>
      </trkpt>
      <trkpt lat="46.45497" lon="0.46201">
        <ele>124.53312055301</ele>
        <time>2021-09-13T07:17:15Z</time>
      </trkpt>
      <trkpt lat="46.45498" lon="0.46198">
        <ele>123.92399976589</ele>
        <time>2021-09-13T07:17:18Z</time>
      </trkpt>
      <trkpt lat="46.455" lon="0.46197">
        <ele>123.82559889834</ele>
        <time>2021-09-13T07:17:20Z</time>
      </trkpt>
      <trkpt lat="46.45502" lon="0.46195">
        <ele>124.46642152686</ele>
        <time>2021-09-13T07:17:22Z</time>
      </trkpt>
      <trkpt lat="46.45504" lon="0.46193">
        <ele>123.17709837481</ele>
        <time>2021-09-13T07:17:24Z</time>
      </trkpt>
      <trkpt lat="46.45506" lon="0.4619">
        <ele>123.76051394455</ele>
        <time>2021-09-13T07:17:27Z</time>
      </trkpt>
      <trkpt lat="46.45507" lon="0.46188">
        <ele>124.58374715876</ele>
        <time>2021-09-13T07:17:29Z</time>
      </trkpt>
      <trkpt lat="46.4551" lon="0.46185">
        <ele>124.2913817754</ele>
        <time>2021-09-13T07:17:31Z</time>
      </trkpt>
      <trkpt lat="46.45511" lon="0.46183">
        <ele>123.24612449948</ele>
        <time>2021-09-13T07:17:34Z</time>
      </trkpt>
      <trkpt lat="46.45513" lon="0.4618">
        <ele>125.46154222451</ele>
        <time>2021-09-13T07:17:36Z</time>
      </trkpt>
      <trkpt lat="46.45514" lon="0.46178">
        <ele>124.16568636801</ele>
        <time>2021-09-13T07:17:38Z</time>
      </trkpt>
      <trkpt lat="46.45515" lon="0.46175">
        <ele>124.57967456058</ele>
        <time>2021-09-13T07:17:41Z</time>
      </trkpt>
      <trkpt lat="46.45517" lon="0.4617">
        <ele>125.2943910053</ele>
        <time>2021-09-13T07:17:44Z</time>
      </trkpt>
      <trkpt lat="46.45519" lon="0.46168">
        <ele>125.33565726317</ele>
        <time>2021-09-13T07:17:46Z</time>
      </trkpt>
      <trkpt lat="46.4552" lon="0.46166">
        <ele>124.93042509351</ele>
        <time>2021-09-13T07:17:48Z</time>
      </trkpt>
      <trkpt lat="46.45522" lon="0.46163">
        <ele>126.27306054626</ele>
        <time>2021-09-13T07:17:50Z</time>
      </trkpt>
      <trkpt lat="46.45524" lon="0.46159">
        <ele>125.49938790873</ele>
        <time>2021-09-13T07:17:53Z</time>
      </trkpt>
      <trkpt lat="46.45525" lon="0.46155">
        <ele>126.01259917952</ele>
        <time>2021-09-13T07:17:55Z</time>
      </trkpt>
      <trkpt lat="46.45527" lon="0.46153">
        <ele>126.79508102406</ele>
        <time>2021-09-13T07:17:58Z</time>
      </trkpt>
      <trkpt lat="46.45529" lon="0.46152">
        <ele>126.31858920399</ele>
        <time>2021-09-13T07:18:00Z</time>
      </trkpt>
      <trkpt lat="46.45531" lon="0.46151">
        <ele>124.59188983217</ele>
        <time>2021-09-13T07:18:01Z</time>
      </trkpt>
      <trkpt lat="46.45533" lon="0.46148">
        <ele>124.77331648394</ele>
        <time>2021-09-13T07:18:03Z</time>
      </trkpt>
      <trkpt lat="46.45535" lon="0.46145">
        <ele>126.16817415413</ele>
        <time>2021-09-13T07:18:05Z</time>
      </trkpt>
      <trkpt lat="46.45536" lon="0.46143">
        <ele>126.50616419222</ele>
        <time>2021-09-13T07:18:07Z</time>
      </trkpt>
      <trkpt lat="46.45538" lon="0.46141">
        <ele>126.38108108472</ele>
        <time>2021-09-13T07:18:10Z</time>
      </trkpt>
      <trkpt lat="46.4554" lon="0.46138">
        <ele>127.4089543242</ele>
        <time>2021-09-13T07:18:13Z</time>
      </trkpt>
      <trkpt lat="46.45542" lon="0.46136">
        <ele>127.61497083213</ele>
        <time>2021-09-13T07:18:15Z</time>
      </trkpt>
      <trkpt lat="46.45545" lon="0.46133">
        <ele>127.58490896877</ele>
        <time>2021-09-13T07:18:17Z</time>
      </trkpt>
      <trkpt lat="46.45547" lon="0.46132">
        <ele>126.97438194696</ele>
        <time>2021-09-13T07:18:20Z</time>
      </trkpt>
      <trkpt lat="46.45548" lon="0.4613">
        <ele>128.72597231809</ele>
        <time>2021-09-13T07:18:21Z</time>
      </trkpt>
      <trkpt lat="46.4555" lon="0.46128">
        <ele>128.16136769671</ele>
        <time>2021-09-13T07:18:23Z</time>
      </trkpt>
      <trkpt lat="46.45552" lon="0.46126">
        <ele>128.53260701057</ele>
        <time>2021-09-13T07:18:25Z</time>
      </trkpt>
      <trkpt lat="46.45554" lon="0.46124">
        <ele>128.10766057484</ele>
        <time>2021-09-13T07:18:27Z</time>
      </trkpt>
      <trkpt lat="46.45556" lon="0.46122">
        <ele>127.79140190687</ele>
        <time>2021-09-13T07:18:29Z</time>
      </trkpt>
      <trkpt lat="46.45558" lon="0.46121">
        <ele>128.78719431814</ele>
        <time>2021-09-13T07:18:32Z</time>
      </trkpt>
      <trkpt lat="46.4556" lon="0.46119">
        <ele>129.10458097607</ele>
        <time>2021-09-13T07:18:35Z</time>
      </trkpt>
      <trkpt lat="46.45562" lon="0.46116">
        <ele>128.92585176136</ele>
        <time>2021-09-13T07:18:37Z</time>
      </trkpt>
      <trkpt lat="46.45564" lon="0.46114">
        <ele>128.82827572711</ele>
        <time>2021-09-13T07:18:39Z</time>
      </trkpt>
      <trkpt lat="46.45567" lon="0.46112">
        <ele>129.15818593372</ele>
        <time>2021-09-13T07:18:41Z</time>
      </trkpt>
      <trkpt lat="46.45568" lon="0.4611">
        <ele>129.04764160886</ele>
        <time>2021-09-13T07:18:43Z</time>
      </trkpt>
      <trkpt lat="46.4557" lon="0.46107">
        <ele>129.32180939801</ele>
        <time>2021-09-13T07:18:45Z</time>
      </trkpt>
      <trkpt lat="46.45572" lon="0.46105">
        <ele>129.23848189879</ele>
        <time>2021-09-13T07:18:47Z</time>
      </trkpt>
      <trkpt lat="46.45575" lon="0.46104">
        <ele>128.632333057</ele>
        <time>2021-09-13T07:18:49Z</time>
      </trkpt>
      <trkpt lat="46.45577" lon="0.46102">
        <ele>129.42416762095</ele>
        <time>2021-09-13T07:18:52Z</time>
      </trkpt>
      <trkpt lat="46.45579" lon="0.461">
        <ele>129.70116717927</ele>
        <time>2021-09-13T07:18:54Z</time>
      </trkpt>
      <trkpt lat="46.45581" lon="0.46099">
        <ele>129.99865261652</ele>
        <time>2021-09-13T07:18:56Z</time>
      </trkpt>
      <trkpt lat="46.45584" lon="0.46097">
        <ele>129.95420649648</ele>
        <time>2021-09-13T07:18:58Z</time>
      </trkpt>
      <trkpt lat="46.45585" lon="0.46094">
        <ele>129.77610328607</ele>
        <time>2021-09-13T07:19:00Z</time>
      </trkpt>
      <trkpt lat="46.45587" lon="0.46093">
        <ele>130.04694316816</ele>
        <time>2021-09-13T07:19:02Z</time>
      </trkpt>
      <trkpt lat="46.45589" lon="0.46091">
        <ele>130.44457780477</ele>
        <time>2021-09-13T07:19:04Z</time>
      </trkpt>
      <trkpt lat="46.45591" lon="0.46089">
        <ele>130.53839042503</ele>
        <time>2021-09-13T07:19:06Z</time>
      </trkpt>
      <trkpt lat="46.45593" lon="0.46087">
        <ele>130.55527979694</ele>
        <time>2021-09-13T07:19:08Z</time>
      </trkpt>
      <trkpt lat="46.45595" lon="0.46085">
        <ele>130.57642543968</ele>
        <time>2021-09-13T07:19:10Z</time>
      </trkpt>
      <trkpt lat="46.45598" lon="0.46083">
        <ele>130.95698874071</ele>
        <time>2021-09-13T07:19:13Z</time>
      </trkpt>
      <trkpt lat="46.45601" lon="0.46081">
        <ele>131.4955892209</ele>
        <time>2021-09-13T07:19:16Z</time>
      </trkpt>
      <trkpt lat="46.45603" lon="0.4608">
        <ele>130.91446760669</ele>
        <time>2021-09-13T07:19:18Z</time>
      </trkpt>
      <trkpt lat="46.45605" lon="0.46079">
        <ele>132.48936608713</ele>
        <time>2021-09-13T07:19:20Z</time>
      </trkpt>
      <trkpt lat="46.45607" lon="0.46077">
        <ele>131.2640841417</ele>
        <time>2021-09-13T07:19:22Z</time>
      </trkpt>
      <trkpt lat="46.45608" lon="0.46075">
        <ele>131.93716623448</ele>
        <time>2021-09-13T07:19:24Z</time>
      </trkpt>
      <trkpt lat="46.45611" lon="0.46073">
        <ele>131.41328864358</ele>
        <time>2021-09-13T07:19:26Z</time>
      </trkpt>
      <trkpt lat="46.45614" lon="0.46072">
        <ele>131.91868466139</ele>
        <time>2021-09-13T07:19:28Z</time>
      </trkpt>
      <trkpt lat="46.45616" lon="0.46071">
        <ele>131.91862225533</ele>
        <time>2021-09-13T07:19:36Z</time>
      </trkpt>
      <trkpt lat="46.45618" lon="0.46069">
        <ele>131.48242621589</ele>
        <time>2021-09-13T07:19:38Z</time>
      </trkpt>
      <trkpt lat="46.4562" lon="0.46066">
        <ele>131.10864956677</ele>
        <time>2021-09-13T07:19:40Z</time>
      </trkpt>
      <trkpt lat="46.45622" lon="0.46063">
        <ele>132.72914474364</ele>
        <time>2021-09-13T07:19:42Z</time>
      </trkpt>
      <trkpt lat="46.45624" lon="0.46061">
        <ele>131.81504771113</ele>
        <time>2021-09-13T07:19:45Z</time>
      </trkpt>
      <trkpt lat="46.45626" lon="0.46057">
        <ele>131.58875575848</ele>
        <time>2021-09-13T07:19:49Z</time>
      </trkpt>
      <trkpt lat="46.45628" lon="0.46055">
        <ele>131.64859635476</ele>
        <time>2021-09-13T07:19:51Z</time>
      </trkpt>
      <trkpt lat="46.4563" lon="0.46053">
        <ele>131.80777505971</ele>
        <time>2021-09-13T07:19:53Z</time>
      </trkpt>
      <trkpt lat="46.45632" lon="0.46051">
        <ele>131.78134297207</ele>
        <time>2021-09-13T07:19:56Z</time>
      </trkpt>
      <trkpt lat="46.45634" lon="0.46048">
        <ele>131.61402846407</ele>
        <time>2021-09-13T07:19:58Z</time>
      </trkpt>
      <trkpt lat="46.45636" lon="0.46046">
        <ele>131.47934561223</ele>
        <time>2021-09-13T07:20:00Z</time>
      </trkpt>
      <trkpt lat="46.45638" lon="0.46045">
        <ele>131.42225660104</ele>
        <time>2021-09-13T07:20:01Z</time>
      </trkpt>
      <trkpt lat="46.4564" lon="0.46042">
        <ele>133.09544977639</ele>
        <time>2021-09-13T07:20:04Z</time>
      </trkpt>
      <trkpt lat="46.45642" lon="0.46039">
        <ele>131.6069203401</ele>
        <time>2021-09-13T07:20:07Z</time>
      </trkpt>
      <trkpt lat="46.45644" lon="0.46036">
        <ele>131.29146661982</ele>
        <time>2021-09-13T07:20:09Z</time>
      </trkpt>
      <trkpt lat="46.45646" lon="0.46034">
        <ele>132.17199455574</ele>
        <time>2021-09-13T07:20:11Z</time>
      </trkpt>
      <trkpt lat="46.45648" lon="0.46032">
        <ele>131.64633733965</ele>
        <time>2021-09-13T07:20:13Z</time>
      </trkpt>
      <trkpt lat="46.4565" lon="0.4603">
        <ele>131.65407812037</ele>
        <time>2021-09-13T07:20:14Z</time>
      </trkpt>
      <trkpt lat="46.45651" lon="0.46027">
        <ele>130.80782852881</ele>
        <time>2021-09-13T07:20:16Z</time>
      </trkpt>
      <trkpt lat="46.45653" lon="0.46024">
        <ele>132.13705432042</ele>
        <time>2021-09-13T07:20:18Z</time>
      </trkpt>
      <trkpt lat="46.45655" lon="0.46022">
        <ele>131.81248357799</ele>
        <time>2021-09-13T07:20:20Z</time>
      </trkpt>
      <trkpt lat="46.45657" lon="0.46019">
        <ele>132.42185551301</ele>
        <time>2021-09-13T07:20:22Z</time>
      </trkpt>
      <trkpt lat="46.45658" lon="0.46017">
        <ele>132.10569352191</ele>
        <time>2021-09-13T07:20:23Z</time>
      </trkpt>
      <trkpt lat="46.4566" lon="0.46014">
        <ele>132.08011445403</ele>
        <time>2021-09-13T07:20:25Z</time>
      </trkpt>
      <trkpt lat="46.45661" lon="0.46011">
        <ele>131.89141709451</ele>
        <time>2021-09-13T07:20:27Z</time>
      </trkpt>
      <trkpt lat="46.45663" lon="0.46009">
        <ele>133.59538537171</ele>
        <time>2021-09-13T07:20:29Z</time>
      </trkpt>
      <trkpt lat="46.45664" lon="0.46005">
        <ele>132.09133132361</ele>
        <time>2021-09-13T07:20:31Z</time>
      </trkpt>
      <trkpt lat="46.45666" lon="0.46003">
        <ele>132.08913254645</ele>
        <time>2021-09-13T07:20:33Z</time>
      </trkpt>
      <trkpt lat="46.45669" lon="0.45999">
        <ele>132.46415469423</ele>
        <time>2021-09-13T07:20:35Z</time>
      </trkpt>
      <trkpt lat="46.45671" lon="0.45996">
        <ele>132.50089377817</ele>
        <time>2021-09-13T07:20:37Z</time>
      </trkpt>
      <trkpt lat="46.45672" lon="0.45994">
        <ele>132.09730752371</ele>
        <time>2021-09-13T07:20:39Z</time>
      </trkpt>
      <trkpt lat="46.45673" lon="0.45991">
        <ele>132.51350277383</ele>
        <time>2021-09-13T07:20:41Z</time>
      </trkpt>
      <trkpt lat="46.45676" lon="0.45989">
        <ele>133.17722958699</ele>
        <time>2021-09-13T07:20:43Z</time>
      </trkpt>
      <trkpt lat="46.45677" lon="0.45986">
        <ele>132.11954050511</ele>
        <time>2021-09-13T07:20:45Z</time>
      </trkpt>
      <trkpt lat="46.45679" lon="0.45983">
        <ele>131.89470781945</ele>
        <time>2021-09-13T07:20:47Z</time>
      </trkpt>
      <trkpt lat="46.45681" lon="0.45981">
        <ele>133.00785281975</ele>
        <time>2021-09-13T07:20:50Z</time>
      </trkpt>
      <trkpt lat="46.45683" lon="0.45978">
        <ele>132.4152231887</ele>
        <time>2021-09-13T07:20:53Z</time>
      </trkpt>
      <trkpt lat="46.45684" lon="0.45975">
        <ele>132.40067789983</ele>
        <time>2021-09-13T07:20:56Z</time>
      </trkpt>
      <trkpt lat="46.45687" lon="0.45971">
        <ele>131.85749714449</ele>
        <time>2021-09-13T07:20:59Z</time>
      </trkpt>
      <trkpt lat="46.45689" lon="0.45969">
        <ele>132.15545647219</ele>
        <time>2021-09-13T07:21:01Z</time>
      </trkpt>
      <trkpt lat="46.45691" lon="0.45967">
        <ele>132.1279207021</ele>
        <time>2021-09-13T07:21:03Z</time>
      </trkpt>
      <trkpt lat="46.45694" lon="0.45966">
        <ele>132.64058371726</ele>
        <time>2021-09-13T07:21:05Z</time>
      </trkpt>
      <trkpt lat="46.45696" lon="0.45964">
        <ele>132.74284354411</ele>
        <time>2021-09-13T07:21:07Z</time>
      </trkpt>
      <trkpt lat="46.45699" lon="0.45961">
        <ele>132.34181056544</ele>
        <time>2021-09-13T07:21:09Z</time>
      </trkpt>
      <trkpt lat="46.457" lon="0.45959">
        <ele>131.9785645362</ele>
        <time>2021-09-13T07:21:11Z</time>
      </trkpt>
      <trkpt lat="46.45702" lon="0.45958">
        <ele>131.76079261024</ele>
        <time>2021-09-13T07:21:12Z</time>
      </trkpt>
      <trkpt lat="46.45704" lon="0.45957">
        <ele>132.08409064636</ele>
        <time>2021-09-13T07:21:14Z</time>
      </trkpt>
      <trkpt lat="46.45706" lon="0.45955">
        <ele>132.61487715505</ele>
        <time>2021-09-13T07:21:16Z</time>
      </trkpt>
      <trkpt lat="46.45708" lon="0.45953">
        <ele>132.08680832293</ele>
        <time>2021-09-13T07:21:18Z</time>
      </trkpt>
      <trkpt lat="46.4571" lon="0.45952">
        <ele>131.97286240384</ele>
        <time>2021-09-13T07:21:19Z</time>
      </trkpt>
      <trkpt lat="46.45712" lon="0.4595">
        <ele>131.84311484545</ele>
        <time>2021-09-13T07:21:21Z</time>
      </trkpt>
      <trkpt lat="46.45714" lon="0.45948">
        <ele>132.10477704369</ele>
        <time>2021-09-13T07:21:23Z</time>
      </trkpt>
      <trkpt lat="46.45715" lon="0.45945">
        <ele>132.11663982924</ele>
        <time>2021-09-13T07:21:26Z</time>
      </trkpt>
      <trkpt lat="46.45718" lon="0.45942">
        <ele>131.98564305436</ele>
        <time>2021-09-13T07:21:29Z</time>
      </trkpt>
      <trkpt lat="46.4572" lon="0.45941">
        <ele>133.30093524884</ele>
        <time>2021-09-13T07:21:31Z</time>
      </trkpt>
      <trkpt lat="46.45722" lon="0.45938">
        <ele>132.23378496151</ele>
        <time>2021-09-13T07:21:33Z</time>
      </trkpt>
      <trkpt lat="46.45724" lon="0.45935">
        <ele>132.44161661621</ele>
        <time>2021-09-13T07:21:35Z</time>
      </trkpt>
      <trkpt lat="46.45726" lon="0.45934">
        <ele>132.00166382082</ele>
        <time>2021-09-13T07:21:37Z</time>
      </trkpt>
      <trkpt lat="46.45727" lon="0.45931">
        <ele>132.01980793569</ele>
        <time>2021-09-13T07:21:39Z</time>
      </trkpt>
      <trkpt lat="46.4573" lon="0.45928">
        <ele>132.16515019257</ele>
        <time>2021-09-13T07:21:41Z</time>
      </trkpt>
      <trkpt lat="46.45731" lon="0.45925">
        <ele>131.78241448384</ele>
        <time>2021-09-13T07:21:43Z</time>
      </trkpt>
      <trkpt lat="46.45732" lon="0.45923">
        <ele>130.93745110277</ele>
        <time>2021-09-13T07:21:45Z</time>
      </trkpt>
      <trkpt lat="46.45734" lon="0.4592">
        <ele>133.23175091576</ele>
        <time>2021-09-13T07:21:47Z</time>
      </trkpt>
      <trkpt lat="46.45737" lon="0.45919">
        <ele>131.534597666</ele>
        <time>2021-09-13T07:21:49Z</time>
      </trkpt>
      <trkpt lat="46.45739" lon="0.45919">
        <ele>131.62206518184</ele>
        <time>2021-09-13T07:21:51Z</time>
      </trkpt>
      <trkpt lat="46.45741" lon="0.45918">
        <ele>131.68109173607</ele>
        <time>2021-09-13T07:21:52Z</time>
      </trkpt>
      <trkpt lat="46.45743" lon="0.45917">
        <ele>132.21882009041</ele>
        <time>2021-09-13T07:21:54Z</time>
      </trkpt>
      <trkpt lat="46.45746" lon="0.45916">
        <ele>131.67571793031</ele>
        <time>2021-09-13T07:21:56Z</time>
      </trkpt>
      <trkpt lat="46.45748" lon="0.45916">
        <ele>131.42207993381</ele>
        <time>2021-09-13T07:21:57Z</time>
      </trkpt>
      <trkpt lat="46.4575" lon="0.45916">
        <ele>130.87911397405</ele>
        <time>2021-09-13T07:21:58Z</time>
      </trkpt>
      <trkpt lat="46.45754" lon="0.45916">
        <ele>132.49403792899</ele>
        <time>2021-09-13T07:22:00Z</time>
      </trkpt>
      <trkpt lat="46.45756" lon="0.45916">
        <ele>131.59991572518</ele>
        <time>2021-09-13T07:22:02Z</time>
      </trkpt>
      <trkpt lat="46.45758" lon="0.45916">
        <ele>131.61606558505</ele>
        <time>2021-09-13T07:22:05Z</time>
      </trkpt>
      <trkpt lat="46.45761" lon="0.45916">
        <ele>131.73863148503</ele>
        <time>2021-09-13T07:22:07Z</time>
      </trkpt>
      <trkpt lat="46.45764" lon="0.45916">
        <ele>131.72287400439</ele>
        <time>2021-09-13T07:22:09Z</time>
      </trkpt>
      <trkpt lat="46.45765" lon="0.45914">
        <ele>131.53320357017</ele>
        <time>2021-09-13T07:22:11Z</time>
      </trkpt>
      <trkpt lat="46.45769" lon="0.45913">
        <ele>132.4549898617</ele>
        <time>2021-09-13T07:22:14Z</time>
      </trkpt>
      <trkpt lat="46.45771" lon="0.45913">
        <ele>131.90997422673</ele>
        <time>2021-09-13T07:22:16Z</time>
      </trkpt>
      <trkpt lat="46.45774" lon="0.45912">
        <ele>130.8647031635</ele>
        <time>2021-09-13T07:22:18Z</time>
      </trkpt>
      <trkpt lat="46.45776" lon="0.45912">
        <ele>131.17156946007</ele>
        <time>2021-09-13T07:22:20Z</time>
      </trkpt>
      <trkpt lat="46.45779" lon="0.45911">
        <ele>131.02168146148</ele>
        <time>2021-09-13T07:22:22Z</time>
      </trkpt>
      <trkpt lat="46.4578" lon="0.45909">
        <ele>131.69396017306</ele>
        <time>2021-09-13T07:22:24Z</time>
      </trkpt>
      <trkpt lat="46.45782" lon="0.45908">
        <ele>131.06527286489</ele>
        <time>2021-09-13T07:22:25Z</time>
      </trkpt>
      <trkpt lat="46.45785" lon="0.45907">
        <ele>131.45223901328</ele>
        <time>2021-09-13T07:22:27Z</time>
      </trkpt>
      <trkpt lat="46.45788" lon="0.45906">
        <ele>131.08492060564</ele>
        <time>2021-09-13T07:22:29Z</time>
      </trkpt>
      <trkpt lat="46.45791" lon="0.45905">
        <ele>131.07566921785</ele>
        <time>2021-09-13T07:22:31Z</time>
      </trkpt>
      <trkpt lat="46.45794" lon="0.45904">
        <ele>131.49855256733</ele>
        <time>2021-09-13T07:22:33Z</time>
      </trkpt>
      <trkpt lat="46.45796" lon="0.45903">
        <ele>131.21677844319</ele>
        <time>2021-09-13T07:22:37Z</time>
      </trkpt>
      <trkpt lat="46.45799" lon="0.45902">
        <ele>130.66718976479</ele>
        <time>2021-09-13T07:22:39Z</time>
      </trkpt>
      <trkpt lat="46.45802" lon="0.45901">
        <ele>131.10186828393</ele>
        <time>2021-09-13T07:22:41Z</time>
      </trkpt>
      <trkpt lat="46.45805" lon="0.45901">
        <ele>130.76368222572</ele>
        <time>2021-09-13T07:22:43Z</time>
      </trkpt>
      <trkpt lat="46.45807" lon="0.45902">
        <ele>131.48613225762</ele>
        <time>2021-09-13T07:22:45Z</time>
      </trkpt>
      <trkpt lat="46.45809" lon="0.45901">
        <ele>130.90364905726</ele>
        <time>2021-09-13T07:22:48Z</time>
      </trkpt>
      <trkpt lat="46.45813" lon="0.45901">
        <ele>130.51528414153</ele>
        <time>2021-09-13T07:22:50Z</time>
      </trkpt>
      <trkpt lat="46.45815" lon="0.45901">
        <ele>131.86504083127</ele>
        <time>2021-09-13T07:22:51Z</time>
      </trkpt>
      <trkpt lat="46.45818" lon="0.45902">
        <ele>130.41626792494</ele>
        <time>2021-09-13T07:22:53Z</time>
      </trkpt>
      <trkpt lat="46.45821" lon="0.45901">
        <ele>130.25322382338</ele>
        <time>2021-09-13T07:22:55Z</time>
      </trkpt>
      <trkpt lat="46.45823" lon="0.45902">
        <ele>130.57590454631</ele>
        <time>2021-09-13T07:22:57Z</time>
      </trkpt>
      <trkpt lat="46.45825" lon="0.45902">
        <ele>130.05111430772</ele>
        <time>2021-09-13T07:22:59Z</time>
      </trkpt>
      <trkpt lat="46.45827" lon="0.45902">
        <ele>129.89982314222</ele>
        <time>2021-09-13T07:23:01Z</time>
      </trkpt>
      <trkpt lat="46.4583" lon="0.45902">
        <ele>131.18443422019</ele>
        <time>2021-09-13T07:23:03Z</time>
      </trkpt>
      <trkpt lat="46.45833" lon="0.45903">
        <ele>130.14672881458</ele>
        <time>2021-09-13T07:23:05Z</time>
      </trkpt>
      <trkpt lat="46.45836" lon="0.45904">
        <ele>129.79766450543</ele>
        <time>2021-09-13T07:23:07Z</time>
      </trkpt>
      <trkpt lat="46.45838" lon="0.45903">
        <ele>130.56319137104</ele>
        <time>2021-09-13T07:23:09Z</time>
      </trkpt>
      <trkpt lat="46.4584" lon="0.45903">
        <ele>130.25642541051</ele>
        <time>2021-09-13T07:23:12Z</time>
      </trkpt>
      <trkpt lat="46.45844" lon="0.45904">
        <ele>129.51356785838</ele>
        <time>2021-09-13T07:23:14Z</time>
      </trkpt>
      <trkpt lat="46.45847" lon="0.45904">
        <ele>130.2152872337</ele>
        <time>2021-09-13T07:23:16Z</time>
      </trkpt>
      <trkpt lat="46.45849" lon="0.45904">
        <ele>130.10460733995</ele>
        <time>2021-09-13T07:23:19Z</time>
      </trkpt>
      <trkpt lat="46.45851" lon="0.45903">
        <ele>130.0337510705</ele>
        <time>2021-09-13T07:23:21Z</time>
      </trkpt>
      <trkpt lat="46.45854" lon="0.45902">
        <ele>129.39514673408</ele>
        <time>2021-09-13T07:23:23Z</time>
      </trkpt>
      <trkpt lat="46.45856" lon="0.45901">
        <ele>130.05596447829</ele>
        <time>2021-09-13T07:23:24Z</time>
      </trkpt>
      <trkpt lat="46.45857" lon="0.45898">
        <ele>130.05576535128</ele>
        <time>2021-09-13T07:23:26Z</time>
      </trkpt>
      <trkpt lat="46.4586" lon="0.45893">
        <ele>129.97817288712</ele>
        <time>2021-09-13T07:23:29Z</time>
      </trkpt>
      <trkpt lat="46.4586" lon="0.4589">
        <ele>129.45173926651</ele>
        <time>2021-09-13T07:23:31Z</time>
      </trkpt>
      <trkpt lat="46.4586" lon="0.45886">
        <ele>129.39628448058</ele>
        <time>2021-09-13T07:23:33Z</time>
      </trkpt>
      <trkpt lat="46.45858" lon="0.45884">
        <ele>129.39330643602</ele>
        <time>2021-09-13T07:23:35Z</time>
      </trkpt>
      <trkpt lat="46.45857" lon="0.45882">
        <ele>128.20603486896</ele>
        <time>2021-09-13T07:23:37Z</time>
      </trkpt>
      <trkpt lat="46.45857" lon="0.45879">
        <ele>129.76059827674</ele>
        <time>2021-09-13T07:23:38Z</time>
      </trkpt>
      <trkpt lat="46.45857" lon="0.45875">
        <ele>129.16081284918</ele>
        <time>2021-09-13T07:23:40Z</time>
      </trkpt>
      <trkpt lat="46.45856" lon="0.45873">
        <ele>128.40238097031</ele>
        <time>2021-09-13T07:23:42Z</time>
      </trkpt>
      <trkpt lat="46.45856" lon="0.4587">
        <ele>128.79961440805</ele>
        <time>2021-09-13T07:23:44Z</time>
      </trkpt>
      <trkpt lat="46.45854" lon="0.45866">
        <ele>128.64261347335</ele>
        <time>2021-09-13T07:23:46Z</time>
      </trkpt>
      <trkpt lat="46.45854" lon="0.45863">
        <ele>127.81204512343</ele>
        <time>2021-09-13T07:23:48Z</time>
      </trkpt>
      <trkpt lat="46.45854" lon="0.4586">
        <ele>129.26157156285</ele>
        <time>2021-09-13T07:23:49Z</time>
      </trkpt>
      <trkpt lat="46.45853" lon="0.45857">
        <ele>128.64039162267</ele>
        <time>2021-09-13T07:23:51Z</time>
      </trkpt>
      <trkpt lat="46.45852" lon="0.45854">
        <ele>127.97654098459</ele>
        <time>2021-09-13T07:23:53Z</time>
      </trkpt>
      <trkpt lat="46.45851" lon="0.45851">
        <ele>128.41378671676</ele>
        <time>2021-09-13T07:23:55Z</time>
      </trkpt>
      <trkpt lat="46.4585" lon="0.45848">
        <ele>127.33044750895</ele>
        <time>2021-09-13T07:23:57Z</time>
      </trkpt>
      <trkpt lat="46.4585" lon="0.45845">
        <ele>128.37693403941</ele>
        <time>2021-09-13T07:23:59Z</time>
      </trkpt>
      <trkpt lat="46.45851" lon="0.45841">
        <ele>128.12570946291</ele>
        <time>2021-09-13T07:24:01Z</time>
      </trkpt>
      <trkpt lat="46.4585" lon="0.45838">
        <ele>127.43259050697</ele>
        <time>2021-09-13T07:24:03Z</time>
      </trkpt>
      <trkpt lat="46.4585" lon="0.45835">
        <ele>127.28270000685</ele>
        <time>2021-09-13T07:24:06Z</time>
      </trkpt>
      <trkpt lat="46.4585" lon="0.45833">
        <ele>127.59028113633</ele>
        <time>2021-09-13T07:24:12Z</time>
      </trkpt>
      <trkpt lat="46.45849" lon="0.4583">
        <ele>127.3108532792</ele>
        <time>2021-09-13T07:24:14Z</time>
      </trkpt>
      <trkpt lat="46.45849" lon="0.45827">
        <ele>127.93344856147</ele>
        <time>2021-09-13T07:24:16Z</time>
      </trkpt>
      <trkpt lat="46.45848" lon="0.45823">
        <ele>127.43101783749</ele>
        <time>2021-09-13T07:24:19Z</time>
      </trkpt>
      <trkpt lat="46.45848" lon="0.45818">
        <ele>127.03117166087</ele>
        <time>2021-09-13T07:24:21Z</time>
      </trkpt>
      <trkpt lat="46.45848" lon="0.45814">
        <ele>126.71809137613</ele>
        <time>2021-09-13T07:24:24Z</time>
      </trkpt>
      <trkpt lat="46.45847" lon="0.45811">
        <ele>127.00293145701</ele>
        <time>2021-09-13T07:24:26Z</time>
      </trkpt>
      <trkpt lat="46.45846" lon="0.45809">
        <ele>126.45082717668</ele>
        <time>2021-09-13T07:24:27Z</time>
      </trkpt>
      <trkpt lat="46.45845" lon="0.45804">
        <ele>126.81945348624</ele>
        <time>2021-09-13T07:24:30Z</time>
      </trkpt>
      <trkpt lat="46.45844" lon="0.458">
        <ele>127.18133689556</ele>
        <time>2021-09-13T07:24:33Z</time>
      </trkpt>
      <trkpt lat="46.45844" lon="0.45797">
        <ele>126.57145122904</ele>
        <time>2021-09-13T07:24:35Z</time>
      </trkpt>
      <trkpt lat="46.45843" lon="0.45793">
        <ele>126.3998586284</ele>
        <time>2021-09-13T07:24:38Z</time>
      </trkpt>
      <trkpt lat="46.45842" lon="0.4579">
        <ele>126.179478148</ele>
        <time>2021-09-13T07:24:40Z</time>
      </trkpt>
      <trkpt lat="46.45841" lon="0.45787">
        <ele>125.99855819251</ele>
        <time>2021-09-13T07:24:42Z</time>
      </trkpt>
      <trkpt lat="46.4584" lon="0.45784">
        <ele>126.08921986166</ele>
        <time>2021-09-13T07:24:44Z</time>
      </trkpt>
      <trkpt lat="46.45839" lon="0.45781">
        <ele>126.09322643094</ele>
        <time>2021-09-13T07:24:46Z</time>
      </trkpt>
      <trkpt lat="46.45839" lon="0.45777">
        <ele>125.82910735253</ele>
        <time>2021-09-13T07:24:48Z</time>
      </trkpt>
      <trkpt lat="46.45838" lon="0.45775">
        <ele>126.18444805685</ele>
        <time>2021-09-13T07:24:50Z</time>
      </trkpt>
      <trkpt lat="46.45839" lon="0.45772">
        <ele>125.01725888252</ele>
        <time>2021-09-13T07:24:52Z</time>
      </trkpt>
      <trkpt lat="46.45837" lon="0.4577">
        <ele>125.62449607532</ele>
        <time>2021-09-13T07:24:53Z</time>
      </trkpt>
      <trkpt lat="46.45835" lon="0.45767">
        <ele>125.39046167862</ele>
        <time>2021-09-13T07:24:55Z</time>
      </trkpt>
      <trkpt lat="46.45835" lon="0.45763">
        <ele>124.27124928962</ele>
        <time>2021-09-13T07:24:58Z</time>
      </trkpt>
      <trkpt lat="46.45834" lon="0.45759">
        <ele>125.53900081106</ele>
        <time>2021-09-13T07:25:00Z</time>
      </trkpt>
      <trkpt lat="46.45834" lon="0.45756">
        <ele>124.598916471</ele>
        <time>2021-09-13T07:25:02Z</time>
      </trkpt>
      <trkpt lat="46.45834" lon="0.45752">
        <ele>124.13016062882</ele>
        <time>2021-09-13T07:25:04Z</time>
      </trkpt>
      <trkpt lat="46.45834" lon="0.45749">
        <ele>123.54302256089</ele>
        <time>2021-09-13T07:25:06Z</time>
      </trkpt>
      <trkpt lat="46.45833" lon="0.45745">
        <ele>124.63678767532</ele>
        <time>2021-09-13T07:25:08Z</time>
      </trkpt>
      <trkpt lat="46.45832" lon="0.45742">
        <ele>122.70440625399</ele>
        <time>2021-09-13T07:25:11Z</time>
      </trkpt>
      <trkpt lat="46.45831" lon="0.45738">
        <ele>124.35470683035</ele>
        <time>2021-09-13T07:25:13Z</time>
      </trkpt>
      <trkpt lat="46.45831" lon="0.45735">
        <ele>123.49265055917</ele>
        <time>2021-09-13T07:25:15Z</time>
      </trkpt>
      <trkpt lat="46.45831" lon="0.45731">
        <ele>123.23593842424</ele>
        <time>2021-09-13T07:25:17Z</time>
      </trkpt>
      <trkpt lat="46.4583" lon="0.45729">
        <ele>123.65869289823</ele>
        <time>2021-09-13T07:25:19Z</time>
      </trkpt>
      <trkpt lat="46.45829" lon="0.45725">
        <ele>122.90595216583</ele>
        <time>2021-09-13T07:25:21Z</time>
      </trkpt>
      <trkpt lat="46.45828" lon="0.45721">
        <ele>123.31202882156</ele>
        <time>2021-09-13T07:25:23Z</time>
      </trkpt>
      <trkpt lat="46.4583" lon="0.45718">
        <ele>123.25988542009</ele>
        <time>2021-09-13T07:25:24Z</time>
      </trkpt>
      <trkpt lat="46.4583" lon="0.45716">
        <ele>122.63544091489</ele>
        <time>2021-09-13T07:25:26Z</time>
      </trkpt>
      <trkpt lat="46.4583" lon="0.45712">
        <ele>122.8088728385</ele>
        <time>2021-09-13T07:25:28Z</time>
      </trkpt>
      <trkpt lat="46.45829" lon="0.45709">
        <ele>122.45155140292</ele>
        <time>2021-09-13T07:25:30Z</time>
      </trkpt>
      <trkpt lat="46.45829" lon="0.45705">
        <ele>122.15563312732</ele>
        <time>2021-09-13T07:25:32Z</time>
      </trkpt>
      <trkpt lat="46.45829" lon="0.45702">
        <ele>123.15869385004</ele>
        <time>2021-09-13T07:25:34Z</time>
      </trkpt>
      <trkpt lat="46.45828" lon="0.45699">
        <ele>121.73356984463</ele>
        <time>2021-09-13T07:25:36Z</time>
      </trkpt>
      <trkpt lat="46.45828" lon="0.45696">
        <ele>121.65197620261</ele>
        <time>2021-09-13T07:25:38Z</time>
      </trkpt>
      <trkpt lat="46.45828" lon="0.45692">
        <ele>121.1497215908</ele>
        <time>2021-09-13T07:25:40Z</time>
      </trkpt>
      <trkpt lat="46.45828" lon="0.45689">
        <ele>120.3862244254</ele>
        <time>2021-09-13T07:25:42Z</time>
      </trkpt>
      <trkpt lat="46.45827" lon="0.45685">
        <ele>121.70588297024</ele>
        <time>2021-09-13T07:25:44Z</time>
      </trkpt>
      <trkpt lat="46.45827" lon="0.45683">
        <ele>120.93021226767</ele>
        <time>2021-09-13T07:25:46Z</time>
      </trkpt>
      <trkpt lat="46.45825" lon="0.4568">
        <ele>121.47677361779</ele>
        <time>2021-09-13T07:25:48Z</time>
      </trkpt>
      <trkpt lat="46.45824" lon="0.45677">
        <ele>120.91470582783</ele>
        <time>2021-09-13T07:25:50Z</time>
      </trkpt>
      <trkpt lat="46.45824" lon="0.45673">
        <ele>120.25762032997</ele>
        <time>2021-09-13T07:25:52Z</time>
      </trkpt>
      <trkpt lat="46.45823" lon="0.45671">
        <ele>120.91063015815</ele>
        <time>2021-09-13T07:25:54Z</time>
      </trkpt>
      <trkpt lat="46.45822" lon="0.45668">
        <ele>120.53984683752</ele>
        <time>2021-09-13T07:25:56Z</time>
      </trkpt>
      <trkpt lat="46.45821" lon="0.45665">
        <ele>121.057315276</ele>
        <time>2021-09-13T07:25:58Z</time>
      </trkpt>
      <trkpt lat="46.4582" lon="0.45661">
        <ele>120.41336391587</ele>
        <time>2021-09-13T07:26:00Z</time>
      </trkpt>
      <trkpt lat="46.45819" lon="0.45657">
        <ele>121.2130739633</ele>
        <time>2021-09-13T07:26:03Z</time>
      </trkpt>
      <trkpt lat="46.45819" lon="0.45654">
        <ele>120.46036737412</ele>
        <time>2021-09-13T07:26:10Z</time>
      </trkpt>
      <trkpt lat="46.45821" lon="0.45654">
        <ele>120.82254558615</ele>
        <time>2021-09-13T07:26:29Z</time>
      </trkpt>
      <trkpt lat="46.4582" lon="0.45653">
        <ele>119.88985481393</ele>
        <time>2021-09-13T07:28:10Z</time>
      </trkpt>
      <trkpt lat="46.45818" lon="0.45653">
        <ele>120.15977652278</ele>
        <time>2021-09-13T07:28:30Z</time>
      </trkpt>
      <trkpt lat="46.4582" lon="0.45654">
        <ele>120.28968820442</ele>
        <time>2021-09-13T07:29:02Z</time>
      </trkpt>
      <trkpt lat="46.45821" lon="0.45651">
        <ele>120.33847945556</ele>
        <time>2021-09-13T07:30:02Z</time>
      </trkpt>
      <trkpt lat="46.45822" lon="0.45651">
        <ele>120.12740737572</ele>
        <time>2021-09-13T07:30:09Z</time>
      </trkpt>
      <trkpt lat="46.45821" lon="0.4565">
        <ele>120.13815489504</ele>
        <time>2021-09-13T07:30:34Z</time>
      </trkpt>
      <trkpt lat="46.45819" lon="0.45652">
        <ele>119.99984816462</ele>
        <time>2021-09-13T07:31:15Z</time>
      </trkpt>
      <trkpt lat="46.45821" lon="0.45652">
        <ele>120.49966957886</ele>
        <time>2021-09-13T07:31:47Z</time>
      </trkpt>
      <trkpt lat="46.4582" lon="0.45655">
        <ele>120.42701580934</ele>
        <time>2021-09-13T07:33:22Z</time>
      </trkpt>
      <trkpt lat="46.45818" lon="0.45655">
        <ele>120.58671033103</ele>
        <time>2021-09-13T07:33:28Z</time>
      </trkpt>
      <trkpt lat="46.4582" lon="0.45655">
        <ele>120.58820230514</ele>
        <time>2021-09-13T07:33:34Z</time>
      </trkpt>
      <trkpt lat="46.45822" lon="0.45654">
        <ele>120.65050189104</ele>
        <time>2021-09-13T07:33:39Z</time>
      </trkpt>
      <trkpt lat="46.4582" lon="0.45653">
        <ele>120.64493877813</ele>
        <time>2021-09-13T07:33:42Z</time>
      </trkpt>
      <trkpt lat="46.45818" lon="0.4565">
        <ele>120.67389768083</ele>
        <time>2021-09-13T07:34:38Z</time>
      </trkpt>
      <trkpt lat="46.45818" lon="0.45645">
        <ele>120.63126848452</ele>
        <time>2021-09-13T07:34:40Z</time>
      </trkpt>
      <trkpt lat="46.45817" lon="0.45643">
        <ele>120.27721019182</ele>
        <time>2021-09-13T07:34:42Z</time>
      </trkpt>
      <trkpt lat="46.45816" lon="0.4564">
        <ele>120.25168717466</ele>
        <time>2021-09-13T07:34:44Z</time>
      </trkpt>
      <trkpt lat="46.45815" lon="0.45636">
        <ele>120.10816619638</ele>
        <time>2021-09-13T07:34:47Z</time>
      </trkpt>
      <trkpt lat="46.45815" lon="0.45632">
        <ele>120.73872804269</ele>
        <time>2021-09-13T07:34:50Z</time>
      </trkpt>
      <trkpt lat="46.45813" lon="0.45629">
        <ele>120.55591380317</ele>
        <time>2021-09-13T07:34:52Z</time>
      </trkpt>
      <trkpt lat="46.45812" lon="0.45626">
        <ele>120.3221485205</ele>
        <time>2021-09-13T07:34:54Z</time>
      </trkpt>
      <trkpt lat="46.45811" lon="0.45624">
        <ele>121.44413136505</ele>
        <time>2021-09-13T07:34:56Z</time>
      </trkpt>
      <trkpt lat="46.4581" lon="0.4562">
        <ele>121.07264626306</ele>
        <time>2021-09-13T07:34:58Z</time>
      </trkpt>
      <trkpt lat="46.45809" lon="0.45616">
        <ele>120.79453099053</ele>
        <time>2021-09-13T07:35:01Z</time>
      </trkpt>
      <trkpt lat="46.45809" lon="0.45613">
        <ele>120.48036161344</ele>
        <time>2021-09-13T07:35:04Z</time>
      </trkpt>
      <trkpt lat="46.45809" lon="0.45609">
        <ele>121.53803446051</ele>
        <time>2021-09-13T07:35:06Z</time>
      </trkpt>
      <trkpt lat="46.45809" lon="0.45605">
        <ele>121.44396346621</ele>
        <time>2021-09-13T07:35:08Z</time>
      </trkpt>
      <trkpt lat="46.4581" lon="0.45602">
        <ele>121.69696485251</ele>
        <time>2021-09-13T07:35:10Z</time>
      </trkpt>
      <trkpt lat="46.45811" lon="0.45599">
        <ele>120.87022539228</ele>
        <time>2021-09-13T07:35:12Z</time>
      </trkpt>
      <trkpt lat="46.45811" lon="0.45596">
        <ele>121.17145799194</ele>
        <time>2021-09-13T07:35:14Z</time>
      </trkpt>
      <trkpt lat="46.45812" lon="0.45592">
        <ele>121.87666020729</ele>
        <time>2021-09-13T07:35:16Z</time>
      </trkpt>
      <trkpt lat="46.45813" lon="0.45589">
        <ele>121.85504158121</ele>
        <time>2021-09-13T07:35:18Z</time>
      </trkpt>
      <trkpt lat="46.45813" lon="0.45585">
        <ele>121.86802233662</ele>
        <time>2021-09-13T07:35:20Z</time>
      </trkpt>
      <trkpt lat="46.45813" lon="0.45582">
        <ele>121.72470387165</ele>
        <time>2021-09-13T07:35:22Z</time>
      </trkpt>
      <trkpt lat="46.45815" lon="0.45578">
        <ele>121.89103841316</ele>
        <time>2021-09-13T07:35:24Z</time>
      </trkpt>
      <trkpt lat="46.45815" lon="0.45575">
        <ele>122.80400428735</ele>
        <time>2021-09-13T07:35:26Z</time>
      </trkpt>
      <trkpt lat="46.45815" lon="0.45571">
        <ele>122.26793473959</ele>
        <time>2021-09-13T07:35:28Z</time>
      </trkpt>
      <trkpt lat="46.45816" lon="0.45568">
        <ele>121.95544787962</ele>
        <time>2021-09-13T07:35:30Z</time>
      </trkpt>
      <trkpt lat="46.45816" lon="0.45564">
        <ele>123.01877131499</ele>
        <time>2021-09-13T07:35:33Z</time>
      </trkpt>
      <trkpt lat="46.45817" lon="0.45561">
        <ele>122.2415093882</ele>
        <time>2021-09-13T07:35:35Z</time>
      </trkpt>
      <trkpt lat="46.45818" lon="0.45558">
        <ele>122.21472384129</ele>
        <time>2021-09-13T07:35:37Z</time>
      </trkpt>
      <trkpt lat="46.45818" lon="0.45554">
        <ele>122.01568552479</ele>
        <time>2021-09-13T07:35:39Z</time>
      </trkpt>
      <trkpt lat="46.45819" lon="0.45551">
        <ele>122.51263310295</ele>
        <time>2021-09-13T07:35:41Z</time>
      </trkpt>
      <trkpt lat="46.4582" lon="0.45547">
        <ele>122.69374129362</ele>
        <time>2021-09-13T07:35:43Z</time>
      </trkpt>
      <trkpt lat="46.4582" lon="0.45543">
        <ele>122.75464478042</ele>
        <time>2021-09-13T07:35:46Z</time>
      </trkpt>
      <trkpt lat="46.45821" lon="0.45541">
        <ele>122.7401027251</ele>
        <time>2021-09-13T07:35:47Z</time>
      </trkpt>
      <trkpt lat="46.45822" lon="0.45537">
        <ele>122.12615650985</ele>
        <time>2021-09-13T07:35:49Z</time>
      </trkpt>
      <trkpt lat="46.45823" lon="0.45533">
        <ele>122.71248224005</ele>
        <time>2021-09-13T07:35:52Z</time>
      </trkpt>
      <trkpt lat="46.45824" lon="0.4553">
        <ele>123.11391433049</ele>
        <time>2021-09-13T07:35:54Z</time>
      </trkpt>
      <trkpt lat="46.45825" lon="0.45526">
        <ele>123.30381099787</ele>
        <time>2021-09-13T07:35:56Z</time>
      </trkpt>
      <trkpt lat="46.45826" lon="0.45524">
        <ele>123.85231707059</ele>
        <time>2021-09-13T07:35:58Z</time>
      </trkpt>
      <trkpt lat="46.45828" lon="0.45519">
        <ele>123.51100955438</ele>
        <time>2021-09-13T07:36:00Z</time>
      </trkpt>
      <trkpt lat="46.45827" lon="0.45517">
        <ele>122.8135387823</ele>
        <time>2021-09-13T07:36:02Z</time>
      </trkpt>
      <trkpt lat="46.45828" lon="0.45514">
        <ele>123.17145592533</ele>
        <time>2021-09-13T07:36:04Z</time>
      </trkpt>
      <trkpt lat="46.45829" lon="0.45511">
        <ele>123.24447608925</ele>
        <time>2021-09-13T07:36:06Z</time>
      </trkpt>
      <trkpt lat="46.45829" lon="0.45507">
        <ele>123.82968119252</ele>
        <time>2021-09-13T07:36:08Z</time>
      </trkpt>
      <trkpt lat="46.45831" lon="0.45505">
        <ele>123.30397024844</ele>
        <time>2021-09-13T07:36:10Z</time>
      </trkpt>
      <trkpt lat="46.45832" lon="0.45502">
        <ele>123.53649022151</ele>
        <time>2021-09-13T07:36:12Z</time>
      </trkpt>
      <trkpt lat="46.45832" lon="0.45498">
        <ele>123.11833979003</ele>
        <time>2021-09-13T07:36:15Z</time>
      </trkpt>
      <trkpt lat="46.45833" lon="0.45494">
        <ele>123.19277939014</ele>
        <time>2021-09-13T07:36:17Z</time>
      </trkpt>
      <trkpt lat="46.45833" lon="0.45492">
        <ele>124.37515437976</ele>
        <time>2021-09-13T07:36:18Z</time>
      </trkpt>
      <trkpt lat="46.45834" lon="0.45488">
        <ele>123.56511739548</ele>
        <time>2021-09-13T07:36:21Z</time>
      </trkpt>
      <trkpt lat="46.45835" lon="0.45485">
        <ele>123.76539164595</ele>
        <time>2021-09-13T07:36:22Z</time>
      </trkpt>
      <trkpt lat="46.45837" lon="0.45482">
        <ele>123.28074572142</ele>
        <time>2021-09-13T07:36:24Z</time>
      </trkpt>
      <trkpt lat="46.45837" lon="0.45478">
        <ele>122.94623857271</ele>
        <time>2021-09-13T07:36:26Z</time>
      </trkpt>
      <trkpt lat="46.45839" lon="0.45474">
        <ele>123.4473138582</ele>
        <time>2021-09-13T07:36:29Z</time>
      </trkpt>
      <trkpt lat="46.45839" lon="0.45471">
        <ele>123.15968640056</ele>
        <time>2021-09-13T07:36:30Z</time>
      </trkpt>
      <trkpt lat="46.4584" lon="0.45468">
        <ele>123.28712739795</ele>
        <time>2021-09-13T07:36:32Z</time>
      </trkpt>
      <trkpt lat="46.4584" lon="0.45466">
        <ele>123.25010261685</ele>
        <time>2021-09-13T07:36:34Z</time>
      </trkpt>
      <trkpt lat="46.45842" lon="0.45463">
        <ele>123.16602168046</ele>
        <time>2021-09-13T07:36:36Z</time>
      </trkpt>
      <trkpt lat="46.45842" lon="0.45458">
        <ele>122.99850476813</ele>
        <time>2021-09-13T07:36:38Z</time>
      </trkpt>
      <trkpt lat="46.45843" lon="0.45456">
        <ele>123.09099245537</ele>
        <time>2021-09-13T07:36:40Z</time>
      </trkpt>
      <trkpt lat="46.45844" lon="0.45452">
        <ele>123.52645147312</ele>
        <time>2021-09-13T07:36:42Z</time>
      </trkpt>
      <trkpt lat="46.45845" lon="0.45449">
        <ele>123.69423689414</ele>
        <time>2021-09-13T07:36:44Z</time>
      </trkpt>
      <trkpt lat="46.45846" lon="0.45446">
        <ele>123.23204237875</ele>
        <time>2021-09-13T07:36:46Z</time>
      </trkpt>
      <trkpt lat="46.45847" lon="0.45443">
        <ele>123.08803967014</ele>
        <time>2021-09-13T07:36:48Z</time>
      </trkpt>
      <trkpt lat="46.45847" lon="0.45439">
        <ele>123.93720753025</ele>
        <time>2021-09-13T07:36:50Z</time>
      </trkpt>
      <trkpt lat="46.45847" lon="0.45435">
        <ele>123.03134010825</ele>
        <time>2021-09-13T07:36:52Z</time>
      </trkpt>
      <trkpt lat="46.45848" lon="0.45431">
        <ele>123.39728469774</ele>
        <time>2021-09-13T07:36:54Z</time>
      </trkpt>
      <trkpt lat="46.45847" lon="0.45428">
        <ele>123.96918637119</ele>
        <time>2021-09-13T07:36:56Z</time>
      </trkpt>
      <trkpt lat="46.45848" lon="0.45426">
        <ele>123.0477300277</ele>
        <time>2021-09-13T07:36:58Z</time>
      </trkpt>
      <trkpt lat="46.45849" lon="0.45422">
        <ele>123.48541618884</ele>
        <time>2021-09-13T07:37:00Z</time>
      </trkpt>
      <trkpt lat="46.4585" lon="0.45419">
        <ele>122.65299460012</ele>
        <time>2021-09-13T07:37:02Z</time>
      </trkpt>
      <trkpt lat="46.45851" lon="0.45415">
        <ele>123.97964457609</ele>
        <time>2021-09-13T07:37:04Z</time>
      </trkpt>
      <trkpt lat="46.45852" lon="0.45412">
        <ele>123.16481064074</ele>
        <time>2021-09-13T07:37:06Z</time>
      </trkpt>
      <trkpt lat="46.45853" lon="0.45409">
        <ele>122.88128918316</ele>
        <time>2021-09-13T07:37:08Z</time>
      </trkpt>
      <trkpt lat="46.45854" lon="0.45406">
        <ele>123.189506175</ele>
        <time>2021-09-13T07:37:10Z</time>
      </trkpt>
      <trkpt lat="46.45854" lon="0.45402">
        <ele>123.03917265125</ele>
        <time>2021-09-13T07:37:12Z</time>
      </trkpt>
      <trkpt lat="46.45855" lon="0.45399">
        <ele>122.81977976486</ele>
        <time>2021-09-13T07:37:14Z</time>
      </trkpt>
      <trkpt lat="46.45855" lon="0.45395">
        <ele>122.93888747972</ele>
        <time>2021-09-13T07:37:16Z</time>
      </trkpt>
      <trkpt lat="46.45856" lon="0.45392">
        <ele>123.15900166519</ele>
        <time>2021-09-13T07:37:18Z</time>
      </trkpt>
      <trkpt lat="46.45856" lon="0.45388">
        <ele>122.83309223689</ele>
        <time>2021-09-13T07:37:20Z</time>
      </trkpt>
      <trkpt lat="46.45857" lon="0.45386">
        <ele>122.51768011227</ele>
        <time>2021-09-13T07:37:22Z</time>
      </trkpt>
      <trkpt lat="46.45857" lon="0.45383">
        <ele>122.18459857441</ele>
        <time>2021-09-13T07:37:24Z</time>
      </trkpt>
      <trkpt lat="46.45859" lon="0.45378">
        <ele>122.02759972401</ele>
        <time>2021-09-13T07:37:26Z</time>
      </trkpt>
      <trkpt lat="46.45858" lon="0.45375">
        <ele>122.70898346324</ele>
        <time>2021-09-13T07:37:28Z</time>
      </trkpt>
      <trkpt lat="46.45859" lon="0.45371">
        <ele>122.33875702322</ele>
        <time>2021-09-13T07:37:31Z</time>
      </trkpt>
      <trkpt lat="46.45861" lon="0.45367">
        <ele>122.63635092229</ele>
        <time>2021-09-13T07:37:33Z</time>
      </trkpt>
      <trkpt lat="46.45861" lon="0.45364">
        <ele>122.43265281338</ele>
        <time>2021-09-13T07:37:35Z</time>
      </trkpt>
      <trkpt lat="46.45862" lon="0.4536">
        <ele>121.90004001278</ele>
        <time>2021-09-13T07:37:37Z</time>
      </trkpt>
      <trkpt lat="46.45863" lon="0.45357">
        <ele>122.56095551047</ele>
        <time>2021-09-13T07:37:39Z</time>
      </trkpt>
      <trkpt lat="46.45864" lon="0.45352">
        <ele>121.95006709173</ele>
        <time>2021-09-13T07:37:42Z</time>
      </trkpt>
      <trkpt lat="46.45864" lon="0.45348">
        <ele>122.81615069043</ele>
        <time>2021-09-13T07:37:45Z</time>
      </trkpt>
      <trkpt lat="46.45865" lon="0.45344">
        <ele>122.3030458102</ele>
        <time>2021-09-13T07:37:47Z</time>
      </trkpt>
      <trkpt lat="46.45866" lon="0.45341">
        <ele>121.28810619004</ele>
        <time>2021-09-13T07:37:49Z</time>
      </trkpt>
      <trkpt lat="46.45867" lon="0.45337">
        <ele>122.63623096608</ele>
        <time>2021-09-13T07:37:51Z</time>
      </trkpt>
      <trkpt lat="46.45867" lon="0.45333">
        <ele>121.92956858594</ele>
        <time>2021-09-13T07:37:54Z</time>
      </trkpt>
      <trkpt lat="46.45868" lon="0.4533">
        <ele>122.38024636265</ele>
        <time>2021-09-13T07:37:56Z</time>
      </trkpt>
      <trkpt lat="46.45869" lon="0.45327">
        <ele>121.94945497252</ele>
        <time>2021-09-13T07:37:58Z</time>
      </trkpt>
      <trkpt lat="46.4587" lon="0.45324">
        <ele>121.62391273584</ele>
        <time>2021-09-13T07:37:59Z</time>
      </trkpt>
      <trkpt lat="46.4587" lon="0.45321">
        <ele>121.50132876448</ele>
        <time>2021-09-13T07:38:01Z</time>
      </trkpt>
      <trkpt lat="46.45871" lon="0.45317">
        <ele>121.71032318939</ele>
        <time>2021-09-13T07:38:04Z</time>
      </trkpt>
      <trkpt lat="46.45872" lon="0.45315">
        <ele>121.53204561118</ele>
        <time>2021-09-13T07:38:06Z</time>
      </trkpt>
      <trkpt lat="46.45873" lon="0.45311">
        <ele>122.01791795995</ele>
        <time>2021-09-13T07:38:08Z</time>
      </trkpt>
      <trkpt lat="46.45874" lon="0.45307">
        <ele>121.24220463727</ele>
        <time>2021-09-13T07:38:10Z</time>
      </trkpt>
      <trkpt lat="46.45875" lon="0.45304">
        <ele>121.81877374742</ele>
        <time>2021-09-13T07:38:13Z</time>
      </trkpt>
      <trkpt lat="46.45875" lon="0.45301">
        <ele>120.95075543411</ele>
        <time>2021-09-13T07:38:15Z</time>
      </trkpt>
      <trkpt lat="46.45875" lon="0.45298">
        <ele>120.89521025028</ele>
        <time>2021-09-13T07:38:17Z</time>
      </trkpt>
      <trkpt lat="46.45876" lon="0.45295">
        <ele>120.26911679842</ele>
        <time>2021-09-13T07:38:19Z</time>
      </trkpt>
      <trkpt lat="46.45877" lon="0.45291">
        <ele>120.93865587562</ele>
        <time>2021-09-13T07:38:21Z</time>
      </trkpt>
      <trkpt lat="46.45878" lon="0.45288">
        <ele>120.32841981202</ele>
        <time>2021-09-13T07:38:23Z</time>
      </trkpt>
      <trkpt lat="46.45879" lon="0.45286">
        <ele>120.24425244052</ele>
        <time>2021-09-13T07:38:25Z</time>
      </trkpt>
      <trkpt lat="46.45881" lon="0.45285">
        <ele>119.99374188669</ele>
        <time>2021-09-13T07:38:28Z</time>
      </trkpt>
      <trkpt lat="46.45884" lon="0.45286">
        <ele>120.44642153941</ele>
        <time>2021-09-13T07:38:31Z</time>
      </trkpt>
      <trkpt lat="46.45887" lon="0.45286">
        <ele>120.71491197124</ele>
        <time>2021-09-13T07:38:35Z</time>
      </trkpt>
      <trkpt lat="46.45888" lon="0.45288">
        <ele>121.24297582358</ele>
        <time>2021-09-13T07:38:38Z</time>
      </trkpt>
      <trkpt lat="46.45891" lon="0.45288">
        <ele>120.51398586668</ele>
        <time>2021-09-13T07:38:40Z</time>
      </trkpt>
      <trkpt lat="46.45894" lon="0.45291">
        <ele>120.85070545692</ele>
        <time>2021-09-13T07:38:43Z</time>
      </trkpt>
      <trkpt lat="46.45896" lon="0.45293">
        <ele>120.44744134508</ele>
        <time>2021-09-13T07:38:48Z</time>
      </trkpt>
      <trkpt lat="46.45898" lon="0.45293">
        <ele>120.45287362766</ele>
        <time>2021-09-13T07:38:50Z</time>
      </trkpt>
      <trkpt lat="46.459" lon="0.45294">
        <ele>120.42414023262</ele>
        <time>2021-09-13T07:38:52Z</time>
      </trkpt>
      <trkpt lat="46.45903" lon="0.45295">
        <ele>120.56305199396</ele>
        <time>2021-09-13T07:38:55Z</time>
      </trkpt>
      <trkpt lat="46.45905" lon="0.45295">
        <ele>120.85127661005</ele>
        <time>2021-09-13T07:38:56Z</time>
      </trkpt>
      <trkpt lat="46.45907" lon="0.45295">
        <ele>119.57656071149</ele>
        <time>2021-09-13T07:38:58Z</time>
      </trkpt>
      <trkpt lat="46.4591" lon="0.45297">
        <ele>120.31562723871</ele>
        <time>2021-09-13T07:39:00Z</time>
      </trkpt>
      <trkpt lat="46.45913" lon="0.45297">
        <ele>119.8279518364</ele>
        <time>2021-09-13T07:39:03Z</time>
      </trkpt>
      <trkpt lat="46.45915" lon="0.45297">
        <ele>119.34044795204</ele>
        <time>2021-09-13T07:39:04Z</time>
      </trkpt>
      <trkpt lat="46.45918" lon="0.45297">
        <ele>120.20245396346</ele>
        <time>2021-09-13T07:39:06Z</time>
      </trkpt>
      <trkpt lat="46.45921" lon="0.45298">
        <ele>119.41867346596</ele>
        <time>2021-09-13T07:39:09Z</time>
      </trkpt>
      <trkpt lat="46.45923" lon="0.45297">
        <ele>119.64308743272</ele>
        <time>2021-09-13T07:39:11Z</time>
      </trkpt>
      <trkpt lat="46.45926" lon="0.45298">
        <ele>119.34503936768</ele>
        <time>2021-09-13T07:39:13Z</time>
      </trkpt>
      <trkpt lat="46.45928" lon="0.45298">
        <ele>119.09582016151</ele>
        <time>2021-09-13T07:39:15Z</time>
      </trkpt>
      <trkpt lat="46.45931" lon="0.45298">
        <ele>119.64930948988</ele>
        <time>2021-09-13T07:39:17Z</time>
      </trkpt>
      <trkpt lat="46.45933" lon="0.45299">
        <ele>118.72914302442</ele>
        <time>2021-09-13T07:39:20Z</time>
      </trkpt>
      <trkpt lat="46.45935" lon="0.453">
        <ele>118.86827184819</ele>
        <time>2021-09-13T07:39:22Z</time>
      </trkpt>
      <trkpt lat="46.45938" lon="0.45301">
        <ele>117.82020441629</ele>
        <time>2021-09-13T07:39:24Z</time>
      </trkpt>
      <trkpt lat="46.45941" lon="0.45301">
        <ele>119.11625665426</ele>
        <time>2021-09-13T07:39:26Z</time>
      </trkpt>
      <trkpt lat="46.45944" lon="0.45301">
        <ele>118.96137424558</ele>
        <time>2021-09-13T07:39:28Z</time>
      </trkpt>
      <trkpt lat="46.45947" lon="0.45301">
        <ele>118.97382358368</ele>
        <time>2021-09-13T07:39:30Z</time>
      </trkpt>
      <trkpt lat="46.45949" lon="0.45299">
        <ele>118.8538180152</ele>
        <time>2021-09-13T07:39:32Z</time>
      </trkpt>
      <trkpt lat="46.45953" lon="0.45299">
        <ele>119.10908248369</ele>
        <time>2021-09-13T07:39:35Z</time>
      </trkpt>
      <trkpt lat="46.45956" lon="0.453">
        <ele>118.62733222637</ele>
        <time>2021-09-13T07:39:37Z</time>
      </trkpt>
      <trkpt lat="46.45958" lon="0.45301">
        <ele>118.17686080281</ele>
        <time>2021-09-13T07:39:39Z</time>
      </trkpt>
      <trkpt lat="46.4596" lon="0.45301">
        <ele>119.35621959437</ele>
        <time>2021-09-13T07:39:41Z</time>
      </trkpt>
      <trkpt lat="46.45962" lon="0.45302">
        <ele>117.94535609242</ele>
        <time>2021-09-13T07:39:44Z</time>
      </trkpt>
      <trkpt lat="46.45964" lon="0.45304">
        <ele>118.41366727743</ele>
        <time>2021-09-13T07:39:45Z</time>
      </trkpt>
      <trkpt lat="46.45966" lon="0.45305">
        <ele>119.31877995934</ele>
        <time>2021-09-13T07:39:46Z</time>
      </trkpt>
      <trkpt lat="46.45968" lon="0.45307">
        <ele>117.91040896904</ele>
        <time>2021-09-13T07:39:49Z</time>
      </trkpt>
      <trkpt lat="46.45971" lon="0.45308">
        <ele>118.86232626345</ele>
        <time>2021-09-13T07:39:51Z</time>
      </trkpt>
      <trkpt lat="46.45973" lon="0.4531">
        <ele>118.53873228934</ele>
        <time>2021-09-13T07:39:53Z</time>
      </trkpt>
      <trkpt lat="46.45975" lon="0.45311">
        <ele>117.71814491786</ele>
        <time>2021-09-13T07:39:55Z</time>
      </trkpt>
      <trkpt lat="46.45977" lon="0.45313">
        <ele>119.22261111625</ele>
        <time>2021-09-13T07:39:57Z</time>
      </trkpt>
      <trkpt lat="46.4598" lon="0.45314">
        <ele>118.23471915256</ele>
        <time>2021-09-13T07:39:59Z</time>
      </trkpt>
      <trkpt lat="46.45982" lon="0.45315">
        <ele>118.69987165276</ele>
        <time>2021-09-13T07:40:01Z</time>
      </trkpt>
      <trkpt lat="46.45984" lon="0.45316">
        <ele>118.48132996261</ele>
        <time>2021-09-13T07:40:03Z</time>
      </trkpt>
      <trkpt lat="46.45986" lon="0.45317">
        <ele>117.59517775103</ele>
        <time>2021-09-13T07:40:05Z</time>
      </trkpt>
      <trkpt lat="46.45989" lon="0.45318">
        <ele>118.01395645179</ele>
        <time>2021-09-13T07:40:07Z</time>
      </trkpt>
      <trkpt lat="46.45991" lon="0.45318">
        <ele>119.34391302988</ele>
        <time>2021-09-13T07:40:09Z</time>
      </trkpt>
      <trkpt lat="46.45993" lon="0.45319">
        <ele>118.04579038545</ele>
        <time>2021-09-13T07:40:11Z</time>
      </trkpt>
      <trkpt lat="46.45996" lon="0.4532">
        <ele>117.50896336976</ele>
        <time>2021-09-13T07:40:13Z</time>
      </trkpt>
      <trkpt lat="46.45998" lon="0.45321">
        <ele>117.93670140486</ele>
        <time>2021-09-13T07:40:15Z</time>
      </trkpt>
      <trkpt lat="46.46001" lon="0.45322">
        <ele>117.67817480862</ele>
        <time>2021-09-13T07:40:17Z</time>
      </trkpt>
      <trkpt lat="46.46003" lon="0.45323">
        <ele>117.10681564175</ele>
        <time>2021-09-13T07:40:19Z</time>
      </trkpt>
      <trkpt lat="46.46005" lon="0.45324">
        <ele>118.56287612487</ele>
        <time>2021-09-13T07:40:20Z</time>
      </trkpt>
      <trkpt lat="46.46007" lon="0.45325">
        <ele>116.99358927645</ele>
        <time>2021-09-13T07:40:22Z</time>
      </trkpt>
      <trkpt lat="46.46009" lon="0.45326">
        <ele>117.45098907128</ele>
        <time>2021-09-13T07:40:24Z</time>
      </trkpt>
      <trkpt lat="46.46012" lon="0.45328">
        <ele>117.89676990174</ele>
        <time>2021-09-13T07:40:26Z</time>
      </trkpt>
      <trkpt lat="46.46014" lon="0.45329">
        <ele>117.81956294365</ele>
        <time>2021-09-13T07:40:28Z</time>
      </trkpt>
      <trkpt lat="46.46016" lon="0.45331">
        <ele>117.49731019884</ele>
        <time>2021-09-13T07:40:30Z</time>
      </trkpt>
      <trkpt lat="46.46018" lon="0.45332">
        <ele>117.29640013538</ele>
        <time>2021-09-13T07:40:32Z</time>
      </trkpt>
      <trkpt lat="46.4602" lon="0.45334">
        <ele>119.11400012579</ele>
        <time>2021-09-13T07:40:33Z</time>
      </trkpt>
      <trkpt lat="46.46023" lon="0.45334">
        <ele>117.66758906655</ele>
        <time>2021-09-13T07:40:36Z</time>
      </trkpt>
      <trkpt lat="46.46025" lon="0.45335">
        <ele>117.6409958899</ele>
        <time>2021-09-13T07:40:38Z</time>
      </trkpt>
      <trkpt lat="46.46028" lon="0.45336">
        <ele>118.1305653397</ele>
        <time>2021-09-13T07:40:40Z</time>
      </trkpt>
      <trkpt lat="46.4603" lon="0.45337">
        <ele>117.66532313358</ele>
        <time>2021-09-13T07:40:42Z</time>
      </trkpt>
      <trkpt lat="46.46032" lon="0.45338">
        <ele>117.01179813221</ele>
        <time>2021-09-13T07:40:44Z</time>
      </trkpt>
      <trkpt lat="46.46034" lon="0.45339">
        <ele>118.10324402526</ele>
        <time>2021-09-13T07:40:46Z</time>
      </trkpt>
      <trkpt lat="46.46036" lon="0.45341">
        <ele>117.27028553467</ele>
        <time>2021-09-13T07:40:47Z</time>
      </trkpt>
      <trkpt lat="46.46038" lon="0.45341">
        <ele>117.26483508572</ele>
        <time>2021-09-13T07:40:49Z</time>
      </trkpt>
      <trkpt lat="46.4604" lon="0.45342">
        <ele>117.48587671015</ele>
        <time>2021-09-13T07:40:51Z</time>
      </trkpt>
      <trkpt lat="46.46042" lon="0.45343">
        <ele>117.48789509758</ele>
        <time>2021-09-13T07:40:53Z</time>
      </trkpt>
      <trkpt lat="46.46044" lon="0.45344">
        <ele>117.48769335728</ele>
        <time>2021-09-13T07:40:55Z</time>
      </trkpt>
      <trkpt lat="46.46047" lon="0.45345">
        <ele>117.18796085194</ele>
        <time>2021-09-13T07:40:57Z</time>
      </trkpt>
      <trkpt lat="46.46049" lon="0.45347">
        <ele>116.29700173065</ele>
        <time>2021-09-13T07:40:59Z</time>
      </trkpt>
      <trkpt lat="46.46051" lon="0.45349">
        <ele>117.25725380424</ele>
        <time>2021-09-13T07:41:01Z</time>
      </trkpt>
      <trkpt lat="46.46054" lon="0.4535">
        <ele>117.37724429648</ele>
        <time>2021-09-13T07:41:03Z</time>
      </trkpt>
      <trkpt lat="46.46055" lon="0.45352">
        <ele>117.34973975644</ele>
        <time>2021-09-13T07:41:05Z</time>
      </trkpt>
      <trkpt lat="46.46058" lon="0.45352">
        <ele>117.22208115924</ele>
        <time>2021-09-13T07:41:07Z</time>
      </trkpt>
      <trkpt lat="46.4606" lon="0.45353">
        <ele>116.47024881374</ele>
        <time>2021-09-13T07:41:09Z</time>
      </trkpt>
      <trkpt lat="46.46062" lon="0.45354">
        <ele>117.85594404582</ele>
        <time>2021-09-13T07:41:11Z</time>
      </trkpt>
      <trkpt lat="46.46065" lon="0.45356">
        <ele>117.10374941677</ele>
        <time>2021-09-13T07:41:13Z</time>
      </trkpt>
      <trkpt lat="46.46067" lon="0.45357">
        <ele>117.13233243022</ele>
        <time>2021-09-13T07:41:15Z</time>
      </trkpt>
      <trkpt lat="46.46069" lon="0.45358">
        <ele>117.42880078871</ele>
        <time>2021-09-13T07:41:17Z</time>
      </trkpt>
      <trkpt lat="46.46071" lon="0.45359">
        <ele>117.10960765649</ele>
        <time>2021-09-13T07:41:19Z</time>
      </trkpt>
      <trkpt lat="46.46074" lon="0.4536">
        <ele>116.13302483875</ele>
        <time>2021-09-13T07:41:21Z</time>
      </trkpt>
      <trkpt lat="46.46076" lon="0.45362">
        <ele>117.71869507991</ele>
        <time>2021-09-13T07:41:23Z</time>
      </trkpt>
      <trkpt lat="46.46079" lon="0.45364">
        <ele>116.78128733113</ele>
        <time>2021-09-13T07:41:26Z</time>
      </trkpt>
      <trkpt lat="46.46081" lon="0.45365">
        <ele>116.65649918187</ele>
        <time>2021-09-13T07:41:28Z</time>
      </trkpt>
      <trkpt lat="46.46083" lon="0.45366">
        <ele>116.98818656243</ele>
        <time>2021-09-13T07:41:29Z</time>
      </trkpt>
      <trkpt lat="46.46085" lon="0.45367">
        <ele>116.41894134413</ele>
        <time>2021-09-13T07:41:32Z</time>
      </trkpt>
      <trkpt lat="46.46087" lon="0.45368">
        <ele>115.58836652711</ele>
        <time>2021-09-13T07:41:34Z</time>
      </trkpt>
      <trkpt lat="46.4609" lon="0.4537">
        <ele>117.7660700744</ele>
        <time>2021-09-13T07:41:36Z</time>
      </trkpt>
      <trkpt lat="46.46092" lon="0.45371">
        <ele>116.81668656506</ele>
        <time>2021-09-13T07:41:38Z</time>
      </trkpt>
      <trkpt lat="46.46094" lon="0.45372">
        <ele>116.68439028971</ele>
        <time>2021-09-13T07:41:40Z</time>
      </trkpt>
      <trkpt lat="46.46096" lon="0.45373">
        <ele>116.38758245017</ele>
        <time>2021-09-13T07:41:42Z</time>
      </trkpt>
      <trkpt lat="46.46099" lon="0.45375">
        <ele>116.70888520218</ele>
        <time>2021-09-13T07:41:44Z</time>
      </trkpt>
      <trkpt lat="46.46101" lon="0.45377">
        <ele>116.54100442678</ele>
        <time>2021-09-13T07:41:46Z</time>
      </trkpt>
      <trkpt lat="46.46104" lon="0.45378">
        <ele>116.43352550548</ele>
        <time>2021-09-13T07:41:48Z</time>
      </trkpt>
      <trkpt lat="46.46106" lon="0.45378">
        <ele>117.69699392561</ele>
        <time>2021-09-13T07:41:50Z</time>
      </trkpt>
      <trkpt lat="46.46108" lon="0.4538">
        <ele>116.79528832529</ele>
        <time>2021-09-13T07:41:52Z</time>
      </trkpt>
      <trkpt lat="46.46111" lon="0.45381">
        <ele>116.45801626053</ele>
        <time>2021-09-13T07:41:54Z</time>
      </trkpt>
      <trkpt lat="46.46113" lon="0.45383">
        <ele>116.09853254724</ele>
        <time>2021-09-13T07:41:56Z</time>
      </trkpt>
      <trkpt lat="46.46115" lon="0.45384">
        <ele>116.69973498583</ele>
        <time>2021-09-13T07:41:58Z</time>
      </trkpt>
      <trkpt lat="46.46118" lon="0.45386">
        <ele>117.03324227128</ele>
        <time>2021-09-13T07:42:00Z</time>
      </trkpt>
      <trkpt lat="46.4612" lon="0.45387">
        <ele>116.14052265324</ele>
        <time>2021-09-13T07:42:02Z</time>
      </trkpt>
      <trkpt lat="46.46122" lon="0.45389">
        <ele>117.16003963538</ele>
        <time>2021-09-13T07:42:04Z</time>
      </trkpt>
      <trkpt lat="46.46125" lon="0.4539">
        <ele>116.40618334059</ele>
        <time>2021-09-13T07:42:06Z</time>
      </trkpt>
      <trkpt lat="46.46127" lon="0.45391">
        <ele>116.16917692218</ele>
        <time>2021-09-13T07:42:08Z</time>
      </trkpt>
      <trkpt lat="46.46129" lon="0.45393">
        <ele>116.92449033167</ele>
        <time>2021-09-13T07:42:11Z</time>
      </trkpt>
      <trkpt lat="46.46131" lon="0.45395">
        <ele>116.3726440398</ele>
        <time>2021-09-13T07:42:13Z</time>
      </trkpt>
      <trkpt lat="46.46133" lon="0.45396">
        <ele>116.68141073268</ele>
        <time>2021-09-13T07:42:15Z</time>
      </trkpt>
      <trkpt lat="46.46135" lon="0.45398">
        <ele>116.5022611348</ele>
        <time>2021-09-13T07:42:17Z</time>
      </trkpt>
      <trkpt lat="46.46137" lon="0.45399">
        <ele>116.27902524546</ele>
        <time>2021-09-13T07:42:19Z</time>
      </trkpt>
      <trkpt lat="46.46138" lon="0.45402">
        <ele>116.78009733465</ele>
        <time>2021-09-13T07:42:21Z</time>
      </trkpt>
      <trkpt lat="46.4614" lon="0.45403">
        <ele>115.93796473742</ele>
        <time>2021-09-13T07:42:23Z</time>
      </trkpt>
      <trkpt lat="46.46142" lon="0.45405">
        <ele>116.69628402218</ele>
        <time>2021-09-13T07:42:25Z</time>
      </trkpt>
      <trkpt lat="46.46144" lon="0.45406">
        <ele>117.34176416975</ele>
        <time>2021-09-13T07:42:27Z</time>
      </trkpt>
      <trkpt lat="46.46147" lon="0.45407">
        <ele>116.33415619843</ele>
        <time>2021-09-13T07:42:29Z</time>
      </trkpt>
      <trkpt lat="46.46148" lon="0.45409">
        <ele>116.22233250551</ele>
        <time>2021-09-13T07:42:31Z</time>
      </trkpt>
      <trkpt lat="46.46151" lon="0.45411">
        <ele>116.73390571773</ele>
        <time>2021-09-13T07:42:33Z</time>
      </trkpt>
      <trkpt lat="46.46152" lon="0.45413">
        <ele>116.13263047487</ele>
        <time>2021-09-13T07:42:35Z</time>
      </trkpt>
      <trkpt lat="46.46155" lon="0.45416">
        <ele>115.89588373806</ele>
        <time>2021-09-13T07:42:37Z</time>
      </trkpt>
      <trkpt lat="46.46157" lon="0.45418">
        <ele>116.36139526218</ele>
        <time>2021-09-13T07:42:39Z</time>
      </trkpt>
      <trkpt lat="46.46159" lon="0.45421">
        <ele>116.78255373053</ele>
        <time>2021-09-13T07:42:41Z</time>
      </trkpt>
      <trkpt lat="46.4616" lon="0.45423">
        <ele>115.90455322061</ele>
        <time>2021-09-13T07:42:43Z</time>
      </trkpt>
      <trkpt lat="46.46162" lon="0.45425">
        <ele>115.99476881884</ele>
        <time>2021-09-13T07:42:45Z</time>
      </trkpt>
      <trkpt lat="46.46164" lon="0.45428">
        <ele>116.33817622624</ele>
        <time>2021-09-13T07:42:47Z</time>
      </trkpt>
      <trkpt lat="46.46166" lon="0.4543">
        <ele>115.7884442322</ele>
        <time>2021-09-13T07:42:49Z</time>
      </trkpt>
      <trkpt lat="46.46168" lon="0.45431">
        <ele>115.93620980345</ele>
        <time>2021-09-13T07:42:51Z</time>
      </trkpt>
      <trkpt lat="46.46169" lon="0.45434">
        <ele>115.58593783714</ele>
        <time>2021-09-13T07:42:53Z</time>
      </trkpt>
      <trkpt lat="46.46171" lon="0.45436">
        <ele>116.56876423303</ele>
        <time>2021-09-13T07:42:55Z</time>
      </trkpt>
      <trkpt lat="46.46172" lon="0.45438">
        <ele>116.18402093463</ele>
        <time>2021-09-13T07:42:56Z</time>
      </trkpt>
      <trkpt lat="46.46174" lon="0.4544">
        <ele>115.90698685404</ele>
        <time>2021-09-13T07:42:58Z</time>
      </trkpt>
      <trkpt lat="46.46175" lon="0.45442">
        <ele>116.65171897411</ele>
        <time>2021-09-13T07:43:00Z</time>
      </trkpt>
      <trkpt lat="46.46177" lon="0.45444">
        <ele>116.10720068775</ele>
        <time>2021-09-13T07:43:02Z</time>
      </trkpt>
      <trkpt lat="46.46179" lon="0.45448">
        <ele>116.02712700609</ele>
        <time>2021-09-13T07:43:04Z</time>
      </trkpt>
      <trkpt lat="46.46181" lon="0.4545">
        <ele>114.80621533096</ele>
        <time>2021-09-13T07:43:06Z</time>
      </trkpt>
      <trkpt lat="46.46183" lon="0.45452">
        <ele>117.09711126424</ele>
        <time>2021-09-13T07:43:08Z</time>
      </trkpt>
      <trkpt lat="46.46185" lon="0.45455">
        <ele>116.1592398528</ele>
        <time>2021-09-13T07:43:10Z</time>
      </trkpt>
      <trkpt lat="46.46186" lon="0.45458">
        <ele>116.23358290363</ele>
        <time>2021-09-13T07:43:12Z</time>
      </trkpt>
      <trkpt lat="46.46187" lon="0.45461">
        <ele>115.87519272231</ele>
        <time>2021-09-13T07:43:14Z</time>
      </trkpt>
      <trkpt lat="46.46189" lon="0.45462">
        <ele>116.44293786585</ele>
        <time>2021-09-13T07:43:16Z</time>
      </trkpt>
      <trkpt lat="46.46192" lon="0.45465">
        <ele>115.34321464039</ele>
        <time>2021-09-13T07:43:18Z</time>
      </trkpt>
      <trkpt lat="46.46194" lon="0.45467">
        <ele>115.66499800235</ele>
        <time>2021-09-13T07:43:20Z</time>
      </trkpt>
      <trkpt lat="46.46198" lon="0.4547">
        <ele>116.49057001155</ele>
        <time>2021-09-13T07:43:23Z</time>
      </trkpt>
      <trkpt lat="46.462" lon="0.45472">
        <ele>115.26498333365</ele>
        <time>2021-09-13T07:43:25Z</time>
      </trkpt>
      <trkpt lat="46.46201" lon="0.45474">
        <ele>115.16816292237</ele>
        <time>2021-09-13T07:43:27Z</time>
      </trkpt>
      <trkpt lat="46.46203" lon="0.45478">
        <ele>115.67712764721</ele>
        <time>2021-09-13T07:43:29Z</time>
      </trkpt>
      <trkpt lat="46.46205" lon="0.4548">
        <ele>115.5702664908</ele>
        <time>2021-09-13T07:43:31Z</time>
      </trkpt>
      <trkpt lat="46.46207" lon="0.45481">
        <ele>115.22258717846</ele>
        <time>2021-09-13T07:43:32Z</time>
      </trkpt>
      <trkpt lat="46.46208" lon="0.45484">
        <ele>115.66343556624</ele>
        <time>2021-09-13T07:43:34Z</time>
      </trkpt>
      <trkpt lat="46.46209" lon="0.45486">
        <ele>115.10831281822</ele>
        <time>2021-09-13T07:43:36Z</time>
      </trkpt>
      <trkpt lat="46.4621" lon="0.45488">
        <ele>116.83767269086</ele>
        <time>2021-09-13T07:43:37Z</time>
      </trkpt>
      <trkpt lat="46.46212" lon="0.4549">
        <ele>116.20669861976</ele>
        <time>2021-09-13T07:43:39Z</time>
      </trkpt>
      <trkpt lat="46.46213" lon="0.45492">
        <ele>116.0517058745</ele>
        <time>2021-09-13T07:43:41Z</time>
      </trkpt>
      <trkpt lat="46.46215" lon="0.45495">
        <ele>116.38733600918</ele>
        <time>2021-09-13T07:43:43Z</time>
      </trkpt>
      <trkpt lat="46.46217" lon="0.45496">
        <ele>115.97601501178</ele>
        <time>2021-09-13T07:43:45Z</time>
      </trkpt>
      <trkpt lat="46.46219" lon="0.45498">
        <ele>116.2331639342</ele>
        <time>2021-09-13T07:43:47Z</time>
      </trkpt>
      <trkpt lat="46.46222" lon="0.455">
        <ele>116.01796025224</ele>
        <time>2021-09-13T07:43:49Z</time>
      </trkpt>
      <trkpt lat="46.46224" lon="0.45503">
        <ele>117.30495284498</ele>
        <time>2021-09-13T07:43:51Z</time>
      </trkpt>
      <trkpt lat="46.46226" lon="0.45504">
        <ele>116.55278989486</ele>
        <time>2021-09-13T07:43:53Z</time>
      </trkpt>
      <trkpt lat="46.46229" lon="0.45504">
        <ele>116.52660240233</ele>
        <time>2021-09-13T07:43:56Z</time>
      </trkpt>
      <trkpt lat="46.46231" lon="0.45504">
        <ele>116.10181500949</ele>
        <time>2021-09-13T07:43:58Z</time>
      </trkpt>
      <trkpt lat="46.46233" lon="0.45505">
        <ele>116.75809165277</ele>
        <time>2021-09-13T07:44:00Z</time>
      </trkpt>
      <trkpt lat="46.46235" lon="0.45505">
        <ele>116.24266242422</ele>
        <time>2021-09-13T07:44:01Z</time>
      </trkpt>
      <trkpt lat="46.46238" lon="0.45507">
        <ele>116.36031020898</ele>
        <time>2021-09-13T07:44:03Z</time>
      </trkpt>
      <trkpt lat="46.46241" lon="0.45506">
        <ele>115.568816524</ele>
        <time>2021-09-13T07:44:06Z</time>
      </trkpt>
      <trkpt lat="46.46243" lon="0.45507">
        <ele>117.0880736988</ele>
        <time>2021-09-13T07:44:09Z</time>
      </trkpt>
      <trkpt lat="46.46247" lon="0.45506">
        <ele>116.78774794843</ele>
        <time>2021-09-13T07:44:11Z</time>
      </trkpt>
      <trkpt lat="46.46249" lon="0.45506">
        <ele>116.66376001574</ele>
        <time>2021-09-13T07:44:13Z</time>
      </trkpt>
      <trkpt lat="46.46251" lon="0.45506">
        <ele>116.88702961151</ele>
        <time>2021-09-13T07:44:15Z</time>
      </trkpt>
      <trkpt lat="46.46254" lon="0.45506">
        <ele>116.29124628659</ele>
        <time>2021-09-13T07:44:17Z</time>
      </trkpt>
      <trkpt lat="46.46257" lon="0.45507">
        <ele>117.00821004063</ele>
        <time>2021-09-13T07:44:19Z</time>
      </trkpt>
      <trkpt lat="46.46259" lon="0.45505">
        <ele>116.23934511561</ele>
        <time>2021-09-13T07:44:21Z</time>
      </trkpt>
      <trkpt lat="46.46262" lon="0.45505">
        <ele>116.23903543688</ele>
        <time>2021-09-13T07:44:23Z</time>
      </trkpt>
      <trkpt lat="46.46264" lon="0.45505">
        <ele>117.2696683649</ele>
        <time>2021-09-13T07:44:24Z</time>
      </trkpt>
      <trkpt lat="46.46266" lon="0.45505">
        <ele>117.05758607946</ele>
        <time>2021-09-13T07:44:26Z</time>
      </trkpt>
      <trkpt lat="46.46268" lon="0.45504">
        <ele>116.24568284303</ele>
        <time>2021-09-13T07:44:28Z</time>
      </trkpt>
      <trkpt lat="46.4627" lon="0.45502">
        <ele>116.67976280022</ele>
        <time>2021-09-13T07:44:30Z</time>
      </trkpt>
      <trkpt lat="46.46272" lon="0.45502">
        <ele>117.30615966208</ele>
        <time>2021-09-13T07:44:32Z</time>
      </trkpt>
      <trkpt lat="46.46275" lon="0.45501">
        <ele>116.32763300929</ele>
        <time>2021-09-13T07:44:34Z</time>
      </trkpt>
      <trkpt lat="46.46278" lon="0.45501">
        <ele>116.31616849545</ele>
        <time>2021-09-13T07:44:36Z</time>
      </trkpt>
      <trkpt lat="46.46281" lon="0.455">
        <ele>115.8217513049</ele>
        <time>2021-09-13T07:44:38Z</time>
      </trkpt>
      <trkpt lat="46.46283" lon="0.45501">
        <ele>117.16086385306</ele>
        <time>2021-09-13T07:44:40Z</time>
      </trkpt>
      <trkpt lat="46.46286" lon="0.455">
        <ele>117.48680813052</ele>
        <time>2021-09-13T07:44:42Z</time>
      </trkpt>
      <trkpt lat="46.46289" lon="0.45499">
        <ele>116.41717843805</ele>
        <time>2021-09-13T07:44:44Z</time>
      </trkpt>
      <trkpt lat="46.46291" lon="0.45499">
        <ele>116.42972835898</ele>
        <time>2021-09-13T07:44:46Z</time>
      </trkpt>
      <trkpt lat="46.46294" lon="0.45498">
        <ele>117.04396117106</ele>
        <time>2021-09-13T07:44:48Z</time>
      </trkpt>
      <trkpt lat="46.46297" lon="0.45497">
        <ele>116.42296755034</ele>
        <time>2021-09-13T07:44:50Z</time>
      </trkpt>
      <trkpt lat="46.46299" lon="0.45497">
        <ele>116.70768116694</ele>
        <time>2021-09-13T07:44:52Z</time>
      </trkpt>
      <trkpt lat="46.46301" lon="0.45496">
        <ele>116.35496424325</ele>
        <time>2021-09-13T07:44:54Z</time>
      </trkpt>
      <trkpt lat="46.46305" lon="0.45496">
        <ele>116.79717544746</ele>
        <time>2021-09-13T07:44:56Z</time>
      </trkpt>
      <trkpt lat="46.46307" lon="0.45496">
        <ele>117.51686733495</ele>
        <time>2021-09-13T07:44:58Z</time>
      </trkpt>
      <trkpt lat="46.46309" lon="0.45495">
        <ele>116.70142135117</ele>
        <time>2021-09-13T07:45:00Z</time>
      </trkpt>
      <trkpt lat="46.46313" lon="0.45496">
        <ele>116.85967373382</ele>
        <time>2021-09-13T07:45:03Z</time>
      </trkpt>
      <trkpt lat="46.46316" lon="0.45495">
        <ele>116.42514347192</ele>
        <time>2021-09-13T07:45:05Z</time>
      </trkpt>
      <trkpt lat="46.46319" lon="0.45494">
        <ele>116.9782646168</ele>
        <time>2021-09-13T07:45:07Z</time>
      </trkpt>
      <trkpt lat="46.4632" lon="0.45494">
        <ele>116.88136673346</ele>
        <time>2021-09-13T07:45:09Z</time>
      </trkpt>
      <trkpt lat="46.46323" lon="0.45493">
        <ele>116.25861825421</ele>
        <time>2021-09-13T07:45:11Z</time>
      </trkpt>
      <trkpt lat="46.46325" lon="0.45493">
        <ele>115.34291839972</ele>
        <time>2021-09-13T07:45:13Z</time>
      </trkpt>
      <trkpt lat="46.46328" lon="0.45493">
        <ele>117.67370773759</ele>
        <time>2021-09-13T07:45:16Z</time>
      </trkpt>
      <trkpt lat="46.46331" lon="0.45493">
        <ele>116.43750907946</ele>
        <time>2021-09-13T07:45:18Z</time>
      </trkpt>
      <trkpt lat="46.46333" lon="0.45492">
        <ele>116.64594914205</ele>
        <time>2021-09-13T07:45:19Z</time>
      </trkpt>
      <trkpt lat="46.46335" lon="0.45493">
        <ele>116.35209201835</ele>
        <time>2021-09-13T07:45:20Z</time>
      </trkpt>
      <trkpt lat="46.46337" lon="0.45493">
        <ele>116.17759402283</ele>
        <time>2021-09-13T07:45:22Z</time>
      </trkpt>
      <trkpt lat="46.4634" lon="0.45492">
        <ele>116.76837119274</ele>
        <time>2021-09-13T07:45:24Z</time>
      </trkpt>
      <trkpt lat="46.46342" lon="0.45492">
        <ele>116.70899579488</ele>
        <time>2021-09-13T07:45:26Z</time>
      </trkpt>
      <trkpt lat="46.46345" lon="0.45492">
        <ele>116.36948373169</ele>
        <time>2021-09-13T07:45:28Z</time>
      </trkpt>
      <trkpt lat="46.46347" lon="0.45492">
        <ele>117.19886364136</ele>
        <time>2021-09-13T07:45:30Z</time>
      </trkpt>
      <trkpt lat="46.4635" lon="0.45492">
        <ele>116.55208065081</ele>
        <time>2021-09-13T07:45:32Z</time>
      </trkpt>
      <trkpt lat="46.46352" lon="0.45493">
        <ele>116.54710044153</ele>
        <time>2021-09-13T07:45:34Z</time>
      </trkpt>
      <trkpt lat="46.46355" lon="0.45493">
        <ele>116.65678775217</ele>
        <time>2021-09-13T07:45:36Z</time>
      </trkpt>
      <trkpt lat="46.46357" lon="0.45493">
        <ele>116.84263858385</ele>
        <time>2021-09-13T07:45:38Z</time>
      </trkpt>
      <trkpt lat="46.46359" lon="0.45493">
        <ele>116.5409595063</ele>
        <time>2021-09-13T07:45:40Z</time>
      </trkpt>
      <trkpt lat="46.46361" lon="0.45494">
        <ele>116.98579777591</ele>
        <time>2021-09-13T07:45:41Z</time>
      </trkpt>
      <trkpt lat="46.46363" lon="0.45495">
        <ele>116.06182935834</ele>
        <time>2021-09-13T07:45:43Z</time>
      </trkpt>
      <trkpt lat="46.46365" lon="0.45497">
        <ele>117.26275455393</ele>
        <time>2021-09-13T07:45:45Z</time>
      </trkpt>
      <trkpt lat="46.46367" lon="0.45498">
        <ele>116.6863896735</ele>
        <time>2021-09-13T07:45:47Z</time>
      </trkpt>
      <trkpt lat="46.46369" lon="0.455">
        <ele>116.54511718545</ele>
        <time>2021-09-13T07:45:49Z</time>
      </trkpt>
      <trkpt lat="46.46372" lon="0.45503">
        <ele>117.04520515259</ele>
        <time>2021-09-13T07:45:51Z</time>
      </trkpt>
      <trkpt lat="46.46372" lon="0.45506">
        <ele>116.89484448358</ele>
        <time>2021-09-13T07:45:53Z</time>
      </trkpt>
      <trkpt lat="46.46373" lon="0.4551">
        <ele>116.63452633657</ele>
        <time>2021-09-13T07:45:56Z</time>
      </trkpt>
      <trkpt lat="46.46374" lon="0.45513">
        <ele>117.42757932562</ele>
        <time>2021-09-13T07:45:58Z</time>
      </trkpt>
      <trkpt lat="46.46374" lon="0.45517">
        <ele>116.89220374264</ele>
        <time>2021-09-13T07:46:00Z</time>
      </trkpt>
      <trkpt lat="46.46374" lon="0.4552">
        <ele>116.86338833626</ele>
        <time>2021-09-13T07:46:02Z</time>
      </trkpt>
      <trkpt lat="46.46375" lon="0.45523">
        <ele>117.68549417052</ele>
        <time>2021-09-13T07:46:04Z</time>
      </trkpt>
      <trkpt lat="46.46376" lon="0.45526">
        <ele>117.61650728527</ele>
        <time>2021-09-13T07:46:06Z</time>
      </trkpt>
      <trkpt lat="46.46376" lon="0.4553">
        <ele>117.40712026507</ele>
        <time>2021-09-13T07:46:09Z</time>
      </trkpt>
      <trkpt lat="46.46376" lon="0.45533">
        <ele>117.92644406483</ele>
        <time>2021-09-13T07:46:11Z</time>
      </trkpt>
      <trkpt lat="46.46376" lon="0.45536">
        <ele>117.8207120439</ele>
        <time>2021-09-13T07:46:14Z</time>
      </trkpt>
      <trkpt lat="46.46377" lon="0.45541">
        <ele>118.64039380196</ele>
        <time>2021-09-13T07:46:16Z</time>
      </trkpt>
      <trkpt lat="46.46377" lon="0.45545">
        <ele>117.99686260708</ele>
        <time>2021-09-13T07:46:18Z</time>
      </trkpt>
      <trkpt lat="46.46378" lon="0.45549">
        <ele>118.04965252895</ele>
        <time>2021-09-13T07:46:21Z</time>
      </trkpt>
      <trkpt lat="46.46379" lon="0.45553">
        <ele>119.52223751694</ele>
        <time>2021-09-13T07:46:23Z</time>
      </trkpt>
      <trkpt lat="46.46379" lon="0.45557">
        <ele>118.15741380118</ele>
        <time>2021-09-13T07:46:25Z</time>
      </trkpt>
      <trkpt lat="46.4638" lon="0.45561">
        <ele>118.80151423905</ele>
        <time>2021-09-13T07:46:27Z</time>
      </trkpt>
      <trkpt lat="46.4638" lon="0.45565">
        <ele>118.24290316459</ele>
        <time>2021-09-13T07:46:29Z</time>
      </trkpt>
      <trkpt lat="46.46381" lon="0.4557">
        <ele>119.5798572395</ele>
        <time>2021-09-13T07:46:31Z</time>
      </trkpt>
      <trkpt lat="46.46382" lon="0.45573">
        <ele>119.27969601098</ele>
        <time>2021-09-13T07:46:34Z</time>
      </trkpt>
      <trkpt lat="46.46382" lon="0.45577">
        <ele>119.19272199366</ele>
        <time>2021-09-13T07:46:36Z</time>
      </trkpt>
      <trkpt lat="46.46383" lon="0.4558">
        <ele>118.48255292792</ele>
        <time>2021-09-13T07:46:38Z</time>
      </trkpt>
      <trkpt lat="46.46384" lon="0.45583">
        <ele>120.7766788872</ele>
        <time>2021-09-13T07:46:39Z</time>
      </trkpt>
      <trkpt lat="46.46384" lon="0.45587">
        <ele>119.80334763974</ele>
        <time>2021-09-13T07:46:41Z</time>
      </trkpt>
      <trkpt lat="46.46385" lon="0.45591">
        <ele>119.62485354859</ele>
        <time>2021-09-13T07:46:43Z</time>
      </trkpt>
      <trkpt lat="46.46385" lon="0.45594">
        <ele>120.16224654205</ele>
        <time>2021-09-13T07:46:45Z</time>
      </trkpt>
      <trkpt lat="46.46385" lon="0.45597">
        <ele>120.29962321464</ele>
        <time>2021-09-13T07:46:47Z</time>
      </trkpt>
      <trkpt lat="46.46385" lon="0.456">
        <ele>120.42218883801</ele>
        <time>2021-09-13T07:46:49Z</time>
      </trkpt>
      <trkpt lat="46.46386" lon="0.45603">
        <ele>119.44792545494</ele>
        <time>2021-09-13T07:46:51Z</time>
      </trkpt>
      <trkpt lat="46.46388" lon="0.45607">
        <ele>121.01464929432</ele>
        <time>2021-09-13T07:46:53Z</time>
      </trkpt>
      <trkpt lat="46.46388" lon="0.4561">
        <ele>121.03169957921</ele>
        <time>2021-09-13T07:46:55Z</time>
      </trkpt>
      <trkpt lat="46.46389" lon="0.45612">
        <ele>120.10552243516</ele>
        <time>2021-09-13T07:46:57Z</time>
      </trkpt>
      <trkpt lat="46.4639" lon="0.45616">
        <ele>121.13812055346</ele>
        <time>2021-09-13T07:46:59Z</time>
      </trkpt>
      <trkpt lat="46.46391" lon="0.45619">
        <ele>120.60477818921</ele>
        <time>2021-09-13T07:47:02Z</time>
      </trkpt>
      <trkpt lat="46.46391" lon="0.45622">
        <ele>119.68826941401</ele>
        <time>2021-09-13T07:47:04Z</time>
      </trkpt>
      <trkpt lat="46.46392" lon="0.45627">
        <ele>121.37392263114</ele>
        <time>2021-09-13T07:47:06Z</time>
      </trkpt>
      <trkpt lat="46.46392" lon="0.45629">
        <ele>120.66048981901</ele>
        <time>2021-09-13T07:47:08Z</time>
      </trkpt>
      <trkpt lat="46.46392" lon="0.45633">
        <ele>120.48514919262</ele>
        <time>2021-09-13T07:47:10Z</time>
      </trkpt>
      <trkpt lat="46.46393" lon="0.45637">
        <ele>120.9289966803</ele>
        <time>2021-09-13T07:47:12Z</time>
      </trkpt>
      <trkpt lat="46.46394" lon="0.4564">
        <ele>120.30864496622</ele>
        <time>2021-09-13T07:47:14Z</time>
      </trkpt>
      <trkpt lat="46.46394" lon="0.45643">
        <ele>120.37919218279</ele>
        <time>2021-09-13T07:47:16Z</time>
      </trkpt>
      <trkpt lat="46.46395" lon="0.45646">
        <ele>120.48910808656</ele>
        <time>2021-09-13T07:47:18Z</time>
      </trkpt>
      <trkpt lat="46.46397" lon="0.45649">
        <ele>121.33847606182</ele>
        <time>2021-09-13T07:47:20Z</time>
      </trkpt>
      <trkpt lat="46.46397" lon="0.45653">
        <ele>121.41367425676</ele>
        <time>2021-09-13T07:47:22Z</time>
      </trkpt>
      <trkpt lat="46.46397" lon="0.45656">
        <ele>120.1553291399</ele>
        <time>2021-09-13T07:47:24Z</time>
      </trkpt>
      <trkpt lat="46.46398" lon="0.4566">
        <ele>120.74215016142</ele>
        <time>2021-09-13T07:47:26Z</time>
      </trkpt>
      <trkpt lat="46.46399" lon="0.45664">
        <ele>121.48391219694</ele>
        <time>2021-09-13T07:47:28Z</time>
      </trkpt>
      <trkpt lat="46.46399" lon="0.45668">
        <ele>120.78404447343</ele>
        <time>2021-09-13T07:47:30Z</time>
      </trkpt>
      <trkpt lat="46.464" lon="0.45671">
        <ele>120.74016279355</ele>
        <time>2021-09-13T07:47:32Z</time>
      </trkpt>
      <trkpt lat="46.464" lon="0.45674">
        <ele>120.6802649973</ele>
        <time>2021-09-13T07:47:34Z</time>
      </trkpt>
      <trkpt lat="46.46402" lon="0.45678">
        <ele>121.89049209561</ele>
        <time>2021-09-13T07:47:36Z</time>
      </trkpt>
      <trkpt lat="46.46402" lon="0.45681">
        <ele>121.05036303028</ele>
        <time>2021-09-13T07:47:38Z</time>
      </trkpt>
      <trkpt lat="46.46403" lon="0.45685">
        <ele>121.50315519515</ele>
        <time>2021-09-13T07:47:40Z</time>
      </trkpt>
      <trkpt lat="46.46403" lon="0.45688">
        <ele>121.23920439836</ele>
        <time>2021-09-13T07:47:42Z</time>
      </trkpt>
      <trkpt lat="46.46404" lon="0.45691">
        <ele>121.46468709037</ele>
        <time>2021-09-13T07:47:44Z</time>
      </trkpt>
      <trkpt lat="46.46405" lon="0.45695">
        <ele>120.58616536297</ele>
        <time>2021-09-13T07:47:46Z</time>
      </trkpt>
      <trkpt lat="46.46406" lon="0.457">
        <ele>121.72165298928</ele>
        <time>2021-09-13T07:47:49Z</time>
      </trkpt>
      <trkpt lat="46.46408" lon="0.45703">
        <ele>121.15759181604</ele>
        <time>2021-09-13T07:47:51Z</time>
      </trkpt>
      <trkpt lat="46.46409" lon="0.45706">
        <ele>120.58758284524</ele>
        <time>2021-09-13T07:47:53Z</time>
      </trkpt>
      <trkpt lat="46.46409" lon="0.4571">
        <ele>121.10464656819</ele>
        <time>2021-09-13T07:47:55Z</time>
      </trkpt>
      <trkpt lat="46.4641" lon="0.45713">
        <ele>121.10410422552</ele>
        <time>2021-09-13T07:47:56Z</time>
      </trkpt>
      <trkpt lat="46.46409" lon="0.45716">
        <ele>120.59745727386</ele>
        <time>2021-09-13T07:47:58Z</time>
      </trkpt>
      <trkpt lat="46.46409" lon="0.45719">
        <ele>120.49386217538</ele>
        <time>2021-09-13T07:48:00Z</time>
      </trkpt>
      <trkpt lat="46.46411" lon="0.45723">
        <ele>121.62338314112</ele>
        <time>2021-09-13T07:48:02Z</time>
      </trkpt>
      <trkpt lat="46.46412" lon="0.45726">
        <ele>121.12974221446</ele>
        <time>2021-09-13T07:48:04Z</time>
      </trkpt>
      <trkpt lat="46.46412" lon="0.45729">
        <ele>121.20090137422</ele>
        <time>2021-09-13T07:48:06Z</time>
      </trkpt>
      <trkpt lat="46.46413" lon="0.45732">
        <ele>120.48925997503</ele>
        <time>2021-09-13T07:48:08Z</time>
      </trkpt>
      <trkpt lat="46.46413" lon="0.45736">
        <ele>120.72828999348</ele>
        <time>2021-09-13T07:48:10Z</time>
      </trkpt>
      <trkpt lat="46.46415" lon="0.45739">
        <ele>120.27381168492</ele>
        <time>2021-09-13T07:48:12Z</time>
      </trkpt>
      <trkpt lat="46.46415" lon="0.45742">
        <ele>121.56344671734</ele>
        <time>2021-09-13T07:48:13Z</time>
      </trkpt>
      <trkpt lat="46.46416" lon="0.45746">
        <ele>120.24111751467</ele>
        <time>2021-09-13T07:48:16Z</time>
      </trkpt>
      <trkpt lat="46.46417" lon="0.45748">
        <ele>120.40540344082</ele>
        <time>2021-09-13T07:48:18Z</time>
      </trkpt>
      <trkpt lat="46.46418" lon="0.45751">
        <ele>121.19163754024</ele>
        <time>2021-09-13T07:48:19Z</time>
      </trkpt>
      <trkpt lat="46.46419" lon="0.45755">
        <ele>120.89211302064</ele>
        <time>2021-09-13T07:48:22Z</time>
      </trkpt>
      <trkpt lat="46.4642" lon="0.45757">
        <ele>120.47758067027</ele>
        <time>2021-09-13T07:48:24Z</time>
      </trkpt>
      <trkpt lat="46.46421" lon="0.45761">
        <ele>122.08445182722</ele>
        <time>2021-09-13T07:48:26Z</time>
      </trkpt>
      <trkpt lat="46.46422" lon="0.45764">
        <ele>121.19184259232</ele>
        <time>2021-09-13T07:48:28Z</time>
      </trkpt>
      <trkpt lat="46.46423" lon="0.45766">
        <ele>120.89321309235</ele>
        <time>2021-09-13T07:48:30Z</time>
      </trkpt>
      <trkpt lat="46.46424" lon="0.45769">
        <ele>121.64865475427</ele>
        <time>2021-09-13T07:48:31Z</time>
      </trkpt>
      <trkpt lat="46.46425" lon="0.45772">
        <ele>121.27980411146</ele>
        <time>2021-09-13T07:48:33Z</time>
      </trkpt>
      <trkpt lat="46.46427" lon="0.45775">
        <ele>121.53735687863</ele>
        <time>2021-09-13T07:48:35Z</time>
      </trkpt>
      <trkpt lat="46.46428" lon="0.45779">
        <ele>122.3732775189</ele>
        <time>2021-09-13T07:48:37Z</time>
      </trkpt>
      <trkpt lat="46.4643" lon="0.45782">
        <ele>121.5192804737</ele>
        <time>2021-09-13T07:48:40Z</time>
      </trkpt>
      <trkpt lat="46.46431" lon="0.45784">
        <ele>121.90711408202</ele>
        <time>2021-09-13T07:48:42Z</time>
      </trkpt>
      <trkpt lat="46.46433" lon="0.45787">
        <ele>122.03026032727</ele>
        <time>2021-09-13T07:48:44Z</time>
      </trkpt>
      <trkpt lat="46.46434" lon="0.4579">
        <ele>121.8173144199</ele>
        <time>2021-09-13T07:48:46Z</time>
      </trkpt>
      <trkpt lat="46.46435" lon="0.45793">
        <ele>122.94324273616</ele>
        <time>2021-09-13T07:48:48Z</time>
      </trkpt>
      <trkpt lat="46.46437" lon="0.45797">
        <ele>122.00112012029</ele>
        <time>2021-09-13T07:48:50Z</time>
      </trkpt>
      <trkpt lat="46.46438" lon="0.45802">
        <ele>122.66618925333</ele>
        <time>2021-09-13T07:48:53Z</time>
      </trkpt>
      <trkpt lat="46.46439" lon="0.45804">
        <ele>122.87060959078</ele>
        <time>2021-09-13T07:48:54Z</time>
      </trkpt>
      <trkpt lat="46.4644" lon="0.45805">
        <ele>121.77957866807</ele>
        <time>2021-09-13T07:48:57Z</time>
      </trkpt>
      <trkpt lat="46.46442" lon="0.45808">
        <ele>122.23097550683</ele>
        <time>2021-09-13T07:48:59Z</time>
      </trkpt>
      <trkpt lat="46.46444" lon="0.45811">
        <ele>122.79603684787</ele>
        <time>2021-09-13T07:49:01Z</time>
      </trkpt>
      <trkpt lat="46.46445" lon="0.45814">
        <ele>123.09831441473</ele>
        <time>2021-09-13T07:49:03Z</time>
      </trkpt>
      <trkpt lat="46.46446" lon="0.45818">
        <ele>124.10758165456</ele>
        <time>2021-09-13T07:49:05Z</time>
      </trkpt>
      <trkpt lat="46.46448" lon="0.45821">
        <ele>123.83264764026</ele>
        <time>2021-09-13T07:49:07Z</time>
      </trkpt>
      <trkpt lat="46.46449" lon="0.45825">
        <ele>124.44969174638</ele>
        <time>2021-09-13T07:49:09Z</time>
      </trkpt>
      <trkpt lat="46.4645" lon="0.45826">
        <ele>123.82734759804</ele>
        <time>2021-09-13T07:49:11Z</time>
      </trkpt>
      <trkpt lat="46.46452" lon="0.45831">
        <ele>123.90399579704</ele>
        <time>2021-09-13T07:49:13Z</time>
      </trkpt>
      <trkpt lat="46.46453" lon="0.45833">
        <ele>124.53096158803</ele>
        <time>2021-09-13T07:49:15Z</time>
      </trkpt>
      <trkpt lat="46.46455" lon="0.45835">
        <ele>124.31557159405</ele>
        <time>2021-09-13T07:49:17Z</time>
      </trkpt>
      <trkpt lat="46.46457" lon="0.45838">
        <ele>125.69886995573</ele>
        <time>2021-09-13T07:49:19Z</time>
      </trkpt>
      <trkpt lat="46.46458" lon="0.45841">
        <ele>125.89639088605</ele>
        <time>2021-09-13T07:49:20Z</time>
      </trkpt>
      <trkpt lat="46.46459" lon="0.45843">
        <ele>125.0396092264</ele>
        <time>2021-09-13T07:49:23Z</time>
      </trkpt>
      <trkpt lat="46.46461" lon="0.45846">
        <ele>125.15407871548</ele>
        <time>2021-09-13T07:49:25Z</time>
      </trkpt>
      <trkpt lat="46.46462" lon="0.45849">
        <ele>125.70001761429</ele>
        <time>2021-09-13T07:49:27Z</time>
      </trkpt>
      <trkpt lat="46.46464" lon="0.45852">
        <ele>125.317665454</ele>
        <time>2021-09-13T07:49:29Z</time>
      </trkpt>
      <trkpt lat="46.46465" lon="0.45855">
        <ele>125.08339586947</ele>
        <time>2021-09-13T07:49:31Z</time>
      </trkpt>
      <trkpt lat="46.46466" lon="0.45858">
        <ele>126.24780431204</ele>
        <time>2021-09-13T07:49:33Z</time>
      </trkpt>
      <trkpt lat="46.46468" lon="0.4586">
        <ele>125.33298087772</ele>
        <time>2021-09-13T07:49:35Z</time>
      </trkpt>
      <trkpt lat="46.46469" lon="0.45862">
        <ele>125.61385136005</ele>
        <time>2021-09-13T07:49:37Z</time>
      </trkpt>
      <trkpt lat="46.4647" lon="0.45865">
        <ele>125.99152435269</ele>
        <time>2021-09-13T07:49:39Z</time>
      </trkpt>
      <trkpt lat="46.46472" lon="0.45867">
        <ele>125.31855427939</ele>
        <time>2021-09-13T07:49:41Z</time>
      </trkpt>
      <trkpt lat="46.46474" lon="0.45871">
        <ele>125.78823826276</ele>
        <time>2021-09-13T07:49:43Z</time>
      </trkpt>
      <trkpt lat="46.46475" lon="0.45875">
        <ele>126.35451518744</ele>
        <time>2021-09-13T07:49:45Z</time>
      </trkpt>
      <trkpt lat="46.46477" lon="0.45878">
        <ele>125.56031563412</ele>
        <time>2021-09-13T07:49:48Z</time>
      </trkpt>
      <trkpt lat="46.46478" lon="0.4588">
        <ele>125.9603858795</ele>
        <time>2021-09-13T07:49:50Z</time>
      </trkpt>
      <trkpt lat="46.46479" lon="0.45882">
        <ele>126.19891041331</ele>
        <time>2021-09-13T07:49:51Z</time>
      </trkpt>
      <trkpt lat="46.46481" lon="0.45886">
        <ele>126.04410499148</ele>
        <time>2021-09-13T07:49:53Z</time>
      </trkpt>
      <trkpt lat="46.46483" lon="0.45889">
        <ele>125.7713536229</ele>
        <time>2021-09-13T07:49:56Z</time>
      </trkpt>
      <trkpt lat="46.46484" lon="0.45892">
        <ele>126.86351716518</ele>
        <time>2021-09-13T07:49:58Z</time>
      </trkpt>
      <trkpt lat="46.46485" lon="0.45894">
        <ele>125.7706354754</ele>
        <time>2021-09-13T07:50:00Z</time>
      </trkpt>
      <trkpt lat="46.46487" lon="0.45896">
        <ele>125.63434877526</ele>
        <time>2021-09-13T07:50:01Z</time>
      </trkpt>
      <trkpt lat="46.46489" lon="0.45899">
        <ele>125.92460744735</ele>
        <time>2021-09-13T07:50:04Z</time>
      </trkpt>
      <trkpt lat="46.46491" lon="0.45902">
        <ele>125.58778215665</ele>
        <time>2021-09-13T07:50:06Z</time>
      </trkpt>
      <trkpt lat="46.46492" lon="0.45905">
        <ele>127.33906749263</ele>
        <time>2021-09-13T07:50:08Z</time>
      </trkpt>
      <trkpt lat="46.46494" lon="0.45907">
        <ele>126.62950546946</ele>
        <time>2021-09-13T07:50:10Z</time>
      </trkpt>
      <trkpt lat="46.46496" lon="0.4591">
        <ele>126.70398669131</ele>
        <time>2021-09-13T07:50:12Z</time>
      </trkpt>
      <trkpt lat="46.46498" lon="0.45911">
        <ele>126.25089639053</ele>
        <time>2021-09-13T07:50:14Z</time>
      </trkpt>
      <trkpt lat="46.465" lon="0.45914">
        <ele>126.43016592972</ele>
        <time>2021-09-13T07:50:16Z</time>
      </trkpt>
      <trkpt lat="46.46502" lon="0.45916">
        <ele>126.89728238899</ele>
        <time>2021-09-13T07:50:18Z</time>
      </trkpt>
      <trkpt lat="46.46504" lon="0.45917">
        <ele>126.60049792752</ele>
        <time>2021-09-13T07:50:20Z</time>
      </trkpt>
      <trkpt lat="46.46506" lon="0.4592">
        <ele>126.61308392044</ele>
        <time>2021-09-13T07:50:22Z</time>
      </trkpt>
      <trkpt lat="46.46508" lon="0.45923">
        <ele>127.43610535469</ele>
        <time>2021-09-13T07:50:24Z</time>
      </trkpt>
      <trkpt lat="46.4651" lon="0.45925">
        <ele>126.97044097167</ele>
        <time>2021-09-13T07:50:26Z</time>
      </trkpt>
      <trkpt lat="46.46512" lon="0.45929">
        <ele>126.79247533064</ele>
        <time>2021-09-13T07:50:28Z</time>
      </trkpt>
      <trkpt lat="46.46513" lon="0.45932">
        <ele>128.13878757507</ele>
        <time>2021-09-13T07:50:30Z</time>
      </trkpt>
      <trkpt lat="46.46516" lon="0.45934">
        <ele>127.29486892186</ele>
        <time>2021-09-13T07:50:33Z</time>
      </trkpt>
      <trkpt lat="46.46518" lon="0.45936">
        <ele>127.48276425805</ele>
        <time>2021-09-13T07:50:35Z</time>
      </trkpt>
      <trkpt lat="46.4652" lon="0.45938">
        <ele>128.25291965809</ele>
        <time>2021-09-13T07:50:37Z</time>
      </trkpt>
      <trkpt lat="46.46522" lon="0.4594">
        <ele>127.73236200493</ele>
        <time>2021-09-13T07:50:39Z</time>
      </trkpt>
      <trkpt lat="46.46524" lon="0.45941">
        <ele>127.24517222494</ele>
        <time>2021-09-13T07:50:41Z</time>
      </trkpt>
      <trkpt lat="46.46526" lon="0.45943">
        <ele>128.07919316459</ele>
        <time>2021-09-13T07:50:43Z</time>
      </trkpt>
      <trkpt lat="46.46528" lon="0.45945">
        <ele>127.35297350958</ele>
        <time>2021-09-13T07:50:45Z</time>
      </trkpt>
      <trkpt lat="46.4653" lon="0.45946">
        <ele>127.72467524</ele>
        <time>2021-09-13T07:50:47Z</time>
      </trkpt>
      <trkpt lat="46.46532" lon="0.45948">
        <ele>128.19520345144</ele>
        <time>2021-09-13T07:50:49Z</time>
      </trkpt>
      <trkpt lat="46.46535" lon="0.4595">
        <ele>127.5918373391</ele>
        <time>2021-09-13T07:50:51Z</time>
      </trkpt>
      <trkpt lat="46.46536" lon="0.45953">
        <ele>128.14297991805</ele>
        <time>2021-09-13T07:50:53Z</time>
      </trkpt>
      <trkpt lat="46.46538" lon="0.45955">
        <ele>127.76428298559</ele>
        <time>2021-09-13T07:50:55Z</time>
      </trkpt>
      <trkpt lat="46.4654" lon="0.45957">
        <ele>127.73151482269</ele>
        <time>2021-09-13T07:50:57Z</time>
      </trkpt>
      <trkpt lat="46.46542" lon="0.45959">
        <ele>128.45492822304</ele>
        <time>2021-09-13T07:50:59Z</time>
      </trkpt>
      <trkpt lat="46.46545" lon="0.45961">
        <ele>128.16963401996</ele>
        <time>2021-09-13T07:51:01Z</time>
      </trkpt>
      <trkpt lat="46.46546" lon="0.45962">
        <ele>127.48708004598</ele>
        <time>2021-09-13T07:51:03Z</time>
      </trkpt>
      <trkpt lat="46.46549" lon="0.45964">
        <ele>128.48424681276</ele>
        <time>2021-09-13T07:51:05Z</time>
      </trkpt>
      <trkpt lat="46.46551" lon="0.45964">
        <ele>128.34853730071</ele>
        <time>2021-09-13T07:51:07Z</time>
      </trkpt>
      <trkpt lat="46.46553" lon="0.45966">
        <ele>128.51630521193</ele>
        <time>2021-09-13T07:51:09Z</time>
      </trkpt>
      <trkpt lat="46.46555" lon="0.45968">
        <ele>128.40336458571</ele>
        <time>2021-09-13T07:51:12Z</time>
      </trkpt>
      <trkpt lat="46.46558" lon="0.45969">
        <ele>128.02981715929</ele>
        <time>2021-09-13T07:51:14Z</time>
      </trkpt>
      <trkpt lat="46.4656" lon="0.45972">
        <ele>129.36299376935</ele>
        <time>2021-09-13T07:51:16Z</time>
      </trkpt>
      <trkpt lat="46.46562" lon="0.45974">
        <ele>127.98106901906</ele>
        <time>2021-09-13T07:51:18Z</time>
      </trkpt>
      <trkpt lat="46.46564" lon="0.45977">
        <ele>128.21208935417</ele>
        <time>2021-09-13T07:51:20Z</time>
      </trkpt>
      <trkpt lat="46.46566" lon="0.4598">
        <ele>128.93824212532</ele>
        <time>2021-09-13T07:51:22Z</time>
      </trkpt>
      <trkpt lat="46.46567" lon="0.45982">
        <ele>128.69609292038</ele>
        <time>2021-09-13T07:51:24Z</time>
      </trkpt>
      <trkpt lat="46.46568" lon="0.45985">
        <ele>129.59522474743</ele>
        <time>2021-09-13T07:51:26Z</time>
      </trkpt>
      <trkpt lat="46.4657" lon="0.45986">
        <ele>128.65557686333</ele>
        <time>2021-09-13T07:51:28Z</time>
      </trkpt>
      <trkpt lat="46.46572" lon="0.45987">
        <ele>128.30611225404</ele>
        <time>2021-09-13T07:51:30Z</time>
      </trkpt>
      <trkpt lat="46.46573" lon="0.45989">
        <ele>128.66014225967</ele>
        <time>2021-09-13T07:51:31Z</time>
      </trkpt>
      <trkpt lat="46.46575" lon="0.45991">
        <ele>128.79835696612</ele>
        <time>2021-09-13T07:51:33Z</time>
      </trkpt>
      <trkpt lat="46.46577" lon="0.45993">
        <ele>128.71883203276</ele>
        <time>2021-09-13T07:51:35Z</time>
      </trkpt>
      <trkpt lat="46.46579" lon="0.45996">
        <ele>129.18425757252</ele>
        <time>2021-09-13T07:51:37Z</time>
      </trkpt>
      <trkpt lat="46.4658" lon="0.45998">
        <ele>129.50631725881</ele>
        <time>2021-09-13T07:51:39Z</time>
      </trkpt>
      <trkpt lat="46.46582" lon="0.46">
        <ele>128.2066235207</ele>
        <time>2021-09-13T07:51:41Z</time>
      </trkpt>
      <trkpt lat="46.46584" lon="0.46004">
        <ele>128.31869482808</ele>
        <time>2021-09-13T07:51:43Z</time>
      </trkpt>
      <trkpt lat="46.46585" lon="0.46007">
        <ele>129.00292817317</ele>
        <time>2021-09-13T07:51:45Z</time>
      </trkpt>
      <trkpt lat="46.46587" lon="0.46009">
        <ele>128.58725193515</ele>
        <time>2021-09-13T07:51:47Z</time>
      </trkpt>
      <trkpt lat="46.46589" lon="0.46012">
        <ele>129.81911618263</ele>
        <time>2021-09-13T07:51:49Z</time>
      </trkpt>
      <trkpt lat="46.46591" lon="0.46014">
        <ele>128.48011211865</ele>
        <time>2021-09-13T07:51:51Z</time>
      </trkpt>
      <trkpt lat="46.46592" lon="0.46017">
        <ele>128.16456586681</ele>
        <time>2021-09-13T07:51:53Z</time>
      </trkpt>
      <trkpt lat="46.46594" lon="0.46021">
        <ele>129.32901640423</ele>
        <time>2021-09-13T07:51:55Z</time>
      </trkpt>
      <trkpt lat="46.46595" lon="0.46023">
        <ele>128.78525682259</ele>
        <time>2021-09-13T07:51:57Z</time>
      </trkpt>
      <trkpt lat="46.46597" lon="0.46025">
        <ele>128.59615114238</ele>
        <time>2021-09-13T07:51:59Z</time>
      </trkpt>
      <trkpt lat="46.46598" lon="0.46028">
        <ele>129.3656847924</ele>
        <time>2021-09-13T07:52:01Z</time>
      </trkpt>
      <trkpt lat="46.466" lon="0.46031">
        <ele>128.39958717208</ele>
        <time>2021-09-13T07:52:03Z</time>
      </trkpt>
      <trkpt lat="46.46602" lon="0.46033">
        <ele>128.75928798318</ele>
        <time>2021-09-13T07:52:05Z</time>
      </trkpt>
      <trkpt lat="46.46603" lon="0.46036">
        <ele>129.07381787337</ele>
        <time>2021-09-13T07:52:07Z</time>
      </trkpt>
      <trkpt lat="46.46605" lon="0.4604">
        <ele>128.61814143881</ele>
        <time>2021-09-13T07:52:09Z</time>
      </trkpt>
      <trkpt lat="46.46605" lon="0.46042">
        <ele>128.99197762366</ele>
        <time>2021-09-13T07:52:10Z</time>
      </trkpt>
      <trkpt lat="46.46607" lon="0.46045">
        <ele>128.75893121865</ele>
        <time>2021-09-13T07:52:12Z</time>
      </trkpt>
      <trkpt lat="46.46608" lon="0.46049">
        <ele>129.85262947157</ele>
        <time>2021-09-13T07:52:14Z</time>
      </trkpt>
      <trkpt lat="46.4661" lon="0.46052">
        <ele>128.70722114574</ele>
        <time>2021-09-13T07:52:17Z</time>
      </trkpt>
      <trkpt lat="46.46611" lon="0.46056">
        <ele>129.25613158848</ele>
        <time>2021-09-13T07:52:19Z</time>
      </trkpt>
      <trkpt lat="46.46612" lon="0.46058">
        <ele>129.71838491783</ele>
        <time>2021-09-13T07:52:21Z</time>
      </trkpt>
      <trkpt lat="46.46614" lon="0.46061">
        <ele>129.65196833853</ele>
        <time>2021-09-13T07:52:24Z</time>
      </trkpt>
      <trkpt lat="46.46616" lon="0.46064">
        <ele>129.52578818146</ele>
        <time>2021-09-13T07:52:28Z</time>
      </trkpt>
      <trkpt lat="46.46617" lon="0.46067">
        <ele>129.8324957164</ele>
        <time>2021-09-13T07:52:30Z</time>
      </trkpt>
      <trkpt lat="46.46618" lon="0.46069">
        <ele>129.33757584263</ele>
        <time>2021-09-13T07:52:31Z</time>
      </trkpt>
      <trkpt lat="46.46619" lon="0.46073">
        <ele>129.12887631543</ele>
        <time>2021-09-13T07:52:33Z</time>
      </trkpt>
      <trkpt lat="46.46621" lon="0.46076">
        <ele>130.08099022973</ele>
        <time>2021-09-13T07:52:35Z</time>
      </trkpt>
      <trkpt lat="46.46621" lon="0.46079">
        <ele>130.08771603089</ele>
        <time>2021-09-13T07:52:37Z</time>
      </trkpt>
      <trkpt lat="46.46623" lon="0.46082">
        <ele>129.76184045803</ele>
        <time>2021-09-13T07:52:39Z</time>
      </trkpt>
      <trkpt lat="46.46625" lon="0.46085">
        <ele>129.53724735975</ele>
        <time>2021-09-13T07:52:41Z</time>
      </trkpt>
      <trkpt lat="46.46625" lon="0.46088">
        <ele>129.36082148924</ele>
        <time>2021-09-13T07:52:44Z</time>
      </trkpt>
      <trkpt lat="46.46627" lon="0.46091">
        <ele>130.4137400249</ele>
        <time>2021-09-13T07:52:46Z</time>
      </trkpt>
      <trkpt lat="46.46628" lon="0.46095">
        <ele>129.49173404556</ele>
        <time>2021-09-13T07:52:48Z</time>
      </trkpt>
      <trkpt lat="46.46629" lon="0.46097">
        <ele>129.36521718185</ele>
        <time>2021-09-13T07:52:50Z</time>
      </trkpt>
      <trkpt lat="46.4663" lon="0.46099">
        <ele>129.27516390942</ele>
        <time>2021-09-13T07:52:52Z</time>
      </trkpt>
      <trkpt lat="46.46631" lon="0.46103">
        <ele>130.03594923578</ele>
        <time>2021-09-13T07:52:54Z</time>
      </trkpt>
      <trkpt lat="46.46632" lon="0.46106">
        <ele>129.37270891294</ele>
        <time>2021-09-13T07:52:56Z</time>
      </trkpt>
      <trkpt lat="46.46634" lon="0.46108">
        <ele>129.44297563285</ele>
        <time>2021-09-13T07:52:58Z</time>
      </trkpt>
      <trkpt lat="46.46635" lon="0.46112">
        <ele>129.02123740315</ele>
        <time>2021-09-13T07:53:00Z</time>
      </trkpt>
      <trkpt lat="46.46636" lon="0.46114">
        <ele>129.54943535849</ele>
        <time>2021-09-13T07:53:01Z</time>
      </trkpt>
      <trkpt lat="46.46637" lon="0.46118">
        <ele>129.25369860791</ele>
        <time>2021-09-13T07:53:04Z</time>
      </trkpt>
      <trkpt lat="46.46638" lon="0.4612">
        <ele>129.2562518809</ele>
        <time>2021-09-13T07:53:05Z</time>
      </trkpt>
      <trkpt lat="46.4664" lon="0.46125">
        <ele>129.51722147595</ele>
        <time>2021-09-13T07:53:08Z</time>
      </trkpt>
      <trkpt lat="46.46641" lon="0.46128">
        <ele>129.78271807358</ele>
        <time>2021-09-13T07:53:10Z</time>
      </trkpt>
      <trkpt lat="46.46641" lon="0.46131">
        <ele>129.88556926139</ele>
        <time>2021-09-13T07:53:11Z</time>
      </trkpt>
      <trkpt lat="46.46642" lon="0.46134">
        <ele>129.92397570144</ele>
        <time>2021-09-13T07:53:13Z</time>
      </trkpt>
      <trkpt lat="46.46643" lon="0.46138">
        <ele>129.77023277711</ele>
        <time>2021-09-13T07:53:15Z</time>
      </trkpt>
      <trkpt lat="46.46643" lon="0.46141">
        <ele>129.51095709391</ele>
        <time>2021-09-13T07:53:17Z</time>
      </trkpt>
      <trkpt lat="46.46645" lon="0.46145">
        <ele>129.53345014248</ele>
        <time>2021-09-13T07:53:19Z</time>
      </trkpt>
      <trkpt lat="46.46646" lon="0.46148">
        <ele>130.40281496011</ele>
        <time>2021-09-13T07:53:21Z</time>
      </trkpt>
      <trkpt lat="46.46647" lon="0.46151">
        <ele>130.04553364217</ele>
        <time>2021-09-13T07:53:23Z</time>
      </trkpt>
      <trkpt lat="46.46648" lon="0.46154">
        <ele>129.39342134539</ele>
        <time>2021-09-13T07:53:25Z</time>
      </trkpt>
      <trkpt lat="46.4665" lon="0.46158">
        <ele>129.68174277432</ele>
        <time>2021-09-13T07:53:27Z</time>
      </trkpt>
      <trkpt lat="46.4665" lon="0.46161">
        <ele>129.46069114003</ele>
        <time>2021-09-13T07:53:29Z</time>
      </trkpt>
      <trkpt lat="46.46652" lon="0.46164">
        <ele>129.75664626807</ele>
        <time>2021-09-13T07:53:32Z</time>
      </trkpt>
      <trkpt lat="46.46653" lon="0.46168">
        <ele>129.3070798479</ele>
        <time>2021-09-13T07:53:34Z</time>
      </trkpt>
      <trkpt lat="46.46654" lon="0.46171">
        <ele>130.20464573894</ele>
        <time>2021-09-13T07:53:36Z</time>
      </trkpt>
      <trkpt lat="46.46656" lon="0.46174">
        <ele>130.10093562398</ele>
        <time>2021-09-13T07:53:38Z</time>
      </trkpt>
      <trkpt lat="46.46656" lon="0.46176">
        <ele>129.76336889062</ele>
        <time>2021-09-13T07:53:39Z</time>
      </trkpt>
      <trkpt lat="46.46658" lon="0.4618">
        <ele>129.34179272782</ele>
        <time>2021-09-13T07:53:42Z</time>
      </trkpt>
      <trkpt lat="46.46659" lon="0.46184">
        <ele>130.13842512667</ele>
        <time>2021-09-13T07:53:44Z</time>
      </trkpt>
      <trkpt lat="46.4666" lon="0.46187">
        <ele>129.78202286642</ele>
        <time>2021-09-13T07:53:46Z</time>
      </trkpt>
      <trkpt lat="46.46661" lon="0.46191">
        <ele>129.61188805941</ele>
        <time>2021-09-13T07:53:48Z</time>
      </trkpt>
      <trkpt lat="46.46662" lon="0.46193">
        <ele>129.58439193107</ele>
        <time>2021-09-13T07:53:50Z</time>
      </trkpt>
      <trkpt lat="46.46663" lon="0.46196">
        <ele>130.2221330693</ele>
        <time>2021-09-13T07:53:51Z</time>
      </trkpt>
      <trkpt lat="46.46664" lon="0.46199">
        <ele>129.79575214442</ele>
        <time>2021-09-13T07:53:54Z</time>
      </trkpt>
      <trkpt lat="46.46665" lon="0.46202">
        <ele>129.04177578073</ele>
        <time>2021-09-13T07:53:56Z</time>
      </trkpt>
      <trkpt lat="46.46666" lon="0.46204">
        <ele>129.72833306063</ele>
        <time>2021-09-13T07:53:57Z</time>
      </trkpt>
      <trkpt lat="46.46667" lon="0.46207">
        <ele>129.66524502356</ele>
        <time>2021-09-13T07:53:59Z</time>
      </trkpt>
      <trkpt lat="46.46669" lon="0.46211">
        <ele>130.42764768656</ele>
        <time>2021-09-13T07:54:02Z</time>
      </trkpt>
      <trkpt lat="46.4667" lon="0.46214">
        <ele>129.68009069934</ele>
        <time>2021-09-13T07:54:04Z</time>
      </trkpt>
      <trkpt lat="46.4667" lon="0.46217">
        <ele>130.20884944405</ele>
        <time>2021-09-13T07:54:06Z</time>
      </trkpt>
      <trkpt lat="46.46671" lon="0.4622">
        <ele>129.56811138988</ele>
        <time>2021-09-13T07:54:08Z</time>
      </trkpt>
      <trkpt lat="46.46673" lon="0.46224">
        <ele>129.49083038606</ele>
        <time>2021-09-13T07:54:10Z</time>
      </trkpt>
      <trkpt lat="46.46673" lon="0.46227">
        <ele>129.36576475389</ele>
        <time>2021-09-13T07:54:12Z</time>
      </trkpt>
      <trkpt lat="46.46674" lon="0.4623">
        <ele>130.66452859808</ele>
        <time>2021-09-13T07:54:14Z</time>
      </trkpt>
      <trkpt lat="46.46675" lon="0.46233">
        <ele>129.86084862053</ele>
        <time>2021-09-13T07:54:16Z</time>
      </trkpt>
      <trkpt lat="46.46676" lon="0.46236">
        <ele>129.45311270189</ele>
        <time>2021-09-13T07:54:18Z</time>
      </trkpt>
      <trkpt lat="46.46678" lon="0.46239">
        <ele>129.63138495293</ele>
        <time>2021-09-13T07:54:20Z</time>
      </trkpt>
      <trkpt lat="46.46679" lon="0.46244">
        <ele>130.34234707244</ele>
        <time>2021-09-13T07:54:22Z</time>
      </trkpt>
      <trkpt lat="46.4668" lon="0.46246">
        <ele>130.10108407494</ele>
        <time>2021-09-13T07:54:24Z</time>
      </trkpt>
      <trkpt lat="46.46681" lon="0.46249">
        <ele>129.98120668437</ele>
        <time>2021-09-13T07:54:26Z</time>
      </trkpt>
      <trkpt lat="46.46682" lon="0.46252">
        <ele>131.35025768913</ele>
        <time>2021-09-13T07:54:28Z</time>
      </trkpt>
      <trkpt lat="46.46683" lon="0.46255">
        <ele>129.80760115292</ele>
        <time>2021-09-13T07:54:30Z</time>
      </trkpt>
      <trkpt lat="46.46684" lon="0.46259">
        <ele>129.99580618553</ele>
        <time>2021-09-13T07:54:32Z</time>
      </trkpt>
      <trkpt lat="46.46686" lon="0.46262">
        <ele>130.75003780611</ele>
        <time>2021-09-13T07:54:34Z</time>
      </trkpt>
      <trkpt lat="46.46686" lon="0.46266">
        <ele>130.81401324645</ele>
        <time>2021-09-13T07:54:36Z</time>
      </trkpt>
      <trkpt lat="46.46687" lon="0.46271">
        <ele>130.3523992775</ele>
        <time>2021-09-13T07:54:39Z</time>
      </trkpt>
      <trkpt lat="46.46688" lon="0.46273">
        <ele>129.80475211423</ele>
        <time>2021-09-13T07:54:41Z</time>
      </trkpt>
      <trkpt lat="46.46689" lon="0.46277">
        <ele>131.47283720225</ele>
        <time>2021-09-13T07:54:43Z</time>
      </trkpt>
      <trkpt lat="46.4669" lon="0.46281">
        <ele>129.9955619378</ele>
        <time>2021-09-13T07:54:46Z</time>
      </trkpt>
      <trkpt lat="46.46691" lon="0.46285">
        <ele>130.64135094639</ele>
        <time>2021-09-13T07:54:48Z</time>
      </trkpt>
      <trkpt lat="46.46692" lon="0.46288">
        <ele>130.33256197628</ele>
        <time>2021-09-13T07:54:51Z</time>
      </trkpt>
      <trkpt lat="46.46693" lon="0.46293">
        <ele>131.25197144318</ele>
        <time>2021-09-13T07:54:53Z</time>
      </trkpt>
      <trkpt lat="46.46693" lon="0.46295">
        <ele>130.13532247208</ele>
        <time>2021-09-13T07:54:55Z</time>
      </trkpt>
      <trkpt lat="46.46695" lon="0.46299">
        <ele>130.44964067265</ele>
        <time>2021-09-13T07:54:57Z</time>
      </trkpt>
      <trkpt lat="46.46696" lon="0.46302">
        <ele>130.61396322586</ele>
        <time>2021-09-13T07:54:59Z</time>
      </trkpt>
      <trkpt lat="46.46697" lon="0.46305">
        <ele>130.39402460586</ele>
        <time>2021-09-13T07:55:01Z</time>
      </trkpt>
      <trkpt lat="46.46698" lon="0.46308">
        <ele>129.96816589031</ele>
        <time>2021-09-13T07:55:03Z</time>
      </trkpt>
      <trkpt lat="46.46699" lon="0.46313">
        <ele>130.29188795015</ele>
        <time>2021-09-13T07:55:06Z</time>
      </trkpt>
      <trkpt lat="46.467" lon="0.46317">
        <ele>129.81910121627</ele>
        <time>2021-09-13T07:55:08Z</time>
      </trkpt>
      <trkpt lat="46.467" lon="0.4632">
        <ele>130.00845102966</ele>
        <time>2021-09-13T07:55:10Z</time>
      </trkpt>
      <trkpt lat="46.46701" lon="0.46324">
        <ele>130.36647510901</ele>
        <time>2021-09-13T07:55:12Z</time>
      </trkpt>
      <trkpt lat="46.46702" lon="0.46327">
        <ele>130.45913594682</ele>
        <time>2021-09-13T07:55:14Z</time>
      </trkpt>
      <trkpt lat="46.46702" lon="0.4633">
        <ele>130.0833665384</ele>
        <time>2021-09-13T07:55:16Z</time>
      </trkpt>
      <trkpt lat="46.46702" lon="0.46333">
        <ele>130.74253814574</ele>
        <time>2021-09-13T07:55:18Z</time>
      </trkpt>
      <trkpt lat="46.46703" lon="0.46336">
        <ele>131.64304155204</ele>
        <time>2021-09-13T07:55:19Z</time>
      </trkpt>
      <trkpt lat="46.46703" lon="0.46339">
        <ele>130.29830553569</ele>
        <time>2021-09-13T07:55:21Z</time>
      </trkpt>
      <trkpt lat="46.46704" lon="0.46342">
        <ele>130.57215176057</ele>
        <time>2021-09-13T07:55:23Z</time>
      </trkpt>
      <trkpt lat="46.46705" lon="0.46345">
        <ele>130.68617063761</ele>
        <time>2021-09-13T07:55:25Z</time>
      </trkpt>
      <trkpt lat="46.46706" lon="0.46349">
        <ele>130.76852415036</ele>
        <time>2021-09-13T07:55:27Z</time>
      </trkpt>
      <trkpt lat="46.46706" lon="0.46352">
        <ele>130.39176835399</ele>
        <time>2021-09-13T07:55:29Z</time>
      </trkpt>
      <trkpt lat="46.46708" lon="0.46356">
        <ele>129.81614677422</ele>
        <time>2021-09-13T07:55:31Z</time>
      </trkpt>
      <trkpt lat="46.46709" lon="0.4636">
        <ele>131.69174042623</ele>
        <time>2021-09-13T07:55:33Z</time>
      </trkpt>
      <trkpt lat="46.46709" lon="0.46363">
        <ele>130.71049067099</ele>
        <time>2021-09-13T07:55:36Z</time>
      </trkpt>
      <trkpt lat="46.46709" lon="0.46367">
        <ele>130.55358402058</ele>
        <time>2021-09-13T07:55:38Z</time>
      </trkpt>
      <trkpt lat="46.4671" lon="0.46371">
        <ele>130.48887125775</ele>
        <time>2021-09-13T07:55:40Z</time>
      </trkpt>
      <trkpt lat="46.4671" lon="0.46374">
        <ele>130.80051970109</ele>
        <time>2021-09-13T07:55:41Z</time>
      </trkpt>
      <trkpt lat="46.4671" lon="0.46377">
        <ele>130.52892630827</ele>
        <time>2021-09-13T07:55:43Z</time>
      </trkpt>
      <trkpt lat="46.46711" lon="0.46381">
        <ele>131.4169018995</ele>
        <time>2021-09-13T07:55:45Z</time>
      </trkpt>
      <trkpt lat="46.46712" lon="0.46384">
        <ele>130.74806277733</ele>
        <time>2021-09-13T07:55:47Z</time>
      </trkpt>
      <trkpt lat="46.46712" lon="0.46388">
        <ele>130.60012242757</ele>
        <time>2021-09-13T07:55:49Z</time>
      </trkpt>
      <trkpt lat="46.46713" lon="0.46391">
        <ele>130.74000488874</ele>
        <time>2021-09-13T07:55:51Z</time>
      </trkpt>
      <trkpt lat="46.46713" lon="0.46395">
        <ele>130.72270112857</ele>
        <time>2021-09-13T07:55:53Z</time>
      </trkpt>
      <trkpt lat="46.46714" lon="0.46398">
        <ele>130.5287583489</ele>
        <time>2021-09-13T07:55:55Z</time>
      </trkpt>
      <trkpt lat="46.46714" lon="0.46401">
        <ele>130.45736059546</ele>
        <time>2021-09-13T07:55:57Z</time>
      </trkpt>
      <trkpt lat="46.46715" lon="0.46405">
        <ele>131.62064743042</ele>
        <time>2021-09-13T07:55:59Z</time>
      </trkpt>
      <trkpt lat="46.46716" lon="0.46408">
        <ele>130.29968663957</ele>
        <time>2021-09-13T07:56:01Z</time>
      </trkpt>
      <trkpt lat="46.46716" lon="0.46412">
        <ele>130.61386100668</ele>
        <time>2021-09-13T07:56:03Z</time>
      </trkpt>
      <trkpt lat="46.46716" lon="0.46415">
        <ele>130.95444285311</ele>
        <time>2021-09-13T07:56:04Z</time>
      </trkpt>
      <trkpt lat="46.46717" lon="0.46418">
        <ele>131.114999393</ele>
        <time>2021-09-13T07:56:06Z</time>
      </trkpt>
      <trkpt lat="46.46717" lon="0.46421">
        <ele>130.64638405479</ele>
        <time>2021-09-13T07:56:08Z</time>
      </trkpt>
      <trkpt lat="46.46717" lon="0.46425">
        <ele>130.10046253446</ele>
        <time>2021-09-13T07:56:10Z</time>
      </trkpt>
      <trkpt lat="46.46718" lon="0.46429">
        <ele>130.67065640446</ele>
        <time>2021-09-13T07:56:13Z</time>
      </trkpt>
      <trkpt lat="46.46719" lon="0.46433">
        <ele>130.83891876694</ele>
        <time>2021-09-13T07:56:15Z</time>
      </trkpt>
      <trkpt lat="46.46719" lon="0.46435">
        <ele>130.43935923837</ele>
        <time>2021-09-13T07:56:17Z</time>
      </trkpt>
      <trkpt lat="46.4672" lon="0.46439">
        <ele>130.62276636157</ele>
        <time>2021-09-13T07:56:19Z</time>
      </trkpt>
      <trkpt lat="46.4672" lon="0.46442">
        <ele>130.58169503976</ele>
        <time>2021-09-13T07:56:21Z</time>
      </trkpt>
      <trkpt lat="46.46719" lon="0.46446">
        <ele>130.81590096094</ele>
        <time>2021-09-13T07:56:23Z</time>
      </trkpt>
      <trkpt lat="46.46719" lon="0.4645">
        <ele>131.01661491394</ele>
        <time>2021-09-13T07:56:26Z</time>
      </trkpt>
      <trkpt lat="46.46719" lon="0.46454">
        <ele>130.77986934781</ele>
        <time>2021-09-13T07:56:29Z</time>
      </trkpt>
      <trkpt lat="46.46719" lon="0.46457">
        <ele>129.87011970673</ele>
        <time>2021-09-13T07:56:31Z</time>
      </trkpt>
      <trkpt lat="46.4672" lon="0.46461">
        <ele>131.80903837085</ele>
        <time>2021-09-13T07:56:33Z</time>
      </trkpt>
      <trkpt lat="46.4672" lon="0.46465">
        <ele>131.2484419439</ele>
        <time>2021-09-13T07:56:35Z</time>
      </trkpt>
      <trkpt lat="46.46721" lon="0.46468">
        <ele>131.20985002723</ele>
        <time>2021-09-13T07:56:37Z</time>
      </trkpt>
      <trkpt lat="46.46721" lon="0.46472">
        <ele>130.74573625345</ele>
        <time>2021-09-13T07:56:39Z</time>
      </trkpt>
      <trkpt lat="46.46722" lon="0.46475">
        <ele>131.28026138246</ele>
        <time>2021-09-13T07:56:41Z</time>
      </trkpt>
      <trkpt lat="46.46721" lon="0.46478">
        <ele>131.53578848951</ele>
        <time>2021-09-13T07:56:44Z</time>
      </trkpt>
      <trkpt lat="46.46723" lon="0.46481">
        <ele>131.06453422271</ele>
        <time>2021-09-13T07:56:46Z</time>
      </trkpt>
      <trkpt lat="46.46723" lon="0.46484">
        <ele>131.92615970783</ele>
        <time>2021-09-13T07:56:48Z</time>
      </trkpt>
      <trkpt lat="46.46724" lon="0.46486">
        <ele>130.14520018641</ele>
        <time>2021-09-13T07:56:50Z</time>
      </trkpt>
      <trkpt lat="46.46725" lon="0.4649">
        <ele>131.94110248704</ele>
        <time>2021-09-13T07:56:52Z</time>
      </trkpt>
      <trkpt lat="46.46726" lon="0.46493">
        <ele>131.00219886191</ele>
        <time>2021-09-13T07:56:54Z</time>
      </trkpt>
      <trkpt lat="46.46727" lon="0.46497">
        <ele>132.27951025032</ele>
        <time>2021-09-13T07:56:56Z</time>
      </trkpt>
      <trkpt lat="46.46728" lon="0.46501">
        <ele>131.62950666994</ele>
        <time>2021-09-13T07:56:59Z</time>
      </trkpt>
      <trkpt lat="46.46729" lon="0.46505">
        <ele>131.74186046235</ele>
        <time>2021-09-13T07:57:01Z</time>
      </trkpt>
      <trkpt lat="46.46729" lon="0.46508">
        <ele>132.08964866865</ele>
        <time>2021-09-13T07:57:03Z</time>
      </trkpt>
      <trkpt lat="46.4673" lon="0.46512">
        <ele>131.82348027546</ele>
        <time>2021-09-13T07:57:05Z</time>
      </trkpt>
      <trkpt lat="46.46731" lon="0.46515">
        <ele>130.87564875465</ele>
        <time>2021-09-13T07:57:07Z</time>
      </trkpt>
      <trkpt lat="46.46731" lon="0.46519">
        <ele>131.36900382582</ele>
        <time>2021-09-13T07:57:09Z</time>
      </trkpt>
      <trkpt lat="46.46732" lon="0.46522">
        <ele>130.90000210423</ele>
        <time>2021-09-13T07:57:11Z</time>
      </trkpt>
      <trkpt lat="46.46733" lon="0.46526">
        <ele>130.99810218532</ele>
        <time>2021-09-13T07:57:13Z</time>
      </trkpt>
      <trkpt lat="46.46734" lon="0.46529">
        <ele>131.98441986181</ele>
        <time>2021-09-13T07:57:15Z</time>
      </trkpt>
      <trkpt lat="46.46734" lon="0.46532">
        <ele>131.24764172919</ele>
        <time>2021-09-13T07:57:17Z</time>
      </trkpt>
      <trkpt lat="46.46735" lon="0.46537">
        <ele>131.06587541662</ele>
        <time>2021-09-13T07:57:19Z</time>
      </trkpt>
      <trkpt lat="46.46735" lon="0.46541">
        <ele>131.58901134878</ele>
        <time>2021-09-13T07:57:21Z</time>
      </trkpt>
      <trkpt lat="46.46736" lon="0.46545">
        <ele>131.88439304475</ele>
        <time>2021-09-13T07:57:23Z</time>
      </trkpt>
      <trkpt lat="46.46736" lon="0.46548">
        <ele>130.86490885913</ele>
        <time>2021-09-13T07:57:25Z</time>
      </trkpt>
      <trkpt lat="46.46737" lon="0.46551">
        <ele>131.25350793917</ele>
        <time>2021-09-13T07:57:27Z</time>
      </trkpt>
      <trkpt lat="46.46738" lon="0.46555">
        <ele>131.27767798398</ele>
        <time>2021-09-13T07:57:29Z</time>
      </trkpt>
      <trkpt lat="46.46739" lon="0.46559">
        <ele>132.04459318426</ele>
        <time>2021-09-13T07:57:31Z</time>
      </trkpt>
      <trkpt lat="46.4674" lon="0.46563">
        <ele>131.20087399241</ele>
        <time>2021-09-13T07:57:34Z</time>
      </trkpt>
      <trkpt lat="46.4674" lon="0.46567">
        <ele>131.50085780025</ele>
        <time>2021-09-13T07:57:36Z</time>
      </trkpt>
      <trkpt lat="46.46741" lon="0.4657">
        <ele>131.4011037834</ele>
        <time>2021-09-13T07:57:38Z</time>
      </trkpt>
      <trkpt lat="46.46741" lon="0.46574">
        <ele>131.88797215186</ele>
        <time>2021-09-13T07:57:40Z</time>
      </trkpt>
      <trkpt lat="46.46742" lon="0.46577">
        <ele>131.45341193955</ele>
        <time>2021-09-13T07:57:42Z</time>
      </trkpt>
      <trkpt lat="46.46743" lon="0.46581">
        <ele>131.10155617259</ele>
        <time>2021-09-13T07:57:44Z</time>
      </trkpt>
      <trkpt lat="46.46744" lon="0.46585">
        <ele>131.87005523685</ele>
        <time>2021-09-13T07:57:47Z</time>
      </trkpt>
      <trkpt lat="46.46745" lon="0.46588">
        <ele>130.99363644235</ele>
        <time>2021-09-13T07:57:49Z</time>
      </trkpt>
      <trkpt lat="46.46746" lon="0.46592">
        <ele>131.35628400836</ele>
        <time>2021-09-13T07:57:51Z</time>
      </trkpt>
      <trkpt lat="46.46745" lon="0.46594">
        <ele>131.32409217954</ele>
        <time>2021-09-13T07:57:54Z</time>
      </trkpt>
      <trkpt lat="46.46747" lon="0.46597">
        <ele>131.54923436884</ele>
        <time>2021-09-13T07:57:56Z</time>
      </trkpt>
      <trkpt lat="46.46747" lon="0.466">
        <ele>131.3505566353</ele>
        <time>2021-09-13T07:57:58Z</time>
      </trkpt>
      <trkpt lat="46.46747" lon="0.46604">
        <ele>131.51730424352</ele>
        <time>2021-09-13T07:58:00Z</time>
      </trkpt>
      <trkpt lat="46.46748" lon="0.46608">
        <ele>131.92649598978</ele>
        <time>2021-09-13T07:58:02Z</time>
      </trkpt>
      <trkpt lat="46.46749" lon="0.4661">
        <ele>131.98633152153</ele>
        <time>2021-09-13T07:58:03Z</time>
      </trkpt>
      <trkpt lat="46.4675" lon="0.46613">
        <ele>131.18489714246</ele>
        <time>2021-09-13T07:58:06Z</time>
      </trkpt>
      <trkpt lat="46.4675" lon="0.46616">
        <ele>132.26072980836</ele>
        <time>2021-09-13T07:58:07Z</time>
      </trkpt>
      <trkpt lat="46.4675" lon="0.4662">
        <ele>131.57231503073</ele>
        <time>2021-09-13T07:58:09Z</time>
      </trkpt>
      <trkpt lat="46.46751" lon="0.46624">
        <ele>131.59966784343</ele>
        <time>2021-09-13T07:58:11Z</time>
      </trkpt>
      <trkpt lat="46.46751" lon="0.46628">
        <ele>131.94588624779</ele>
        <time>2021-09-13T07:58:14Z</time>
      </trkpt>
      <trkpt lat="46.46752" lon="0.46632">
        <ele>132.3846100131</ele>
        <time>2021-09-13T07:58:17Z</time>
      </trkpt>
      <trkpt lat="46.46752" lon="0.46636">
        <ele>132.20003980584</ele>
        <time>2021-09-13T07:58:19Z</time>
      </trkpt>
      <trkpt lat="46.46753" lon="0.4664">
        <ele>131.80484022573</ele>
        <time>2021-09-13T07:58:22Z</time>
      </trkpt>
      <trkpt lat="46.46753" lon="0.46642">
        <ele>132.62292501703</ele>
        <time>2021-09-13T07:58:23Z</time>
      </trkpt>
      <trkpt lat="46.46754" lon="0.46646">
        <ele>132.26636618748</ele>
        <time>2021-09-13T07:58:25Z</time>
      </trkpt>
      <trkpt lat="46.46754" lon="0.46649">
        <ele>131.9985683579</ele>
        <time>2021-09-13T07:58:27Z</time>
      </trkpt>
      <trkpt lat="46.46755" lon="0.46653">
        <ele>133.31883177068</ele>
        <time>2021-09-13T07:58:29Z</time>
      </trkpt>
      <trkpt lat="46.46756" lon="0.46657">
        <ele>132.08576230146</ele>
        <time>2021-09-13T07:58:32Z</time>
      </trkpt>
      <trkpt lat="46.46757" lon="0.46661">
        <ele>132.15205645096</ele>
        <time>2021-09-13T07:58:34Z</time>
      </trkpt>
      <trkpt lat="46.46757" lon="0.46664">
        <ele>131.78209329117</ele>
        <time>2021-09-13T07:58:37Z</time>
      </trkpt>
      <trkpt lat="46.46758" lon="0.46667">
        <ele>131.54336619005</ele>
        <time>2021-09-13T07:58:39Z</time>
      </trkpt>
      <trkpt lat="46.46758" lon="0.4667">
        <ele>131.30539654754</ele>
        <time>2021-09-13T07:58:41Z</time>
      </trkpt>
      <trkpt lat="46.46758" lon="0.46674">
        <ele>131.85917251185</ele>
        <time>2021-09-13T07:58:43Z</time>
      </trkpt>
      <trkpt lat="46.46759" lon="0.46678">
        <ele>132.16026854888</ele>
        <time>2021-09-13T07:58:45Z</time>
      </trkpt>
      <trkpt lat="46.4676" lon="0.46681">
        <ele>131.51965613011</ele>
        <time>2021-09-13T07:58:47Z</time>
      </trkpt>
      <trkpt lat="46.4676" lon="0.46686">
        <ele>131.61152545922</ele>
        <time>2021-09-13T07:58:49Z</time>
      </trkpt>
      <trkpt lat="46.46761" lon="0.46689">
        <ele>132.18056717794</ele>
        <time>2021-09-13T07:58:52Z</time>
      </trkpt>
      <trkpt lat="46.46762" lon="0.46692">
        <ele>131.35632176511</ele>
        <time>2021-09-13T07:58:54Z</time>
      </trkpt>
      <trkpt lat="46.46762" lon="0.46695">
        <ele>131.15513879713</ele>
        <time>2021-09-13T07:58:56Z</time>
      </trkpt>
      <trkpt lat="46.46763" lon="0.46698">
        <ele>131.72220063023</ele>
        <time>2021-09-13T07:58:58Z</time>
      </trkpt>
      <trkpt lat="46.46763" lon="0.46703">
        <ele>131.96165476274</ele>
        <time>2021-09-13T07:59:00Z</time>
      </trkpt>
      <trkpt lat="46.46764" lon="0.46707">
        <ele>131.40703058708</ele>
        <time>2021-09-13T07:59:03Z</time>
      </trkpt>
      <trkpt lat="46.46765" lon="0.46711">
        <ele>132.70873802807</ele>
        <time>2021-09-13T07:59:05Z</time>
      </trkpt>
      <trkpt lat="46.46765" lon="0.46714">
        <ele>131.6693614265</ele>
        <time>2021-09-13T07:59:07Z</time>
      </trkpt>
      <trkpt lat="46.46767" lon="0.46717">
        <ele>131.62436859962</ele>
        <time>2021-09-13T07:59:09Z</time>
      </trkpt>
      <trkpt lat="46.46767" lon="0.4672">
        <ele>132.64196733851</ele>
        <time>2021-09-13T07:59:11Z</time>
      </trkpt>
      <trkpt lat="46.46768" lon="0.46725">
        <ele>132.43503308948</ele>
        <time>2021-09-13T07:59:13Z</time>
      </trkpt>
      <trkpt lat="46.46768" lon="0.46728">
        <ele>132.35277837981</ele>
        <time>2021-09-13T07:59:15Z</time>
      </trkpt>
      <trkpt lat="46.46769" lon="0.46732">
        <ele>133.22442129627</ele>
        <time>2021-09-13T07:59:17Z</time>
      </trkpt>
      <trkpt lat="46.4677" lon="0.46735">
        <ele>133.15350043587</ele>
        <time>2021-09-13T07:59:19Z</time>
      </trkpt>
      <trkpt lat="46.4677" lon="0.46739">
        <ele>132.79983627982</ele>
        <time>2021-09-13T07:59:21Z</time>
      </trkpt>
      <trkpt lat="46.46771" lon="0.46742">
        <ele>133.23794269655</ele>
        <time>2021-09-13T07:59:23Z</time>
      </trkpt>
      <trkpt lat="46.46771" lon="0.46746">
        <ele>132.60928371176</ele>
        <time>2021-09-13T07:59:25Z</time>
      </trkpt>
      <trkpt lat="46.46772" lon="0.46749">
        <ele>132.2071478162</ele>
        <time>2021-09-13T07:59:27Z</time>
      </trkpt>
      <trkpt lat="46.46773" lon="0.46752">
        <ele>133.61141214147</ele>
        <time>2021-09-13T07:59:29Z</time>
      </trkpt>
      <trkpt lat="46.46774" lon="0.46755">
        <ele>132.33433140721</ele>
        <time>2021-09-13T07:59:31Z</time>
      </trkpt>
      <trkpt lat="46.46775" lon="0.4676">
        <ele>132.86501690838</ele>
        <time>2021-09-13T07:59:34Z</time>
      </trkpt>
      <trkpt lat="46.46775" lon="0.46764">
        <ele>132.18817376066</ele>
        <time>2021-09-13T07:59:37Z</time>
      </trkpt>
      <trkpt lat="46.46776" lon="0.46767">
        <ele>133.05550008453</ele>
        <time>2021-09-13T07:59:38Z</time>
      </trkpt>
      <trkpt lat="46.46776" lon="0.4677">
        <ele>132.79315505549</ele>
        <time>2021-09-13T07:59:40Z</time>
      </trkpt>
      <trkpt lat="46.46776" lon="0.46774">
        <ele>132.59521827754</ele>
        <time>2021-09-13T07:59:42Z</time>
      </trkpt>
      <trkpt lat="46.46777" lon="0.46778">
        <ele>132.81072460487</ele>
        <time>2021-09-13T07:59:45Z</time>
      </trkpt>
      <trkpt lat="46.46778" lon="0.46782">
        <ele>132.57212784514</ele>
        <time>2021-09-13T07:59:47Z</time>
      </trkpt>
      <trkpt lat="46.46778" lon="0.46786">
        <ele>133.53595922142</ele>
        <time>2021-09-13T07:59:50Z</time>
      </trkpt>
      <trkpt lat="46.46778" lon="0.46789">
        <ele>132.65394169558</ele>
        <time>2021-09-13T07:59:52Z</time>
      </trkpt>
      <trkpt lat="46.46778" lon="0.46793">
        <ele>132.83805140015</ele>
        <time>2021-09-13T07:59:54Z</time>
      </trkpt>
      <trkpt lat="46.4678" lon="0.46797">
        <ele>133.32598119788</ele>
        <time>2021-09-13T07:59:56Z</time>
      </trkpt>
      <trkpt lat="46.46779" lon="0.468">
        <ele>132.73953476734</ele>
        <time>2021-09-13T07:59:58Z</time>
      </trkpt>
      <trkpt lat="46.46779" lon="0.46805">
        <ele>133.46031025983</ele>
        <time>2021-09-13T08:00:00Z</time>
      </trkpt>
      <trkpt lat="46.4678" lon="0.46809">
        <ele>133.43297204282</ele>
        <time>2021-09-13T08:00:03Z</time>
      </trkpt>
      <trkpt lat="46.4678" lon="0.46812">
        <ele>134.20170889888</ele>
        <time>2021-09-13T08:00:04Z</time>
      </trkpt>
      <trkpt lat="46.46781" lon="0.46816">
        <ele>133.24341151211</ele>
        <time>2021-09-13T08:00:06Z</time>
      </trkpt>
      <trkpt lat="46.46781" lon="0.4682">
        <ele>133.50404824875</ele>
        <time>2021-09-13T08:00:08Z</time>
      </trkpt>
      <trkpt lat="46.46782" lon="0.46824">
        <ele>133.9906896716</ele>
        <time>2021-09-13T08:00:10Z</time>
      </trkpt>
      <trkpt lat="46.46781" lon="0.46828">
        <ele>133.41982691828</ele>
        <time>2021-09-13T08:00:12Z</time>
      </trkpt>
      <trkpt lat="46.46782" lon="0.46831">
        <ele>133.17372265738</ele>
        <time>2021-09-13T08:00:14Z</time>
      </trkpt>
      <trkpt lat="46.46782" lon="0.46833">
        <ele>134.40049794409</ele>
        <time>2021-09-13T08:00:15Z</time>
      </trkpt>
      <trkpt lat="46.46783" lon="0.46837">
        <ele>133.22562699486</ele>
        <time>2021-09-13T08:00:18Z</time>
      </trkpt>
      <trkpt lat="46.46783" lon="0.46841">
        <ele>133.97083252762</ele>
        <time>2021-09-13T08:00:19Z</time>
      </trkpt>
      <trkpt lat="46.46783" lon="0.46844">
        <ele>133.66304821242</ele>
        <time>2021-09-13T08:00:22Z</time>
      </trkpt>
      <trkpt lat="46.46783" lon="0.46848">
        <ele>133.62981793284</ele>
        <time>2021-09-13T08:00:24Z</time>
      </trkpt>
      <trkpt lat="46.46783" lon="0.4685">
        <ele>133.21507655736</ele>
        <time>2021-09-13T08:00:26Z</time>
      </trkpt>
      <trkpt lat="46.46783" lon="0.46855">
        <ele>133.99387370329</ele>
        <time>2021-09-13T08:00:28Z</time>
      </trkpt>
      <trkpt lat="46.46783" lon="0.46858">
        <ele>133.17965393513</ele>
        <time>2021-09-13T08:00:30Z</time>
      </trkpt>
      <trkpt lat="46.46781" lon="0.46861">
        <ele>133.25978965219</ele>
        <time>2021-09-13T08:00:32Z</time>
      </trkpt>
      <trkpt lat="46.46781" lon="0.46865">
        <ele>133.79344546702</ele>
        <time>2021-09-13T08:00:34Z</time>
      </trkpt>
      <trkpt lat="46.46779" lon="0.46867">
        <ele>133.48913701996</ele>
        <time>2021-09-13T08:00:36Z</time>
      </trkpt>
      <trkpt lat="46.46778" lon="0.46871">
        <ele>133.27305262536</ele>
        <time>2021-09-13T08:00:38Z</time>
      </trkpt>
      <trkpt lat="46.46776" lon="0.46874">
        <ele>133.4426540276</ele>
        <time>2021-09-13T08:00:40Z</time>
      </trkpt>
      <trkpt lat="46.46774" lon="0.46875">
        <ele>133.86617035791</ele>
        <time>2021-09-13T08:00:42Z</time>
      </trkpt>
      <trkpt lat="46.46772" lon="0.46878">
        <ele>133.7394777406</ele>
        <time>2021-09-13T08:00:44Z</time>
      </trkpt>
      <trkpt lat="46.46771" lon="0.46881">
        <ele>133.3957639467</ele>
        <time>2021-09-13T08:00:46Z</time>
      </trkpt>
      <trkpt lat="46.46769" lon="0.46883">
        <ele>133.79504647572</ele>
        <time>2021-09-13T08:00:47Z</time>
      </trkpt>
      <trkpt lat="46.46768" lon="0.46885">
        <ele>134.0437198393</ele>
        <time>2021-09-13T08:00:49Z</time>
      </trkpt>
      <trkpt lat="46.46765" lon="0.46886">
        <ele>133.66084373835</ele>
        <time>2021-09-13T08:00:52Z</time>
      </trkpt>
      <trkpt lat="46.46763" lon="0.46889">
        <ele>133.30512957554</ele>
        <time>2021-09-13T08:00:54Z</time>
      </trkpt>
      <trkpt lat="46.46761" lon="0.4689">
        <ele>133.23100531008</ele>
        <time>2021-09-13T08:00:56Z</time>
      </trkpt>
      <trkpt lat="46.46759" lon="0.46893">
        <ele>134.06901663542</ele>
        <time>2021-09-13T08:00:58Z</time>
      </trkpt>
      <trkpt lat="46.46757" lon="0.46894">
        <ele>133.82993160933</ele>
        <time>2021-09-13T08:01:00Z</time>
      </trkpt>
      <trkpt lat="46.46754" lon="0.46896">
        <ele>133.93088743184</ele>
        <time>2021-09-13T08:01:02Z</time>
      </trkpt>
      <trkpt lat="46.46752" lon="0.46898">
        <ele>134.15580869839</ele>
        <time>2021-09-13T08:01:04Z</time>
      </trkpt>
      <trkpt lat="46.46751" lon="0.469">
        <ele>133.94633256551</ele>
        <time>2021-09-13T08:01:05Z</time>
      </trkpt>
      <trkpt lat="46.46749" lon="0.46903">
        <ele>134.05681541376</ele>
        <time>2021-09-13T08:01:07Z</time>
      </trkpt>
      <trkpt lat="46.46747" lon="0.46905">
        <ele>133.55849003699</ele>
        <time>2021-09-13T08:01:09Z</time>
      </trkpt>
      <trkpt lat="46.46745" lon="0.46908">
        <ele>134.99263306987</ele>
        <time>2021-09-13T08:01:11Z</time>
      </trkpt>
      <trkpt lat="46.46744" lon="0.46909">
        <ele>133.89851246867</ele>
        <time>2021-09-13T08:01:13Z</time>
      </trkpt>
      <trkpt lat="46.46741" lon="0.4691">
        <ele>133.94368194137</ele>
        <time>2021-09-13T08:01:15Z</time>
      </trkpt>
      <trkpt lat="46.4674" lon="0.46913">
        <ele>134.47181792557</ele>
        <time>2021-09-13T08:01:17Z</time>
      </trkpt>
      <trkpt lat="46.46737" lon="0.46916">
        <ele>134.30859300774</ele>
        <time>2021-09-13T08:01:19Z</time>
      </trkpt>
      <trkpt lat="46.46736" lon="0.46919">
        <ele>134.53167628124</ele>
        <time>2021-09-13T08:01:22Z</time>
      </trkpt>
      <trkpt lat="46.46734" lon="0.46922">
        <ele>134.29658841155</ele>
        <time>2021-09-13T08:01:24Z</time>
      </trkpt>
      <trkpt lat="46.46733" lon="0.46923">
        <ele>135.40476143826</ele>
        <time>2021-09-13T08:01:26Z</time>
      </trkpt>
      <trkpt lat="46.46731" lon="0.46925">
        <ele>134.61250935309</ele>
        <time>2021-09-13T08:01:28Z</time>
      </trkpt>
      <trkpt lat="46.4673" lon="0.46928">
        <ele>134.42633218784</ele>
        <time>2021-09-13T08:01:30Z</time>
      </trkpt>
      <trkpt lat="46.46728" lon="0.4693">
        <ele>135.32763752434</ele>
        <time>2021-09-13T08:01:32Z</time>
      </trkpt>
      <trkpt lat="46.46726" lon="0.46934">
        <ele>134.69627241325</ele>
        <time>2021-09-13T08:01:34Z</time>
      </trkpt>
      <trkpt lat="46.46724" lon="0.46937">
        <ele>135.15767504089</ele>
        <time>2021-09-13T08:01:38Z</time>
      </trkpt>
      <trkpt lat="46.46722" lon="0.4694">
        <ele>134.24516029377</ele>
        <time>2021-09-13T08:01:40Z</time>
      </trkpt>
      <trkpt lat="46.46721" lon="0.46943">
        <ele>134.02285390627</ele>
        <time>2021-09-13T08:01:42Z</time>
      </trkpt>
      <trkpt lat="46.4672" lon="0.46946">
        <ele>134.9084163243</ele>
        <time>2021-09-13T08:01:45Z</time>
      </trkpt>
      <trkpt lat="46.46719" lon="0.46948">
        <ele>134.74739573803</ele>
        <time>2021-09-13T08:01:47Z</time>
      </trkpt>
      <trkpt lat="46.46717" lon="0.4695">
        <ele>134.65832046233</ele>
        <time>2021-09-13T08:01:49Z</time>
      </trkpt>
      <trkpt lat="46.46714" lon="0.46951">
        <ele>134.55012484547</ele>
        <time>2021-09-13T08:01:51Z</time>
      </trkpt>
      <trkpt lat="46.46713" lon="0.46954">
        <ele>134.32163913921</ele>
        <time>2021-09-13T08:01:53Z</time>
      </trkpt>
      <trkpt lat="46.46711" lon="0.46958">
        <ele>135.54929302633</ele>
        <time>2021-09-13T08:01:56Z</time>
      </trkpt>
      <trkpt lat="46.46709" lon="0.46961">
        <ele>134.95266784728</ele>
        <time>2021-09-13T08:01:58Z</time>
      </trkpt>
      <trkpt lat="46.46708" lon="0.46963">
        <ele>134.27988507692</ele>
        <time>2021-09-13T08:02:00Z</time>
      </trkpt>
      <trkpt lat="46.46706" lon="0.46965">
        <ele>134.51612882689</ele>
        <time>2021-09-13T08:02:02Z</time>
      </trkpt>
      <trkpt lat="46.46705" lon="0.46968">
        <ele>134.22106784489</ele>
        <time>2021-09-13T08:02:03Z</time>
      </trkpt>
      <trkpt lat="46.46703" lon="0.46971">
        <ele>135.00968197919</ele>
        <time>2021-09-13T08:02:05Z</time>
      </trkpt>
      <trkpt lat="46.46701" lon="0.46973">
        <ele>134.8121525012</ele>
        <time>2021-09-13T08:02:07Z</time>
      </trkpt>
      <trkpt lat="46.46699" lon="0.46975">
        <ele>134.39593048673</ele>
        <time>2021-09-13T08:02:09Z</time>
      </trkpt>
      <trkpt lat="46.46697" lon="0.46978">
        <ele>134.18663091585</ele>
        <time>2021-09-13T08:02:11Z</time>
      </trkpt>
      <trkpt lat="46.46695" lon="0.46981">
        <ele>135.23095933162</ele>
        <time>2021-09-13T08:02:13Z</time>
      </trkpt>
      <trkpt lat="46.46694" lon="0.46982">
        <ele>135.64508077409</ele>
        <time>2021-09-13T08:02:14Z</time>
      </trkpt>
      <trkpt lat="46.46691" lon="0.46985">
        <ele>134.78415774647</ele>
        <time>2021-09-13T08:02:16Z</time>
      </trkpt>
      <trkpt lat="46.46689" lon="0.46987">
        <ele>134.63645001408</ele>
        <time>2021-09-13T08:02:18Z</time>
      </trkpt>
      <trkpt lat="46.46687" lon="0.46988">
        <ele>134.83391250949</ele>
        <time>2021-09-13T08:02:20Z</time>
      </trkpt>
      <trkpt lat="46.46684" lon="0.4699">
        <ele>135.04571821354</ele>
        <time>2021-09-13T08:02:22Z</time>
      </trkpt>
      <trkpt lat="46.46682" lon="0.46991">
        <ele>133.99596723728</ele>
        <time>2021-09-13T08:02:24Z</time>
      </trkpt>
      <trkpt lat="46.46679" lon="0.46993">
        <ele>134.79550501797</ele>
        <time>2021-09-13T08:02:26Z</time>
      </trkpt>
      <trkpt lat="46.46676" lon="0.46993">
        <ele>134.72080192994</ele>
        <time>2021-09-13T08:02:28Z</time>
      </trkpt>
      <trkpt lat="46.46673" lon="0.46995">
        <ele>135.47927758936</ele>
        <time>2021-09-13T08:02:31Z</time>
      </trkpt>
      <trkpt lat="46.46671" lon="0.46996">
        <ele>134.63145858701</ele>
        <time>2021-09-13T08:02:33Z</time>
      </trkpt>
      <trkpt lat="46.46668" lon="0.46998">
        <ele>134.98102379683</ele>
        <time>2021-09-13T08:02:36Z</time>
      </trkpt>
      <trkpt lat="46.46666" lon="0.47">
        <ele>134.99903817847</ele>
        <time>2021-09-13T08:02:38Z</time>
      </trkpt>
      <trkpt lat="46.46663" lon="0.47001">
        <ele>134.48779568821</ele>
        <time>2021-09-13T08:02:41Z</time>
      </trkpt>
      <trkpt lat="46.46661" lon="0.47003">
        <ele>134.306162077</ele>
        <time>2021-09-13T08:02:43Z</time>
      </trkpt>
      <trkpt lat="46.46658" lon="0.47005">
        <ele>136.07269394863</ele>
        <time>2021-09-13T08:02:45Z</time>
      </trkpt>
      <trkpt lat="46.46656" lon="0.47006">
        <ele>134.35936129559</ele>
        <time>2021-09-13T08:02:47Z</time>
      </trkpt>
      <trkpt lat="46.46654" lon="0.47007">
        <ele>134.56206389703</ele>
        <time>2021-09-13T08:02:49Z</time>
      </trkpt>
      <trkpt lat="46.46651" lon="0.47009">
        <ele>134.31915388908</ele>
        <time>2021-09-13T08:02:51Z</time>
      </trkpt>
      <trkpt lat="46.46649" lon="0.4701">
        <ele>134.82017710432</ele>
        <time>2021-09-13T08:02:53Z</time>
      </trkpt>
      <trkpt lat="46.46647" lon="0.47012">
        <ele>134.83947714604</ele>
        <time>2021-09-13T08:02:55Z</time>
      </trkpt>
      <trkpt lat="46.46645" lon="0.47014">
        <ele>134.29752468783</ele>
        <time>2021-09-13T08:02:57Z</time>
      </trkpt>
      <trkpt lat="46.46643" lon="0.47017">
        <ele>135.48018043488</ele>
        <time>2021-09-13T08:02:59Z</time>
      </trkpt>
      <trkpt lat="46.46641" lon="0.4702">
        <ele>134.6986759454</ele>
        <time>2021-09-13T08:03:01Z</time>
      </trkpt>
      <trkpt lat="46.4664" lon="0.47023">
        <ele>134.43151853886</ele>
        <time>2021-09-13T08:03:03Z</time>
      </trkpt>
      <trkpt lat="46.46639" lon="0.47025">
        <ele>134.53209722415</ele>
        <time>2021-09-13T08:03:04Z</time>
      </trkpt>
      <trkpt lat="46.46638" lon="0.47028">
        <ele>134.86613021139</ele>
        <time>2021-09-13T08:03:06Z</time>
      </trkpt>
      <trkpt lat="46.46637" lon="0.47031">
        <ele>134.51260826178</ele>
        <time>2021-09-13T08:03:08Z</time>
      </trkpt>
      <trkpt lat="46.46636" lon="0.47034">
        <ele>134.53477932978</ele>
        <time>2021-09-13T08:03:10Z</time>
      </trkpt>
      <trkpt lat="46.46635" lon="0.47038">
        <ele>135.12354700733</ele>
        <time>2021-09-13T08:03:12Z</time>
      </trkpt>
      <trkpt lat="46.46634" lon="0.47041">
        <ele>134.7918890845</ele>
        <time>2021-09-13T08:03:14Z</time>
      </trkpt>
      <trkpt lat="46.46633" lon="0.47045">
        <ele>135.02455806453</ele>
        <time>2021-09-13T08:03:16Z</time>
      </trkpt>
      <trkpt lat="46.46632" lon="0.47047">
        <ele>134.7614432266</ele>
        <time>2021-09-13T08:03:18Z</time>
      </trkpt>
      <trkpt lat="46.46631" lon="0.4705">
        <ele>135.08867502958</ele>
        <time>2021-09-13T08:03:20Z</time>
      </trkpt>
      <trkpt lat="46.46629" lon="0.47053">
        <ele>134.96711800061</ele>
        <time>2021-09-13T08:03:22Z</time>
      </trkpt>
      <trkpt lat="46.46628" lon="0.47056">
        <ele>134.32921957783</ele>
        <time>2021-09-13T08:03:24Z</time>
      </trkpt>
      <trkpt lat="46.46627" lon="0.4706">
        <ele>134.99678357039</ele>
        <time>2021-09-13T08:03:26Z</time>
      </trkpt>
      <trkpt lat="46.46626" lon="0.47062">
        <ele>134.40323595796</ele>
        <time>2021-09-13T08:03:28Z</time>
      </trkpt>
      <trkpt lat="46.46625" lon="0.47064">
        <ele>134.16019930039</ele>
        <time>2021-09-13T08:03:30Z</time>
      </trkpt>
      <trkpt lat="46.46624" lon="0.47066">
        <ele>134.40495193005</ele>
        <time>2021-09-13T08:03:31Z</time>
      </trkpt>
      <trkpt lat="46.46621" lon="0.47069">
        <ele>134.20277794916</ele>
        <time>2021-09-13T08:03:33Z</time>
      </trkpt>
      <trkpt lat="46.4662" lon="0.4707">
        <ele>134.25168549921</ele>
        <time>2021-09-13T08:03:35Z</time>
      </trkpt>
      <trkpt lat="46.46619" lon="0.47074">
        <ele>134.4860320827</ele>
        <time>2021-09-13T08:03:37Z</time>
      </trkpt>
      <trkpt lat="46.46618" lon="0.47078">
        <ele>134.00417531002</ele>
        <time>2021-09-13T08:03:39Z</time>
      </trkpt>
      <trkpt lat="46.46617" lon="0.47081">
        <ele>134.52696082275</ele>
        <time>2021-09-13T08:03:42Z</time>
      </trkpt>
      <trkpt lat="46.46617" lon="0.47084">
        <ele>134.45584697835</ele>
        <time>2021-09-13T08:03:44Z</time>
      </trkpt>
      <trkpt lat="46.46616" lon="0.47087">
        <ele>134.34480845928</ele>
        <time>2021-09-13T08:03:46Z</time>
      </trkpt>
      <trkpt lat="46.46615" lon="0.47091">
        <ele>134.24784780201</ele>
        <time>2021-09-13T08:03:48Z</time>
      </trkpt>
      <trkpt lat="46.46615" lon="0.47094">
        <ele>133.3081243569</ele>
        <time>2021-09-13T08:03:50Z</time>
      </trkpt>
      <trkpt lat="46.46614" lon="0.47098">
        <ele>134.35196646489</ele>
        <time>2021-09-13T08:03:52Z</time>
      </trkpt>
      <trkpt lat="46.46613" lon="0.47101">
        <ele>133.19738590065</ele>
        <time>2021-09-13T08:03:54Z</time>
      </trkpt>
      <trkpt lat="46.46612" lon="0.47105">
        <ele>133.44656073395</ele>
        <time>2021-09-13T08:03:56Z</time>
      </trkpt>
      <trkpt lat="46.46611" lon="0.47108">
        <ele>133.77434644476</ele>
        <time>2021-09-13T08:03:58Z</time>
      </trkpt>
      <trkpt lat="46.4661" lon="0.47112">
        <ele>133.72632996179</ele>
        <time>2021-09-13T08:04:00Z</time>
      </trkpt>
      <trkpt lat="46.46609" lon="0.47116">
        <ele>133.35672276001</ele>
        <time>2021-09-13T08:04:02Z</time>
      </trkpt>
      <trkpt lat="46.46608" lon="0.47119">
        <ele>133.65229316894</ele>
        <time>2021-09-13T08:04:04Z</time>
      </trkpt>
      <trkpt lat="46.46607" lon="0.47122">
        <ele>133.64619281236</ele>
        <time>2021-09-13T08:04:06Z</time>
      </trkpt>
      <trkpt lat="46.46606" lon="0.47125">
        <ele>134.50498182792</ele>
        <time>2021-09-13T08:04:08Z</time>
      </trkpt>
      <trkpt lat="46.46606" lon="0.47128">
        <ele>133.03979598824</ele>
        <time>2021-09-13T08:04:10Z</time>
      </trkpt>
      <trkpt lat="46.46605" lon="0.47131">
        <ele>133.79708419647</ele>
        <time>2021-09-13T08:04:12Z</time>
      </trkpt>
      <trkpt lat="46.46604" lon="0.47134">
        <ele>133.15741832834</ele>
        <time>2021-09-13T08:04:14Z</time>
      </trkpt>
      <trkpt lat="46.46603" lon="0.47137">
        <ele>133.95086755604</ele>
        <time>2021-09-13T08:04:16Z</time>
      </trkpt>
      <trkpt lat="46.46602" lon="0.47139">
        <ele>134.31156529393</ele>
        <time>2021-09-13T08:04:17Z</time>
      </trkpt>
      <trkpt lat="46.466" lon="0.47141">
        <ele>133.73945573531</ele>
        <time>2021-09-13T08:04:19Z</time>
      </trkpt>
      <trkpt lat="46.46599" lon="0.47144">
        <ele>132.63443163503</ele>
        <time>2021-09-13T08:04:21Z</time>
      </trkpt>
      <trkpt lat="46.46598" lon="0.47147">
        <ele>133.50635609962</ele>
        <time>2021-09-13T08:04:23Z</time>
      </trkpt>
      <trkpt lat="46.46597" lon="0.47151">
        <ele>133.35278340429</ele>
        <time>2021-09-13T08:04:25Z</time>
      </trkpt>
      <trkpt lat="46.46596" lon="0.47154">
        <ele>132.84315104783</ele>
        <time>2021-09-13T08:04:27Z</time>
      </trkpt>
      <trkpt lat="46.46596" lon="0.47157">
        <ele>133.49231949076</ele>
        <time>2021-09-13T08:04:29Z</time>
      </trkpt>
      <trkpt lat="46.46595" lon="0.4716">
        <ele>134.07727571391</ele>
        <time>2021-09-13T08:04:31Z</time>
      </trkpt>
      <trkpt lat="46.46594" lon="0.47163">
        <ele>133.23927820101</ele>
        <time>2021-09-13T08:04:33Z</time>
      </trkpt>
      <trkpt lat="46.46593" lon="0.47168">
        <ele>133.24844473973</ele>
        <time>2021-09-13T08:04:35Z</time>
      </trkpt>
      <trkpt lat="46.46594" lon="0.47171">
        <ele>133.34437803458</ele>
        <time>2021-09-13T08:04:37Z</time>
      </trkpt>
      <trkpt lat="46.46596" lon="0.47173">
        <ele>133.20308373682</ele>
        <time>2021-09-13T08:04:39Z</time>
      </trkpt>
      <trkpt lat="46.46596" lon="0.47176">
        <ele>134.29378992319</ele>
        <time>2021-09-13T08:04:41Z</time>
      </trkpt>
      <trkpt lat="46.46597" lon="0.47179">
        <ele>133.15191673953</ele>
        <time>2021-09-13T08:04:43Z</time>
      </trkpt>
      <trkpt lat="46.46599" lon="0.47181">
        <ele>133.45353656169</ele>
        <time>2021-09-13T08:04:46Z</time>
      </trkpt>
      <trkpt lat="46.46601" lon="0.47184">
        <ele>133.18274039868</ele>
        <time>2021-09-13T08:04:48Z</time>
      </trkpt>
      <trkpt lat="46.46603" lon="0.47187">
        <ele>134.28386828117</ele>
        <time>2021-09-13T08:04:50Z</time>
      </trkpt>
      <trkpt lat="46.46603" lon="0.4719">
        <ele>134.53397077136</ele>
        <time>2021-09-13T08:04:51Z</time>
      </trkpt>
      <trkpt lat="46.46604" lon="0.47193">
        <ele>133.11493233684</ele>
        <time>2021-09-13T08:04:53Z</time>
      </trkpt>
      <trkpt lat="46.46605" lon="0.47197">
        <ele>133.44801805448</ele>
        <time>2021-09-13T08:04:55Z</time>
      </trkpt>
      <trkpt lat="46.46606" lon="0.472">
        <ele>132.90902109165</ele>
        <time>2021-09-13T08:04:58Z</time>
      </trkpt>
      <trkpt lat="46.46608" lon="0.47202">
        <ele>133.25409289636</ele>
        <time>2021-09-13T08:05:00Z</time>
      </trkpt>
      <trkpt lat="46.4661" lon="0.47205">
        <ele>133.57449962385</ele>
        <time>2021-09-13T08:05:02Z</time>
      </trkpt>
      <trkpt lat="46.46612" lon="0.4721">
        <ele>132.7226075707</ele>
        <time>2021-09-13T08:05:04Z</time>
      </trkpt>
      <trkpt lat="46.46614" lon="0.47213">
        <ele>132.60530643538</ele>
        <time>2021-09-13T08:05:06Z</time>
      </trkpt>
      <trkpt lat="46.46616" lon="0.47216">
        <ele>132.57060296182</ele>
        <time>2021-09-13T08:05:08Z</time>
      </trkpt>
      <trkpt lat="46.46618" lon="0.47219">
        <ele>133.36582056154</ele>
        <time>2021-09-13T08:05:09Z</time>
      </trkpt>
      <trkpt lat="46.46619" lon="0.47221">
        <ele>132.98324485775</ele>
        <time>2021-09-13T08:05:10Z</time>
      </trkpt>
      <trkpt lat="46.46621" lon="0.47224">
        <ele>132.63600563351</ele>
        <time>2021-09-13T08:05:12Z</time>
      </trkpt>
      <trkpt lat="46.46623" lon="0.47226">
        <ele>133.15066807996</ele>
        <time>2021-09-13T08:05:15Z</time>
      </trkpt>
      <trkpt lat="46.46624" lon="0.47229">
        <ele>132.31251276005</ele>
        <time>2021-09-13T08:05:17Z</time>
      </trkpt>
      <trkpt lat="46.46626" lon="0.47232">
        <ele>131.9929814022</ele>
        <time>2021-09-13T08:05:19Z</time>
      </trkpt>
      <trkpt lat="46.46627" lon="0.47236">
        <ele>132.67571990937</ele>
        <time>2021-09-13T08:05:21Z</time>
      </trkpt>
      <trkpt lat="46.46629" lon="0.47238">
        <ele>132.41151939426</ele>
        <time>2021-09-13T08:05:22Z</time>
      </trkpt>
      <trkpt lat="46.4663" lon="0.47241">
        <ele>132.56473143678</ele>
        <time>2021-09-13T08:05:25Z</time>
      </trkpt>
      <trkpt lat="46.46632" lon="0.47244">
        <ele>132.19348642137</ele>
        <time>2021-09-13T08:05:27Z</time>
      </trkpt>
      <trkpt lat="46.46632" lon="0.47247">
        <ele>132.22400639206</ele>
        <time>2021-09-13T08:05:29Z</time>
      </trkpt>
      <trkpt lat="46.46633" lon="0.4725">
        <ele>132.10243709479</ele>
        <time>2021-09-13T08:05:32Z</time>
      </trkpt>
      <trkpt lat="46.46634" lon="0.47253">
        <ele>132.37442094646</ele>
        <time>2021-09-13T08:05:34Z</time>
      </trkpt>
      <trkpt lat="46.46633" lon="0.4725">
        <ele>132.65177844837</ele>
        <time>2021-09-13T08:05:40Z</time>
      </trkpt>
      <trkpt lat="46.46631" lon="0.4725">
        <ele>132.45014198311</ele>
        <time>2021-09-13T08:05:44Z</time>
      </trkpt>
      <trkpt lat="46.46633" lon="0.47247">
        <ele>132.64311954938</ele>
        <time>2021-09-13T08:05:49Z</time>
      </trkpt>
      <trkpt lat="46.46633" lon="0.47244">
        <ele>132.91543137282</ele>
        <time>2021-09-13T08:05:51Z</time>
      </trkpt>
      <trkpt lat="46.46635" lon="0.4724">
        <ele>132.35388508346</ele>
        <time>2021-09-13T08:05:53Z</time>
      </trkpt>
      <trkpt lat="46.46637" lon="0.47238">
        <ele>132.32888991199</ele>
        <time>2021-09-13T08:05:55Z</time>
      </trkpt>
      <trkpt lat="46.4663" lon="0.47244">
        <ele>132.62869761139</ele>
        <time>2021-09-13T08:15:50Z</time>
      </trkpt>
      <trkpt lat="46.46631" lon="0.47246">
        <ele>132.96710409038</ele>
        <time>2021-09-13T08:16:04Z</time>
      </trkpt>
      <trkpt lat="46.46632" lon="0.47249">
        <ele>132.06885380857</ele>
        <time>2021-09-13T08:16:10Z</time>
      </trkpt>
      <trkpt lat="46.46633" lon="0.47252">
        <ele>132.73044404946</ele>
        <time>2021-09-13T08:16:13Z</time>
      </trkpt>
      <trkpt lat="46.46634" lon="0.47255">
        <ele>133.1435583327</ele>
        <time>2021-09-13T08:16:15Z</time>
      </trkpt>
      <trkpt lat="46.46636" lon="0.47257">
        <ele>132.59274761286</ele>
        <time>2021-09-13T08:16:17Z</time>
      </trkpt>
      <trkpt lat="46.46637" lon="0.47261">
        <ele>133.41509618331</ele>
        <time>2021-09-13T08:16:20Z</time>
      </trkpt>
      <trkpt lat="46.46639" lon="0.47263">
        <ele>132.92638539895</ele>
        <time>2021-09-13T08:16:21Z</time>
      </trkpt>
      <trkpt lat="46.4664" lon="0.47265">
        <ele>132.88859387953</ele>
        <time>2021-09-13T08:16:23Z</time>
      </trkpt>
      <trkpt lat="46.46642" lon="0.47268">
        <ele>132.51693847217</ele>
        <time>2021-09-13T08:16:25Z</time>
      </trkpt>
      <trkpt lat="46.46643" lon="0.47271">
        <ele>132.81377940532</ele>
        <time>2021-09-13T08:16:27Z</time>
      </trkpt>
      <trkpt lat="46.46644" lon="0.47273">
        <ele>132.60388098378</ele>
        <time>2021-09-13T08:16:29Z</time>
      </trkpt>
      <trkpt lat="46.46646" lon="0.47275">
        <ele>132.3759695543</ele>
        <time>2021-09-13T08:16:32Z</time>
      </trkpt>
      <trkpt lat="46.46648" lon="0.47278">
        <ele>132.22568590567</ele>
        <time>2021-09-13T08:16:34Z</time>
      </trkpt>
      <trkpt lat="46.46649" lon="0.47281">
        <ele>132.05857316591</ele>
        <time>2021-09-13T08:16:36Z</time>
      </trkpt>
      <trkpt lat="46.4665" lon="0.47283">
        <ele>132.09910745267</ele>
        <time>2021-09-13T08:16:38Z</time>
      </trkpt>
      <trkpt lat="46.46652" lon="0.47286">
        <ele>132.07437564991</ele>
        <time>2021-09-13T08:16:40Z</time>
      </trkpt>
      <trkpt lat="46.46654" lon="0.47288">
        <ele>131.72167808842</ele>
        <time>2021-09-13T08:16:53Z</time>
      </trkpt>
      <trkpt lat="46.46655" lon="0.47292">
        <ele>131.91350870859</ele>
        <time>2021-09-13T08:16:55Z</time>
      </trkpt>
      <trkpt lat="46.46656" lon="0.47294">
        <ele>131.59355893359</ele>
        <time>2021-09-13T08:16:57Z</time>
      </trkpt>
      <trkpt lat="46.46658" lon="0.47297">
        <ele>131.40155209042</ele>
        <time>2021-09-13T08:16:59Z</time>
      </trkpt>
      <trkpt lat="46.46659" lon="0.47299">
        <ele>131.70315069612</ele>
        <time>2021-09-13T08:17:01Z</time>
      </trkpt>
      <trkpt lat="46.46661" lon="0.47301">
        <ele>131.26468254067</ele>
        <time>2021-09-13T08:17:03Z</time>
      </trkpt>
      <trkpt lat="46.46662" lon="0.47304">
        <ele>131.0963698402</ele>
        <time>2021-09-13T08:17:05Z</time>
      </trkpt>
      <trkpt lat="46.46663" lon="0.47308">
        <ele>131.05167444889</ele>
        <time>2021-09-13T08:17:08Z</time>
      </trkpt>
      <trkpt lat="46.46666" lon="0.47313">
        <ele>130.97582319751</ele>
        <time>2021-09-13T08:17:10Z</time>
      </trkpt>
      <trkpt lat="46.46667" lon="0.47316">
        <ele>131.33880951814</ele>
        <time>2021-09-13T08:17:12Z</time>
      </trkpt>
      <trkpt lat="46.46669" lon="0.47318">
        <ele>132.32488695066</ele>
        <time>2021-09-13T08:17:14Z</time>
      </trkpt>
      <trkpt lat="46.46671" lon="0.47321">
        <ele>131.79720241856</ele>
        <time>2021-09-13T08:17:16Z</time>
      </trkpt>
      <trkpt lat="46.46673" lon="0.47324">
        <ele>130.84395078942</ele>
        <time>2021-09-13T08:17:18Z</time>
      </trkpt>
      <trkpt lat="46.46675" lon="0.47327">
        <ele>130.95515646879</ele>
        <time>2021-09-13T08:17:20Z</time>
      </trkpt>
      <trkpt lat="46.46676" lon="0.47329">
        <ele>131.37180549279</ele>
        <time>2021-09-13T08:17:22Z</time>
      </trkpt>
      <trkpt lat="46.46678" lon="0.47331">
        <ele>130.75960328989</ele>
        <time>2021-09-13T08:17:24Z</time>
      </trkpt>
      <trkpt lat="46.4668" lon="0.47334">
        <ele>130.49525129981</ele>
        <time>2021-09-13T08:17:26Z</time>
      </trkpt>
      <trkpt lat="46.46681" lon="0.47337">
        <ele>130.30349669699</ele>
        <time>2021-09-13T08:17:28Z</time>
      </trkpt>
      <trkpt lat="46.46683" lon="0.47339">
        <ele>131.80169109069</ele>
        <time>2021-09-13T08:17:30Z</time>
      </trkpt>
      <trkpt lat="46.46685" lon="0.47342">
        <ele>130.60751887783</ele>
        <time>2021-09-13T08:17:32Z</time>
      </trkpt>
      <trkpt lat="46.46686" lon="0.47343">
        <ele>130.545626387</ele>
        <time>2021-09-13T08:17:33Z</time>
      </trkpt>
      <trkpt lat="46.46689" lon="0.47346">
        <ele>130.92091421504</ele>
        <time>2021-09-13T08:17:36Z</time>
      </trkpt>
      <trkpt lat="46.46691" lon="0.47349">
        <ele>130.59689128026</ele>
        <time>2021-09-13T08:17:38Z</time>
      </trkpt>
      <trkpt lat="46.46692" lon="0.47351">
        <ele>130.28040524572</ele>
        <time>2021-09-13T08:17:40Z</time>
      </trkpt>
      <trkpt lat="46.46693" lon="0.47354">
        <ele>130.34037476406</ele>
        <time>2021-09-13T08:17:42Z</time>
      </trkpt>
      <trkpt lat="46.46695" lon="0.47357">
        <ele>130.74686471932</ele>
        <time>2021-09-13T08:17:44Z</time>
      </trkpt>
      <trkpt lat="46.46697" lon="0.4736">
        <ele>130.3232596172</ele>
        <time>2021-09-13T08:17:47Z</time>
      </trkpt>
      <trkpt lat="46.46699" lon="0.47363">
        <ele>130.47516379133</ele>
        <time>2021-09-13T08:17:49Z</time>
      </trkpt>
      <trkpt lat="46.467" lon="0.47365">
        <ele>129.97746098973</ele>
        <time>2021-09-13T08:17:51Z</time>
      </trkpt>
      <trkpt lat="46.46702" lon="0.47367">
        <ele>130.40729502402</ele>
        <time>2021-09-13T08:17:53Z</time>
      </trkpt>
      <trkpt lat="46.46703" lon="0.47371">
        <ele>130.52269869577</ele>
        <time>2021-09-13T08:17:55Z</time>
      </trkpt>
      <trkpt lat="46.46705" lon="0.47374">
        <ele>130.24049305357</ele>
        <time>2021-09-13T08:17:57Z</time>
      </trkpt>
      <trkpt lat="46.46707" lon="0.47377">
        <ele>130.79394686967</ele>
        <time>2021-09-13T08:17:59Z</time>
      </trkpt>
      <trkpt lat="46.46709" lon="0.47379">
        <ele>130.31339652278</ele>
        <time>2021-09-13T08:18:01Z</time>
      </trkpt>
      <trkpt lat="46.46711" lon="0.47382">
        <ele>130.11226554587</ele>
        <time>2021-09-13T08:18:03Z</time>
      </trkpt>
      <trkpt lat="46.46712" lon="0.47385">
        <ele>131.24959568493</ele>
        <time>2021-09-13T08:18:05Z</time>
      </trkpt>
      <trkpt lat="46.46714" lon="0.47386">
        <ele>129.92532067187</ele>
        <time>2021-09-13T08:18:07Z</time>
      </trkpt>
      <trkpt lat="46.46716" lon="0.47387">
        <ele>129.84099205583</ele>
        <time>2021-09-13T08:18:09Z</time>
      </trkpt>
      <trkpt lat="46.46718" lon="0.4739">
        <ele>130.31848937459</ele>
        <time>2021-09-13T08:18:11Z</time>
      </trkpt>
      <trkpt lat="46.4672" lon="0.47394">
        <ele>130.0899709519</ele>
        <time>2021-09-13T08:18:13Z</time>
      </trkpt>
      <trkpt lat="46.46722" lon="0.47396">
        <ele>129.34566310979</ele>
        <time>2021-09-13T08:18:16Z</time>
      </trkpt>
      <trkpt lat="46.46724" lon="0.474">
        <ele>129.25985140819</ele>
        <time>2021-09-13T08:18:18Z</time>
      </trkpt>
      <trkpt lat="46.46726" lon="0.47403">
        <ele>128.76822550129</ele>
        <time>2021-09-13T08:18:20Z</time>
      </trkpt>
      <trkpt lat="46.46727" lon="0.47406">
        <ele>130.28745548986</ele>
        <time>2021-09-13T08:18:22Z</time>
      </trkpt>
      <trkpt lat="46.46728" lon="0.47409">
        <ele>128.93171077222</ele>
        <time>2021-09-13T08:18:24Z</time>
      </trkpt>
      <trkpt lat="46.4673" lon="0.47411">
        <ele>128.93481003027</ele>
        <time>2021-09-13T08:18:26Z</time>
      </trkpt>
      <trkpt lat="46.46731" lon="0.47413">
        <ele>129.21062539238</ele>
        <time>2021-09-13T08:18:27Z</time>
      </trkpt>
      <trkpt lat="46.46733" lon="0.47415">
        <ele>129.2261064304</ele>
        <time>2021-09-13T08:18:29Z</time>
      </trkpt>
      <trkpt lat="46.46735" lon="0.47419">
        <ele>128.93345344625</ele>
        <time>2021-09-13T08:18:31Z</time>
      </trkpt>
      <trkpt lat="46.46737" lon="0.47422">
        <ele>129.11806926038</ele>
        <time>2021-09-13T08:18:33Z</time>
      </trkpt>
      <trkpt lat="46.46739" lon="0.47425">
        <ele>129.91393574979</ele>
        <time>2021-09-13T08:18:36Z</time>
      </trkpt>
      <trkpt lat="46.46741" lon="0.47427">
        <ele>129.62124181911</ele>
        <time>2021-09-13T08:18:39Z</time>
      </trkpt>
      <trkpt lat="46.46743" lon="0.47431">
        <ele>129.84347699955</ele>
        <time>2021-09-13T08:18:41Z</time>
      </trkpt>
      <trkpt lat="46.46745" lon="0.47433">
        <ele>129.66794490814</ele>
        <time>2021-09-13T08:18:43Z</time>
      </trkpt>
      <trkpt lat="46.46747" lon="0.47435">
        <ele>128.85690467525</ele>
        <time>2021-09-13T08:18:45Z</time>
      </trkpt>
      <trkpt lat="46.46748" lon="0.47437">
        <ele>129.3135642577</ele>
        <time>2021-09-13T08:18:47Z</time>
      </trkpt>
      <trkpt lat="46.4675" lon="0.4744">
        <ele>129.45137844607</ele>
        <time>2021-09-13T08:18:49Z</time>
      </trkpt>
      <trkpt lat="46.46752" lon="0.47441">
        <ele>129.10248493217</ele>
        <time>2021-09-13T08:18:52Z</time>
      </trkpt>
      <trkpt lat="46.46753" lon="0.47444">
        <ele>129.45292554237</ele>
        <time>2021-09-13T08:18:53Z</time>
      </trkpt>
      <trkpt lat="46.46754" lon="0.47446">
        <ele>129.63132491708</ele>
        <time>2021-09-13T08:18:55Z</time>
      </trkpt>
      <trkpt lat="46.46756" lon="0.47448">
        <ele>129.26332243439</ele>
        <time>2021-09-13T08:18:57Z</time>
      </trkpt>
      <trkpt lat="46.46758" lon="0.4745">
        <ele>128.92513583694</ele>
        <time>2021-09-13T08:18:59Z</time>
      </trkpt>
      <trkpt lat="46.46761" lon="0.47453">
        <ele>129.26287915558</ele>
        <time>2021-09-13T08:19:01Z</time>
      </trkpt>
      <trkpt lat="46.46762" lon="0.47455">
        <ele>128.72732381523</ele>
        <time>2021-09-13T08:19:03Z</time>
      </trkpt>
      <trkpt lat="46.46764" lon="0.47457">
        <ele>130.08385405689</ele>
        <time>2021-09-13T08:19:05Z</time>
      </trkpt>
      <trkpt lat="46.46765" lon="0.47459">
        <ele>129.15964318067</ele>
        <time>2021-09-13T08:19:07Z</time>
      </trkpt>
      <trkpt lat="46.46767" lon="0.47463">
        <ele>128.96385762654</ele>
        <time>2021-09-13T08:19:09Z</time>
      </trkpt>
      <trkpt lat="46.46769" lon="0.47464">
        <ele>128.74281325471</ele>
        <time>2021-09-13T08:19:11Z</time>
      </trkpt>
      <trkpt lat="46.46771" lon="0.47468">
        <ele>129.61938640848</ele>
        <time>2021-09-13T08:19:14Z</time>
      </trkpt>
      <trkpt lat="46.46773" lon="0.4747">
        <ele>128.37516472582</ele>
        <time>2021-09-13T08:19:16Z</time>
      </trkpt>
      <trkpt lat="46.46773" lon="0.47473">
        <ele>128.1063796822</ele>
        <time>2021-09-13T08:19:18Z</time>
      </trkpt>
      <trkpt lat="46.46774" lon="0.47475">
        <ele>128.71230042074</ele>
        <time>2021-09-13T08:19:20Z</time>
      </trkpt>
      <trkpt lat="46.46776" lon="0.47478">
        <ele>128.26482094638</ele>
        <time>2021-09-13T08:19:22Z</time>
      </trkpt>
      <trkpt lat="46.46777" lon="0.47481">
        <ele>128.98145711701</ele>
        <time>2021-09-13T08:19:24Z</time>
      </trkpt>
      <trkpt lat="46.46777" lon="0.47484">
        <ele>127.82154265139</ele>
        <time>2021-09-13T08:19:27Z</time>
      </trkpt>
      <trkpt lat="46.46777" lon="0.47487">
        <ele>128.23450563662</ele>
        <time>2021-09-13T08:19:33Z</time>
      </trkpt>
      <trkpt lat="46.46777" lon="0.4749">
        <ele>129.01974813268</ele>
        <time>2021-09-13T08:19:35Z</time>
      </trkpt>
      <trkpt lat="46.46777" lon="0.47494">
        <ele>128.00083502661</ele>
        <time>2021-09-13T08:19:37Z</time>
      </trkpt>
      <trkpt lat="46.46776" lon="0.47497">
        <ele>129.3923265608</ele>
        <time>2021-09-13T08:19:39Z</time>
      </trkpt>
      <trkpt lat="46.46777" lon="0.475">
        <ele>128.47439502086</ele>
        <time>2021-09-13T08:19:42Z</time>
      </trkpt>
      <trkpt lat="46.46777" lon="0.47505">
        <ele>128.46340792719</ele>
        <time>2021-09-13T08:19:45Z</time>
      </trkpt>
      <trkpt lat="46.46777" lon="0.47507">
        <ele>127.78859677259</ele>
        <time>2021-09-13T08:19:47Z</time>
      </trkpt>
      <trkpt lat="46.46776" lon="0.4751">
        <ele>128.63545544352</ele>
        <time>2021-09-13T08:19:49Z</time>
      </trkpt>
      <trkpt lat="46.46776" lon="0.47513">
        <ele>128.14426501468</ele>
        <time>2021-09-13T08:19:51Z</time>
      </trkpt>
      <trkpt lat="46.46775" lon="0.47517">
        <ele>127.57041512802</ele>
        <time>2021-09-13T08:19:53Z</time>
      </trkpt>
      <trkpt lat="46.46775" lon="0.47521">
        <ele>127.8077122299</ele>
        <time>2021-09-13T08:19:55Z</time>
      </trkpt>
      <trkpt lat="46.46774" lon="0.47524">
        <ele>127.63130291644</ele>
        <time>2021-09-13T08:19:57Z</time>
      </trkpt>
      <trkpt lat="46.46774" lon="0.47528">
        <ele>128.34697246179</ele>
        <time>2021-09-13T08:19:59Z</time>
      </trkpt>
      <trkpt lat="46.46773" lon="0.47531">
        <ele>128.38992268033</ele>
        <time>2021-09-13T08:20:00Z</time>
      </trkpt>
      <trkpt lat="46.46773" lon="0.47535">
        <ele>127.52591716591</ele>
        <time>2021-09-13T08:20:03Z</time>
      </trkpt>
      <trkpt lat="46.46773" lon="0.47539">
        <ele>127.35345752258</ele>
        <time>2021-09-13T08:20:05Z</time>
      </trkpt>
      <trkpt lat="46.46772" lon="0.47541">
        <ele>127.72608318739</ele>
        <time>2021-09-13T08:20:07Z</time>
      </trkpt>
      <trkpt lat="46.46771" lon="0.47545">
        <ele>127.75544215553</ele>
        <time>2021-09-13T08:20:09Z</time>
      </trkpt>
      <trkpt lat="46.46772" lon="0.47549">
        <ele>127.59173656907</ele>
        <time>2021-09-13T08:20:11Z</time>
      </trkpt>
      <trkpt lat="46.46771" lon="0.47552">
        <ele>127.60459483787</ele>
        <time>2021-09-13T08:20:13Z</time>
      </trkpt>
      <trkpt lat="46.46771" lon="0.47556">
        <ele>128.32763568312</ele>
        <time>2021-09-13T08:20:14Z</time>
      </trkpt>
      <trkpt lat="46.46771" lon="0.47561">
        <ele>127.12078460399</ele>
        <time>2021-09-13T08:20:17Z</time>
      </trkpt>
      <trkpt lat="46.46771" lon="0.47565">
        <ele>127.62550963927</ele>
        <time>2021-09-13T08:20:19Z</time>
      </trkpt>
      <trkpt lat="46.46771" lon="0.47568">
        <ele>126.56338965148</ele>
        <time>2021-09-13T08:20:21Z</time>
      </trkpt>
      <trkpt lat="46.4677" lon="0.47571">
        <ele>127.41934152693</ele>
        <time>2021-09-13T08:20:23Z</time>
      </trkpt>
      <trkpt lat="46.4677" lon="0.47576">
        <ele>126.72910438385</ele>
        <time>2021-09-13T08:20:25Z</time>
      </trkpt>
      <trkpt lat="46.4677" lon="0.47579">
        <ele>127.00166659057</ele>
        <time>2021-09-13T08:20:26Z</time>
      </trkpt>
      <trkpt lat="46.4677" lon="0.47581">
        <ele>126.4295267351</ele>
        <time>2021-09-13T08:20:28Z</time>
      </trkpt>
      <trkpt lat="46.46769" lon="0.47584">
        <ele>126.2834714381</ele>
        <time>2021-09-13T08:20:30Z</time>
      </trkpt>
      <trkpt lat="46.46769" lon="0.47588">
        <ele>127.55466134381</ele>
        <time>2021-09-13T08:20:32Z</time>
      </trkpt>
      <trkpt lat="46.4677" lon="0.47591">
        <ele>126.39597608894</ele>
        <time>2021-09-13T08:20:34Z</time>
      </trkpt>
      <trkpt lat="46.4677" lon="0.47594">
        <ele>126.4131146986</ele>
        <time>2021-09-13T08:20:36Z</time>
      </trkpt>
      <trkpt lat="46.4677" lon="0.47597">
        <ele>126.91818692535</ele>
        <time>2021-09-13T08:20:38Z</time>
      </trkpt>
      <trkpt lat="46.46771" lon="0.47602">
        <ele>126.79517278261</ele>
        <time>2021-09-13T08:20:40Z</time>
      </trkpt>
      <trkpt lat="46.46771" lon="0.47604">
        <ele>126.18288162351</ele>
        <time>2021-09-13T08:20:41Z</time>
      </trkpt>
      <trkpt lat="46.4677" lon="0.47608">
        <ele>126.88536490593</ele>
        <time>2021-09-13T08:20:43Z</time>
      </trkpt>
      <trkpt lat="46.4677" lon="0.47613">
        <ele>126.13638310973</ele>
        <time>2021-09-13T08:20:46Z</time>
      </trkpt>
      <trkpt lat="46.4677" lon="0.47616">
        <ele>126.94090401847</ele>
        <time>2021-09-13T08:20:48Z</time>
      </trkpt>
      <trkpt lat="46.46769" lon="0.4762">
        <ele>126.01352664921</ele>
        <time>2021-09-13T08:20:51Z</time>
      </trkpt>
      <trkpt lat="46.46769" lon="0.47624">
        <ele>126.61696289293</ele>
        <time>2021-09-13T08:20:53Z</time>
      </trkpt>
      <trkpt lat="46.46769" lon="0.47627">
        <ele>126.29543468449</ele>
        <time>2021-09-13T08:20:55Z</time>
      </trkpt>
      <trkpt lat="46.46769" lon="0.47631">
        <ele>125.51868292876</ele>
        <time>2021-09-13T08:20:57Z</time>
      </trkpt>
      <trkpt lat="46.46768" lon="0.47634">
        <ele>125.22571537551</ele>
        <time>2021-09-13T08:20:59Z</time>
      </trkpt>
      <trkpt lat="46.46767" lon="0.47637">
        <ele>126.32093180623</ele>
        <time>2021-09-13T08:21:00Z</time>
      </trkpt>
      <trkpt lat="46.46766" lon="0.4764">
        <ele>126.54028100986</ele>
        <time>2021-09-13T08:21:01Z</time>
      </trkpt>
      <trkpt lat="46.46766" lon="0.47643">
        <ele>125.24772748258</ele>
        <time>2021-09-13T08:21:03Z</time>
      </trkpt>
      <trkpt lat="46.46766" lon="0.47645">
        <ele>124.88588233385</ele>
        <time>2021-09-13T08:21:05Z</time>
      </trkpt>
      <trkpt lat="46.46765" lon="0.4765">
        <ele>125.6361846095</ele>
        <time>2021-09-13T08:21:07Z</time>
      </trkpt>
      <trkpt lat="46.46764" lon="0.47653">
        <ele>125.66318999231</ele>
        <time>2021-09-13T08:21:09Z</time>
      </trkpt>
      <trkpt lat="46.46764" lon="0.47656">
        <ele>125.23594839498</ele>
        <time>2021-09-13T08:21:11Z</time>
      </trkpt>
      <trkpt lat="46.46763" lon="0.47658">
        <ele>125.38453510031</ele>
        <time>2021-09-13T08:21:13Z</time>
      </trkpt>
      <trkpt lat="46.46761" lon="0.47663">
        <ele>126.09783411585</ele>
        <time>2021-09-13T08:21:15Z</time>
      </trkpt>
      <trkpt lat="46.4676" lon="0.47667">
        <ele>125.48428272828</ele>
        <time>2021-09-13T08:21:17Z</time>
      </trkpt>
      <trkpt lat="46.46759" lon="0.47669">
        <ele>125.33300516102</ele>
        <time>2021-09-13T08:21:20Z</time>
      </trkpt>
      <trkpt lat="46.46758" lon="0.47673">
        <ele>125.62906309776</ele>
        <time>2021-09-13T08:21:22Z</time>
      </trkpt>
      <trkpt lat="46.46756" lon="0.47676">
        <ele>125.30754363257</ele>
        <time>2021-09-13T08:21:24Z</time>
      </trkpt>
      <trkpt lat="46.46755" lon="0.4768">
        <ele>125.11061170138</ele>
        <time>2021-09-13T08:21:26Z</time>
      </trkpt>
      <trkpt lat="46.46754" lon="0.47684">
        <ele>126.30830150191</ele>
        <time>2021-09-13T08:21:28Z</time>
      </trkpt>
      <trkpt lat="46.46753" lon="0.47686">
        <ele>125.28339637723</ele>
        <time>2021-09-13T08:21:30Z</time>
      </trkpt>
      <trkpt lat="46.46752" lon="0.47689">
        <ele>125.19475245103</ele>
        <time>2021-09-13T08:21:32Z</time>
      </trkpt>
      <trkpt lat="46.46751" lon="0.47692">
        <ele>125.83225571271</ele>
        <time>2021-09-13T08:21:34Z</time>
      </trkpt>
      <trkpt lat="46.4675" lon="0.47695">
        <ele>125.73866936658</ele>
        <time>2021-09-13T08:21:36Z</time>
      </trkpt>
      <trkpt lat="46.46749" lon="0.47697">
        <ele>126.14994179737</ele>
        <time>2021-09-13T08:21:37Z</time>
      </trkpt>
      <trkpt lat="46.46747" lon="0.47701">
        <ele>124.56984900869</ele>
        <time>2021-09-13T08:21:40Z</time>
      </trkpt>
      <trkpt lat="46.46745" lon="0.47704">
        <ele>124.91181730852</ele>
        <time>2021-09-13T08:21:42Z</time>
      </trkpt>
      <trkpt lat="46.46744" lon="0.47707">
        <ele>125.75587907154</ele>
        <time>2021-09-13T08:21:45Z</time>
      </trkpt>
      <trkpt lat="46.46742" lon="0.4771">
        <ele>125.61031349469</ele>
        <time>2021-09-13T08:21:48Z</time>
      </trkpt>
      <trkpt lat="46.4674" lon="0.47714">
        <ele>125.171431127</ele>
        <time>2021-09-13T08:21:50Z</time>
      </trkpt>
      <trkpt lat="46.46739" lon="0.47716">
        <ele>125.58019986935</ele>
        <time>2021-09-13T08:21:52Z</time>
      </trkpt>
      <trkpt lat="46.46738" lon="0.47719">
        <ele>125.15433759801</ele>
        <time>2021-09-13T08:21:54Z</time>
      </trkpt>
      <trkpt lat="46.46736" lon="0.47721">
        <ele>124.83812360372</ele>
        <time>2021-09-13T08:21:56Z</time>
      </trkpt>
      <trkpt lat="46.46734" lon="0.47723">
        <ele>127.02331025898</ele>
        <time>2021-09-13T08:21:58Z</time>
      </trkpt>
      <trkpt lat="46.46732" lon="0.47726">
        <ele>125.3121411046</ele>
        <time>2021-09-13T08:22:00Z</time>
      </trkpt>
      <trkpt lat="46.4673" lon="0.47729">
        <ele>125.30072767008</ele>
        <time>2021-09-13T08:22:02Z</time>
      </trkpt>
      <trkpt lat="46.46728" lon="0.47733">
        <ele>125.48854491767</ele>
        <time>2021-09-13T08:22:04Z</time>
      </trkpt>
      <trkpt lat="46.46726" lon="0.47735">
        <ele>125.99479820952</ele>
        <time>2021-09-13T08:22:06Z</time>
      </trkpt>
      <trkpt lat="46.46724" lon="0.47738">
        <ele>125.2351745544</ele>
        <time>2021-09-13T08:22:08Z</time>
      </trkpt>
      <trkpt lat="46.46722" lon="0.47739">
        <ele>125.30535171647</ele>
        <time>2021-09-13T08:22:10Z</time>
      </trkpt>
      <trkpt lat="46.4672" lon="0.47742">
        <ele>126.4314576285</ele>
        <time>2021-09-13T08:22:12Z</time>
      </trkpt>
      <trkpt lat="46.46718" lon="0.47744">
        <ele>125.11989658512</ele>
        <time>2021-09-13T08:22:14Z</time>
      </trkpt>
      <trkpt lat="46.46717" lon="0.47748">
        <ele>125.41460234299</ele>
        <time>2021-09-13T08:22:16Z</time>
      </trkpt>
      <trkpt lat="46.46715" lon="0.4775">
        <ele>126.08995247353</ele>
        <time>2021-09-13T08:22:18Z</time>
      </trkpt>
      <trkpt lat="46.46715" lon="0.47753">
        <ele>125.32232986111</ele>
        <time>2021-09-13T08:22:19Z</time>
      </trkpt>
      <trkpt lat="46.46713" lon="0.47756">
        <ele>125.03947724402</ele>
        <time>2021-09-13T08:22:23Z</time>
      </trkpt>
      <trkpt lat="46.46712" lon="0.47758">
        <ele>125.13062905427</ele>
        <time>2021-09-13T08:22:24Z</time>
      </trkpt>
      <trkpt lat="46.46711" lon="0.4776">
        <ele>125.34570237994</ele>
        <time>2021-09-13T08:22:26Z</time>
      </trkpt>
      <trkpt lat="46.4671" lon="0.47763">
        <ele>125.69537204038</ele>
        <time>2021-09-13T08:22:28Z</time>
      </trkpt>
      <trkpt lat="46.46709" lon="0.47765">
        <ele>125.48810604773</ele>
        <time>2021-09-13T08:22:30Z</time>
      </trkpt>
      <trkpt lat="46.46708" lon="0.47768">
        <ele>125.35159156658</ele>
        <time>2021-09-13T08:22:32Z</time>
      </trkpt>
      <trkpt lat="46.46707" lon="0.47772">
        <ele>124.83261796553</ele>
        <time>2021-09-13T08:22:34Z</time>
      </trkpt>
      <trkpt lat="46.46706" lon="0.47775">
        <ele>124.69686105289</ele>
        <time>2021-09-13T08:22:36Z</time>
      </trkpt>
      <trkpt lat="46.46706" lon="0.47778">
        <ele>125.25933033507</ele>
        <time>2021-09-13T08:22:38Z</time>
      </trkpt>
      <trkpt lat="46.46706" lon="0.47783">
        <ele>124.90452437289</ele>
        <time>2021-09-13T08:22:40Z</time>
      </trkpt>
      <trkpt lat="46.46705" lon="0.47785">
        <ele>125.30844542198</ele>
        <time>2021-09-13T08:22:42Z</time>
      </trkpt>
      <trkpt lat="46.46705" lon="0.47789">
        <ele>124.4412335353</ele>
        <time>2021-09-13T08:22:44Z</time>
      </trkpt>
      <trkpt lat="46.46706" lon="0.47792">
        <ele>124.5867743222</ele>
        <time>2021-09-13T08:22:46Z</time>
      </trkpt>
      <trkpt lat="46.46705" lon="0.47795">
        <ele>125.55152982846</ele>
        <time>2021-09-13T08:22:48Z</time>
      </trkpt>
      <trkpt lat="46.46705" lon="0.47799">
        <ele>124.82771501224</ele>
        <time>2021-09-13T08:22:50Z</time>
      </trkpt>
      <trkpt lat="46.46704" lon="0.47802">
        <ele>124.91577665973</ele>
        <time>2021-09-13T08:22:52Z</time>
      </trkpt>
      <trkpt lat="46.46704" lon="0.47806">
        <ele>125.07538948208</ele>
        <time>2021-09-13T08:22:55Z</time>
      </trkpt>
      <trkpt lat="46.46704" lon="0.4781">
        <ele>124.86805616878</ele>
        <time>2021-09-13T08:22:57Z</time>
      </trkpt>
      <trkpt lat="46.46703" lon="0.47814">
        <ele>124.22311555315</ele>
        <time>2021-09-13T08:22:59Z</time>
      </trkpt>
      <trkpt lat="46.46701" lon="0.47818">
        <ele>125.39626021776</ele>
        <time>2021-09-13T08:23:01Z</time>
      </trkpt>
      <trkpt lat="46.467" lon="0.4782">
        <ele>124.79553681146</ele>
        <time>2021-09-13T08:23:02Z</time>
      </trkpt>
      <trkpt lat="46.46699" lon="0.47823">
        <ele>124.18317204062</ele>
        <time>2021-09-13T08:23:03Z</time>
      </trkpt>
      <trkpt lat="46.46697" lon="0.47826">
        <ele>124.08857973665</ele>
        <time>2021-09-13T08:23:05Z</time>
      </trkpt>
      <trkpt lat="46.46697" lon="0.47828">
        <ele>124.58851930965</ele>
        <time>2021-09-13T08:23:07Z</time>
      </trkpt>
      <trkpt lat="46.46696" lon="0.47832">
        <ele>124.11904665828</ele>
        <time>2021-09-13T08:23:10Z</time>
      </trkpt>
      <trkpt lat="46.46695" lon="0.47835">
        <ele>125.26869015954</ele>
        <time>2021-09-13T08:23:12Z</time>
      </trkpt>
      <trkpt lat="46.46695" lon="0.4784">
        <ele>124.06772765703</ele>
        <time>2021-09-13T08:23:15Z</time>
      </trkpt>
      <trkpt lat="46.46694" lon="0.47845">
        <ele>124.28264584299</ele>
        <time>2021-09-13T08:23:17Z</time>
      </trkpt>
      <trkpt lat="46.46694" lon="0.47849">
        <ele>125.31543994043</ele>
        <time>2021-09-13T08:23:19Z</time>
      </trkpt>
      <trkpt lat="46.46694" lon="0.47853">
        <ele>123.99231344741</ele>
        <time>2021-09-13T08:23:21Z</time>
      </trkpt>
      <trkpt lat="46.46694" lon="0.47856">
        <ele>124.40803089365</ele>
        <time>2021-09-13T08:23:23Z</time>
      </trkpt>
      <trkpt lat="46.46695" lon="0.47861">
        <ele>123.6671519652</ele>
        <time>2021-09-13T08:23:25Z</time>
      </trkpt>
      <trkpt lat="46.46696" lon="0.47865">
        <ele>125.76639026497</ele>
        <time>2021-09-13T08:23:27Z</time>
      </trkpt>
      <trkpt lat="46.46697" lon="0.47868">
        <ele>124.16387424432</ele>
        <time>2021-09-13T08:23:29Z</time>
      </trkpt>
      <trkpt lat="46.46697" lon="0.47871">
        <ele>124.34039192367</ele>
        <time>2021-09-13T08:23:31Z</time>
      </trkpt>
      <trkpt lat="46.46698" lon="0.47874">
        <ele>124.67450473644</ele>
        <time>2021-09-13T08:23:33Z</time>
      </trkpt>
      <trkpt lat="46.46699" lon="0.47876">
        <ele>124.37078491319</ele>
        <time>2021-09-13T08:23:36Z</time>
      </trkpt>
      <trkpt lat="46.467" lon="0.47879">
        <ele>125.56873567682</ele>
        <time>2021-09-13T08:23:37Z</time>
      </trkpt>
      <trkpt lat="46.46701" lon="0.47881">
        <ele>124.31264855806</ele>
        <time>2021-09-13T08:23:39Z</time>
      </trkpt>
      <trkpt lat="46.46703" lon="0.47885">
        <ele>124.6909419205</ele>
        <time>2021-09-13T08:23:41Z</time>
      </trkpt>
      <trkpt lat="46.46703" lon="0.47888">
        <ele>124.64338594954</ele>
        <time>2021-09-13T08:23:44Z</time>
      </trkpt>
      <trkpt lat="46.46703" lon="0.47892">
        <ele>123.95010832138</ele>
        <time>2021-09-13T08:23:46Z</time>
      </trkpt>
      <trkpt lat="46.46702" lon="0.47896">
        <ele>123.45484229457</ele>
        <time>2021-09-13T08:23:48Z</time>
      </trkpt>
      <trkpt lat="46.46702" lon="0.479">
        <ele>124.87241963111</ele>
        <time>2021-09-13T08:23:51Z</time>
      </trkpt>
      <trkpt lat="46.46702" lon="0.47903">
        <ele>124.75101169012</ele>
        <time>2021-09-13T08:23:52Z</time>
      </trkpt>
      <trkpt lat="46.46701" lon="0.47906">
        <ele>124.15157175809</ele>
        <time>2021-09-13T08:23:53Z</time>
      </trkpt>
      <trkpt lat="46.467" lon="0.47909">
        <ele>125.12120657321</ele>
        <time>2021-09-13T08:23:54Z</time>
      </trkpt>
      <trkpt lat="46.46697" lon="0.47912">
        <ele>123.98768948857</ele>
        <time>2021-09-13T08:23:56Z</time>
      </trkpt>
      <trkpt lat="46.46696" lon="0.47914">
        <ele>124.21359430347</ele>
        <time>2021-09-13T08:23:58Z</time>
      </trkpt>
      <trkpt lat="46.46694" lon="0.47916">
        <ele>125.47896093875</ele>
        <time>2021-09-13T08:24:00Z</time>
      </trkpt>
      <trkpt lat="46.46692" lon="0.47919">
        <ele>124.45422539953</ele>
        <time>2021-09-13T08:24:03Z</time>
      </trkpt>
      <trkpt lat="46.46691" lon="0.47921">
        <ele>124.4599144021</ele>
        <time>2021-09-13T08:24:04Z</time>
      </trkpt>
      <trkpt lat="46.46691" lon="0.47924">
        <ele>124.54538344499</ele>
        <time>2021-09-13T08:24:06Z</time>
      </trkpt>
      <trkpt lat="46.4669" lon="0.47927">
        <ele>124.58396104723</ele>
        <time>2021-09-13T08:24:08Z</time>
      </trkpt>
      <trkpt lat="46.46689" lon="0.4793">
        <ele>124.98384504858</ele>
        <time>2021-09-13T08:24:10Z</time>
      </trkpt>
      <trkpt lat="46.46687" lon="0.47932">
        <ele>123.71892052796</ele>
        <time>2021-09-13T08:24:12Z</time>
      </trkpt>
      <trkpt lat="46.46685" lon="0.47935">
        <ele>124.52960921731</ele>
        <time>2021-09-13T08:24:15Z</time>
      </trkpt>
      <trkpt lat="46.46682" lon="0.47938">
        <ele>124.66434685048</ele>
        <time>2021-09-13T08:24:17Z</time>
      </trkpt>
      <trkpt lat="46.46681" lon="0.47941">
        <ele>124.00201573968</ele>
        <time>2021-09-13T08:24:20Z</time>
      </trkpt>
      <trkpt lat="46.46679" lon="0.47942">
        <ele>125.16282633319</ele>
        <time>2021-09-13T08:24:22Z</time>
      </trkpt>
      <trkpt lat="46.46678" lon="0.47945">
        <ele>124.45094190631</ele>
        <time>2021-09-13T08:24:25Z</time>
      </trkpt>
      <trkpt lat="46.46676" lon="0.47948">
        <ele>124.55724919122</ele>
        <time>2021-09-13T08:24:27Z</time>
      </trkpt>
      <trkpt lat="46.46674" lon="0.4795">
        <ele>123.99265149981</ele>
        <time>2021-09-13T08:24:29Z</time>
      </trkpt>
      <trkpt lat="46.46672" lon="0.47954">
        <ele>124.25662017055</ele>
        <time>2021-09-13T08:24:31Z</time>
      </trkpt>
      <trkpt lat="46.4667" lon="0.47956">
        <ele>125.17652535439</ele>
        <time>2021-09-13T08:24:32Z</time>
      </trkpt>
      <trkpt lat="46.46669" lon="0.47958">
        <ele>123.9008581955</ele>
        <time>2021-09-13T08:24:34Z</time>
      </trkpt>
      <trkpt lat="46.46668" lon="0.47961">
        <ele>124.14495224878</ele>
        <time>2021-09-13T08:24:36Z</time>
      </trkpt>
      <trkpt lat="46.46667" lon="0.47964">
        <ele>124.34484338295</ele>
        <time>2021-09-13T08:24:38Z</time>
      </trkpt>
      <trkpt lat="46.46665" lon="0.47966">
        <ele>124.39591722563</ele>
        <time>2021-09-13T08:24:39Z</time>
      </trkpt>
      <trkpt lat="46.46664" lon="0.4797">
        <ele>124.58785096556</ele>
        <time>2021-09-13T08:24:42Z</time>
      </trkpt>
      <trkpt lat="46.46662" lon="0.47971">
        <ele>124.99771802314</ele>
        <time>2021-09-13T08:24:44Z</time>
      </trkpt>
      <trkpt lat="46.46661" lon="0.47974">
        <ele>124.76523106173</ele>
        <time>2021-09-13T08:24:46Z</time>
      </trkpt>
      <trkpt lat="46.46659" lon="0.47977">
        <ele>125.26592748705</ele>
        <time>2021-09-13T08:24:48Z</time>
      </trkpt>
      <trkpt lat="46.46658" lon="0.47979">
        <ele>125.69784401823</ele>
        <time>2021-09-13T08:24:49Z</time>
      </trkpt>
      <trkpt lat="46.46657" lon="0.47983">
        <ele>124.48298547696</ele>
        <time>2021-09-13T08:24:51Z</time>
      </trkpt>
      <trkpt lat="46.46656" lon="0.47985">
        <ele>125.13597025909</ele>
        <time>2021-09-13T08:24:53Z</time>
      </trkpt>
      <trkpt lat="46.46654" lon="0.47989">
        <ele>124.44739077613</ele>
        <time>2021-09-13T08:24:56Z</time>
      </trkpt>
      <trkpt lat="46.46654" lon="0.47993">
        <ele>125.83199111186</ele>
        <time>2021-09-13T08:24:58Z</time>
      </trkpt>
      <trkpt lat="46.46652" lon="0.47996">
        <ele>124.22818062548</ele>
        <time>2021-09-13T08:25:00Z</time>
      </trkpt>
      <trkpt lat="46.46651" lon="0.47998">
        <ele>125.19167820271</ele>
        <time>2021-09-13T08:25:02Z</time>
      </trkpt>
      <trkpt lat="46.46649" lon="0.48002">
        <ele>124.35045020562</ele>
        <time>2021-09-13T08:25:04Z</time>
      </trkpt>
      <trkpt lat="46.46649" lon="0.48005">
        <ele>124.60280304961</ele>
        <time>2021-09-13T08:25:05Z</time>
      </trkpt>
      <trkpt lat="46.46648" lon="0.48008">
        <ele>123.77646908443</ele>
        <time>2021-09-13T08:25:07Z</time>
      </trkpt>
      <trkpt lat="46.46647" lon="0.48011">
        <ele>125.67445988767</ele>
        <time>2021-09-13T08:25:09Z</time>
      </trkpt>
      <trkpt lat="46.46646" lon="0.48014">
        <ele>125.26165877469</ele>
        <time>2021-09-13T08:25:11Z</time>
      </trkpt>
      <trkpt lat="46.46646" lon="0.48017">
        <ele>125.38299067318</ele>
        <time>2021-09-13T08:25:13Z</time>
      </trkpt>
      <trkpt lat="46.46644" lon="0.4802">
        <ele>124.71382639091</ele>
        <time>2021-09-13T08:25:15Z</time>
      </trkpt>
      <trkpt lat="46.46643" lon="0.48023">
        <ele>124.29316109698</ele>
        <time>2021-09-13T08:25:17Z</time>
      </trkpt>
      <trkpt lat="46.46641" lon="0.48026">
        <ele>126.31670011766</ele>
        <time>2021-09-13T08:25:19Z</time>
      </trkpt>
      <trkpt lat="46.4664" lon="0.48028">
        <ele>125.26201220509</ele>
        <time>2021-09-13T08:25:21Z</time>
      </trkpt>
      <trkpt lat="46.46638" lon="0.48032">
        <ele>126.35305310786</ele>
        <time>2021-09-13T08:25:24Z</time>
      </trkpt>
      <trkpt lat="46.46637" lon="0.48035">
        <ele>125.48896536324</ele>
        <time>2021-09-13T08:25:27Z</time>
      </trkpt>
      <trkpt lat="46.46635" lon="0.48038">
        <ele>124.99786797166</ele>
        <time>2021-09-13T08:25:29Z</time>
      </trkpt>
      <trkpt lat="46.46633" lon="0.4804">
        <ele>126.01950427331</ele>
        <time>2021-09-13T08:25:31Z</time>
      </trkpt>
      <trkpt lat="46.46631" lon="0.48042">
        <ele>125.61162175797</ele>
        <time>2021-09-13T08:25:33Z</time>
      </trkpt>
      <trkpt lat="46.4663" lon="0.48044">
        <ele>125.87032278441</ele>
        <time>2021-09-13T08:25:35Z</time>
      </trkpt>
      <trkpt lat="46.46628" lon="0.48047">
        <ele>126.13595059235</ele>
        <time>2021-09-13T08:25:37Z</time>
      </trkpt>
      <trkpt lat="46.46625" lon="0.48048">
        <ele>125.37242206559</ele>
        <time>2021-09-13T08:25:39Z</time>
      </trkpt>
      <trkpt lat="46.46623" lon="0.48052">
        <ele>126.64008134324</ele>
        <time>2021-09-13T08:25:41Z</time>
      </trkpt>
      <trkpt lat="46.46621" lon="0.48055">
        <ele>126.07965488173</ele>
        <time>2021-09-13T08:25:43Z</time>
      </trkpt>
      <trkpt lat="46.4662" lon="0.48057">
        <ele>126.49450614024</ele>
        <time>2021-09-13T08:25:45Z</time>
      </trkpt>
      <trkpt lat="46.46619" lon="0.48061">
        <ele>126.06652718689</ele>
        <time>2021-09-13T08:25:47Z</time>
      </trkpt>
      <trkpt lat="46.46618" lon="0.48063">
        <ele>127.40002916288</ele>
        <time>2021-09-13T08:25:49Z</time>
      </trkpt>
      <trkpt lat="46.46617" lon="0.48066">
        <ele>126.39425990358</ele>
        <time>2021-09-13T08:25:51Z</time>
      </trkpt>
      <trkpt lat="46.46615" lon="0.48068">
        <ele>126.90490920562</ele>
        <time>2021-09-13T08:25:53Z</time>
      </trkpt>
      <trkpt lat="46.46614" lon="0.48071">
        <ele>126.25315480307</ele>
        <time>2021-09-13T08:25:58Z</time>
      </trkpt>
      <trkpt lat="46.46612" lon="0.48069">
        <ele>126.63153957017</ele>
        <time>2021-09-13T08:26:01Z</time>
      </trkpt>
      <trkpt lat="46.46614" lon="0.4807">
        <ele>126.62830675673</ele>
        <time>2021-09-13T08:26:14Z</time>
      </trkpt>
      <trkpt lat="46.46615" lon="0.48073">
        <ele>126.42630625423</ele>
        <time>2021-09-13T08:26:17Z</time>
      </trkpt>
      <trkpt lat="46.46613" lon="0.48073">
        <ele>126.60030314233</ele>
        <time>2021-09-13T08:26:28Z</time>
      </trkpt>
      <trkpt lat="46.46611" lon="0.48072">
        <ele>126.51756020356</ele>
        <time>2021-09-13T08:26:37Z</time>
      </trkpt>
      <trkpt lat="46.46612" lon="0.48074">
        <ele>126.67260023672</ele>
        <time>2021-09-13T08:26:45Z</time>
      </trkpt>
      <trkpt lat="46.46614" lon="0.48074">
        <ele>126.74858593848</ele>
        <time>2021-09-13T08:26:53Z</time>
      </trkpt>
      <trkpt lat="46.46613" lon="0.48071">
        <ele>126.44165188167</ele>
        <time>2021-09-13T08:27:02Z</time>
      </trkpt>
      <trkpt lat="46.46612" lon="0.48069">
        <ele>126.47177846078</ele>
        <time>2021-09-13T08:27:03Z</time>
      </trkpt>
      <trkpt lat="46.46614" lon="0.48071">
        <ele>126.89061957598</ele>
        <time>2021-09-13T08:27:08Z</time>
      </trkpt>
      <trkpt lat="46.46613" lon="0.48068">
        <ele>126.61113869585</ele>
        <time>2021-09-13T08:27:18Z</time>
      </trkpt>
      <trkpt lat="46.4661" lon="0.48069">
        <ele>126.53936605621</ele>
        <time>2021-09-13T08:27:27Z</time>
      </trkpt>
      <trkpt lat="46.46608" lon="0.48072">
        <ele>125.58439063188</ele>
        <time>2021-09-13T08:27:29Z</time>
      </trkpt>
      <trkpt lat="46.46607" lon="0.48074">
        <ele>127.4884297438</ele>
        <time>2021-09-13T08:27:31Z</time>
      </trkpt>
      <trkpt lat="46.46605" lon="0.48075">
        <ele>127.24776602443</ele>
        <time>2021-09-13T08:27:33Z</time>
      </trkpt>
      <trkpt lat="46.46603" lon="0.48076">
        <ele>126.3646305399</ele>
        <time>2021-09-13T08:27:35Z</time>
      </trkpt>
      <trkpt lat="46.46602" lon="0.48078">
        <ele>126.42323651165</ele>
        <time>2021-09-13T08:27:36Z</time>
      </trkpt>
      <trkpt lat="46.46601" lon="0.48081">
        <ele>127.02178069949</ele>
        <time>2021-09-13T08:27:38Z</time>
      </trkpt>
      <trkpt lat="46.466" lon="0.48083">
        <ele>126.92757344432</ele>
        <time>2021-09-13T08:27:39Z</time>
      </trkpt>
      <trkpt lat="46.46599" lon="0.48086">
        <ele>127.24344680738</ele>
        <time>2021-09-13T08:27:41Z</time>
      </trkpt>
      <trkpt lat="46.46598" lon="0.48089">
        <ele>126.89443606976</ele>
        <time>2021-09-13T08:27:42Z</time>
      </trkpt>
      <trkpt lat="46.46598" lon="0.48092">
        <ele>126.56399330031</ele>
        <time>2021-09-13T08:27:43Z</time>
      </trkpt>
      <trkpt lat="46.46598" lon="0.48094">
        <ele>127.34154748172</ele>
        <time>2021-09-13T08:27:44Z</time>
      </trkpt>
      <trkpt lat="46.46596" lon="0.48098">
        <ele>127.35221289191</ele>
        <time>2021-09-13T08:27:46Z</time>
      </trkpt>
      <trkpt lat="46.46595" lon="0.481">
        <ele>127.30884959083</ele>
        <time>2021-09-13T08:27:48Z</time>
      </trkpt>
      <trkpt lat="46.46594" lon="0.48103">
        <ele>128.02228964213</ele>
        <time>2021-09-13T08:27:50Z</time>
      </trkpt>
      <trkpt lat="46.46592" lon="0.48105">
        <ele>127.23134076409</ele>
        <time>2021-09-13T08:27:52Z</time>
      </trkpt>
      <trkpt lat="46.4659" lon="0.48109">
        <ele>127.27647320367</ele>
        <time>2021-09-13T08:27:55Z</time>
      </trkpt>
      <trkpt lat="46.46589" lon="0.48112">
        <ele>128.21606519353</ele>
        <time>2021-09-13T08:27:57Z</time>
      </trkpt>
      <trkpt lat="46.46587" lon="0.48115">
        <ele>127.39629315306</ele>
        <time>2021-09-13T08:28:00Z</time>
      </trkpt>
      <trkpt lat="46.46586" lon="0.48117">
        <ele>128.46507800557</ele>
        <time>2021-09-13T08:28:02Z</time>
      </trkpt>
      <trkpt lat="46.46584" lon="0.4812">
        <ele>127.18395579141</ele>
        <time>2021-09-13T08:28:04Z</time>
      </trkpt>
      <trkpt lat="46.46583" lon="0.48121">
        <ele>127.97375363857</ele>
        <time>2021-09-13T08:28:06Z</time>
      </trkpt>
      <trkpt lat="46.46581" lon="0.48125">
        <ele>127.96800950449</ele>
        <time>2021-09-13T08:28:08Z</time>
      </trkpt>
      <trkpt lat="46.4658" lon="0.48127">
        <ele>126.9824973233</ele>
        <time>2021-09-13T08:28:10Z</time>
      </trkpt>
      <trkpt lat="46.46578" lon="0.4813">
        <ele>129.33262714278</ele>
        <time>2021-09-13T08:28:12Z</time>
      </trkpt>
      <trkpt lat="46.46576" lon="0.48131">
        <ele>127.69634705689</ele>
        <time>2021-09-13T08:28:14Z</time>
      </trkpt>
      <trkpt lat="46.46573" lon="0.48135">
        <ele>128.47804488242</ele>
        <time>2021-09-13T08:28:16Z</time>
      </trkpt>
      <trkpt lat="46.46572" lon="0.48138">
        <ele>129.62876903918</ele>
        <time>2021-09-13T08:28:19Z</time>
      </trkpt>
      <trkpt lat="46.4657" lon="0.48139">
        <ele>128.55884211697</ele>
        <time>2021-09-13T08:28:21Z</time>
      </trkpt>
      <trkpt lat="46.46569" lon="0.48142">
        <ele>129.37157787196</ele>
        <time>2021-09-13T08:28:24Z</time>
      </trkpt>
      <trkpt lat="46.46567" lon="0.48144">
        <ele>127.87873593532</ele>
        <time>2021-09-13T08:28:27Z</time>
      </trkpt>
      <trkpt lat="46.46564" lon="0.48145">
        <ele>129.53109592292</ele>
        <time>2021-09-13T08:28:29Z</time>
      </trkpt>
      <trkpt lat="46.46563" lon="0.48147">
        <ele>128.12468761485</ele>
        <time>2021-09-13T08:28:31Z</time>
      </trkpt>
      <trkpt lat="46.46562" lon="0.4815">
        <ele>128.6298403684</ele>
        <time>2021-09-13T08:28:33Z</time>
      </trkpt>
      <trkpt lat="46.46559" lon="0.48152">
        <ele>128.39395126607</ele>
        <time>2021-09-13T08:28:35Z</time>
      </trkpt>
      <trkpt lat="46.46558" lon="0.48156">
        <ele>130.05564557761</ele>
        <time>2021-09-13T08:28:37Z</time>
      </trkpt>
      <trkpt lat="46.46556" lon="0.48158">
        <ele>128.76956831198</ele>
        <time>2021-09-13T08:28:39Z</time>
      </trkpt>
      <trkpt lat="46.46554" lon="0.4816">
        <ele>129.21878022514</ele>
        <time>2021-09-13T08:28:41Z</time>
      </trkpt>
      <trkpt lat="46.46553" lon="0.48164">
        <ele>129.16994008329</ele>
        <time>2021-09-13T08:28:43Z</time>
      </trkpt>
      <trkpt lat="46.46551" lon="0.48166">
        <ele>128.50763479527</ele>
        <time>2021-09-13T08:28:45Z</time>
      </trkpt>
      <trkpt lat="46.4655" lon="0.48169">
        <ele>128.47968861274</ele>
        <time>2021-09-13T08:28:47Z</time>
      </trkpt>
      <trkpt lat="46.46548" lon="0.48171">
        <ele>128.58696246985</ele>
        <time>2021-09-13T08:28:50Z</time>
      </trkpt>
      <trkpt lat="46.46545" lon="0.48176">
        <ele>129.33123797365</ele>
        <time>2021-09-13T08:28:52Z</time>
      </trkpt>
      <trkpt lat="46.46543" lon="0.4818">
        <ele>129.41066022031</ele>
        <time>2021-09-13T08:28:54Z</time>
      </trkpt>
      <trkpt lat="46.46544" lon="0.48182">
        <ele>128.82922996767</ele>
        <time>2021-09-13T08:28:55Z</time>
      </trkpt>
      <trkpt lat="46.46542" lon="0.48183">
        <ele>128.95450695232</ele>
        <time>2021-09-13T08:28:57Z</time>
      </trkpt>
      <trkpt lat="46.4654" lon="0.48185">
        <ele>130.79566551279</ele>
        <time>2021-09-13T08:28:59Z</time>
      </trkpt>
      <trkpt lat="46.46538" lon="0.48187">
        <ele>129.92885371111</ele>
        <time>2021-09-13T08:29:01Z</time>
      </trkpt>
      <trkpt lat="46.46536" lon="0.48189">
        <ele>129.76634593867</ele>
        <time>2021-09-13T08:29:03Z</time>
      </trkpt>
      <trkpt lat="46.46534" lon="0.48191">
        <ele>129.292106607</ele>
        <time>2021-09-13T08:29:05Z</time>
      </trkpt>
      <trkpt lat="46.46533" lon="0.48194">
        <ele>129.39518962521</ele>
        <time>2021-09-13T08:29:08Z</time>
      </trkpt>
      <trkpt lat="46.46531" lon="0.48197">
        <ele>129.61497139093</ele>
        <time>2021-09-13T08:29:10Z</time>
      </trkpt>
      <trkpt lat="46.46529" lon="0.482">
        <ele>129.5512293186</ele>
        <time>2021-09-13T08:29:12Z</time>
      </trkpt>
      <trkpt lat="46.46527" lon="0.48204">
        <ele>129.11455318984</ele>
        <time>2021-09-13T08:29:15Z</time>
      </trkpt>
      <trkpt lat="46.46526" lon="0.48206">
        <ele>129.40450173244</ele>
        <time>2021-09-13T08:29:17Z</time>
      </trkpt>
      <trkpt lat="46.46525" lon="0.48209">
        <ele>128.83636976685</ele>
        <time>2021-09-13T08:29:18Z</time>
      </trkpt>
      <trkpt lat="46.46523" lon="0.48211">
        <ele>129.56274770293</ele>
        <time>2021-09-13T08:29:20Z</time>
      </trkpt>
      <trkpt lat="46.4652" lon="0.48215">
        <ele>129.73359610047</ele>
        <time>2021-09-13T08:29:22Z</time>
      </trkpt>
      <trkpt lat="46.46519" lon="0.48218">
        <ele>129.67021186184</ele>
        <time>2021-09-13T08:29:25Z</time>
      </trkpt>
      <trkpt lat="46.46517" lon="0.48221">
        <ele>128.84350799676</ele>
        <time>2021-09-13T08:29:27Z</time>
      </trkpt>
      <trkpt lat="46.46515" lon="0.48224">
        <ele>130.56360781565</ele>
        <time>2021-09-13T08:29:29Z</time>
      </trkpt>
      <trkpt lat="46.46513" lon="0.48225">
        <ele>129.61926725414</ele>
        <time>2021-09-13T08:29:31Z</time>
      </trkpt>
      <trkpt lat="46.46512" lon="0.48228">
        <ele>129.03047907725</ele>
        <time>2021-09-13T08:29:33Z</time>
      </trkpt>
      <trkpt lat="46.46511" lon="0.4823">
        <ele>130.06566539686</ele>
        <time>2021-09-13T08:29:35Z</time>
      </trkpt>
      <trkpt lat="46.4651" lon="0.48233">
        <ele>128.88627408259</ele>
        <time>2021-09-13T08:29:37Z</time>
      </trkpt>
      <trkpt lat="46.46508" lon="0.48234">
        <ele>129.52272236627</ele>
        <time>2021-09-13T08:29:39Z</time>
      </trkpt>
      <trkpt lat="46.46507" lon="0.48236">
        <ele>128.709616106</ele>
        <time>2021-09-13T08:29:41Z</time>
      </trkpt>
      <trkpt lat="46.46504" lon="0.4824">
        <ele>130.91555206105</ele>
        <time>2021-09-13T08:29:43Z</time>
      </trkpt>
      <trkpt lat="46.46502" lon="0.48242">
        <ele>129.17401628103</ele>
        <time>2021-09-13T08:29:45Z</time>
      </trkpt>
      <trkpt lat="46.465" lon="0.48244">
        <ele>129.62928351387</ele>
        <time>2021-09-13T08:29:47Z</time>
      </trkpt>
      <trkpt lat="46.46498" lon="0.48244">
        <ele>129.77227984369</ele>
        <time>2021-09-13T08:29:50Z</time>
      </trkpt>
      <trkpt lat="46.46496" lon="0.48247">
        <ele>130.74669456575</ele>
        <time>2021-09-13T08:29:53Z</time>
      </trkpt>
      <trkpt lat="46.46494" lon="0.48249">
        <ele>129.87669941317</ele>
        <time>2021-09-13T08:29:54Z</time>
      </trkpt>
      <trkpt lat="46.46493" lon="0.48251">
        <ele>129.20656601805</ele>
        <time>2021-09-13T08:29:55Z</time>
      </trkpt>
      <trkpt lat="46.46491" lon="0.48253">
        <ele>129.55882799719</ele>
        <time>2021-09-13T08:29:56Z</time>
      </trkpt>
      <trkpt lat="46.4649" lon="0.48254">
        <ele>129.51243699901</ele>
        <time>2021-09-13T08:29:57Z</time>
      </trkpt>
      <trkpt lat="46.46487" lon="0.48257">
        <ele>129.43790761102</ele>
        <time>2021-09-13T08:30:00Z</time>
      </trkpt>
      <trkpt lat="46.46484" lon="0.48261">
        <ele>129.44178304076</ele>
        <time>2021-09-13T08:30:04Z</time>
      </trkpt>
      <trkpt lat="46.46481" lon="0.48263">
        <ele>130.50726158172</ele>
        <time>2021-09-13T08:30:06Z</time>
      </trkpt>
      <trkpt lat="46.46478" lon="0.48264">
        <ele>129.76421960909</ele>
        <time>2021-09-13T08:30:08Z</time>
      </trkpt>
      <trkpt lat="46.46476" lon="0.48266">
        <ele>129.85990337096</ele>
        <time>2021-09-13T08:30:10Z</time>
      </trkpt>
      <trkpt lat="46.46473" lon="0.48267">
        <ele>129.65765414666</ele>
        <time>2021-09-13T08:30:12Z</time>
      </trkpt>
      <trkpt lat="46.46471" lon="0.48268">
        <ele>129.22407213133</ele>
        <time>2021-09-13T08:30:14Z</time>
      </trkpt>
      <trkpt lat="46.46468" lon="0.4827">
        <ele>131.25581971928</ele>
        <time>2021-09-13T08:30:17Z</time>
      </trkpt>
      <trkpt lat="46.46466" lon="0.48269">
        <ele>130.30166773498</ele>
        <time>2021-09-13T08:30:19Z</time>
      </trkpt>
      <trkpt lat="46.46463" lon="0.48269">
        <ele>129.83143520728</ele>
        <time>2021-09-13T08:30:22Z</time>
      </trkpt>
      <trkpt lat="46.46461" lon="0.4827">
        <ele>130.12098711915</ele>
        <time>2021-09-13T08:30:23Z</time>
      </trkpt>
      <trkpt lat="46.46459" lon="0.48271">
        <ele>130.08059864212</ele>
        <time>2021-09-13T08:30:25Z</time>
      </trkpt>
      <trkpt lat="46.46457" lon="0.48271">
        <ele>130.22693445068</ele>
        <time>2021-09-13T08:30:26Z</time>
      </trkpt>
      <trkpt lat="46.46456" lon="0.48272">
        <ele>129.9316088222</ele>
        <time>2021-09-13T08:30:27Z</time>
      </trkpt>
      <trkpt lat="46.46453" lon="0.48276">
        <ele>129.68977109529</ele>
        <time>2021-09-13T08:30:29Z</time>
      </trkpt>
      <trkpt lat="46.46451" lon="0.48279">
        <ele>130.18640928622</ele>
        <time>2021-09-13T08:30:31Z</time>
      </trkpt>
      <trkpt lat="46.46449" lon="0.48281">
        <ele>129.9448467819</ele>
        <time>2021-09-13T08:30:33Z</time>
      </trkpt>
      <trkpt lat="46.46446" lon="0.48283">
        <ele>130.99656317104</ele>
        <time>2021-09-13T08:30:36Z</time>
      </trkpt>
      <trkpt lat="46.46445" lon="0.48285">
        <ele>130.11707276572</ele>
        <time>2021-09-13T08:30:38Z</time>
      </trkpt>
      <trkpt lat="46.46444" lon="0.48287">
        <ele>129.92890332267</ele>
        <time>2021-09-13T08:30:41Z</time>
      </trkpt>
      <trkpt lat="46.46441" lon="0.48291">
        <ele>130.95923900232</ele>
        <time>2021-09-13T08:30:43Z</time>
      </trkpt>
      <trkpt lat="46.4644" lon="0.48293">
        <ele>130.0287712859</ele>
        <time>2021-09-13T08:30:44Z</time>
      </trkpt>
      <trkpt lat="46.46438" lon="0.48295">
        <ele>131.15574473795</ele>
        <time>2021-09-13T08:30:47Z</time>
      </trkpt>
      <trkpt lat="46.46436" lon="0.48298">
        <ele>130.76453074627</ele>
        <time>2021-09-13T08:30:50Z</time>
      </trkpt>
      <trkpt lat="46.46434" lon="0.483">
        <ele>130.16988245584</ele>
        <time>2021-09-13T08:30:51Z</time>
      </trkpt>
      <trkpt lat="46.4643" lon="0.48305">
        <ele>131.89125894383</ele>
        <time>2021-09-13T08:30:53Z</time>
      </trkpt>
      <trkpt lat="46.46429" lon="0.48308">
        <ele>130.44797917549</ele>
        <time>2021-09-13T08:30:55Z</time>
      </trkpt>
      <trkpt lat="46.46428" lon="0.48313">
        <ele>131.45782975573</ele>
        <time>2021-09-13T08:30:58Z</time>
      </trkpt>
      <trkpt lat="46.46427" lon="0.48316">
        <ele>129.98285287805</ele>
        <time>2021-09-13T08:31:00Z</time>
      </trkpt>
      <trkpt lat="46.46426" lon="0.48321">
        <ele>131.54776350874</ele>
        <time>2021-09-13T08:31:02Z</time>
      </trkpt>
      <trkpt lat="46.46425" lon="0.48324">
        <ele>130.15135908686</ele>
        <time>2021-09-13T08:31:04Z</time>
      </trkpt>
      <trkpt lat="46.46423" lon="0.48327">
        <ele>130.58653718606</ele>
        <time>2021-09-13T08:31:06Z</time>
      </trkpt>
      <trkpt lat="46.46421" lon="0.4833">
        <ele>129.34053201135</ele>
        <time>2021-09-13T08:31:08Z</time>
      </trkpt>
      <trkpt lat="46.4642" lon="0.48333">
        <ele>129.47860124987</ele>
        <time>2021-09-13T08:31:10Z</time>
      </trkpt>
      <trkpt lat="46.46418" lon="0.48336">
        <ele>129.60166935716</ele>
        <time>2021-09-13T08:31:12Z</time>
      </trkpt>
      <trkpt lat="46.46417" lon="0.48338">
        <ele>130.82331603486</ele>
        <time>2021-09-13T08:31:14Z</time>
      </trkpt>
      <trkpt lat="46.46415" lon="0.4834">
        <ele>129.52803870663</ele>
        <time>2021-09-13T08:31:16Z</time>
      </trkpt>
      <trkpt lat="46.46413" lon="0.48342">
        <ele>129.59264140669</ele>
        <time>2021-09-13T08:31:18Z</time>
      </trkpt>
      <trkpt lat="46.46411" lon="0.48344">
        <ele>129.08893931564</ele>
        <time>2021-09-13T08:31:20Z</time>
      </trkpt>
      <trkpt lat="46.46409" lon="0.48347">
        <ele>128.97555127367</ele>
        <time>2021-09-13T08:31:21Z</time>
      </trkpt>
      <trkpt lat="46.46408" lon="0.48349">
        <ele>130.1672832286</ele>
        <time>2021-09-13T08:31:26Z</time>
      </trkpt>
      <trkpt lat="46.46407" lon="0.48352">
        <ele>129.28727851622</ele>
        <time>2021-09-13T08:31:28Z</time>
      </trkpt>
      <trkpt lat="46.46405" lon="0.48355">
        <ele>129.93227818608</ele>
        <time>2021-09-13T08:31:30Z</time>
      </trkpt>
      <trkpt lat="46.46403" lon="0.48358">
        <ele>129.46735456306</ele>
        <time>2021-09-13T08:31:32Z</time>
      </trkpt>
      <trkpt lat="46.46402" lon="0.48361">
        <ele>129.1431720648</ele>
        <time>2021-09-13T08:31:34Z</time>
      </trkpt>
      <trkpt lat="46.464" lon="0.48364">
        <ele>130.75507096667</ele>
        <time>2021-09-13T08:31:37Z</time>
      </trkpt>
      <trkpt lat="46.46399" lon="0.48366">
        <ele>129.16283806227</ele>
        <time>2021-09-13T08:31:39Z</time>
      </trkpt>
      <trkpt lat="46.46398" lon="0.48369">
        <ele>129.2014378868</ele>
        <time>2021-09-13T08:31:42Z</time>
      </trkpt>
      <trkpt lat="46.46397" lon="0.48373">
        <ele>129.37709913868</ele>
        <time>2021-09-13T08:31:45Z</time>
      </trkpt>
      <trkpt lat="46.46395" lon="0.48377">
        <ele>129.84104567021</ele>
        <time>2021-09-13T08:31:47Z</time>
      </trkpt>
      <trkpt lat="46.46393" lon="0.48379">
        <ele>129.9185963897</ele>
        <time>2021-09-13T08:31:48Z</time>
      </trkpt>
      <trkpt lat="46.46392" lon="0.48381">
        <ele>129.66660756525</ele>
        <time>2021-09-13T08:31:50Z</time>
      </trkpt>
      <trkpt lat="46.4639" lon="0.48383">
        <ele>129.41593094543</ele>
        <time>2021-09-13T08:31:52Z</time>
      </trkpt>
      <trkpt lat="46.46389" lon="0.48385">
        <ele>130.94670605566</ele>
        <time>2021-09-13T08:31:53Z</time>
      </trkpt>
      <trkpt lat="46.46389" lon="0.48388">
        <ele>129.44697455317</ele>
        <time>2021-09-13T08:31:55Z</time>
      </trkpt>
      <trkpt lat="46.46388" lon="0.48391">
        <ele>129.55333772581</ele>
        <time>2021-09-13T08:31:57Z</time>
      </trkpt>
      <trkpt lat="46.46385" lon="0.48395">
        <ele>129.73947777133</ele>
        <time>2021-09-13T08:32:00Z</time>
      </trkpt>
      <trkpt lat="46.46384" lon="0.48399">
        <ele>129.54727729969</ele>
        <time>2021-09-13T08:32:02Z</time>
      </trkpt>
      <trkpt lat="46.46383" lon="0.48403">
        <ele>129.09620125499</ele>
        <time>2021-09-13T08:32:05Z</time>
      </trkpt>
      <trkpt lat="46.46382" lon="0.48406">
        <ele>129.69550388586</ele>
        <time>2021-09-13T08:32:07Z</time>
      </trkpt>
      <trkpt lat="46.46381" lon="0.4841">
        <ele>129.34946291987</ele>
        <time>2021-09-13T08:32:09Z</time>
      </trkpt>
      <trkpt lat="46.4638" lon="0.48414">
        <ele>129.68846593704</ele>
        <time>2021-09-13T08:32:10Z</time>
      </trkpt>
      <trkpt lat="46.4638" lon="0.48417">
        <ele>129.30734884739</ele>
        <time>2021-09-13T08:32:12Z</time>
      </trkpt>
      <trkpt lat="46.4638" lon="0.4842">
        <ele>129.0555889206</ele>
        <time>2021-09-13T08:32:14Z</time>
      </trkpt>
      <trkpt lat="46.46379" lon="0.48425">
        <ele>128.04980497435</ele>
        <time>2021-09-13T08:32:17Z</time>
      </trkpt>
      <trkpt lat="46.46378" lon="0.48428">
        <ele>130.01155818626</ele>
        <time>2021-09-13T08:32:19Z</time>
      </trkpt>
      <trkpt lat="46.46377" lon="0.48431">
        <ele>128.27013659198</ele>
        <time>2021-09-13T08:32:21Z</time>
      </trkpt>
      <trkpt lat="46.46375" lon="0.48434">
        <ele>128.13971784618</ele>
        <time>2021-09-13T08:32:23Z</time>
      </trkpt>
      <trkpt lat="46.46374" lon="0.48437">
        <ele>128.82359188981</ele>
        <time>2021-09-13T08:32:25Z</time>
      </trkpt>
      <trkpt lat="46.46373" lon="0.48439">
        <ele>128.4097474264</ele>
        <time>2021-09-13T08:32:26Z</time>
      </trkpt>
      <trkpt lat="46.46373" lon="0.48436">
        <ele>128.60404977109</ele>
        <time>2021-09-13T08:32:36Z</time>
      </trkpt>
      <trkpt lat="46.46371" lon="0.48439">
        <ele>128.82264505886</ele>
        <time>2021-09-13T08:32:46Z</time>
      </trkpt>
      <trkpt lat="46.46371" lon="0.48443">
        <ele>128.84180259798</ele>
        <time>2021-09-13T08:32:48Z</time>
      </trkpt>
      <trkpt lat="46.46372" lon="0.48447">
        <ele>128.53211210761</ele>
        <time>2021-09-13T08:32:51Z</time>
      </trkpt>
      <trkpt lat="46.4637" lon="0.48451">
        <ele>128.03434272017</ele>
        <time>2021-09-13T08:32:53Z</time>
      </trkpt>
      <trkpt lat="46.4637" lon="0.48456">
        <ele>129.2007213356</ele>
        <time>2021-09-13T08:32:55Z</time>
      </trkpt>
      <trkpt lat="46.46368" lon="0.48458">
        <ele>127.31064557005</ele>
        <time>2021-09-13T08:32:57Z</time>
      </trkpt>
      <trkpt lat="46.46368" lon="0.48461">
        <ele>129.38392766751</ele>
        <time>2021-09-13T08:32:58Z</time>
      </trkpt>
      <trkpt lat="46.46367" lon="0.48465">
        <ele>128.68704788759</ele>
        <time>2021-09-13T08:33:00Z</time>
      </trkpt>
      <trkpt lat="46.46367" lon="0.48468">
        <ele>128.54441883508</ele>
        <time>2021-09-13T08:33:04Z</time>
      </trkpt>
      <trkpt lat="46.46366" lon="0.48471">
        <ele>127.92663787398</ele>
        <time>2021-09-13T08:33:06Z</time>
      </trkpt>
      <trkpt lat="46.46365" lon="0.48475">
        <ele>129.83703202289</ele>
        <time>2021-09-13T08:33:08Z</time>
      </trkpt>
      <trkpt lat="46.46364" lon="0.48479">
        <ele>128.27977057453</ele>
        <time>2021-09-13T08:33:10Z</time>
      </trkpt>
      <trkpt lat="46.46363" lon="0.48482">
        <ele>128.1101374384</ele>
        <time>2021-09-13T08:33:12Z</time>
      </trkpt>
      <trkpt lat="46.46362" lon="0.48485">
        <ele>128.84932336491</ele>
        <time>2021-09-13T08:33:14Z</time>
      </trkpt>
      <trkpt lat="46.46361" lon="0.48488">
        <ele>128.05328040943</ele>
        <time>2021-09-13T08:33:16Z</time>
      </trkpt>
      <trkpt lat="46.4636" lon="0.48491">
        <ele>129.30371170025</ele>
        <time>2021-09-13T08:33:17Z</time>
      </trkpt>
      <trkpt lat="46.46359" lon="0.48496">
        <ele>128.39628206845</ele>
        <time>2021-09-13T08:33:20Z</time>
      </trkpt>
      <trkpt lat="46.46359" lon="0.48499">
        <ele>128.60604577325</ele>
        <time>2021-09-13T08:33:23Z</time>
      </trkpt>
      <trkpt lat="46.46359" lon="0.48503">
        <ele>127.3772553606</ele>
        <time>2021-09-13T08:33:25Z</time>
      </trkpt>
      <trkpt lat="46.46358" lon="0.48506">
        <ele>129.23919948749</ele>
        <time>2021-09-13T08:33:27Z</time>
      </trkpt>
      <trkpt lat="46.46358" lon="0.48509">
        <ele>128.28821060061</ele>
        <time>2021-09-13T08:33:28Z</time>
      </trkpt>
      <trkpt lat="46.46357" lon="0.48513">
        <ele>128.01636499446</ele>
        <time>2021-09-13T08:33:31Z</time>
      </trkpt>
      <trkpt lat="46.46356" lon="0.48517">
        <ele>128.30915652867</ele>
        <time>2021-09-13T08:33:33Z</time>
      </trkpt>
      <trkpt lat="46.46353" lon="0.4852">
        <ele>128.50011369493</ele>
        <time>2021-09-13T08:33:35Z</time>
      </trkpt>
      <trkpt lat="46.46351" lon="0.48522">
        <ele>126.54627854936</ele>
        <time>2021-09-13T08:33:37Z</time>
      </trkpt>
      <trkpt lat="46.46349" lon="0.48525">
        <ele>126.43401830457</ele>
        <time>2021-09-13T08:33:39Z</time>
      </trkpt>
      <trkpt lat="46.46348" lon="0.48528">
        <ele>128.32482684311</ele>
        <time>2021-09-13T08:33:42Z</time>
      </trkpt>
      <trkpt lat="46.46345" lon="0.4853">
        <ele>127.88336008973</ele>
        <time>2021-09-13T08:33:45Z</time>
      </trkpt>
      <trkpt lat="46.46344" lon="0.48533">
        <ele>128.33415173367</ele>
        <time>2021-09-13T08:33:47Z</time>
      </trkpt>
      <trkpt lat="46.46342" lon="0.48535">
        <ele>128.49529443588</ele>
        <time>2021-09-13T08:33:50Z</time>
      </trkpt>
      <trkpt lat="46.4634" lon="0.48537">
        <ele>128.31647091173</ele>
        <time>2021-09-13T08:33:52Z</time>
      </trkpt>
      <trkpt lat="46.46338" lon="0.4854">
        <ele>128.39986815862</ele>
        <time>2021-09-13T08:33:54Z</time>
      </trkpt>
      <trkpt lat="46.46336" lon="0.48542">
        <ele>128.13083765283</ele>
        <time>2021-09-13T08:33:57Z</time>
      </trkpt>
      <trkpt lat="46.46335" lon="0.48544">
        <ele>128.30892382376</ele>
        <time>2021-09-13T08:33:59Z</time>
      </trkpt>
      <trkpt lat="46.46333" lon="0.48546">
        <ele>128.81669440307</ele>
        <time>2021-09-13T08:34:01Z</time>
      </trkpt>
      <trkpt lat="46.46332" lon="0.48549">
        <ele>128.51127871126</ele>
        <time>2021-09-13T08:34:03Z</time>
      </trkpt>
      <trkpt lat="46.4633" lon="0.48551">
        <ele>128.57725055795</ele>
        <time>2021-09-13T08:34:05Z</time>
      </trkpt>
      <trkpt lat="46.46328" lon="0.48554">
        <ele>128.8854080392</ele>
        <time>2021-09-13T08:34:07Z</time>
      </trkpt>
      <trkpt lat="46.46325" lon="0.48556">
        <ele>128.74407935888</ele>
        <time>2021-09-13T08:34:09Z</time>
      </trkpt>
      <trkpt lat="46.46324" lon="0.48558">
        <ele>128.78572948277</ele>
        <time>2021-09-13T08:34:11Z</time>
      </trkpt>
      <trkpt lat="46.46322" lon="0.48561">
        <ele>128.56777626462</ele>
        <time>2021-09-13T08:34:13Z</time>
      </trkpt>
      <trkpt lat="46.4632" lon="0.48563">
        <ele>128.50722635444</ele>
        <time>2021-09-13T08:34:15Z</time>
      </trkpt>
      <trkpt lat="46.46318" lon="0.48563">
        <ele>128.37851213105</ele>
        <time>2021-09-13T08:34:17Z</time>
      </trkpt>
      <trkpt lat="46.46316" lon="0.48565">
        <ele>128.79847222473</ele>
        <time>2021-09-13T08:34:19Z</time>
      </trkpt>
      <trkpt lat="46.46313" lon="0.48566">
        <ele>128.36562154815</ele>
        <time>2021-09-13T08:34:21Z</time>
      </trkpt>
      <trkpt lat="46.46311" lon="0.48568">
        <ele>128.34534448292</ele>
        <time>2021-09-13T08:34:23Z</time>
      </trkpt>
      <trkpt lat="46.46309" lon="0.48569">
        <ele>128.89933135733</ele>
        <time>2021-09-13T08:34:26Z</time>
      </trkpt>
      <trkpt lat="46.46307" lon="0.48571">
        <ele>128.1996185109</ele>
        <time>2021-09-13T08:34:28Z</time>
      </trkpt>
      <trkpt lat="46.46305" lon="0.48573">
        <ele>128.65076930262</ele>
        <time>2021-09-13T08:34:31Z</time>
      </trkpt>
      <trkpt lat="46.46302" lon="0.48574">
        <ele>128.25116724987</ele>
        <time>2021-09-13T08:34:33Z</time>
      </trkpt>
      <trkpt lat="46.463" lon="0.48577">
        <ele>129.68100681156</ele>
        <time>2021-09-13T08:34:35Z</time>
      </trkpt>
      <trkpt lat="46.46298" lon="0.48578">
        <ele>127.96122747939</ele>
        <time>2021-09-13T08:34:37Z</time>
      </trkpt>
      <trkpt lat="46.46296" lon="0.48579">
        <ele>127.98225502297</ele>
        <time>2021-09-13T08:34:38Z</time>
      </trkpt>
      <trkpt lat="46.46294" lon="0.48582">
        <ele>128.30408138223</ele>
        <time>2021-09-13T08:34:40Z</time>
      </trkpt>
      <trkpt lat="46.46292" lon="0.48584">
        <ele>128.48204864748</ele>
        <time>2021-09-13T08:34:41Z</time>
      </trkpt>
      <trkpt lat="46.4629" lon="0.48585">
        <ele>128.5223092325</ele>
        <time>2021-09-13T08:34:43Z</time>
      </trkpt>
      <trkpt lat="46.46288" lon="0.48587">
        <ele>127.79946803488</ele>
        <time>2021-09-13T08:34:45Z</time>
      </trkpt>
      <trkpt lat="46.46286" lon="0.48587">
        <ele>127.58242458198</ele>
        <time>2021-09-13T08:34:48Z</time>
      </trkpt>
      <trkpt lat="46.46284" lon="0.48588">
        <ele>129.06284293346</ele>
        <time>2021-09-13T08:34:50Z</time>
      </trkpt>
      <trkpt lat="46.46282" lon="0.48589">
        <ele>127.57153561059</ele>
        <time>2021-09-13T08:34:52Z</time>
      </trkpt>
      <trkpt lat="46.4628" lon="0.48592">
        <ele>127.75253192428</ele>
        <time>2021-09-13T08:34:53Z</time>
      </trkpt>
      <trkpt lat="46.46278" lon="0.48594">
        <ele>127.56402585283</ele>
        <time>2021-09-13T08:34:55Z</time>
      </trkpt>
      <trkpt lat="46.46276" lon="0.48595">
        <ele>128.36473317072</ele>
        <time>2021-09-13T08:34:57Z</time>
      </trkpt>
      <trkpt lat="46.46274" lon="0.48597">
        <ele>127.44802223612</ele>
        <time>2021-09-13T08:34:59Z</time>
      </trkpt>
      <trkpt lat="46.46272" lon="0.486">
        <ele>127.13310997467</ele>
        <time>2021-09-13T08:35:01Z</time>
      </trkpt>
      <trkpt lat="46.4627" lon="0.48601">
        <ele>127.99400241394</ele>
        <time>2021-09-13T08:35:03Z</time>
      </trkpt>
      <trkpt lat="46.46269" lon="0.48604">
        <ele>127.07242009137</ele>
        <time>2021-09-13T08:35:05Z</time>
      </trkpt>
      <trkpt lat="46.46265" lon="0.48606">
        <ele>127.63945203274</ele>
        <time>2021-09-13T08:35:07Z</time>
      </trkpt>
      <trkpt lat="46.46263" lon="0.48608">
        <ele>127.28010467812</ele>
        <time>2021-09-13T08:35:09Z</time>
      </trkpt>
      <trkpt lat="46.46261" lon="0.4861">
        <ele>127.02914911136</ele>
        <time>2021-09-13T08:35:11Z</time>
      </trkpt>
      <trkpt lat="46.46259" lon="0.48612">
        <ele>126.88670521043</ele>
        <time>2021-09-13T08:35:13Z</time>
      </trkpt>
      <trkpt lat="46.46258" lon="0.48615">
        <ele>127.77324649412</ele>
        <time>2021-09-13T08:35:17Z</time>
      </trkpt>
      <trkpt lat="46.46255" lon="0.48619">
        <ele>127.92192368954</ele>
        <time>2021-09-13T08:35:19Z</time>
      </trkpt>
      <trkpt lat="46.46253" lon="0.48622">
        <ele>127.76077952795</ele>
        <time>2021-09-13T08:35:21Z</time>
      </trkpt>
      <trkpt lat="46.46252" lon="0.48625">
        <ele>126.82712271903</ele>
        <time>2021-09-13T08:35:23Z</time>
      </trkpt>
      <trkpt lat="46.4625" lon="0.48627">
        <ele>128.0450687753</ele>
        <time>2021-09-13T08:35:25Z</time>
      </trkpt>
      <trkpt lat="46.46248" lon="0.4863">
        <ele>127.99305538367</ele>
        <time>2021-09-13T08:35:27Z</time>
      </trkpt>
      <trkpt lat="46.46247" lon="0.48633">
        <ele>127.60686864052</ele>
        <time>2021-09-13T08:35:29Z</time>
      </trkpt>
      <trkpt lat="46.46245" lon="0.48635">
        <ele>127.31538649835</ele>
        <time>2021-09-13T08:35:31Z</time>
      </trkpt>
      <trkpt lat="46.46244" lon="0.48637">
        <ele>127.13839548733</ele>
        <time>2021-09-13T08:35:33Z</time>
      </trkpt>
      <trkpt lat="46.46243" lon="0.48639">
        <ele>128.47792736441</ele>
        <time>2021-09-13T08:35:35Z</time>
      </trkpt>
      <trkpt lat="46.46241" lon="0.48642">
        <ele>127.63531260751</ele>
        <time>2021-09-13T08:35:37Z</time>
      </trkpt>
      <trkpt lat="46.46239" lon="0.48645">
        <ele>126.97779572196</ele>
        <time>2021-09-13T08:35:39Z</time>
      </trkpt>
      <trkpt lat="46.46237" lon="0.48648">
        <ele>127.4817324793</ele>
        <time>2021-09-13T08:35:41Z</time>
      </trkpt>
      <trkpt lat="46.46236" lon="0.4865">
        <ele>127.38944805134</ele>
        <time>2021-09-13T08:35:42Z</time>
      </trkpt>
      <trkpt lat="46.46235" lon="0.48653">
        <ele>129.09680579137</ele>
        <time>2021-09-13T08:35:44Z</time>
      </trkpt>
      <trkpt lat="46.46233" lon="0.48655">
        <ele>127.31118034944</ele>
        <time>2021-09-13T08:35:46Z</time>
      </trkpt>
      <trkpt lat="46.46231" lon="0.48658">
        <ele>127.50607860647</ele>
        <time>2021-09-13T08:35:49Z</time>
      </trkpt>
      <trkpt lat="46.46229" lon="0.48661">
        <ele>127.53411788214</ele>
        <time>2021-09-13T08:35:51Z</time>
      </trkpt>
      <trkpt lat="46.46228" lon="0.48664">
        <ele>126.9457466742</ele>
        <time>2021-09-13T08:35:53Z</time>
      </trkpt>
      <trkpt lat="46.46226" lon="0.48667">
        <ele>127.15491036139</ele>
        <time>2021-09-13T08:35:55Z</time>
      </trkpt>
      <trkpt lat="46.46225" lon="0.48669">
        <ele>127.70685180835</ele>
        <time>2021-09-13T08:35:56Z</time>
      </trkpt>
      <trkpt lat="46.46224" lon="0.48672">
        <ele>127.55891731195</ele>
        <time>2021-09-13T08:35:58Z</time>
      </trkpt>
      <trkpt lat="46.46223" lon="0.48674">
        <ele>127.45582224429</ele>
        <time>2021-09-13T08:36:00Z</time>
      </trkpt>
      <trkpt lat="46.46222" lon="0.48678">
        <ele>127.33975588717</ele>
        <time>2021-09-13T08:36:03Z</time>
      </trkpt>
      <trkpt lat="46.46221" lon="0.48681">
        <ele>128.56899226829</ele>
        <time>2021-09-13T08:36:05Z</time>
      </trkpt>
      <trkpt lat="46.46218" lon="0.48684">
        <ele>127.76616657712</ele>
        <time>2021-09-13T08:36:07Z</time>
      </trkpt>
      <trkpt lat="46.46217" lon="0.48688">
        <ele>127.69421118964</ele>
        <time>2021-09-13T08:36:09Z</time>
      </trkpt>
      <trkpt lat="46.46215" lon="0.4869">
        <ele>127.22500413749</ele>
        <time>2021-09-13T08:36:12Z</time>
      </trkpt>
      <trkpt lat="46.46214" lon="0.48693">
        <ele>127.7583853798</ele>
        <time>2021-09-13T08:36:16Z</time>
      </trkpt>
      <trkpt lat="46.46213" lon="0.48696">
        <ele>127.46360865049</ele>
        <time>2021-09-13T08:36:18Z</time>
      </trkpt>
      <trkpt lat="46.46213" lon="0.48699">
        <ele>126.81884399895</ele>
        <time>2021-09-13T08:36:20Z</time>
      </trkpt>
      <trkpt lat="46.46212" lon="0.48703">
        <ele>127.67343175039</ele>
        <time>2021-09-13T08:36:22Z</time>
      </trkpt>
      <trkpt lat="46.46212" lon="0.48705">
        <ele>127.27608509362</ele>
        <time>2021-09-13T08:36:24Z</time>
      </trkpt>
      <trkpt lat="46.46212" lon="0.48709">
        <ele>127.83835990261</ele>
        <time>2021-09-13T08:36:26Z</time>
      </trkpt>
      <trkpt lat="46.46211" lon="0.48711">
        <ele>127.38571725693</ele>
        <time>2021-09-13T08:36:29Z</time>
      </trkpt>
      <trkpt lat="46.4621" lon="0.48715">
        <ele>127.93831042014</ele>
        <time>2021-09-13T08:36:32Z</time>
      </trkpt>
      <trkpt lat="46.4621" lon="0.48718">
        <ele>128.28409164678</ele>
        <time>2021-09-13T08:36:34Z</time>
      </trkpt>
      <trkpt lat="46.46209" lon="0.48722">
        <ele>127.5941862464</ele>
        <time>2021-09-13T08:36:36Z</time>
      </trkpt>
      <trkpt lat="46.46207" lon="0.48727">
        <ele>127.4033128079</ele>
        <time>2021-09-13T08:36:38Z</time>
      </trkpt>
      <trkpt lat="46.46205" lon="0.48728">
        <ele>128.29736612178</ele>
        <time>2021-09-13T08:36:39Z</time>
      </trkpt>
      <trkpt lat="46.46204" lon="0.48731">
        <ele>127.86317651719</ele>
        <time>2021-09-13T08:36:43Z</time>
      </trkpt>
      <trkpt lat="46.46202" lon="0.48732">
        <ele>128.03700795583</ele>
        <time>2021-09-13T08:36:48Z</time>
      </trkpt>
      <trkpt lat="46.462" lon="0.48734">
        <ele>127.74612538703</ele>
        <time>2021-09-13T08:36:51Z</time>
      </trkpt>
      <trkpt lat="46.46201" lon="0.48736">
        <ele>127.85612128116</ele>
        <time>2021-09-13T08:36:53Z</time>
      </trkpt>
      <trkpt lat="46.46203" lon="0.48738">
        <ele>127.86829896271</ele>
        <time>2021-09-13T08:36:55Z</time>
      </trkpt>
      <trkpt lat="46.46203" lon="0.48734">
        <ele>127.74407201726</ele>
        <time>2021-09-13T08:37:02Z</time>
      </trkpt>
      <trkpt lat="46.46203" lon="0.48737">
        <ele>127.7082473496</ele>
        <time>2021-09-13T08:37:10Z</time>
      </trkpt>
      <trkpt lat="46.46205" lon="0.48739">
        <ele>127.64478917792</ele>
        <time>2021-09-13T08:37:15Z</time>
      </trkpt>
      <trkpt lat="46.46207" lon="0.48742">
        <ele>127.36147276592</ele>
        <time>2021-09-13T08:37:17Z</time>
      </trkpt>
      <trkpt lat="46.46208" lon="0.48743">
        <ele>127.68737293407</ele>
        <time>2021-09-13T08:37:21Z</time>
      </trkpt>
      <trkpt lat="46.46207" lon="0.48746">
        <ele>127.785235513</ele>
        <time>2021-09-13T08:37:24Z</time>
      </trkpt>
      <trkpt lat="46.46209" lon="0.48744">
        <ele>127.88981401548</ele>
        <time>2021-09-13T08:37:28Z</time>
      </trkpt>
      <trkpt lat="46.46211" lon="0.48742">
        <ele>128.18259001989</ele>
        <time>2021-09-13T08:37:31Z</time>
      </trkpt>
      <trkpt lat="46.46209" lon="0.48741">
        <ele>127.73408920038</ele>
        <time>2021-09-13T08:37:41Z</time>
      </trkpt>
      <trkpt lat="46.4621" lon="0.48742">
        <ele>127.45254428871</ele>
        <time>2021-09-13T08:37:50Z</time>
      </trkpt>
      <trkpt lat="46.46209" lon="0.4874">
        <ele>127.85232114885</ele>
        <time>2021-09-13T08:37:54Z</time>
      </trkpt>
      <trkpt lat="46.46208" lon="0.48737">
        <ele>127.59017571714</ele>
        <time>2021-09-13T08:37:58Z</time>
      </trkpt>
      <trkpt lat="46.46206" lon="0.48736">
        <ele>127.75874190498</ele>
        <time>2021-09-13T08:38:02Z</time>
      </trkpt>
      <trkpt lat="46.46204" lon="0.48735">
        <ele>127.65289050341</ele>
        <time>2021-09-13T08:38:06Z</time>
      </trkpt>
      <trkpt lat="46.46203" lon="0.48737">
        <ele>127.35580837633</ele>
        <time>2021-09-13T08:38:11Z</time>
      </trkpt>
      <trkpt lat="46.46206" lon="0.48736">
        <ele>127.8970326744</ele>
        <time>2021-09-13T08:38:28Z</time>
      </trkpt>
      <trkpt lat="46.46204" lon="0.48735">
        <ele>128.1379963737</ele>
        <time>2021-09-13T08:38:31Z</time>
      </trkpt>
      <trkpt lat="46.46205" lon="0.48739">
        <ele>128.17266572732</ele>
        <time>2021-09-13T08:38:35Z</time>
      </trkpt>
      <trkpt lat="46.46204" lon="0.48741">
        <ele>128.29548634123</ele>
        <time>2021-09-13T08:38:38Z</time>
      </trkpt>
      <trkpt lat="46.46201" lon="0.48741">
        <ele>127.59941068105</ele>
        <time>2021-09-13T08:38:41Z</time>
      </trkpt>
      <trkpt lat="46.46199" lon="0.48741">
        <ele>127.70413199067</ele>
        <time>2021-09-13T08:38:46Z</time>
      </trkpt>
      <trkpt lat="46.46202" lon="0.48739">
        <ele>127.57260560524</ele>
        <time>2021-09-13T08:38:50Z</time>
      </trkpt>
      <trkpt lat="46.46204" lon="0.48739">
        <ele>127.84786436986</ele>
        <time>2021-09-13T08:38:54Z</time>
      </trkpt>
      <trkpt lat="46.46202" lon="0.48738">
        <ele>127.5386158675</ele>
        <time>2021-09-13T08:39:11Z</time>
      </trkpt>
      <trkpt lat="46.462" lon="0.48737">
        <ele>127.90103051905</ele>
        <time>2021-09-13T08:39:25Z</time>
      </trkpt>
      <trkpt lat="46.462" lon="0.48734">
        <ele>128.01321116276</ele>
        <time>2021-09-13T08:39:34Z</time>
      </trkpt>
      <trkpt lat="46.46199" lon="0.48731">
        <ele>127.65483652242</ele>
        <time>2021-09-13T08:39:40Z</time>
      </trkpt>
      <trkpt lat="46.46197" lon="0.4873">
        <ele>127.51577332988</ele>
        <time>2021-09-13T08:39:42Z</time>
      </trkpt>
      <trkpt lat="46.46196" lon="0.48728">
        <ele>127.62090394739</ele>
        <time>2021-09-13T08:39:45Z</time>
      </trkpt>
      <trkpt lat="46.46194" lon="0.48726">
        <ele>127.5605131397</ele>
        <time>2021-09-13T08:39:48Z</time>
      </trkpt>
      <trkpt lat="46.46192" lon="0.48724">
        <ele>127.53201596625</ele>
        <time>2021-09-13T08:39:50Z</time>
      </trkpt>
      <trkpt lat="46.4619" lon="0.48723">
        <ele>127.82706723083</ele>
        <time>2021-09-13T08:39:52Z</time>
      </trkpt>
      <trkpt lat="46.46188" lon="0.48722">
        <ele>127.59705081955</ele>
        <time>2021-09-13T08:39:54Z</time>
      </trkpt>
      <trkpt lat="46.46186" lon="0.4872">
        <ele>127.7529398473</ele>
        <time>2021-09-13T08:39:56Z</time>
      </trkpt>
      <trkpt lat="46.46184" lon="0.48719">
        <ele>127.55293956771</ele>
        <time>2021-09-13T08:39:57Z</time>
      </trkpt>
      <trkpt lat="46.46183" lon="0.48717">
        <ele>127.75439388864</ele>
        <time>2021-09-13T08:39:59Z</time>
      </trkpt>
      <trkpt lat="46.46181" lon="0.48715">
        <ele>127.50218691118</ele>
        <time>2021-09-13T08:40:01Z</time>
      </trkpt>
      <trkpt lat="46.46178" lon="0.48713">
        <ele>127.52946788445</ele>
        <time>2021-09-13T08:40:03Z</time>
      </trkpt>
      <trkpt lat="46.46177" lon="0.4871">
        <ele>127.55045834463</ele>
        <time>2021-09-13T08:40:05Z</time>
      </trkpt>
      <trkpt lat="46.46174" lon="0.48707">
        <ele>127.66789506096</ele>
        <time>2021-09-13T08:40:07Z</time>
      </trkpt>
      <trkpt lat="46.46172" lon="0.48705">
        <ele>127.66169304121</ele>
        <time>2021-09-13T08:40:09Z</time>
      </trkpt>
      <trkpt lat="46.46171" lon="0.48703">
        <ele>127.69768307824</ele>
        <time>2021-09-13T08:40:12Z</time>
      </trkpt>
      <trkpt lat="46.46169" lon="0.48701">
        <ele>127.6686037425</ele>
        <time>2021-09-13T08:40:14Z</time>
      </trkpt>
      <trkpt lat="46.46168" lon="0.48697">
        <ele>127.44447529037</ele>
        <time>2021-09-13T08:40:17Z</time>
      </trkpt>
      <trkpt lat="46.46166" lon="0.48695">
        <ele>127.65429729968</ele>
        <time>2021-09-13T08:40:19Z</time>
      </trkpt>
      <trkpt lat="46.46163" lon="0.48693">
        <ele>127.99682176951</ele>
        <time>2021-09-13T08:40:21Z</time>
      </trkpt>
      <trkpt lat="46.46161" lon="0.48692">
        <ele>128.10763903055</ele>
        <time>2021-09-13T08:40:23Z</time>
      </trkpt>
      <trkpt lat="46.4616" lon="0.4869">
        <ele>128.07743685879</ele>
        <time>2021-09-13T08:40:25Z</time>
      </trkpt>
      <trkpt lat="46.46158" lon="0.48688">
        <ele>128.08303213585</ele>
        <time>2021-09-13T08:40:27Z</time>
      </trkpt>
      <trkpt lat="46.46156" lon="0.48687">
        <ele>127.91166819632</ele>
        <time>2021-09-13T08:40:29Z</time>
      </trkpt>
      <trkpt lat="46.46154" lon="0.48685">
        <ele>128.01423793286</ele>
        <time>2021-09-13T08:40:31Z</time>
      </trkpt>
      <trkpt lat="46.46152" lon="0.48683">
        <ele>128.31844902597</ele>
        <time>2021-09-13T08:40:33Z</time>
      </trkpt>
      <trkpt lat="46.4615" lon="0.48681">
        <ele>128.22472556308</ele>
        <time>2021-09-13T08:40:35Z</time>
      </trkpt>
      <trkpt lat="46.46148" lon="0.48678">
        <ele>128.37563278992</ele>
        <time>2021-09-13T08:40:38Z</time>
      </trkpt>
      <trkpt lat="46.46146" lon="0.48676">
        <ele>128.38028842118</ele>
        <time>2021-09-13T08:40:40Z</time>
      </trkpt>
      <trkpt lat="46.46144" lon="0.48675">
        <ele>128.40771551803</ele>
        <time>2021-09-13T08:40:42Z</time>
      </trkpt>
      <trkpt lat="46.46142" lon="0.48673">
        <ele>128.50513130892</ele>
        <time>2021-09-13T08:40:45Z</time>
      </trkpt>
      <trkpt lat="46.46141" lon="0.48671">
        <ele>128.71063980553</ele>
        <time>2021-09-13T08:40:47Z</time>
      </trkpt>
      <trkpt lat="46.46139" lon="0.4867">
        <ele>128.46521536633</ele>
        <time>2021-09-13T08:40:49Z</time>
      </trkpt>
      <trkpt lat="46.46137" lon="0.48668">
        <ele>128.62434170488</ele>
        <time>2021-09-13T08:40:51Z</time>
      </trkpt>
      <trkpt lat="46.46135" lon="0.48666">
        <ele>128.72083355859</ele>
        <time>2021-09-13T08:40:54Z</time>
      </trkpt>
      <trkpt lat="46.46132" lon="0.48664">
        <ele>128.83451961819</ele>
        <time>2021-09-13T08:40:57Z</time>
      </trkpt>
      <trkpt lat="46.4613" lon="0.48663">
        <ele>128.6794371251</ele>
        <time>2021-09-13T08:40:58Z</time>
      </trkpt>
      <trkpt lat="46.46127" lon="0.4866">
        <ele>128.8994527664</ele>
        <time>2021-09-13T08:41:00Z</time>
      </trkpt>
      <trkpt lat="46.46125" lon="0.48659">
        <ele>128.99098903686</ele>
        <time>2021-09-13T08:41:02Z</time>
      </trkpt>
      <trkpt lat="46.46123" lon="0.48657">
        <ele>128.98859760165</ele>
        <time>2021-09-13T08:41:04Z</time>
      </trkpt>
      <trkpt lat="46.46121" lon="0.48657">
        <ele>128.83730528038</ele>
        <time>2021-09-13T08:41:06Z</time>
      </trkpt>
      <trkpt lat="46.46119" lon="0.48656">
        <ele>128.98256874736</ele>
        <time>2021-09-13T08:41:08Z</time>
      </trkpt>
      <trkpt lat="46.46116" lon="0.48655">
        <ele>129.01999292616</ele>
        <time>2021-09-13T08:41:10Z</time>
      </trkpt>
      <trkpt lat="46.46114" lon="0.48654">
        <ele>128.7769034626</ele>
        <time>2021-09-13T08:41:12Z</time>
      </trkpt>
      <trkpt lat="46.46112" lon="0.48653">
        <ele>128.69729618821</ele>
        <time>2021-09-13T08:41:13Z</time>
      </trkpt>
      <trkpt lat="46.46111" lon="0.48652">
        <ele>128.81255419645</ele>
        <time>2021-09-13T08:41:14Z</time>
      </trkpt>
      <trkpt lat="46.46108" lon="0.48651">
        <ele>129.24555418268</ele>
        <time>2021-09-13T08:41:16Z</time>
      </trkpt>
      <trkpt lat="46.46106" lon="0.48651">
        <ele>128.76352203917</ele>
        <time>2021-09-13T08:41:19Z</time>
      </trkpt>
      <trkpt lat="46.46104" lon="0.48649">
        <ele>128.81565138046</ele>
        <time>2021-09-13T08:41:20Z</time>
      </trkpt>
      <trkpt lat="46.46102" lon="0.48648">
        <ele>129.14399173111</ele>
        <time>2021-09-13T08:41:22Z</time>
      </trkpt>
      <trkpt lat="46.46099" lon="0.48647">
        <ele>129.15936939046</ele>
        <time>2021-09-13T08:41:24Z</time>
      </trkpt>
      <trkpt lat="46.46097" lon="0.48646">
        <ele>129.1782752173</ele>
        <time>2021-09-13T08:41:25Z</time>
      </trkpt>
      <trkpt lat="46.46094" lon="0.48644">
        <ele>128.92767023668</ele>
        <time>2021-09-13T08:41:27Z</time>
      </trkpt>
      <trkpt lat="46.46092" lon="0.48643">
        <ele>128.49752878211</ele>
        <time>2021-09-13T08:41:29Z</time>
      </trkpt>
      <trkpt lat="46.46089" lon="0.48642">
        <ele>128.94858011696</ele>
        <time>2021-09-13T08:41:31Z</time>
      </trkpt>
      <trkpt lat="46.46087" lon="0.48642">
        <ele>128.69297329616</ele>
        <time>2021-09-13T08:41:33Z</time>
      </trkpt>
      <trkpt lat="46.46085" lon="0.48641">
        <ele>128.65204667393</ele>
        <time>2021-09-13T08:41:37Z</time>
      </trkpt>
      <trkpt lat="46.46083" lon="0.48641">
        <ele>128.82240863517</ele>
        <time>2021-09-13T08:41:39Z</time>
      </trkpt>
      <trkpt lat="46.46079" lon="0.48639">
        <ele>128.97867924999</ele>
        <time>2021-09-13T08:41:42Z</time>
      </trkpt>
      <trkpt lat="46.46076" lon="0.48637">
        <ele>128.79376384337</ele>
        <time>2021-09-13T08:41:44Z</time>
      </trkpt>
      <trkpt lat="46.46073" lon="0.48637">
        <ele>128.8055982329</ele>
        <time>2021-09-13T08:41:46Z</time>
      </trkpt>
      <trkpt lat="46.46071" lon="0.48636">
        <ele>128.72418862488</ele>
        <time>2021-09-13T08:41:48Z</time>
      </trkpt>
      <trkpt lat="46.46068" lon="0.48636">
        <ele>129.03254109994</ele>
        <time>2021-09-13T08:41:50Z</time>
      </trkpt>
      <trkpt lat="46.46065" lon="0.48634">
        <ele>128.88580941409</ele>
        <time>2021-09-13T08:41:52Z</time>
      </trkpt>
      <trkpt lat="46.46061" lon="0.48634">
        <ele>128.82578022871</ele>
        <time>2021-09-13T08:41:54Z</time>
      </trkpt>
      <trkpt lat="46.46059" lon="0.48633">
        <ele>128.9047420742</ele>
        <time>2021-09-13T08:41:56Z</time>
      </trkpt>
      <trkpt lat="46.46057" lon="0.48632">
        <ele>128.82930405065</ele>
        <time>2021-09-13T08:41:59Z</time>
      </trkpt>
      <trkpt lat="46.46054" lon="0.48631">
        <ele>128.78064185753</ele>
        <time>2021-09-13T08:42:01Z</time>
      </trkpt>
      <trkpt lat="46.46052" lon="0.48631">
        <ele>129.04716252536</ele>
        <time>2021-09-13T08:42:03Z</time>
      </trkpt>
      <trkpt lat="46.4605" lon="0.48629">
        <ele>128.81658392679</ele>
        <time>2021-09-13T08:42:04Z</time>
      </trkpt>
      <trkpt lat="46.46047" lon="0.48628">
        <ele>128.48784223292</ele>
        <time>2021-09-13T08:42:06Z</time>
      </trkpt>
      <trkpt lat="46.46045" lon="0.48626">
        <ele>129.24055294134</ele>
        <time>2021-09-13T08:42:09Z</time>
      </trkpt>
      <trkpt lat="46.46043" lon="0.48625">
        <ele>129.11370617524</ele>
        <time>2021-09-13T08:42:11Z</time>
      </trkpt>
      <trkpt lat="46.4604" lon="0.48624">
        <ele>129.19858107809</ele>
        <time>2021-09-13T08:42:13Z</time>
      </trkpt>
      <trkpt lat="46.46038" lon="0.48623">
        <ele>129.09461428132</ele>
        <time>2021-09-13T08:42:15Z</time>
      </trkpt>
      <trkpt lat="46.46036" lon="0.48622">
        <ele>129.12121451087</ele>
        <time>2021-09-13T08:42:17Z</time>
      </trkpt>
      <trkpt lat="46.46033" lon="0.48621">
        <ele>129.44996394217</ele>
        <time>2021-09-13T08:42:19Z</time>
      </trkpt>
      <trkpt lat="46.46031" lon="0.4862">
        <ele>129.75304067507</ele>
        <time>2021-09-13T08:42:21Z</time>
      </trkpt>
      <trkpt lat="46.46029" lon="0.48619">
        <ele>129.50898435153</ele>
        <time>2021-09-13T08:42:22Z</time>
      </trkpt>
      <trkpt lat="46.46027" lon="0.48618">
        <ele>129.89448077697</ele>
        <time>2021-09-13T08:42:24Z</time>
      </trkpt>
      <trkpt lat="46.46025" lon="0.48616">
        <ele>129.75103623606</ele>
        <time>2021-09-13T08:42:26Z</time>
      </trkpt>
      <trkpt lat="46.46022" lon="0.48615">
        <ele>129.57980064582</ele>
        <time>2021-09-13T08:42:28Z</time>
      </trkpt>
      <trkpt lat="46.4602" lon="0.48614">
        <ele>129.519097629</ele>
        <time>2021-09-13T08:42:30Z</time>
      </trkpt>
      <trkpt lat="46.46018" lon="0.4861">
        <ele>129.89320925809</ele>
        <time>2021-09-13T08:42:32Z</time>
      </trkpt>
      <trkpt lat="46.46016" lon="0.48609">
        <ele>129.81954691466</ele>
        <time>2021-09-13T08:42:34Z</time>
      </trkpt>
      <trkpt lat="46.46013" lon="0.48606">
        <ele>129.76122726873</ele>
        <time>2021-09-13T08:42:37Z</time>
      </trkpt>
      <trkpt lat="46.46012" lon="0.48604">
        <ele>129.86016574688</ele>
        <time>2021-09-13T08:42:40Z</time>
      </trkpt>
      <trkpt lat="46.46009" lon="0.48602">
        <ele>129.87506506778</ele>
        <time>2021-09-13T08:42:42Z</time>
      </trkpt>
      <trkpt lat="46.46007" lon="0.486">
        <ele>129.96343410481</ele>
        <time>2021-09-13T08:42:44Z</time>
      </trkpt>
      <trkpt lat="46.46005" lon="0.48598">
        <ele>129.84769304749</ele>
        <time>2021-09-13T08:42:46Z</time>
      </trkpt>
      <trkpt lat="46.46003" lon="0.48596">
        <ele>129.93582977634</ele>
        <time>2021-09-13T08:42:48Z</time>
      </trkpt>
      <trkpt lat="46.46001" lon="0.48593">
        <ele>129.7611917723</ele>
        <time>2021-09-13T08:42:50Z</time>
      </trkpt>
      <trkpt lat="46.45999" lon="0.4859">
        <ele>129.75752704963</ele>
        <time>2021-09-13T08:42:52Z</time>
      </trkpt>
      <trkpt lat="46.45998" lon="0.48588">
        <ele>129.87367049418</ele>
        <time>2021-09-13T08:42:53Z</time>
      </trkpt>
      <trkpt lat="46.45995" lon="0.48586">
        <ele>129.70457093231</ele>
        <time>2021-09-13T08:42:55Z</time>
      </trkpt>
      <trkpt lat="46.45993" lon="0.48584">
        <ele>129.98243361712</ele>
        <time>2021-09-13T08:42:57Z</time>
      </trkpt>
      <trkpt lat="46.45991" lon="0.48581">
        <ele>129.82977593131</ele>
        <time>2021-09-13T08:42:59Z</time>
      </trkpt>
      <trkpt lat="46.45989" lon="0.48579">
        <ele>129.90483952221</ele>
        <time>2021-09-13T08:43:01Z</time>
      </trkpt>
      <trkpt lat="46.45987" lon="0.48576">
        <ele>129.9616427673</ele>
        <time>2021-09-13T08:43:03Z</time>
      </trkpt>
      <trkpt lat="46.45985" lon="0.48576">
        <ele>129.85181883536</ele>
        <time>2021-09-13T08:43:04Z</time>
      </trkpt>
      <trkpt lat="46.45982" lon="0.48574">
        <ele>130.21979699936</ele>
        <time>2021-09-13T08:43:06Z</time>
      </trkpt>
      <trkpt lat="46.4598" lon="0.48572">
        <ele>130.12881651986</ele>
        <time>2021-09-13T08:43:07Z</time>
      </trkpt>
      <trkpt lat="46.45978" lon="0.4857">
        <ele>130.06648618262</ele>
        <time>2021-09-13T08:43:09Z</time>
      </trkpt>
      <trkpt lat="46.45977" lon="0.48568">
        <ele>130.33903886005</ele>
        <time>2021-09-13T08:43:11Z</time>
      </trkpt>
      <trkpt lat="46.45975" lon="0.48567">
        <ele>130.44706119783</ele>
        <time>2021-09-13T08:43:13Z</time>
      </trkpt>
      <trkpt lat="46.45972" lon="0.48565">
        <ele>130.34844450559</ele>
        <time>2021-09-13T08:43:15Z</time>
      </trkpt>
      <trkpt lat="46.45969" lon="0.48563">
        <ele>130.46088048257</ele>
        <time>2021-09-13T08:43:17Z</time>
      </trkpt>
      <trkpt lat="46.45967" lon="0.48561">
        <ele>130.36134219728</ele>
        <time>2021-09-13T08:43:19Z</time>
      </trkpt>
      <trkpt lat="46.45966" lon="0.48559">
        <ele>130.89614512958</ele>
        <time>2021-09-13T08:43:22Z</time>
      </trkpt>
      <trkpt lat="46.45964" lon="0.48557">
        <ele>131.04732879624</ele>
        <time>2021-09-13T08:43:24Z</time>
      </trkpt>
      <trkpt lat="46.45961" lon="0.48555">
        <ele>130.8017876856</ele>
        <time>2021-09-13T08:43:26Z</time>
      </trkpt>
      <trkpt lat="46.45959" lon="0.48553">
        <ele>130.98196687456</ele>
        <time>2021-09-13T08:43:28Z</time>
      </trkpt>
      <trkpt lat="46.45957" lon="0.48551">
        <ele>130.81734508555</ele>
        <time>2021-09-13T08:43:29Z</time>
      </trkpt>
      <trkpt lat="46.45955" lon="0.4855">
        <ele>130.62907299865</ele>
        <time>2021-09-13T08:43:31Z</time>
      </trkpt>
      <trkpt lat="46.45953" lon="0.48548">
        <ele>130.76097164955</ele>
        <time>2021-09-13T08:43:33Z</time>
      </trkpt>
      <trkpt lat="46.45951" lon="0.48546">
        <ele>130.76659224741</ele>
        <time>2021-09-13T08:43:36Z</time>
      </trkpt>
      <trkpt lat="46.45949" lon="0.48545">
        <ele>130.84584289137</ele>
        <time>2021-09-13T08:43:38Z</time>
      </trkpt>
      <trkpt lat="46.45947" lon="0.48543">
        <ele>130.85974997189</ele>
        <time>2021-09-13T08:43:40Z</time>
      </trkpt>
      <trkpt lat="46.45945" lon="0.4854">
        <ele>130.72061740234</ele>
        <time>2021-09-13T08:43:42Z</time>
      </trkpt>
      <trkpt lat="46.45942" lon="0.48538">
        <ele>130.95186239108</ele>
        <time>2021-09-13T08:43:44Z</time>
      </trkpt>
      <trkpt lat="46.4594" lon="0.48537">
        <ele>130.84096991643</ele>
        <time>2021-09-13T08:43:46Z</time>
      </trkpt>
      <trkpt lat="46.45939" lon="0.48535">
        <ele>130.42312768474</ele>
        <time>2021-09-13T08:43:48Z</time>
      </trkpt>
      <trkpt lat="46.45936" lon="0.48533">
        <ele>130.57262387685</ele>
        <time>2021-09-13T08:43:50Z</time>
      </trkpt>
      <trkpt lat="46.45935" lon="0.48531">
        <ele>130.82280684076</ele>
        <time>2021-09-13T08:43:52Z</time>
      </trkpt>
      <trkpt lat="46.45933" lon="0.48529">
        <ele>130.76199407596</ele>
        <time>2021-09-13T08:43:54Z</time>
      </trkpt>
      <trkpt lat="46.45931" lon="0.48528">
        <ele>130.77097996976</ele>
        <time>2021-09-13T08:43:56Z</time>
      </trkpt>
      <trkpt lat="46.45929" lon="0.48525">
        <ele>130.79293309152</ele>
        <time>2021-09-13T08:43:58Z</time>
      </trkpt>
      <trkpt lat="46.45927" lon="0.48524">
        <ele>130.81079394184</ele>
        <time>2021-09-13T08:44:00Z</time>
      </trkpt>
      <trkpt lat="46.45925" lon="0.48521">
        <ele>131.0276598651</ele>
        <time>2021-09-13T08:44:02Z</time>
      </trkpt>
      <trkpt lat="46.45923" lon="0.48518">
        <ele>130.65588140115</ele>
        <time>2021-09-13T08:44:04Z</time>
      </trkpt>
      <trkpt lat="46.45921" lon="0.48515">
        <ele>130.75405397732</ele>
        <time>2021-09-13T08:44:07Z</time>
      </trkpt>
      <trkpt lat="46.45918" lon="0.48512">
        <ele>130.90835250169</ele>
        <time>2021-09-13T08:44:09Z</time>
      </trkpt>
      <trkpt lat="46.45917" lon="0.48509">
        <ele>130.8437964255</ele>
        <time>2021-09-13T08:44:11Z</time>
      </trkpt>
      <trkpt lat="46.45915" lon="0.48508">
        <ele>130.8736306075</ele>
        <time>2021-09-13T08:44:12Z</time>
      </trkpt>
      <trkpt lat="46.45913" lon="0.48505">
        <ele>130.72923721932</ele>
        <time>2021-09-13T08:44:14Z</time>
      </trkpt>
      <trkpt lat="46.4591" lon="0.48502">
        <ele>130.82606161572</ele>
        <time>2021-09-13T08:44:16Z</time>
      </trkpt>
      <trkpt lat="46.45909" lon="0.485">
        <ele>130.51699241437</ele>
        <time>2021-09-13T08:44:18Z</time>
      </trkpt>
      <trkpt lat="46.45908" lon="0.48499">
        <ele>130.73436911963</ele>
        <time>2021-09-13T08:44:20Z</time>
      </trkpt>
      <trkpt lat="46.45906" lon="0.48496">
        <ele>130.66185365431</ele>
        <time>2021-09-13T08:44:22Z</time>
      </trkpt>
      <trkpt lat="46.45905" lon="0.48494">
        <ele>130.69992307387</ele>
        <time>2021-09-13T08:44:24Z</time>
      </trkpt>
      <trkpt lat="46.45903" lon="0.48492">
        <ele>130.76661683246</ele>
        <time>2021-09-13T08:44:25Z</time>
      </trkpt>
      <trkpt lat="46.45901" lon="0.4849">
        <ele>130.8978179628</ele>
        <time>2021-09-13T08:44:27Z</time>
      </trkpt>
      <trkpt lat="46.45898" lon="0.48488">
        <ele>130.52871035412</ele>
        <time>2021-09-13T08:44:30Z</time>
      </trkpt>
      <trkpt lat="46.45897" lon="0.48486">
        <ele>130.89130920358</ele>
        <time>2021-09-13T08:44:32Z</time>
      </trkpt>
      <trkpt lat="46.45895" lon="0.48485">
        <ele>130.76072792895</ele>
        <time>2021-09-13T08:44:34Z</time>
      </trkpt>
      <trkpt lat="46.45892" lon="0.48484">
        <ele>130.56480697356</ele>
        <time>2021-09-13T08:44:36Z</time>
      </trkpt>
      <trkpt lat="46.4589" lon="0.48483">
        <ele>131.39832651615</ele>
        <time>2021-09-13T08:44:38Z</time>
      </trkpt>
      <trkpt lat="46.45887" lon="0.48482">
        <ele>131.07525068615</ele>
        <time>2021-09-13T08:44:40Z</time>
      </trkpt>
      <trkpt lat="46.45885" lon="0.48481">
        <ele>131.09930532798</ele>
        <time>2021-09-13T08:44:42Z</time>
      </trkpt>
      <trkpt lat="46.45883" lon="0.48481">
        <ele>131.46696903277</ele>
        <time>2021-09-13T08:44:43Z</time>
      </trkpt>
      <trkpt lat="46.4588" lon="0.4848">
        <ele>131.62199220713</ele>
        <time>2021-09-13T08:44:46Z</time>
      </trkpt>
      <trkpt lat="46.45878" lon="0.48478">
        <ele>131.64303001668</ele>
        <time>2021-09-13T08:44:48Z</time>
      </trkpt>
      <trkpt lat="46.45874" lon="0.48477">
        <ele>131.54161429964</ele>
        <time>2021-09-13T08:44:50Z</time>
      </trkpt>
      <trkpt lat="46.45872" lon="0.48476">
        <ele>131.57750780135</ele>
        <time>2021-09-13T08:44:52Z</time>
      </trkpt>
      <trkpt lat="46.4587" lon="0.48474">
        <ele>131.36036051344</ele>
        <time>2021-09-13T08:44:54Z</time>
      </trkpt>
      <trkpt lat="46.45867" lon="0.48472">
        <ele>131.44260688312</ele>
        <time>2021-09-13T08:44:56Z</time>
      </trkpt>
      <trkpt lat="46.45866" lon="0.4847">
        <ele>131.67224864662</ele>
        <time>2021-09-13T08:44:58Z</time>
      </trkpt>
      <trkpt lat="46.45864" lon="0.48468">
        <ele>131.3884472521</ele>
        <time>2021-09-13T08:45:00Z</time>
      </trkpt>
      <trkpt lat="46.45862" lon="0.48467">
        <ele>131.47021763027</ele>
        <time>2021-09-13T08:45:02Z</time>
      </trkpt>
      <trkpt lat="46.4586" lon="0.48466">
        <ele>131.75885725021</ele>
        <time>2021-09-13T08:45:04Z</time>
      </trkpt>
      <trkpt lat="46.45858" lon="0.48463">
        <ele>131.62022953294</ele>
        <time>2021-09-13T08:45:06Z</time>
      </trkpt>
      <trkpt lat="46.45855" lon="0.48462">
        <ele>131.7573442813</ele>
        <time>2021-09-13T08:45:08Z</time>
      </trkpt>
      <trkpt lat="46.45853" lon="0.4846">
        <ele>131.81712349318</ele>
        <time>2021-09-13T08:45:10Z</time>
      </trkpt>
      <trkpt lat="46.45852" lon="0.48459">
        <ele>131.31938094553</ele>
        <time>2021-09-13T08:45:11Z</time>
      </trkpt>
      <trkpt lat="46.4585" lon="0.48457">
        <ele>131.48725729436</ele>
        <time>2021-09-13T08:45:13Z</time>
      </trkpt>
      <trkpt lat="46.45848" lon="0.48456">
        <ele>131.43715322111</ele>
        <time>2021-09-13T08:45:15Z</time>
      </trkpt>
      <trkpt lat="46.45846" lon="0.48453">
        <ele>131.56596172694</ele>
        <time>2021-09-13T08:45:17Z</time>
      </trkpt>
      <trkpt lat="46.45845" lon="0.48451">
        <ele>131.74479035102</ele>
        <time>2021-09-13T08:45:20Z</time>
      </trkpt>
      <trkpt lat="46.45842" lon="0.48449">
        <ele>131.81297328789</ele>
        <time>2021-09-13T08:45:23Z</time>
      </trkpt>
      <trkpt lat="46.4584" lon="0.48448">
        <ele>131.97579810303</ele>
        <time>2021-09-13T08:45:25Z</time>
      </trkpt>
      <trkpt lat="46.45839" lon="0.48447">
        <ele>131.84501120821</ele>
        <time>2021-09-13T08:45:27Z</time>
      </trkpt>
      <trkpt lat="46.45837" lon="0.48445">
        <ele>131.89021863509</ele>
        <time>2021-09-13T08:45:29Z</time>
      </trkpt>
      <trkpt lat="46.45835" lon="0.48443">
        <ele>132.14893682953</ele>
        <time>2021-09-13T08:45:31Z</time>
      </trkpt>
      <trkpt lat="46.45832" lon="0.48441">
        <ele>131.79280330241</ele>
        <time>2021-09-13T08:45:33Z</time>
      </trkpt>
      <trkpt lat="46.4583" lon="0.4844">
        <ele>131.60176009499</ele>
        <time>2021-09-13T08:45:35Z</time>
      </trkpt>
      <trkpt lat="46.45829" lon="0.48438">
        <ele>131.66799607407</ele>
        <time>2021-09-13T08:45:37Z</time>
      </trkpt>
      <trkpt lat="46.45827" lon="0.48437">
        <ele>131.62367810775</ele>
        <time>2021-09-13T08:45:39Z</time>
      </trkpt>
      <trkpt lat="46.45825" lon="0.48435">
        <ele>131.78794391081</ele>
        <time>2021-09-13T08:45:41Z</time>
      </trkpt>
      <trkpt lat="46.45822" lon="0.48433">
        <ele>131.62944723945</ele>
        <time>2021-09-13T08:45:43Z</time>
      </trkpt>
      <trkpt lat="46.45821" lon="0.48431">
        <ele>131.62036283873</ele>
        <time>2021-09-13T08:45:44Z</time>
      </trkpt>
      <trkpt lat="46.4582" lon="0.48428">
        <ele>131.46254671644</ele>
        <time>2021-09-13T08:45:47Z</time>
      </trkpt>
      <trkpt lat="46.45818" lon="0.48425">
        <ele>131.69610840175</ele>
        <time>2021-09-13T08:45:49Z</time>
      </trkpt>
      <trkpt lat="46.45816" lon="0.48423">
        <ele>131.65063496865</ele>
        <time>2021-09-13T08:45:51Z</time>
      </trkpt>
      <trkpt lat="46.45814" lon="0.48421">
        <ele>131.58652799949</ele>
        <time>2021-09-13T08:45:53Z</time>
      </trkpt>
      <trkpt lat="46.45812" lon="0.48419">
        <ele>131.79110343754</ele>
        <time>2021-09-13T08:45:55Z</time>
      </trkpt>
      <trkpt lat="46.4581" lon="0.48417">
        <ele>131.76676069107</ele>
        <time>2021-09-13T08:45:57Z</time>
      </trkpt>
      <trkpt lat="46.45808" lon="0.48415">
        <ele>131.79919277318</ele>
        <time>2021-09-13T08:45:59Z</time>
      </trkpt>
      <trkpt lat="46.45805" lon="0.48413">
        <ele>131.52749028709</ele>
        <time>2021-09-13T08:46:01Z</time>
      </trkpt>
      <trkpt lat="46.45803" lon="0.48412">
        <ele>131.56464666408</ele>
        <time>2021-09-13T08:46:03Z</time>
      </trkpt>
      <trkpt lat="46.45802" lon="0.4841">
        <ele>131.49558022339</ele>
        <time>2021-09-13T08:46:05Z</time>
      </trkpt>
      <trkpt lat="46.45801" lon="0.48407">
        <ele>131.44921634905</ele>
        <time>2021-09-13T08:46:08Z</time>
      </trkpt>
      <trkpt lat="46.45799" lon="0.48405">
        <ele>131.57876383979</ele>
        <time>2021-09-13T08:46:10Z</time>
      </trkpt>
      <trkpt lat="46.45796" lon="0.48404">
        <ele>131.7311214963</ele>
        <time>2021-09-13T08:46:12Z</time>
      </trkpt>
      <trkpt lat="46.45793" lon="0.48401">
        <ele>131.68778700568</ele>
        <time>2021-09-13T08:46:14Z</time>
      </trkpt>
      <trkpt lat="46.45792" lon="0.48399">
        <ele>131.75758899096</ele>
        <time>2021-09-13T08:46:16Z</time>
      </trkpt>
      <trkpt lat="46.4579" lon="0.48397">
        <ele>131.61888670735</ele>
        <time>2021-09-13T08:46:17Z</time>
      </trkpt>
      <trkpt lat="46.45789" lon="0.48395">
        <ele>131.69600563869</ele>
        <time>2021-09-13T08:46:19Z</time>
      </trkpt>
      <trkpt lat="46.45786" lon="0.48393">
        <ele>131.59975665901</ele>
        <time>2021-09-13T08:46:21Z</time>
      </trkpt>
      <trkpt lat="46.45785" lon="0.48389">
        <ele>131.41043921094</ele>
        <time>2021-09-13T08:46:23Z</time>
      </trkpt>
      <trkpt lat="46.45783" lon="0.48387">
        <ele>131.58091671206</ele>
        <time>2021-09-13T08:46:25Z</time>
      </trkpt>
      <trkpt lat="46.45781" lon="0.48385">
        <ele>131.49964484572</ele>
        <time>2021-09-13T08:46:26Z</time>
      </trkpt>
      <trkpt lat="46.4578" lon="0.48383">
        <ele>131.49549840949</ele>
        <time>2021-09-13T08:46:27Z</time>
      </trkpt>
      <trkpt lat="46.45779" lon="0.4838">
        <ele>131.50752597023</ele>
        <time>2021-09-13T08:46:29Z</time>
      </trkpt>
      <trkpt lat="46.45777" lon="0.48378">
        <ele>131.42056943104</ele>
        <time>2021-09-13T08:46:31Z</time>
      </trkpt>
      <trkpt lat="46.45776" lon="0.48375">
        <ele>131.4287684178</ele>
        <time>2021-09-13T08:46:33Z</time>
      </trkpt>
      <trkpt lat="46.45775" lon="0.48373">
        <ele>131.6805871157</ele>
        <time>2021-09-13T08:46:34Z</time>
      </trkpt>
      <trkpt lat="46.45773" lon="0.48369">
        <ele>131.64194395673</ele>
        <time>2021-09-13T08:46:36Z</time>
      </trkpt>
      <trkpt lat="46.45773" lon="0.48365">
        <ele>131.50744860247</ele>
        <time>2021-09-13T08:46:38Z</time>
      </trkpt>
      <trkpt lat="46.4577" lon="0.48362">
        <ele>131.67485691048</ele>
        <time>2021-09-13T08:46:40Z</time>
      </trkpt>
      <trkpt lat="46.45769" lon="0.48359">
        <ele>131.67441039905</ele>
        <time>2021-09-13T08:46:42Z</time>
      </trkpt>
      <trkpt lat="46.45768" lon="0.48357">
        <ele>131.80981404893</ele>
        <time>2021-09-13T08:46:45Z</time>
      </trkpt>
      <trkpt lat="46.45767" lon="0.48354">
        <ele>131.82861910108</ele>
        <time>2021-09-13T08:46:52Z</time>
      </trkpt>
      <trkpt lat="46.45767" lon="0.48351">
        <ele>131.78940190375</ele>
        <time>2021-09-13T08:46:57Z</time>
      </trkpt>
      <trkpt lat="46.45768" lon="0.48349">
        <ele>131.6740241684</ele>
        <time>2021-09-13T08:47:04Z</time>
      </trkpt>
      <trkpt lat="46.45769" lon="0.48351">
        <ele>131.66145941895</ele>
        <time>2021-09-13T08:47:14Z</time>
      </trkpt>
      <trkpt lat="46.45767" lon="0.48351">
        <ele>131.64124879055</ele>
        <time>2021-09-13T08:47:28Z</time>
      </trkpt>
      <trkpt lat="46.45766" lon="0.48348">
        <ele>131.82349438965</ele>
        <time>2021-09-13T08:47:31Z</time>
      </trkpt>
      <trkpt lat="46.45764" lon="0.48347">
        <ele>131.83742346708</ele>
        <time>2021-09-13T08:47:34Z</time>
      </trkpt>
      <trkpt lat="46.45762" lon="0.48345">
        <ele>131.70141819399</ele>
        <time>2021-09-13T08:47:38Z</time>
      </trkpt>
      <trkpt lat="46.45764" lon="0.48347">
        <ele>131.80076784175</ele>
        <time>2021-09-13T08:47:48Z</time>
      </trkpt>
      <trkpt lat="46.45763" lon="0.48349">
        <ele>131.58694792353</ele>
        <time>2021-09-13T08:47:51Z</time>
      </trkpt>
      <trkpt lat="46.45762" lon="0.48353">
        <ele>131.82734651398</ele>
        <time>2021-09-13T08:47:53Z</time>
      </trkpt>
      <trkpt lat="46.45761" lon="0.48356">
        <ele>131.34402041044</ele>
        <time>2021-09-13T08:47:55Z</time>
      </trkpt>
      <trkpt lat="46.45759" lon="0.48358">
        <ele>131.13341850881</ele>
        <time>2021-09-13T08:47:57Z</time>
      </trkpt>
      <trkpt lat="46.45758" lon="0.48361">
        <ele>131.53428878263</ele>
        <time>2021-09-13T08:47:59Z</time>
      </trkpt>
      <trkpt lat="46.45757" lon="0.48365">
        <ele>131.74236158747</ele>
        <time>2021-09-13T08:48:02Z</time>
      </trkpt>
      <trkpt lat="46.45756" lon="0.48368">
        <ele>131.66715467814</ele>
        <time>2021-09-13T08:48:04Z</time>
      </trkpt>
      <trkpt lat="46.45755" lon="0.48369">
        <ele>131.96195218805</ele>
        <time>2021-09-13T08:48:06Z</time>
      </trkpt>
      <trkpt lat="46.45753" lon="0.48373">
        <ele>131.97914218437</ele>
        <time>2021-09-13T08:48:08Z</time>
      </trkpt>
      <trkpt lat="46.45751" lon="0.48376">
        <ele>132.09997336846</ele>
        <time>2021-09-13T08:48:09Z</time>
      </trkpt>
      <trkpt lat="46.45749" lon="0.48379">
        <ele>131.96597502846</ele>
        <time>2021-09-13T08:48:11Z</time>
      </trkpt>
      <trkpt lat="46.45748" lon="0.48382">
        <ele>131.73634956591</ele>
        <time>2021-09-13T08:48:14Z</time>
      </trkpt>
      <trkpt lat="46.45746" lon="0.48385">
        <ele>131.95933544077</ele>
        <time>2021-09-13T08:48:16Z</time>
      </trkpt>
      <trkpt lat="46.45745" lon="0.48389">
        <ele>131.57961930428</ele>
        <time>2021-09-13T08:48:20Z</time>
      </trkpt>
      <trkpt lat="46.45744" lon="0.48391">
        <ele>131.60121414624</ele>
        <time>2021-09-13T08:48:22Z</time>
      </trkpt>
      <trkpt lat="46.45742" lon="0.48393">
        <ele>131.84532014653</ele>
        <time>2021-09-13T08:48:24Z</time>
      </trkpt>
      <trkpt lat="46.4574" lon="0.48398">
        <ele>131.71678712033</ele>
        <time>2021-09-13T08:48:27Z</time>
      </trkpt>
      <trkpt lat="46.45739" lon="0.48402">
        <ele>131.48111197446</ele>
        <time>2021-09-13T08:48:29Z</time>
      </trkpt>
      <trkpt lat="46.45736" lon="0.48404">
        <ele>131.6335988082</ele>
        <time>2021-09-13T08:48:31Z</time>
      </trkpt>
      <trkpt lat="46.45735" lon="0.48407">
        <ele>131.86736487132</ele>
        <time>2021-09-13T08:48:33Z</time>
      </trkpt>
      <trkpt lat="46.45734" lon="0.4841">
        <ele>131.98731352203</ele>
        <time>2021-09-13T08:48:35Z</time>
      </trkpt>
      <trkpt lat="46.45732" lon="0.48413">
        <ele>132.06965253595</ele>
        <time>2021-09-13T08:48:37Z</time>
      </trkpt>
      <trkpt lat="46.45731" lon="0.48416">
        <ele>131.69327832479</ele>
        <time>2021-09-13T08:48:39Z</time>
      </trkpt>
      <trkpt lat="46.4573" lon="0.48419">
        <ele>131.96469143871</ele>
        <time>2021-09-13T08:48:41Z</time>
      </trkpt>
      <trkpt lat="46.45729" lon="0.48422">
        <ele>131.70086885244</ele>
        <time>2021-09-13T08:48:43Z</time>
      </trkpt>
      <trkpt lat="46.45727" lon="0.48426">
        <ele>131.990974769</ele>
        <time>2021-09-13T08:48:45Z</time>
      </trkpt>
      <trkpt lat="46.45726" lon="0.48429">
        <ele>131.77573028021</ele>
        <time>2021-09-13T08:48:47Z</time>
      </trkpt>
      <trkpt lat="46.45724" lon="0.4843">
        <ele>131.57452827599</ele>
        <time>2021-09-13T08:48:50Z</time>
      </trkpt>
      <trkpt lat="46.45722" lon="0.48434">
        <ele>131.80231306143</ele>
        <time>2021-09-13T08:48:52Z</time>
      </trkpt>
      <trkpt lat="46.45721" lon="0.48437">
        <ele>131.64118078444</ele>
        <time>2021-09-13T08:48:54Z</time>
      </trkpt>
      <trkpt lat="46.45721" lon="0.4844">
        <ele>132.10906572919</ele>
        <time>2021-09-13T08:48:56Z</time>
      </trkpt>
      <trkpt lat="46.4572" lon="0.48443">
        <ele>131.78798600659</ele>
        <time>2021-09-13T08:48:59Z</time>
      </trkpt>
      <trkpt lat="46.45719" lon="0.48446">
        <ele>131.90220426396</ele>
        <time>2021-09-13T08:49:01Z</time>
      </trkpt>
      <trkpt lat="46.45717" lon="0.4845">
        <ele>132.05152646545</ele>
        <time>2021-09-13T08:49:03Z</time>
      </trkpt>
      <trkpt lat="46.45716" lon="0.48454">
        <ele>131.91053451505</ele>
        <time>2021-09-13T08:49:07Z</time>
      </trkpt>
      <trkpt lat="46.45715" lon="0.48459">
        <ele>131.82327048387</ele>
        <time>2021-09-13T08:49:09Z</time>
      </trkpt>
      <trkpt lat="46.45714" lon="0.48462">
        <ele>131.69616338611</ele>
        <time>2021-09-13T08:49:11Z</time>
      </trkpt>
      <trkpt lat="46.45713" lon="0.48465">
        <ele>132.14782179613</ele>
        <time>2021-09-13T08:49:13Z</time>
      </trkpt>
      <trkpt lat="46.45712" lon="0.48468">
        <ele>131.6057576267</ele>
        <time>2021-09-13T08:49:14Z</time>
      </trkpt>
      <trkpt lat="46.45711" lon="0.48472">
        <ele>131.72560352832</ele>
        <time>2021-09-13T08:49:16Z</time>
      </trkpt>
      <trkpt lat="46.45711" lon="0.48477">
        <ele>131.87023310177</ele>
        <time>2021-09-13T08:49:18Z</time>
      </trkpt>
      <trkpt lat="46.45711" lon="0.4848">
        <ele>131.80206706747</ele>
        <time>2021-09-13T08:49:20Z</time>
      </trkpt>
      <trkpt lat="46.45709" lon="0.48484">
        <ele>131.92109845113</ele>
        <time>2021-09-13T08:49:22Z</time>
      </trkpt>
      <trkpt lat="46.45709" lon="0.48488">
        <ele>131.99665454403</ele>
        <time>2021-09-13T08:49:24Z</time>
      </trkpt>
      <trkpt lat="46.45708" lon="0.48492">
        <ele>131.68124131393</ele>
        <time>2021-09-13T08:49:26Z</time>
      </trkpt>
      <trkpt lat="46.45707" lon="0.48495">
        <ele>132.24741934054</ele>
        <time>2021-09-13T08:49:28Z</time>
      </trkpt>
      <trkpt lat="46.45707" lon="0.48499">
        <ele>131.88137227297</ele>
        <time>2021-09-13T08:49:30Z</time>
      </trkpt>
      <trkpt lat="46.45706" lon="0.48503">
        <ele>131.46298091579</ele>
        <time>2021-09-13T08:49:32Z</time>
      </trkpt>
      <trkpt lat="46.45705" lon="0.48505">
        <ele>131.9634196246</ele>
        <time>2021-09-13T08:49:34Z</time>
      </trkpt>
      <trkpt lat="46.45705" lon="0.48509">
        <ele>131.76879732963</ele>
        <time>2021-09-13T08:49:36Z</time>
      </trkpt>
      <trkpt lat="46.45705" lon="0.48512">
        <ele>131.73761552759</ele>
        <time>2021-09-13T08:49:38Z</time>
      </trkpt>
      <trkpt lat="46.45704" lon="0.48515">
        <ele>131.75350905489</ele>
        <time>2021-09-13T08:49:41Z</time>
      </trkpt>
      <trkpt lat="46.45703" lon="0.48519">
        <ele>131.72599545214</ele>
        <time>2021-09-13T08:49:44Z</time>
      </trkpt>
      <trkpt lat="46.45703" lon="0.48523">
        <ele>131.52025777288</ele>
        <time>2021-09-13T08:49:46Z</time>
      </trkpt>
      <trkpt lat="46.45702" lon="0.48527">
        <ele>131.59563873988</ele>
        <time>2021-09-13T08:49:48Z</time>
      </trkpt>
      <trkpt lat="46.45701" lon="0.4853">
        <ele>131.8307889225</ele>
        <time>2021-09-13T08:49:50Z</time>
      </trkpt>
      <trkpt lat="46.45701" lon="0.48533">
        <ele>131.83043277636</ele>
        <time>2021-09-13T08:49:52Z</time>
      </trkpt>
      <trkpt lat="46.457" lon="0.48537">
        <ele>132.25010589883</ele>
        <time>2021-09-13T08:49:54Z</time>
      </trkpt>
      <trkpt lat="46.45699" lon="0.48541">
        <ele>132.02030551899</ele>
        <time>2021-09-13T08:49:56Z</time>
      </trkpt>
      <trkpt lat="46.45697" lon="0.48543">
        <ele>132.17954192869</ele>
        <time>2021-09-13T08:49:58Z</time>
      </trkpt>
      <trkpt lat="46.45697" lon="0.48548">
        <ele>131.84926420357</ele>
        <time>2021-09-13T08:50:01Z</time>
      </trkpt>
      <trkpt lat="46.45696" lon="0.48551">
        <ele>132.24146859441</ele>
        <time>2021-09-13T08:50:03Z</time>
      </trkpt>
      <trkpt lat="46.45694" lon="0.48553">
        <ele>132.42881366983</ele>
        <time>2021-09-13T08:50:05Z</time>
      </trkpt>
      <trkpt lat="46.45693" lon="0.48557">
        <ele>132.80107299984</ele>
        <time>2021-09-13T08:50:07Z</time>
      </trkpt>
      <trkpt lat="46.45692" lon="0.48559">
        <ele>132.67238355614</ele>
        <time>2021-09-13T08:50:09Z</time>
      </trkpt>
      <trkpt lat="46.45691" lon="0.48564">
        <ele>133.12650274672</ele>
        <time>2021-09-13T08:50:11Z</time>
      </trkpt>
      <trkpt lat="46.4569" lon="0.48567">
        <ele>132.73440756649</ele>
        <time>2021-09-13T08:50:13Z</time>
      </trkpt>
      <trkpt lat="46.4569" lon="0.4857">
        <ele>132.65645846445</ele>
        <time>2021-09-13T08:50:15Z</time>
      </trkpt>
      <trkpt lat="46.45689" lon="0.48574">
        <ele>132.82476871833</ele>
        <time>2021-09-13T08:50:18Z</time>
      </trkpt>
      <trkpt lat="46.45688" lon="0.48578">
        <ele>132.3443762213</ele>
        <time>2021-09-13T08:50:20Z</time>
      </trkpt>
      <trkpt lat="46.45687" lon="0.48581">
        <ele>132.76538531389</ele>
        <time>2021-09-13T08:50:22Z</time>
      </trkpt>
      <trkpt lat="46.45686" lon="0.48584">
        <ele>132.45510747284</ele>
        <time>2021-09-13T08:50:24Z</time>
      </trkpt>
      <trkpt lat="46.45686" lon="0.48587">
        <ele>132.75212468952</ele>
        <time>2021-09-13T08:50:26Z</time>
      </trkpt>
      <trkpt lat="46.45685" lon="0.48591">
        <ele>133.02015468478</ele>
        <time>2021-09-13T08:50:28Z</time>
      </trkpt>
      <trkpt lat="46.45684" lon="0.48594">
        <ele>132.50537475385</ele>
        <time>2021-09-13T08:50:30Z</time>
      </trkpt>
      <trkpt lat="46.45683" lon="0.48597">
        <ele>132.3303251788</ele>
        <time>2021-09-13T08:50:32Z</time>
      </trkpt>
      <trkpt lat="46.45682" lon="0.48601">
        <ele>132.57606364414</ele>
        <time>2021-09-13T08:50:34Z</time>
      </trkpt>
      <trkpt lat="46.45681" lon="0.48604">
        <ele>132.381319887</ele>
        <time>2021-09-13T08:50:36Z</time>
      </trkpt>
      <trkpt lat="46.4568" lon="0.48606">
        <ele>132.5362963276</ele>
        <time>2021-09-13T08:50:38Z</time>
      </trkpt>
      <trkpt lat="46.45679" lon="0.4861">
        <ele>132.13368630689</ele>
        <time>2021-09-13T08:50:40Z</time>
      </trkpt>
      <trkpt lat="46.45679" lon="0.48613">
        <ele>132.73111954331</ele>
        <time>2021-09-13T08:50:42Z</time>
      </trkpt>
      <trkpt lat="46.45678" lon="0.48616">
        <ele>132.43633784726</ele>
        <time>2021-09-13T08:50:44Z</time>
      </trkpt>
      <trkpt lat="46.45678" lon="0.48619">
        <ele>132.41358726844</ele>
        <time>2021-09-13T08:50:46Z</time>
      </trkpt>
      <trkpt lat="46.45677" lon="0.48622">
        <ele>132.41744232271</ele>
        <time>2021-09-13T08:50:48Z</time>
      </trkpt>
      <trkpt lat="46.45676" lon="0.48625">
        <ele>132.20055305399</ele>
        <time>2021-09-13T08:50:50Z</time>
      </trkpt>
      <trkpt lat="46.45675" lon="0.48628">
        <ele>132.44004200492</ele>
        <time>2021-09-13T08:50:52Z</time>
      </trkpt>
      <trkpt lat="46.45675" lon="0.48631">
        <ele>132.41377231386</ele>
        <time>2021-09-13T08:50:54Z</time>
      </trkpt>
      <trkpt lat="46.45674" lon="0.48634">
        <ele>132.35489405971</ele>
        <time>2021-09-13T08:50:56Z</time>
      </trkpt>
      <trkpt lat="46.45673" lon="0.48637">
        <ele>132.48872568831</ele>
        <time>2021-09-13T08:50:58Z</time>
      </trkpt>
      <trkpt lat="46.45672" lon="0.4864">
        <ele>132.45774706826</ele>
        <time>2021-09-13T08:51:00Z</time>
      </trkpt>
      <trkpt lat="46.45671" lon="0.48643">
        <ele>132.51226568408</ele>
        <time>2021-09-13T08:51:02Z</time>
      </trkpt>
      <trkpt lat="46.4567" lon="0.48647">
        <ele>132.6265654061</ele>
        <time>2021-09-13T08:51:04Z</time>
      </trkpt>
      <trkpt lat="46.45669" lon="0.4865">
        <ele>132.57460121904</ele>
        <time>2021-09-13T08:51:06Z</time>
      </trkpt>
      <trkpt lat="46.45668" lon="0.48652">
        <ele>132.43693298846</ele>
        <time>2021-09-13T08:51:08Z</time>
      </trkpt>
      <trkpt lat="46.45667" lon="0.48655">
        <ele>132.75515288115</ele>
        <time>2021-09-13T08:51:10Z</time>
      </trkpt>
      <trkpt lat="46.45666" lon="0.48659">
        <ele>132.34711454343</ele>
        <time>2021-09-13T08:51:12Z</time>
      </trkpt>
      <trkpt lat="46.45665" lon="0.48663">
        <ele>132.31997696869</ele>
        <time>2021-09-13T08:51:15Z</time>
      </trkpt>
      <trkpt lat="46.45664" lon="0.48665">
        <ele>132.2619420737</ele>
        <time>2021-09-13T08:51:17Z</time>
      </trkpt>
      <trkpt lat="46.45663" lon="0.48668">
        <ele>131.83512439113</ele>
        <time>2021-09-13T08:51:19Z</time>
      </trkpt>
      <trkpt lat="46.45662" lon="0.48671">
        <ele>132.2284437567</ele>
        <time>2021-09-13T08:51:20Z</time>
      </trkpt>
      <trkpt lat="46.45661" lon="0.48674">
        <ele>132.07449824922</ele>
        <time>2021-09-13T08:51:22Z</time>
      </trkpt>
      <trkpt lat="46.4566" lon="0.48676">
        <ele>132.00739900488</ele>
        <time>2021-09-13T08:51:24Z</time>
      </trkpt>
      <trkpt lat="46.45659" lon="0.48678">
        <ele>132.01207010634</ele>
        <time>2021-09-13T08:51:25Z</time>
      </trkpt>
      <trkpt lat="46.45658" lon="0.48682">
        <ele>131.89703815058</ele>
        <time>2021-09-13T08:51:27Z</time>
      </trkpt>
      <trkpt lat="46.45657" lon="0.48685">
        <ele>131.83122334443</ele>
        <time>2021-09-13T08:51:29Z</time>
      </trkpt>
      <trkpt lat="46.45656" lon="0.48687">
        <ele>131.88215361815</ele>
        <time>2021-09-13T08:51:31Z</time>
      </trkpt>
      <trkpt lat="46.45656" lon="0.4869">
        <ele>131.84786694869</ele>
        <time>2021-09-13T08:51:33Z</time>
      </trkpt>
      <trkpt lat="46.45655" lon="0.48693">
        <ele>131.82171621639</ele>
        <time>2021-09-13T08:51:35Z</time>
      </trkpt>
      <trkpt lat="46.45654" lon="0.48697">
        <ele>131.91992288548</ele>
        <time>2021-09-13T08:51:37Z</time>
      </trkpt>
      <trkpt lat="46.45654" lon="0.487">
        <ele>131.54174413998</ele>
        <time>2021-09-13T08:51:38Z</time>
      </trkpt>
      <trkpt lat="46.45653" lon="0.48703">
        <ele>131.67216102965</ele>
        <time>2021-09-13T08:51:40Z</time>
      </trkpt>
      <trkpt lat="46.45652" lon="0.48706">
        <ele>131.81628961395</ele>
        <time>2021-09-13T08:51:42Z</time>
      </trkpt>
      <trkpt lat="46.45651" lon="0.48709">
        <ele>131.55011998117</ele>
        <time>2021-09-13T08:51:44Z</time>
      </trkpt>
      <trkpt lat="46.45651" lon="0.48714">
        <ele>131.69374186452</ele>
        <time>2021-09-13T08:51:46Z</time>
      </trkpt>
      <trkpt lat="46.4565" lon="0.48717">
        <ele>131.60244220681</ele>
        <time>2021-09-13T08:51:48Z</time>
      </trkpt>
      <trkpt lat="46.4565" lon="0.48722">
        <ele>131.53663262352</ele>
        <time>2021-09-13T08:51:50Z</time>
      </trkpt>
      <trkpt lat="46.45649" lon="0.48725">
        <ele>131.83525834046</ele>
        <time>2021-09-13T08:51:52Z</time>
      </trkpt>
      <trkpt lat="46.45648" lon="0.48727">
        <ele>131.21569874696</ele>
        <time>2021-09-13T08:51:53Z</time>
      </trkpt>
      <trkpt lat="46.45647" lon="0.48731">
        <ele>131.52957610786</ele>
        <time>2021-09-13T08:51:55Z</time>
      </trkpt>
      <trkpt lat="46.45646" lon="0.48734">
        <ele>131.67053164821</ele>
        <time>2021-09-13T08:51:57Z</time>
      </trkpt>
      <trkpt lat="46.45646" lon="0.48737">
        <ele>131.93342560437</ele>
        <time>2021-09-13T08:51:59Z</time>
      </trkpt>
      <trkpt lat="46.45644" lon="0.4874">
        <ele>131.78857105598</ele>
        <time>2021-09-13T08:52:01Z</time>
      </trkpt>
      <trkpt lat="46.45642" lon="0.48742">
        <ele>131.61243070662</ele>
        <time>2021-09-13T08:52:03Z</time>
      </trkpt>
      <trkpt lat="46.45639" lon="0.48744">
        <ele>131.83823260106</ele>
        <time>2021-09-13T08:52:06Z</time>
      </trkpt>
      <trkpt lat="46.45638" lon="0.48747">
        <ele>131.76619173214</ele>
        <time>2021-09-13T08:52:08Z</time>
      </trkpt>
      <trkpt lat="46.45636" lon="0.4875">
        <ele>131.68714129925</ele>
        <time>2021-09-13T08:52:10Z</time>
      </trkpt>
      <trkpt lat="46.45634" lon="0.48752">
        <ele>131.61398079433</ele>
        <time>2021-09-13T08:52:12Z</time>
      </trkpt>
      <trkpt lat="46.45632" lon="0.48755">
        <ele>131.55031542759</ele>
        <time>2021-09-13T08:52:14Z</time>
      </trkpt>
      <trkpt lat="46.45631" lon="0.48757">
        <ele>131.31027276535</ele>
        <time>2021-09-13T08:52:16Z</time>
      </trkpt>
      <trkpt lat="46.4563" lon="0.4876">
        <ele>131.37830203678</ele>
        <time>2021-09-13T08:52:18Z</time>
      </trkpt>
      <trkpt lat="46.45628" lon="0.48763">
        <ele>131.67713453155</ele>
        <time>2021-09-13T08:52:20Z</time>
      </trkpt>
      <trkpt lat="46.45626" lon="0.48763">
        <ele>131.76438855659</ele>
        <time>2021-09-13T08:52:22Z</time>
      </trkpt>
      <trkpt lat="46.45624" lon="0.48765">
        <ele>131.78240547422</ele>
        <time>2021-09-13T08:52:25Z</time>
      </trkpt>
      <trkpt lat="46.45623" lon="0.48767">
        <ele>131.64196516946</ele>
        <time>2021-09-13T08:52:26Z</time>
      </trkpt>
      <trkpt lat="46.45621" lon="0.4877">
        <ele>131.57694174256</ele>
        <time>2021-09-13T08:52:28Z</time>
      </trkpt>
      <trkpt lat="46.45619" lon="0.48771">
        <ele>131.56704634614</ele>
        <time>2021-09-13T08:52:30Z</time>
      </trkpt>
      <trkpt lat="46.45617" lon="0.48774">
        <ele>131.60400689393</ele>
        <time>2021-09-13T08:52:33Z</time>
      </trkpt>
      <trkpt lat="46.45615" lon="0.48776">
        <ele>131.80375697557</ele>
        <time>2021-09-13T08:52:36Z</time>
      </trkpt>
      <trkpt lat="46.45612" lon="0.48778">
        <ele>131.81569326948</ele>
        <time>2021-09-13T08:52:38Z</time>
      </trkpt>
      <trkpt lat="46.4561" lon="0.4878">
        <ele>131.61205995549</ele>
        <time>2021-09-13T08:52:40Z</time>
      </trkpt>
      <trkpt lat="46.45607" lon="0.48782">
        <ele>131.61992018204</ele>
        <time>2021-09-13T08:52:42Z</time>
      </trkpt>
      <trkpt lat="46.45605" lon="0.48784">
        <ele>131.64904156514</ele>
        <time>2021-09-13T08:52:44Z</time>
      </trkpt>
      <trkpt lat="46.45603" lon="0.48786">
        <ele>131.56903944165</ele>
        <time>2021-09-13T08:52:46Z</time>
      </trkpt>
      <trkpt lat="46.456" lon="0.48788">
        <ele>131.37149238959</ele>
        <time>2021-09-13T08:52:48Z</time>
      </trkpt>
      <trkpt lat="46.45597" lon="0.48789">
        <ele>131.91879968625</ele>
        <time>2021-09-13T08:52:50Z</time>
      </trkpt>
      <trkpt lat="46.45595" lon="0.4879">
        <ele>131.57856190763</ele>
        <time>2021-09-13T08:52:52Z</time>
      </trkpt>
      <trkpt lat="46.45593" lon="0.48791">
        <ele>131.51715959329</ele>
        <time>2021-09-13T08:52:53Z</time>
      </trkpt>
      <trkpt lat="46.45591" lon="0.48792">
        <ele>131.25847773347</ele>
        <time>2021-09-13T08:52:55Z</time>
      </trkpt>
      <trkpt lat="46.45589" lon="0.48793">
        <ele>131.65328789316</ele>
        <time>2021-09-13T08:52:57Z</time>
      </trkpt>
      <trkpt lat="46.45586" lon="0.48796">
        <ele>131.7163497638</ele>
        <time>2021-09-13T08:52:59Z</time>
      </trkpt>
      <trkpt lat="46.45585" lon="0.48798">
        <ele>131.62108845729</ele>
        <time>2021-09-13T08:53:01Z</time>
      </trkpt>
      <trkpt lat="46.45583" lon="0.488">
        <ele>131.49116162118</ele>
        <time>2021-09-13T08:53:03Z</time>
      </trkpt>
      <trkpt lat="46.45581" lon="0.48801">
        <ele>131.72966749407</ele>
        <time>2021-09-13T08:53:05Z</time>
      </trkpt>
      <trkpt lat="46.45579" lon="0.48803">
        <ele>131.34285188839</ele>
        <time>2021-09-13T08:53:07Z</time>
      </trkpt>
      <trkpt lat="46.45577" lon="0.48805">
        <ele>131.3574118074</ele>
        <time>2021-09-13T08:53:08Z</time>
      </trkpt>
      <trkpt lat="46.45575" lon="0.48808">
        <ele>131.76419254951</ele>
        <time>2021-09-13T08:53:10Z</time>
      </trkpt>
      <trkpt lat="46.45573" lon="0.4881">
        <ele>131.63832101505</ele>
        <time>2021-09-13T08:53:13Z</time>
      </trkpt>
      <trkpt lat="46.4557" lon="0.48812">
        <ele>131.49320358783</ele>
        <time>2021-09-13T08:53:15Z</time>
      </trkpt>
      <trkpt lat="46.45569" lon="0.48815">
        <ele>131.56708173919</ele>
        <time>2021-09-13T08:53:17Z</time>
      </trkpt>
      <trkpt lat="46.45567" lon="0.48817">
        <ele>131.48103459273</ele>
        <time>2021-09-13T08:53:19Z</time>
      </trkpt>
      <trkpt lat="46.45565" lon="0.48819">
        <ele>130.79316727351</ele>
        <time>2021-09-13T08:53:22Z</time>
      </trkpt>
      <trkpt lat="46.45564" lon="0.48821">
        <ele>131.11112781707</ele>
        <time>2021-09-13T08:53:24Z</time>
      </trkpt>
      <trkpt lat="46.45562" lon="0.48824">
        <ele>131.22610128857</ele>
        <time>2021-09-13T08:53:26Z</time>
      </trkpt>
      <trkpt lat="46.4556" lon="0.48825">
        <ele>131.09641544428</ele>
        <time>2021-09-13T08:53:27Z</time>
      </trkpt>
      <trkpt lat="46.45559" lon="0.48828">
        <ele>131.04286529124</ele>
        <time>2021-09-13T08:53:29Z</time>
      </trkpt>
      <trkpt lat="46.45557" lon="0.4883">
        <ele>131.35920643713</ele>
        <time>2021-09-13T08:53:31Z</time>
      </trkpt>
      <trkpt lat="46.45555" lon="0.48831">
        <ele>131.08905937709</ele>
        <time>2021-09-13T08:53:33Z</time>
      </trkpt>
      <trkpt lat="46.45553" lon="0.48833">
        <ele>131.12478894927</ele>
        <time>2021-09-13T08:53:35Z</time>
      </trkpt>
      <trkpt lat="46.45551" lon="0.48835">
        <ele>130.85080978554</ele>
        <time>2021-09-13T08:53:37Z</time>
      </trkpt>
      <trkpt lat="46.45549" lon="0.48837">
        <ele>130.85082390904</ele>
        <time>2021-09-13T08:53:39Z</time>
      </trkpt>
      <trkpt lat="46.45547" lon="0.48839">
        <ele>131.20060794055</ele>
        <time>2021-09-13T08:53:42Z</time>
      </trkpt>
      <trkpt lat="46.45544" lon="0.48841">
        <ele>130.94750995096</ele>
        <time>2021-09-13T08:53:44Z</time>
      </trkpt>
      <trkpt lat="46.45542" lon="0.48844">
        <ele>130.85746817756</ele>
        <time>2021-09-13T08:53:46Z</time>
      </trkpt>
      <trkpt lat="46.4554" lon="0.48846">
        <ele>130.72126159444</ele>
        <time>2021-09-13T08:53:48Z</time>
      </trkpt>
      <trkpt lat="46.45538" lon="0.48849">
        <ele>130.65136063006</ele>
        <time>2021-09-13T08:53:50Z</time>
      </trkpt>
      <trkpt lat="46.45536" lon="0.4885">
        <ele>130.45964169409</ele>
        <time>2021-09-13T08:53:53Z</time>
      </trkpt>
      <trkpt lat="46.45534" lon="0.48852">
        <ele>130.48717760947</ele>
        <time>2021-09-13T08:53:55Z</time>
      </trkpt>
      <trkpt lat="46.45532" lon="0.48853">
        <ele>130.33551915735</ele>
        <time>2021-09-13T08:53:56Z</time>
      </trkpt>
      <trkpt lat="46.45531" lon="0.48855">
        <ele>130.46382586565</ele>
        <time>2021-09-13T08:53:59Z</time>
      </trkpt>
      <trkpt lat="46.45529" lon="0.48858">
        <ele>130.1424152134</ele>
        <time>2021-09-13T08:54:02Z</time>
      </trkpt>
      <trkpt lat="46.45528" lon="0.48861">
        <ele>130.09560710192</ele>
        <time>2021-09-13T08:54:04Z</time>
      </trkpt>
      <trkpt lat="46.45526" lon="0.48863">
        <ele>130.04021514766</ele>
        <time>2021-09-13T08:54:06Z</time>
      </trkpt>
      <trkpt lat="46.45524" lon="0.48865">
        <ele>129.84101336729</ele>
        <time>2021-09-13T08:54:09Z</time>
      </trkpt>
      <trkpt lat="46.45522" lon="0.48867">
        <ele>129.65162338968</ele>
        <time>2021-09-13T08:54:11Z</time>
      </trkpt>
      <trkpt lat="46.45519" lon="0.48869">
        <ele>129.71470241994</ele>
        <time>2021-09-13T08:54:13Z</time>
      </trkpt>
      <trkpt lat="46.45517" lon="0.48872">
        <ele>129.70129148662</ele>
        <time>2021-09-13T08:54:15Z</time>
      </trkpt>
      <trkpt lat="46.45515" lon="0.48873">
        <ele>129.64407471288</ele>
        <time>2021-09-13T08:54:17Z</time>
      </trkpt>
      <trkpt lat="46.45513" lon="0.48875">
        <ele>129.86966866162</ele>
        <time>2021-09-13T08:54:19Z</time>
      </trkpt>
      <trkpt lat="46.45511" lon="0.48876">
        <ele>130.0447546104</ele>
        <time>2021-09-13T08:54:21Z</time>
      </trkpt>
      <trkpt lat="46.45509" lon="0.48878">
        <ele>129.785078221</ele>
        <time>2021-09-13T08:54:22Z</time>
      </trkpt>
      <trkpt lat="46.45506" lon="0.48881">
        <ele>129.58989297505</ele>
        <time>2021-09-13T08:54:25Z</time>
      </trkpt>
      <trkpt lat="46.45504" lon="0.48884">
        <ele>130.02720942535</ele>
        <time>2021-09-13T08:54:28Z</time>
      </trkpt>
      <trkpt lat="46.45501" lon="0.48886">
        <ele>129.91093532369</ele>
        <time>2021-09-13T08:54:30Z</time>
      </trkpt>
      <trkpt lat="46.45499" lon="0.48888">
        <ele>129.94300857</ele>
        <time>2021-09-13T08:54:32Z</time>
      </trkpt>
      <trkpt lat="46.45498" lon="0.48889">
        <ele>129.8582295971</ele>
        <time>2021-09-13T08:54:34Z</time>
      </trkpt>
      <trkpt lat="46.45495" lon="0.48891">
        <ele>129.90456201974</ele>
        <time>2021-09-13T08:54:36Z</time>
      </trkpt>
      <trkpt lat="46.45493" lon="0.48892">
        <ele>129.59321574122</ele>
        <time>2021-09-13T08:54:37Z</time>
      </trkpt>
      <trkpt lat="46.45491" lon="0.48894">
        <ele>129.47378233727</ele>
        <time>2021-09-13T08:54:40Z</time>
      </trkpt>
      <trkpt lat="46.45489" lon="0.48897">
        <ele>129.6675022589</ele>
        <time>2021-09-13T08:54:42Z</time>
      </trkpt>
      <trkpt lat="46.45487" lon="0.48898">
        <ele>129.60098013375</ele>
        <time>2021-09-13T08:54:44Z</time>
      </trkpt>
      <trkpt lat="46.45485" lon="0.48899">
        <ele>129.69688291196</ele>
        <time>2021-09-13T08:54:46Z</time>
      </trkpt>
      <trkpt lat="46.45483" lon="0.48901">
        <ele>129.74451071676</ele>
        <time>2021-09-13T08:54:48Z</time>
      </trkpt>
      <trkpt lat="46.45481" lon="0.48902">
        <ele>129.60840267874</ele>
        <time>2021-09-13T08:54:50Z</time>
      </trkpt>
      <trkpt lat="46.45479" lon="0.48905">
        <ele>129.68043241836</ele>
        <time>2021-09-13T08:54:52Z</time>
      </trkpt>
      <trkpt lat="46.45476" lon="0.48907">
        <ele>129.40029181913</ele>
        <time>2021-09-13T08:54:54Z</time>
      </trkpt>
      <trkpt lat="46.45473" lon="0.48909">
        <ele>129.0508051822</ele>
        <time>2021-09-13T08:54:57Z</time>
      </trkpt>
      <trkpt lat="46.45471" lon="0.4891">
        <ele>129.18795743398</ele>
        <time>2021-09-13T08:54:59Z</time>
      </trkpt>
      <trkpt lat="46.45469" lon="0.48914">
        <ele>129.15887417272</ele>
        <time>2021-09-13T08:55:01Z</time>
      </trkpt>
      <trkpt lat="46.45466" lon="0.48917">
        <ele>128.76491180342</ele>
        <time>2021-09-13T08:55:03Z</time>
      </trkpt>
      <trkpt lat="46.45464" lon="0.48919">
        <ele>128.92155272327</ele>
        <time>2021-09-13T08:55:05Z</time>
      </trkpt>
      <trkpt lat="46.45462" lon="0.48921">
        <ele>129.08853745647</ele>
        <time>2021-09-13T08:55:07Z</time>
      </trkpt>
      <trkpt lat="46.45459" lon="0.48923">
        <ele>128.75825198088</ele>
        <time>2021-09-13T08:55:09Z</time>
      </trkpt>
      <trkpt lat="46.45457" lon="0.48925">
        <ele>129.0183605589</ele>
        <time>2021-09-13T08:55:11Z</time>
      </trkpt>
      <trkpt lat="46.45454" lon="0.48928">
        <ele>128.97251852509</ele>
        <time>2021-09-13T08:55:13Z</time>
      </trkpt>
      <trkpt lat="46.45452" lon="0.4893">
        <ele>129.00245550275</ele>
        <time>2021-09-13T08:55:15Z</time>
      </trkpt>
      <trkpt lat="46.4545" lon="0.48932">
        <ele>128.80214975029</ele>
        <time>2021-09-13T08:55:17Z</time>
      </trkpt>
      <trkpt lat="46.45448" lon="0.48934">
        <ele>128.99229118694</ele>
        <time>2021-09-13T08:55:19Z</time>
      </trkpt>
      <trkpt lat="46.45447" lon="0.48937">
        <ele>128.82666921802</ele>
        <time>2021-09-13T08:55:21Z</time>
      </trkpt>
      <trkpt lat="46.45444" lon="0.48938">
        <ele>128.93881560769</ele>
        <time>2021-09-13T08:55:23Z</time>
      </trkpt>
      <trkpt lat="46.45442" lon="0.48941">
        <ele>129.18947869819</ele>
        <time>2021-09-13T08:55:26Z</time>
      </trkpt>
      <trkpt lat="46.45441" lon="0.48942">
        <ele>128.867501623</ele>
        <time>2021-09-13T08:55:28Z</time>
      </trkpt>
      <trkpt lat="46.45438" lon="0.48944">
        <ele>128.99569623545</ele>
        <time>2021-09-13T08:55:30Z</time>
      </trkpt>
      <trkpt lat="46.45436" lon="0.48946">
        <ele>128.62416815571</ele>
        <time>2021-09-13T08:55:32Z</time>
      </trkpt>
      <trkpt lat="46.45435" lon="0.48948">
        <ele>129.01433484163</ele>
        <time>2021-09-13T08:55:35Z</time>
      </trkpt>
      <trkpt lat="46.45433" lon="0.4895">
        <ele>128.8686556574</ele>
        <time>2021-09-13T08:55:37Z</time>
      </trkpt>
      <trkpt lat="46.45431" lon="0.48951">
        <ele>128.99441039376</ele>
        <time>2021-09-13T08:55:39Z</time>
      </trkpt>
      <trkpt lat="46.45429" lon="0.48953">
        <ele>128.84167839587</ele>
        <time>2021-09-13T08:55:41Z</time>
      </trkpt>
      <trkpt lat="46.45426" lon="0.48956">
        <ele>129.14653417002</ele>
        <time>2021-09-13T08:55:44Z</time>
      </trkpt>
      <trkpt lat="46.45424" lon="0.48958">
        <ele>128.46763115842</ele>
        <time>2021-09-13T08:55:46Z</time>
      </trkpt>
      <trkpt lat="46.45421" lon="0.48961">
        <ele>128.84393445309</ele>
        <time>2021-09-13T08:55:48Z</time>
      </trkpt>
      <trkpt lat="46.4542" lon="0.48962">
        <ele>128.54501278698</ele>
        <time>2021-09-13T08:55:50Z</time>
      </trkpt>
      <trkpt lat="46.45418" lon="0.48965">
        <ele>128.86049376056</ele>
        <time>2021-09-13T08:55:52Z</time>
      </trkpt>
      <trkpt lat="46.45416" lon="0.48967">
        <ele>128.82741960417</ele>
        <time>2021-09-13T08:55:54Z</time>
      </trkpt>
      <trkpt lat="46.45414" lon="0.4897">
        <ele>128.80231490266</ele>
        <time>2021-09-13T08:55:56Z</time>
      </trkpt>
      <trkpt lat="46.45413" lon="0.48974">
        <ele>128.98200427368</ele>
        <time>2021-09-13T08:55:58Z</time>
      </trkpt>
      <trkpt lat="46.45411" lon="0.48975">
        <ele>128.63164307177</ele>
        <time>2021-09-13T08:56:00Z</time>
      </trkpt>
      <trkpt lat="46.45409" lon="0.48976">
        <ele>128.81889950577</ele>
        <time>2021-09-13T08:56:02Z</time>
      </trkpt>
      <trkpt lat="46.45406" lon="0.48979">
        <ele>128.73436649796</ele>
        <time>2021-09-13T08:56:04Z</time>
      </trkpt>
      <trkpt lat="46.45404" lon="0.48981">
        <ele>128.45243472699</ele>
        <time>2021-09-13T08:56:06Z</time>
      </trkpt>
      <trkpt lat="46.45402" lon="0.48984">
        <ele>128.4035524046</ele>
        <time>2021-09-13T08:56:10Z</time>
      </trkpt>
      <trkpt lat="46.454" lon="0.48986">
        <ele>128.47732059006</ele>
        <time>2021-09-13T08:56:11Z</time>
      </trkpt>
      <trkpt lat="46.45398" lon="0.48987">
        <ele>128.24984119181</ele>
        <time>2021-09-13T08:56:13Z</time>
      </trkpt>
      <trkpt lat="46.45396" lon="0.48989">
        <ele>128.34959917981</ele>
        <time>2021-09-13T08:56:14Z</time>
      </trkpt>
      <trkpt lat="46.45395" lon="0.48991">
        <ele>128.66317023709</ele>
        <time>2021-09-13T08:56:16Z</time>
      </trkpt>
      <trkpt lat="46.45393" lon="0.48993">
        <ele>128.70606933255</ele>
        <time>2021-09-13T08:56:18Z</time>
      </trkpt>
      <trkpt lat="46.45391" lon="0.48995">
        <ele>128.77128561959</ele>
        <time>2021-09-13T08:56:20Z</time>
      </trkpt>
      <trkpt lat="46.45389" lon="0.48998">
        <ele>128.66929099336</ele>
        <time>2021-09-13T08:56:22Z</time>
      </trkpt>
      <trkpt lat="46.45386" lon="0.49">
        <ele>128.98112245277</ele>
        <time>2021-09-13T08:56:24Z</time>
      </trkpt>
      <trkpt lat="46.45383" lon="0.49001">
        <ele>128.45871311426</ele>
        <time>2021-09-13T08:56:26Z</time>
      </trkpt>
      <trkpt lat="46.45381" lon="0.49003">
        <ele>129.14740119595</ele>
        <time>2021-09-13T08:56:29Z</time>
      </trkpt>
      <trkpt lat="46.45379" lon="0.49006">
        <ele>128.4265441047</ele>
        <time>2021-09-13T08:56:32Z</time>
      </trkpt>
      <trkpt lat="46.45378" lon="0.49008">
        <ele>128.5019080732</ele>
        <time>2021-09-13T08:56:34Z</time>
      </trkpt>
      <trkpt lat="46.45376" lon="0.49011">
        <ele>128.72883113381</ele>
        <time>2021-09-13T08:56:36Z</time>
      </trkpt>
      <trkpt lat="46.45375" lon="0.49013">
        <ele>128.88947566133</ele>
        <time>2021-09-13T08:56:37Z</time>
      </trkpt>
      <trkpt lat="46.45373" lon="0.49016">
        <ele>128.6045829514</ele>
        <time>2021-09-13T08:56:38Z</time>
      </trkpt>
      <trkpt lat="46.45371" lon="0.49017">
        <ele>128.85396052338</ele>
        <time>2021-09-13T08:56:41Z</time>
      </trkpt>
      <trkpt lat="46.45369" lon="0.49019">
        <ele>128.99210004043</ele>
        <time>2021-09-13T08:56:45Z</time>
      </trkpt>
      <trkpt lat="46.45367" lon="0.49021">
        <ele>128.53374872729</ele>
        <time>2021-09-13T08:56:47Z</time>
      </trkpt>
      <trkpt lat="46.45364" lon="0.4902">
        <ele>128.40953421872</ele>
        <time>2021-09-13T08:56:52Z</time>
      </trkpt>
      <trkpt lat="46.45362" lon="0.49019">
        <ele>128.348683686</ele>
        <time>2021-09-13T08:56:54Z</time>
      </trkpt>
      <trkpt lat="46.45361" lon="0.49015">
        <ele>128.76636997052</ele>
        <time>2021-09-13T08:56:57Z</time>
      </trkpt>
      <trkpt lat="46.4536" lon="0.49012">
        <ele>128.74439608492</ele>
        <time>2021-09-13T08:56:58Z</time>
      </trkpt>
      <trkpt lat="46.45358" lon="0.49009">
        <ele>128.39109505899</ele>
        <time>2021-09-13T08:57:01Z</time>
      </trkpt>
      <trkpt lat="46.45357" lon="0.49007">
        <ele>128.94096719287</ele>
        <time>2021-09-13T08:57:02Z</time>
      </trkpt>
      <trkpt lat="46.45355" lon="0.49005">
        <ele>128.23429467063</ele>
        <time>2021-09-13T08:57:03Z</time>
      </trkpt>
      <trkpt lat="46.45354" lon="0.49002">
        <ele>129.2469272092</ele>
        <time>2021-09-13T08:57:08Z</time>
      </trkpt>
      <trkpt lat="46.45353" lon="0.49">
        <ele>128.88615225535</ele>
        <time>2021-09-13T08:57:10Z</time>
      </trkpt>
      <trkpt lat="46.45352" lon="0.48997">
        <ele>128.95711107366</ele>
        <time>2021-09-13T08:57:12Z</time>
      </trkpt>
      <trkpt lat="46.4535" lon="0.48994">
        <ele>128.79657489248</ele>
        <time>2021-09-13T08:57:15Z</time>
      </trkpt>
      <trkpt lat="46.45348" lon="0.48991">
        <ele>128.99886940513</ele>
        <time>2021-09-13T08:57:17Z</time>
      </trkpt>
      <trkpt lat="46.45347" lon="0.48989">
        <ele>129.26182001363</ele>
        <time>2021-09-13T08:57:20Z</time>
      </trkpt>
      <trkpt lat="46.45345" lon="0.48986">
        <ele>129.18724612053</ele>
        <time>2021-09-13T08:57:22Z</time>
      </trkpt>
      <trkpt lat="46.45343" lon="0.48982">
        <ele>129.19674341939</ele>
        <time>2021-09-13T08:57:24Z</time>
      </trkpt>
      <trkpt lat="46.45342" lon="0.48981">
        <ele>129.65336937271</ele>
        <time>2021-09-13T08:57:26Z</time>
      </trkpt>
      <trkpt lat="46.4534" lon="0.48978">
        <ele>129.59536190145</ele>
        <time>2021-09-13T08:57:29Z</time>
      </trkpt>
      <trkpt lat="46.45338" lon="0.48975">
        <ele>129.76522912178</ele>
        <time>2021-09-13T08:57:31Z</time>
      </trkpt>
      <trkpt lat="46.45337" lon="0.48973">
        <ele>129.27273043711</ele>
        <time>2021-09-13T08:57:33Z</time>
      </trkpt>
      <trkpt lat="46.45334" lon="0.4897">
        <ele>129.76748726238</ele>
        <time>2021-09-13T08:57:36Z</time>
      </trkpt>
      <trkpt lat="46.45333" lon="0.48968">
        <ele>129.84618766513</ele>
        <time>2021-09-13T08:57:38Z</time>
      </trkpt>
      <trkpt lat="46.45332" lon="0.48966">
        <ele>129.78866162244</ele>
        <time>2021-09-13T08:57:40Z</time>
      </trkpt>
      <trkpt lat="46.4533" lon="0.48963">
        <ele>129.90956199635</ele>
        <time>2021-09-13T08:57:42Z</time>
      </trkpt>
      <trkpt lat="46.45328" lon="0.4896">
        <ele>130.30006549507</ele>
        <time>2021-09-13T08:57:44Z</time>
      </trkpt>
      <trkpt lat="46.45326" lon="0.48958">
        <ele>130.15114195552</ele>
        <time>2021-09-13T08:57:47Z</time>
      </trkpt>
      <trkpt lat="46.45325" lon="0.48955">
        <ele>130.09509917721</ele>
        <time>2021-09-13T08:57:49Z</time>
      </trkpt>
      <trkpt lat="46.45324" lon="0.48952">
        <ele>129.98768380284</ele>
        <time>2021-09-13T08:57:51Z</time>
      </trkpt>
      <trkpt lat="46.45323" lon="0.4895">
        <ele>130.32657189108</ele>
        <time>2021-09-13T08:57:53Z</time>
      </trkpt>
      <trkpt lat="46.45321" lon="0.48949">
        <ele>129.77738077473</ele>
        <time>2021-09-13T08:57:55Z</time>
      </trkpt>
      <trkpt lat="46.45318" lon="0.48946">
        <ele>130.26239907742</ele>
        <time>2021-09-13T08:57:57Z</time>
      </trkpt>
      <trkpt lat="46.45317" lon="0.48943">
        <ele>129.94665286317</ele>
        <time>2021-09-13T08:57:59Z</time>
      </trkpt>
      <trkpt lat="46.45315" lon="0.48942">
        <ele>130.21459264122</ele>
        <time>2021-09-13T08:58:01Z</time>
      </trkpt>
      <trkpt lat="46.45313" lon="0.48939">
        <ele>130.14448691439</ele>
        <time>2021-09-13T08:58:03Z</time>
      </trkpt>
      <trkpt lat="46.45311" lon="0.48937">
        <ele>130.02560374141</ele>
        <time>2021-09-13T08:58:06Z</time>
      </trkpt>
      <trkpt lat="46.45309" lon="0.48934">
        <ele>130.14002264664</ele>
        <time>2021-09-13T08:58:08Z</time>
      </trkpt>
      <trkpt lat="46.45308" lon="0.48932">
        <ele>129.80299087428</ele>
        <time>2021-09-13T08:58:10Z</time>
      </trkpt>
      <trkpt lat="46.45306" lon="0.4893">
        <ele>130.19916214142</ele>
        <time>2021-09-13T08:58:12Z</time>
      </trkpt>
      <trkpt lat="46.45305" lon="0.48927">
        <ele>130.20950979181</ele>
        <time>2021-09-13T08:58:14Z</time>
      </trkpt>
      <trkpt lat="46.45303" lon="0.48925">
        <ele>129.93923888542</ele>
        <time>2021-09-13T08:58:17Z</time>
      </trkpt>
      <trkpt lat="46.45302" lon="0.48921">
        <ele>130.15465602279</ele>
        <time>2021-09-13T08:58:19Z</time>
      </trkpt>
      <trkpt lat="46.45299" lon="0.48919">
        <ele>130.65343001485</ele>
        <time>2021-09-13T08:58:22Z</time>
      </trkpt>
      <trkpt lat="46.45298" lon="0.48916">
        <ele>130.55157003179</ele>
        <time>2021-09-13T08:58:24Z</time>
      </trkpt>
      <trkpt lat="46.45296" lon="0.48914">
        <ele>130.60820867959</ele>
        <time>2021-09-13T08:58:26Z</time>
      </trkpt>
      <trkpt lat="46.45295" lon="0.48911">
        <ele>130.74763683416</ele>
        <time>2021-09-13T08:58:29Z</time>
      </trkpt>
      <trkpt lat="46.45293" lon="0.48909">
        <ele>130.73278493155</ele>
        <time>2021-09-13T08:58:31Z</time>
      </trkpt>
      <trkpt lat="46.45292" lon="0.48907">
        <ele>130.44610805158</ele>
        <time>2021-09-13T08:58:33Z</time>
      </trkpt>
      <trkpt lat="46.4529" lon="0.48904">
        <ele>130.55200106092</ele>
        <time>2021-09-13T08:58:35Z</time>
      </trkpt>
      <trkpt lat="46.45288" lon="0.48902">
        <ele>130.8428607313</ele>
        <time>2021-09-13T08:58:37Z</time>
      </trkpt>
      <trkpt lat="46.45286" lon="0.48898">
        <ele>130.58407317288</ele>
        <time>2021-09-13T08:58:40Z</time>
      </trkpt>
      <trkpt lat="46.45284" lon="0.48897">
        <ele>130.73971991148</ele>
        <time>2021-09-13T08:58:42Z</time>
      </trkpt>
      <trkpt lat="46.45283" lon="0.48894">
        <ele>130.51864846982</ele>
        <time>2021-09-13T08:58:44Z</time>
      </trkpt>
      <trkpt lat="46.45282" lon="0.48891">
        <ele>130.76562936138</ele>
        <time>2021-09-13T08:58:46Z</time>
      </trkpt>
      <trkpt lat="46.4528" lon="0.48889">
        <ele>130.09041614365</ele>
        <time>2021-09-13T08:58:48Z</time>
      </trkpt>
      <trkpt lat="46.45278" lon="0.48887">
        <ele>130.49214784801</ele>
        <time>2021-09-13T08:58:50Z</time>
      </trkpt>
      <trkpt lat="46.45276" lon="0.48884">
        <ele>130.86056628823</ele>
        <time>2021-09-13T08:58:53Z</time>
      </trkpt>
      <trkpt lat="46.45274" lon="0.48882">
        <ele>130.63369523827</ele>
        <time>2021-09-13T08:58:55Z</time>
      </trkpt>
      <trkpt lat="46.45273" lon="0.48879">
        <ele>131.0912314821</ele>
        <time>2021-09-13T08:58:57Z</time>
      </trkpt>
      <trkpt lat="46.45269" lon="0.48877">
        <ele>130.62295603566</ele>
        <time>2021-09-13T08:59:00Z</time>
      </trkpt>
      <trkpt lat="46.45267" lon="0.48874">
        <ele>131.75118003599</ele>
        <time>2021-09-13T08:59:02Z</time>
      </trkpt>
      <trkpt lat="46.45265" lon="0.48873">
        <ele>131.15828929469</ele>
        <time>2021-09-13T08:59:04Z</time>
      </trkpt>
      <trkpt lat="46.45263" lon="0.48871">
        <ele>131.74084261898</ele>
        <time>2021-09-13T08:59:06Z</time>
      </trkpt>
      <trkpt lat="46.45261" lon="0.48869">
        <ele>131.39572166093</ele>
        <time>2021-09-13T08:59:08Z</time>
      </trkpt>
      <trkpt lat="46.45258" lon="0.48867">
        <ele>131.23767189588</ele>
        <time>2021-09-13T08:59:10Z</time>
      </trkpt>
      <trkpt lat="46.45256" lon="0.48863">
        <ele>132.41634429246</ele>
        <time>2021-09-13T08:59:12Z</time>
      </trkpt>
      <trkpt lat="46.45253" lon="0.48863">
        <ele>130.44407709129</ele>
        <time>2021-09-13T08:59:15Z</time>
      </trkpt>
      <trkpt lat="46.45251" lon="0.48861">
        <ele>131.6589038549</ele>
        <time>2021-09-13T08:59:17Z</time>
      </trkpt>
      <trkpt lat="46.45248" lon="0.48858">
        <ele>131.39936121646</ele>
        <time>2021-09-13T08:59:19Z</time>
      </trkpt>
      <trkpt lat="46.45247" lon="0.48857">
        <ele>131.45825725142</ele>
        <time>2021-09-13T08:59:21Z</time>
      </trkpt>
      <trkpt lat="46.45244" lon="0.48856">
        <ele>131.94150122441</ele>
        <time>2021-09-13T08:59:23Z</time>
      </trkpt>
      <trkpt lat="46.45242" lon="0.48855">
        <ele>131.16380657535</ele>
        <time>2021-09-13T08:59:25Z</time>
      </trkpt>
      <trkpt lat="46.45239" lon="0.48853">
        <ele>131.81011492573</ele>
        <time>2021-09-13T08:59:27Z</time>
      </trkpt>
      <trkpt lat="46.45237" lon="0.48853">
        <ele>131.8082149392</ele>
        <time>2021-09-13T08:59:29Z</time>
      </trkpt>
      <trkpt lat="46.45235" lon="0.48852">
        <ele>130.85248379968</ele>
        <time>2021-09-13T08:59:31Z</time>
      </trkpt>
      <trkpt lat="46.45233" lon="0.48851">
        <ele>132.44986393582</ele>
        <time>2021-09-13T08:59:33Z</time>
      </trkpt>
      <trkpt lat="46.45231" lon="0.48848">
        <ele>131.74477333575</ele>
        <time>2021-09-13T08:59:35Z</time>
      </trkpt>
      <trkpt lat="46.45229" lon="0.48847">
        <ele>131.71069438104</ele>
        <time>2021-09-13T08:59:37Z</time>
      </trkpt>
      <trkpt lat="46.45226" lon="0.48844">
        <ele>132.57963707205</ele>
        <time>2021-09-13T08:59:39Z</time>
      </trkpt>
      <trkpt lat="46.45223" lon="0.48843">
        <ele>131.40269495361</ele>
        <time>2021-09-13T08:59:41Z</time>
      </trkpt>
      <trkpt lat="46.45222" lon="0.48841">
        <ele>132.05718888342</ele>
        <time>2021-09-13T08:59:42Z</time>
      </trkpt>
      <trkpt lat="46.4522" lon="0.4884">
        <ele>131.32418882381</ele>
        <time>2021-09-13T08:59:45Z</time>
      </trkpt>
      <trkpt lat="46.45218" lon="0.48839">
        <ele>132.53350016195</ele>
        <time>2021-09-13T08:59:47Z</time>
      </trkpt>
      <trkpt lat="46.45216" lon="0.48838">
        <ele>132.01483229548</ele>
        <time>2021-09-13T08:59:48Z</time>
      </trkpt>
      <trkpt lat="46.45213" lon="0.48836">
        <ele>131.39470007457</ele>
        <time>2021-09-13T08:59:51Z</time>
      </trkpt>
      <trkpt lat="46.45211" lon="0.48835">
        <ele>132.21307201404</ele>
        <time>2021-09-13T08:59:53Z</time>
      </trkpt>
      <trkpt lat="46.45209" lon="0.48834">
        <ele>131.81894111168</ele>
        <time>2021-09-13T08:59:55Z</time>
      </trkpt>
      <trkpt lat="46.45207" lon="0.48833">
        <ele>131.96946341917</ele>
        <time>2021-09-13T08:59:56Z</time>
      </trkpt>
      <trkpt lat="46.45205" lon="0.48831">
        <ele>131.62729125936</ele>
        <time>2021-09-13T08:59:58Z</time>
      </trkpt>
      <trkpt lat="46.45203" lon="0.48831">
        <ele>132.34435953293</ele>
        <time>2021-09-13T09:00:00Z</time>
      </trkpt>
      <trkpt lat="46.452" lon="0.48828">
        <ele>133.10118819959</ele>
        <time>2021-09-13T09:00:02Z</time>
      </trkpt>
      <trkpt lat="46.45197" lon="0.48827">
        <ele>132.03255785909</ele>
        <time>2021-09-13T09:00:05Z</time>
      </trkpt>
      <trkpt lat="46.45194" lon="0.48824">
        <ele>132.44021620322</ele>
        <time>2021-09-13T09:00:07Z</time>
      </trkpt>
      <trkpt lat="46.45192" lon="0.48823">
        <ele>132.60259326827</ele>
        <time>2021-09-13T09:00:09Z</time>
      </trkpt>
      <trkpt lat="46.45189" lon="0.48822">
        <ele>132.74369542953</ele>
        <time>2021-09-13T09:00:11Z</time>
      </trkpt>
      <trkpt lat="46.45187" lon="0.48821">
        <ele>132.10202405602</ele>
        <time>2021-09-13T09:00:13Z</time>
      </trkpt>
      <trkpt lat="46.45185" lon="0.48819">
        <ele>131.87582129706</ele>
        <time>2021-09-13T09:00:15Z</time>
      </trkpt>
      <trkpt lat="46.45183" lon="0.48817">
        <ele>132.44283878058</ele>
        <time>2021-09-13T09:00:17Z</time>
      </trkpt>
      <trkpt lat="46.45181" lon="0.48816">
        <ele>132.87654737104</ele>
        <time>2021-09-13T09:00:18Z</time>
      </trkpt>
      <trkpt lat="46.45178" lon="0.48814">
        <ele>132.11900263187</ele>
        <time>2021-09-13T09:00:21Z</time>
      </trkpt>
      <trkpt lat="46.45176" lon="0.48812">
        <ele>132.31371209584</ele>
        <time>2021-09-13T09:00:23Z</time>
      </trkpt>
      <trkpt lat="46.45173" lon="0.48811">
        <ele>132.50106955227</ele>
        <time>2021-09-13T09:00:25Z</time>
      </trkpt>
      <trkpt lat="46.45171" lon="0.48809">
        <ele>132.57452763431</ele>
        <time>2021-09-13T09:00:27Z</time>
      </trkpt>
      <trkpt lat="46.45168" lon="0.48807">
        <ele>132.35803954676</ele>
        <time>2021-09-13T09:00:29Z</time>
      </trkpt>
      <trkpt lat="46.45166" lon="0.48806">
        <ele>132.037932829</ele>
        <time>2021-09-13T09:00:31Z</time>
      </trkpt>
      <trkpt lat="46.45164" lon="0.48804">
        <ele>132.21458857134</ele>
        <time>2021-09-13T09:00:33Z</time>
      </trkpt>
      <trkpt lat="46.45162" lon="0.48802">
        <ele>133.57852870412</ele>
        <time>2021-09-13T09:00:35Z</time>
      </trkpt>
      <trkpt lat="46.4516" lon="0.48802">
        <ele>132.50818909239</ele>
        <time>2021-09-13T09:00:37Z</time>
      </trkpt>
      <trkpt lat="46.45157" lon="0.488">
        <ele>132.16170625668</ele>
        <time>2021-09-13T09:00:39Z</time>
      </trkpt>
      <trkpt lat="46.45155" lon="0.48799">
        <ele>131.88510635961</ele>
        <time>2021-09-13T09:00:41Z</time>
      </trkpt>
      <trkpt lat="46.45154" lon="0.48797">
        <ele>132.72216839809</ele>
        <time>2021-09-13T09:00:43Z</time>
      </trkpt>
      <trkpt lat="46.45151" lon="0.48794">
        <ele>132.44137226418</ele>
        <time>2021-09-13T09:00:46Z</time>
      </trkpt>
      <trkpt lat="46.45149" lon="0.48791">
        <ele>132.07567242905</ele>
        <time>2021-09-13T09:00:48Z</time>
      </trkpt>
      <trkpt lat="46.45147" lon="0.4879">
        <ele>132.13012981415</ele>
        <time>2021-09-13T09:00:50Z</time>
      </trkpt>
      <trkpt lat="46.45145" lon="0.48788">
        <ele>132.39020286966</ele>
        <time>2021-09-13T09:00:51Z</time>
      </trkpt>
      <trkpt lat="46.45144" lon="0.48786">
        <ele>133.0712232329</ele>
        <time>2021-09-13T09:00:53Z</time>
      </trkpt>
      <trkpt lat="46.45143" lon="0.48783">
        <ele>132.42615715228</ele>
        <time>2021-09-13T09:00:55Z</time>
      </trkpt>
      <trkpt lat="46.45141" lon="0.4878">
        <ele>132.53207980748</ele>
        <time>2021-09-13T09:00:57Z</time>
      </trkpt>
      <trkpt lat="46.45139" lon="0.48777">
        <ele>132.18121911213</ele>
        <time>2021-09-13T09:00:59Z</time>
      </trkpt>
      <trkpt lat="46.45138" lon="0.48774">
        <ele>133.09283496812</ele>
        <time>2021-09-13T09:01:01Z</time>
      </trkpt>
      <trkpt lat="46.45135" lon="0.48772">
        <ele>133.0070447363</ele>
        <time>2021-09-13T09:01:03Z</time>
      </trkpt>
      <trkpt lat="46.45134" lon="0.4877">
        <ele>132.50896814186</ele>
        <time>2021-09-13T09:01:05Z</time>
      </trkpt>
      <trkpt lat="46.45132" lon="0.48768">
        <ele>132.53068029601</ele>
        <time>2021-09-13T09:01:07Z</time>
      </trkpt>
      <trkpt lat="46.4513" lon="0.48765">
        <ele>132.03304091003</ele>
        <time>2021-09-13T09:01:10Z</time>
      </trkpt>
      <trkpt lat="46.45128" lon="0.48761">
        <ele>133.54412260558</ele>
        <time>2021-09-13T09:01:12Z</time>
      </trkpt>
      <trkpt lat="46.45127" lon="0.48759">
        <ele>132.84212286863</ele>
        <time>2021-09-13T09:01:14Z</time>
      </trkpt>
      <trkpt lat="46.45125" lon="0.48757">
        <ele>132.50102372374</ele>
        <time>2021-09-13T09:01:16Z</time>
      </trkpt>
      <trkpt lat="46.45123" lon="0.48755">
        <ele>132.75330617186</ele>
        <time>2021-09-13T09:01:18Z</time>
      </trkpt>
      <trkpt lat="46.45123" lon="0.48751">
        <ele>132.32471651584</ele>
        <time>2021-09-13T09:01:20Z</time>
      </trkpt>
      <trkpt lat="46.45121" lon="0.48748">
        <ele>132.7101735808</ele>
        <time>2021-09-13T09:01:22Z</time>
      </trkpt>
      <trkpt lat="46.45118" lon="0.48746">
        <ele>133.17049874272</ele>
        <time>2021-09-13T09:01:24Z</time>
      </trkpt>
      <trkpt lat="46.45117" lon="0.48744">
        <ele>133.17341278866</ele>
        <time>2021-09-13T09:01:25Z</time>
      </trkpt>
      <trkpt lat="46.45115" lon="0.48741">
        <ele>132.77309599705</ele>
        <time>2021-09-13T09:01:27Z</time>
      </trkpt>
      <trkpt lat="46.45113" lon="0.48738">
        <ele>132.2430750411</ele>
        <time>2021-09-13T09:01:29Z</time>
      </trkpt>
      <trkpt lat="46.45111" lon="0.48737">
        <ele>132.3181146374</ele>
        <time>2021-09-13T09:01:31Z</time>
      </trkpt>
      <trkpt lat="46.4511" lon="0.48734">
        <ele>131.61119511072</ele>
        <time>2021-09-13T09:01:33Z</time>
      </trkpt>
      <trkpt lat="46.45107" lon="0.48731">
        <ele>132.75327828526</ele>
        <time>2021-09-13T09:01:35Z</time>
      </trkpt>
      <trkpt lat="46.45106" lon="0.48729">
        <ele>133.0838396335</ele>
        <time>2021-09-13T09:01:37Z</time>
      </trkpt>
      <trkpt lat="46.45104" lon="0.48726">
        <ele>132.44263647776</ele>
        <time>2021-09-13T09:01:39Z</time>
      </trkpt>
      <trkpt lat="46.45102" lon="0.48723">
        <ele>132.43587727193</ele>
        <time>2021-09-13T09:01:41Z</time>
      </trkpt>
      <trkpt lat="46.451" lon="0.4872">
        <ele>132.84155894816</ele>
        <time>2021-09-13T09:01:44Z</time>
      </trkpt>
      <trkpt lat="46.45098" lon="0.48718">
        <ele>133.1237373976</ele>
        <time>2021-09-13T09:01:46Z</time>
      </trkpt>
      <trkpt lat="46.45096" lon="0.48713">
        <ele>132.99973233789</ele>
        <time>2021-09-13T09:01:48Z</time>
      </trkpt>
      <trkpt lat="46.45094" lon="0.48712">
        <ele>132.99752619863</ele>
        <time>2021-09-13T09:01:50Z</time>
      </trkpt>
      <trkpt lat="46.45092" lon="0.48709">
        <ele>133.12939027045</ele>
        <time>2021-09-13T09:01:52Z</time>
      </trkpt>
      <trkpt lat="46.45091" lon="0.48707">
        <ele>132.16640571225</ele>
        <time>2021-09-13T09:01:54Z</time>
      </trkpt>
      <trkpt lat="46.45089" lon="0.48703">
        <ele>133.13687395211</ele>
        <time>2021-09-13T09:01:56Z</time>
      </trkpt>
      <trkpt lat="46.45087" lon="0.487">
        <ele>133.14856287092</ele>
        <time>2021-09-13T09:01:58Z</time>
      </trkpt>
      <trkpt lat="46.45085" lon="0.48698">
        <ele>133.00089821033</ele>
        <time>2021-09-13T09:02:00Z</time>
      </trkpt>
      <trkpt lat="46.45083" lon="0.48695">
        <ele>133.19375125133</ele>
        <time>2021-09-13T09:02:02Z</time>
      </trkpt>
      <trkpt lat="46.45082" lon="0.48693">
        <ele>134.33814832382</ele>
        <time>2021-09-13T09:02:04Z</time>
      </trkpt>
      <trkpt lat="46.45079" lon="0.4869">
        <ele>133.77347731963</ele>
        <time>2021-09-13T09:02:06Z</time>
      </trkpt>
      <trkpt lat="46.45078" lon="0.48688">
        <ele>133.29201481584</ele>
        <time>2021-09-13T09:02:08Z</time>
      </trkpt>
      <trkpt lat="46.45077" lon="0.48685">
        <ele>132.99923914019</ele>
        <time>2021-09-13T09:02:10Z</time>
      </trkpt>
      <trkpt lat="46.45075" lon="0.48683">
        <ele>133.39499657787</ele>
        <time>2021-09-13T09:02:12Z</time>
      </trkpt>
      <trkpt lat="46.45073" lon="0.48679">
        <ele>133.3266736744</ele>
        <time>2021-09-13T09:02:14Z</time>
      </trkpt>
      <trkpt lat="46.4507" lon="0.48677">
        <ele>133.2496530572</ele>
        <time>2021-09-13T09:02:16Z</time>
      </trkpt>
      <trkpt lat="46.45069" lon="0.48675">
        <ele>133.28756943531</ele>
        <time>2021-09-13T09:02:18Z</time>
      </trkpt>
      <trkpt lat="46.45067" lon="0.48672">
        <ele>132.9858958656</ele>
        <time>2021-09-13T09:02:20Z</time>
      </trkpt>
      <trkpt lat="46.45065" lon="0.48669">
        <ele>133.4305403335</ele>
        <time>2021-09-13T09:02:22Z</time>
      </trkpt>
      <trkpt lat="46.45064" lon="0.48666">
        <ele>132.98670053296</ele>
        <time>2021-09-13T09:02:24Z</time>
      </trkpt>
      <trkpt lat="46.45062" lon="0.48664">
        <ele>132.90680868831</ele>
        <time>2021-09-13T09:02:26Z</time>
      </trkpt>
      <trkpt lat="46.4506" lon="0.4866">
        <ele>133.74909043778</ele>
        <time>2021-09-13T09:02:28Z</time>
      </trkpt>
      <trkpt lat="46.45058" lon="0.48657">
        <ele>134.0770628443</ele>
        <time>2021-09-13T09:02:31Z</time>
      </trkpt>
      <trkpt lat="46.45056" lon="0.48654">
        <ele>133.42223771941</ele>
        <time>2021-09-13T09:02:33Z</time>
      </trkpt>
      <trkpt lat="46.45055" lon="0.48652">
        <ele>133.20256259292</ele>
        <time>2021-09-13T09:02:34Z</time>
      </trkpt>
      <trkpt lat="46.45053" lon="0.48649">
        <ele>133.53964488115</ele>
        <time>2021-09-13T09:02:37Z</time>
      </trkpt>
      <trkpt lat="46.4505" lon="0.48645">
        <ele>133.73381893057</ele>
        <time>2021-09-13T09:02:39Z</time>
      </trkpt>
      <trkpt lat="46.45049" lon="0.48643">
        <ele>133.43046700209</ele>
        <time>2021-09-13T09:02:41Z</time>
      </trkpt>
      <trkpt lat="46.45047" lon="0.48641">
        <ele>133.3421219727</ele>
        <time>2021-09-13T09:02:43Z</time>
      </trkpt>
      <trkpt lat="46.45045" lon="0.48638">
        <ele>133.71929346584</ele>
        <time>2021-09-13T09:02:45Z</time>
      </trkpt>
      <trkpt lat="46.45043" lon="0.48636">
        <ele>133.1786072515</ele>
        <time>2021-09-13T09:02:47Z</time>
      </trkpt>
      <trkpt lat="46.45041" lon="0.48633">
        <ele>133.39796001185</ele>
        <time>2021-09-13T09:02:49Z</time>
      </trkpt>
      <trkpt lat="46.4504" lon="0.48631">
        <ele>132.98523403797</ele>
        <time>2021-09-13T09:02:51Z</time>
      </trkpt>
      <trkpt lat="46.45038" lon="0.48627">
        <ele>133.45645158738</ele>
        <time>2021-09-13T09:02:53Z</time>
      </trkpt>
      <trkpt lat="46.45036" lon="0.48624">
        <ele>133.60577287618</ele>
        <time>2021-09-13T09:02:55Z</time>
      </trkpt>
      <trkpt lat="46.45034" lon="0.48622">
        <ele>133.21865109168</ele>
        <time>2021-09-13T09:02:57Z</time>
      </trkpt>
      <trkpt lat="46.45032" lon="0.48619">
        <ele>133.57724250946</ele>
        <time>2021-09-13T09:02:59Z</time>
      </trkpt>
      <trkpt lat="46.4503" lon="0.48616">
        <ele>134.18518381752</ele>
        <time>2021-09-13T09:03:01Z</time>
      </trkpt>
      <trkpt lat="46.45029" lon="0.48614">
        <ele>133.86085534096</ele>
        <time>2021-09-13T09:03:03Z</time>
      </trkpt>
      <trkpt lat="46.45027" lon="0.48612">
        <ele>133.50666627754</ele>
        <time>2021-09-13T09:03:05Z</time>
      </trkpt>
      <trkpt lat="46.45025" lon="0.4861">
        <ele>133.50534647238</ele>
        <time>2021-09-13T09:03:06Z</time>
      </trkpt>
      <trkpt lat="46.45023" lon="0.48608">
        <ele>134.41724033467</ele>
        <time>2021-09-13T09:03:09Z</time>
      </trkpt>
      <trkpt lat="46.45022" lon="0.48606">
        <ele>133.30906993244</ele>
        <time>2021-09-13T09:03:11Z</time>
      </trkpt>
      <trkpt lat="46.4502" lon="0.48604">
        <ele>133.3192104781</ele>
        <time>2021-09-13T09:03:13Z</time>
      </trkpt>
      <trkpt lat="46.45018" lon="0.48601">
        <ele>133.64190382231</ele>
        <time>2021-09-13T09:03:15Z</time>
      </trkpt>
      <trkpt lat="46.45016" lon="0.48598">
        <ele>133.37653988507</ele>
        <time>2021-09-13T09:03:17Z</time>
      </trkpt>
      <trkpt lat="46.45014" lon="0.48596">
        <ele>133.11184393801</ele>
        <time>2021-09-13T09:03:19Z</time>
      </trkpt>
      <trkpt lat="46.45012" lon="0.48594">
        <ele>132.91173723154</ele>
        <time>2021-09-13T09:03:21Z</time>
      </trkpt>
      <trkpt lat="46.4501" lon="0.48593">
        <ele>133.30435175356</ele>
        <time>2021-09-13T09:03:24Z</time>
      </trkpt>
      <trkpt lat="46.45007" lon="0.48592">
        <ele>133.25384149514</ele>
        <time>2021-09-13T09:03:26Z</time>
      </trkpt>
      <trkpt lat="46.45006" lon="0.48589">
        <ele>133.43153924029</ele>
        <time>2021-09-13T09:03:28Z</time>
      </trkpt>
      <trkpt lat="46.45004" lon="0.48586">
        <ele>133.73122676928</ele>
        <time>2021-09-13T09:03:30Z</time>
      </trkpt>
      <trkpt lat="46.45002" lon="0.48585">
        <ele>133.62136827689</ele>
        <time>2021-09-13T09:03:32Z</time>
      </trkpt>
      <trkpt lat="46.45001" lon="0.48582">
        <ele>133.07717935368</ele>
        <time>2021-09-13T09:03:34Z</time>
      </trkpt>
      <trkpt lat="46.44998" lon="0.4858">
        <ele>134.3178675482</ele>
        <time>2021-09-13T09:03:36Z</time>
      </trkpt>
      <trkpt lat="46.44996" lon="0.48578">
        <ele>133.02091184631</ele>
        <time>2021-09-13T09:03:38Z</time>
      </trkpt>
      <trkpt lat="46.44994" lon="0.48576">
        <ele>133.44224886317</ele>
        <time>2021-09-13T09:03:40Z</time>
      </trkpt>
      <trkpt lat="46.44992" lon="0.48574">
        <ele>133.53512275964</ele>
        <time>2021-09-13T09:03:42Z</time>
      </trkpt>
      <trkpt lat="46.44991" lon="0.48572">
        <ele>133.73534543533</ele>
        <time>2021-09-13T09:03:44Z</time>
      </trkpt>
      <trkpt lat="46.44989" lon="0.48569">
        <ele>132.28863535821</ele>
        <time>2021-09-13T09:03:46Z</time>
      </trkpt>
      <trkpt lat="46.44988" lon="0.48567">
        <ele>133.14744373132</ele>
        <time>2021-09-13T09:03:47Z</time>
      </trkpt>
      <trkpt lat="46.44986" lon="0.48565">
        <ele>133.94153900445</ele>
        <time>2021-09-13T09:03:49Z</time>
      </trkpt>
      <trkpt lat="46.44985" lon="0.48563">
        <ele>132.72678971104</ele>
        <time>2021-09-13T09:03:51Z</time>
      </trkpt>
      <trkpt lat="46.44983" lon="0.4856">
        <ele>133.02390099224</ele>
        <time>2021-09-13T09:03:53Z</time>
      </trkpt>
      <trkpt lat="46.44981" lon="0.48557">
        <ele>133.27325787954</ele>
        <time>2021-09-13T09:03:55Z</time>
      </trkpt>
      <trkpt lat="46.44979" lon="0.48556">
        <ele>132.49416290876</ele>
        <time>2021-09-13T09:03:57Z</time>
      </trkpt>
      <trkpt lat="46.44977" lon="0.48554">
        <ele>132.86452880688</ele>
        <time>2021-09-13T09:03:59Z</time>
      </trkpt>
      <trkpt lat="46.44976" lon="0.48552">
        <ele>133.23237419222</ele>
        <time>2021-09-13T09:04:01Z</time>
      </trkpt>
      <trkpt lat="46.44974" lon="0.4855">
        <ele>132.84520324692</ele>
        <time>2021-09-13T09:04:03Z</time>
      </trkpt>
      <trkpt lat="46.44972" lon="0.48549">
        <ele>132.58271325193</ele>
        <time>2021-09-13T09:04:05Z</time>
      </trkpt>
      <trkpt lat="46.4497" lon="0.48546">
        <ele>132.26966549829</ele>
        <time>2021-09-13T09:04:07Z</time>
      </trkpt>
      <trkpt lat="46.44969" lon="0.48544">
        <ele>132.89507171139</ele>
        <time>2021-09-13T09:04:09Z</time>
      </trkpt>
      <trkpt lat="46.44967" lon="0.48541">
        <ele>132.71323604044</ele>
        <time>2021-09-13T09:04:11Z</time>
      </trkpt>
      <trkpt lat="46.44965" lon="0.48539">
        <ele>132.30467999633</ele>
        <time>2021-09-13T09:04:13Z</time>
      </trkpt>
      <trkpt lat="46.44963" lon="0.48537">
        <ele>133.50965896808</ele>
        <time>2021-09-13T09:04:15Z</time>
      </trkpt>
      <trkpt lat="46.44961" lon="0.48536">
        <ele>132.75780070666</ele>
        <time>2021-09-13T09:04:17Z</time>
      </trkpt>
      <trkpt lat="46.44959" lon="0.48533">
        <ele>132.91901196819</ele>
        <time>2021-09-13T09:04:19Z</time>
      </trkpt>
      <trkpt lat="46.44958" lon="0.4853">
        <ele>132.8598947227</ele>
        <time>2021-09-13T09:04:21Z</time>
      </trkpt>
      <trkpt lat="46.44956" lon="0.48528">
        <ele>132.29730083514</ele>
        <time>2021-09-13T09:04:23Z</time>
      </trkpt>
      <trkpt lat="46.44955" lon="0.48526">
        <ele>133.06651297398</ele>
        <time>2021-09-13T09:04:25Z</time>
      </trkpt>
      <trkpt lat="46.44953" lon="0.48524">
        <ele>132.99656275008</ele>
        <time>2021-09-13T09:04:27Z</time>
      </trkpt>
      <trkpt lat="46.44951" lon="0.48521">
        <ele>132.08328177314</ele>
        <time>2021-09-13T09:04:29Z</time>
      </trkpt>
      <trkpt lat="46.44948" lon="0.4852">
        <ele>132.06711691245</ele>
        <time>2021-09-13T09:04:31Z</time>
      </trkpt>
      <trkpt lat="46.44946" lon="0.48517">
        <ele>132.51796590164</ele>
        <time>2021-09-13T09:04:34Z</time>
      </trkpt>
      <trkpt lat="46.44944" lon="0.48515">
        <ele>132.4979557544</ele>
        <time>2021-09-13T09:04:36Z</time>
      </trkpt>
      <trkpt lat="46.44943" lon="0.48513">
        <ele>132.29385832418</ele>
        <time>2021-09-13T09:04:38Z</time>
      </trkpt>
      <trkpt lat="46.44941" lon="0.48511">
        <ele>133.40939554665</ele>
        <time>2021-09-13T09:04:40Z</time>
      </trkpt>
      <trkpt lat="46.44939" lon="0.4851">
        <ele>132.54522285424</ele>
        <time>2021-09-13T09:04:42Z</time>
      </trkpt>
      <trkpt lat="46.44938" lon="0.48507">
        <ele>132.61235470325</ele>
        <time>2021-09-13T09:04:44Z</time>
      </trkpt>
      <trkpt lat="46.44936" lon="0.48505">
        <ele>132.63474457711</ele>
        <time>2021-09-13T09:04:46Z</time>
      </trkpt>
      <trkpt lat="46.44934" lon="0.48503">
        <ele>132.64869217854</ele>
        <time>2021-09-13T09:04:48Z</time>
      </trkpt>
      <trkpt lat="46.44933" lon="0.48501">
        <ele>132.46028884035</ele>
        <time>2021-09-13T09:04:50Z</time>
      </trkpt>
      <trkpt lat="46.4493" lon="0.48498">
        <ele>132.32193636708</ele>
        <time>2021-09-13T09:04:52Z</time>
      </trkpt>
      <trkpt lat="46.44929" lon="0.48496">
        <ele>132.20945712924</ele>
        <time>2021-09-13T09:04:54Z</time>
      </trkpt>
      <trkpt lat="46.44926" lon="0.48494">
        <ele>133.37367306091</ele>
        <time>2021-09-13T09:04:56Z</time>
      </trkpt>
      <trkpt lat="46.44925" lon="0.48493">
        <ele>132.48250065651</ele>
        <time>2021-09-13T09:04:58Z</time>
      </trkpt>
      <trkpt lat="46.44923" lon="0.48492">
        <ele>132.43431064952</ele>
        <time>2021-09-13T09:05:00Z</time>
      </trkpt>
      <trkpt lat="46.44921" lon="0.48491">
        <ele>132.28658568207</ele>
        <time>2021-09-13T09:05:02Z</time>
      </trkpt>
      <trkpt lat="46.44919" lon="0.48489">
        <ele>132.24852703884</ele>
        <time>2021-09-13T09:05:04Z</time>
      </trkpt>
      <trkpt lat="46.44917" lon="0.48487">
        <ele>133.07602090854</ele>
        <time>2021-09-13T09:05:06Z</time>
      </trkpt>
      <trkpt lat="46.44915" lon="0.48484">
        <ele>132.44582725782</ele>
        <time>2021-09-13T09:05:08Z</time>
      </trkpt>
      <trkpt lat="46.44913" lon="0.48481">
        <ele>132.06286021322</ele>
        <time>2021-09-13T09:05:10Z</time>
      </trkpt>
      <trkpt lat="46.44912" lon="0.48479">
        <ele>132.31464086287</ele>
        <time>2021-09-13T09:05:12Z</time>
      </trkpt>
      <trkpt lat="46.44911" lon="0.48477">
        <ele>132.35816152859</ele>
        <time>2021-09-13T09:05:13Z</time>
      </trkpt>
      <trkpt lat="46.44909" lon="0.48475">
        <ele>132.54742925148</ele>
        <time>2021-09-13T09:05:15Z</time>
      </trkpt>
      <trkpt lat="46.44906" lon="0.48473">
        <ele>132.51594760548</ele>
        <time>2021-09-13T09:05:17Z</time>
      </trkpt>
      <trkpt lat="46.44904" lon="0.48472">
        <ele>132.81394354813</ele>
        <time>2021-09-13T09:05:20Z</time>
      </trkpt>
      <trkpt lat="46.44902" lon="0.4847">
        <ele>132.93798333406</ele>
        <time>2021-09-13T09:05:22Z</time>
      </trkpt>
      <trkpt lat="46.449" lon="0.48467">
        <ele>132.36450936925</ele>
        <time>2021-09-13T09:05:24Z</time>
      </trkpt>
      <trkpt lat="46.44898" lon="0.48465">
        <ele>132.33779655024</ele>
        <time>2021-09-13T09:05:26Z</time>
      </trkpt>
      <trkpt lat="46.44896" lon="0.48463">
        <ele>132.37465967238</ele>
        <time>2021-09-13T09:05:27Z</time>
      </trkpt>
      <trkpt lat="46.44894" lon="0.4846">
        <ele>131.75389883853</ele>
        <time>2021-09-13T09:05:29Z</time>
      </trkpt>
      <trkpt lat="46.44892" lon="0.48458">
        <ele>133.03129239101</ele>
        <time>2021-09-13T09:05:31Z</time>
      </trkpt>
      <trkpt lat="46.4489" lon="0.48456">
        <ele>133.39629358053</ele>
        <time>2021-09-13T09:05:33Z</time>
      </trkpt>
      <trkpt lat="46.44888" lon="0.48453">
        <ele>132.28584757913</ele>
        <time>2021-09-13T09:05:35Z</time>
      </trkpt>
      <trkpt lat="46.44886" lon="0.4845">
        <ele>132.26875866577</ele>
        <time>2021-09-13T09:05:37Z</time>
      </trkpt>
      <trkpt lat="46.44883" lon="0.48448">
        <ele>132.7537574796</ele>
        <time>2021-09-13T09:05:39Z</time>
      </trkpt>
      <trkpt lat="46.44882" lon="0.48445">
        <ele>131.78366271965</ele>
        <time>2021-09-13T09:05:42Z</time>
      </trkpt>
      <trkpt lat="46.4488" lon="0.48442">
        <ele>132.95090028178</ele>
        <time>2021-09-13T09:05:44Z</time>
      </trkpt>
      <trkpt lat="46.44878" lon="0.48439">
        <ele>132.22270441521</ele>
        <time>2021-09-13T09:05:47Z</time>
      </trkpt>
      <trkpt lat="46.44875" lon="0.48435">
        <ele>132.91720847134</ele>
        <time>2021-09-13T09:05:49Z</time>
      </trkpt>
      <trkpt lat="46.44873" lon="0.48434">
        <ele>132.08937588613</ele>
        <time>2021-09-13T09:05:51Z</time>
      </trkpt>
      <trkpt lat="46.44871" lon="0.48432">
        <ele>132.80477515608</ele>
        <time>2021-09-13T09:05:53Z</time>
      </trkpt>
      <trkpt lat="46.44869" lon="0.48431">
        <ele>132.32801918685</ele>
        <time>2021-09-13T09:05:55Z</time>
      </trkpt>
      <trkpt lat="46.44867" lon="0.48428">
        <ele>132.20241847541</ele>
        <time>2021-09-13T09:05:57Z</time>
      </trkpt>
      <trkpt lat="46.44865" lon="0.48427">
        <ele>131.99498795439</ele>
        <time>2021-09-13T09:05:58Z</time>
      </trkpt>
      <trkpt lat="46.44863" lon="0.48424">
        <ele>131.91668939777</ele>
        <time>2021-09-13T09:06:00Z</time>
      </trkpt>
      <trkpt lat="46.44861" lon="0.48422">
        <ele>133.10946705751</ele>
        <time>2021-09-13T09:06:02Z</time>
      </trkpt>
      <trkpt lat="46.44859" lon="0.4842">
        <ele>132.20926359016</ele>
        <time>2021-09-13T09:06:04Z</time>
      </trkpt>
      <trkpt lat="46.44857" lon="0.48417">
        <ele>132.35012856685</ele>
        <time>2021-09-13T09:06:10Z</time>
      </trkpt>
      <trkpt lat="46.44854" lon="0.48416">
        <ele>132.17331621889</ele>
        <time>2021-09-13T09:06:12Z</time>
      </trkpt>
      <trkpt lat="46.44852" lon="0.48414">
        <ele>130.76983506978</ele>
        <time>2021-09-13T09:06:15Z</time>
      </trkpt>
      <trkpt lat="46.4485" lon="0.4841">
        <ele>133.06020908523</ele>
        <time>2021-09-13T09:06:17Z</time>
      </trkpt>
      <trkpt lat="46.44847" lon="0.48408">
        <ele>131.81869310793</ele>
        <time>2021-09-13T09:06:19Z</time>
      </trkpt>
      <trkpt lat="46.44846" lon="0.48406">
        <ele>131.63595538959</ele>
        <time>2021-09-13T09:06:21Z</time>
      </trkpt>
      <trkpt lat="46.44844" lon="0.48404">
        <ele>131.67942181602</ele>
        <time>2021-09-13T09:06:22Z</time>
      </trkpt>
      <trkpt lat="46.44842" lon="0.48402">
        <ele>131.62628407869</ele>
        <time>2021-09-13T09:06:25Z</time>
      </trkpt>
      <trkpt lat="46.4484" lon="0.484">
        <ele>130.89107118826</ele>
        <time>2021-09-13T09:06:27Z</time>
      </trkpt>
      <trkpt lat="46.44838" lon="0.48397">
        <ele>131.90589542314</ele>
        <time>2021-09-13T09:06:29Z</time>
      </trkpt>
      <trkpt lat="46.44836" lon="0.48395">
        <ele>131.3560818024</ele>
        <time>2021-09-13T09:06:31Z</time>
      </trkpt>
      <trkpt lat="46.44833" lon="0.48392">
        <ele>131.36175246909</ele>
        <time>2021-09-13T09:06:33Z</time>
      </trkpt>
      <trkpt lat="46.44831" lon="0.4839">
        <ele>131.25942370575</ele>
        <time>2021-09-13T09:06:35Z</time>
      </trkpt>
      <trkpt lat="46.44829" lon="0.48387">
        <ele>131.24022007734</ele>
        <time>2021-09-13T09:06:37Z</time>
      </trkpt>
      <trkpt lat="46.44827" lon="0.48384">
        <ele>131.05111350771</ele>
        <time>2021-09-13T09:06:39Z</time>
      </trkpt>
      <trkpt lat="46.44825" lon="0.48383">
        <ele>132.06505315565</ele>
        <time>2021-09-13T09:06:41Z</time>
      </trkpt>
      <trkpt lat="46.44824" lon="0.48381">
        <ele>131.038388771</ele>
        <time>2021-09-13T09:06:43Z</time>
      </trkpt>
      <trkpt lat="46.44822" lon="0.48378">
        <ele>131.26601517294</ele>
        <time>2021-09-13T09:06:45Z</time>
      </trkpt>
      <trkpt lat="46.4482" lon="0.48376">
        <ele>131.27755333856</ele>
        <time>2021-09-13T09:06:47Z</time>
      </trkpt>
      <trkpt lat="46.44818" lon="0.48373">
        <ele>130.76797093172</ele>
        <time>2021-09-13T09:06:49Z</time>
      </trkpt>
      <trkpt lat="46.44816" lon="0.4837">
        <ele>130.8258377444</ele>
        <time>2021-09-13T09:06:51Z</time>
      </trkpt>
      <trkpt lat="46.44814" lon="0.48368">
        <ele>130.84826697409</ele>
        <time>2021-09-13T09:06:53Z</time>
      </trkpt>
      <trkpt lat="46.44811" lon="0.48367">
        <ele>131.12165505439</ele>
        <time>2021-09-13T09:06:55Z</time>
      </trkpt>
      <trkpt lat="46.44809" lon="0.48366">
        <ele>131.52300419752</ele>
        <time>2021-09-13T09:06:57Z</time>
      </trkpt>
      <trkpt lat="46.44808" lon="0.48363">
        <ele>130.35295912065</ele>
        <time>2021-09-13T09:06:59Z</time>
      </trkpt>
      <trkpt lat="46.44806" lon="0.4836">
        <ele>130.6240823837</ele>
        <time>2021-09-13T09:07:01Z</time>
      </trkpt>
      <trkpt lat="46.44804" lon="0.48358">
        <ele>130.57842312288</ele>
        <time>2021-09-13T09:07:02Z</time>
      </trkpt>
      <trkpt lat="46.44802" lon="0.48356">
        <ele>129.92525761016</ele>
        <time>2021-09-13T09:07:04Z</time>
      </trkpt>
      <trkpt lat="46.448" lon="0.48355">
        <ele>130.82767310739</ele>
        <time>2021-09-13T09:07:06Z</time>
      </trkpt>
      <trkpt lat="46.44798" lon="0.48352">
        <ele>130.23166224267</ele>
        <time>2021-09-13T09:07:08Z</time>
      </trkpt>
      <trkpt lat="46.44797" lon="0.4835">
        <ele>129.33279986773</ele>
        <time>2021-09-13T09:07:10Z</time>
      </trkpt>
      <trkpt lat="46.44794" lon="0.48347">
        <ele>131.42110817414</ele>
        <time>2021-09-13T09:07:12Z</time>
      </trkpt>
      <trkpt lat="46.44792" lon="0.48344">
        <ele>130.45364852063</ele>
        <time>2021-09-13T09:07:14Z</time>
      </trkpt>
      <trkpt lat="46.4479" lon="0.48341">
        <ele>130.27499612793</ele>
        <time>2021-09-13T09:07:17Z</time>
      </trkpt>
      <trkpt lat="46.44788" lon="0.48339">
        <ele>130.17373217735</ele>
        <time>2021-09-13T09:07:19Z</time>
      </trkpt>
      <trkpt lat="46.44786" lon="0.48336">
        <ele>131.10988231841</ele>
        <time>2021-09-13T09:07:21Z</time>
      </trkpt>
      <trkpt lat="46.44783" lon="0.48335">
        <ele>130.42798778508</ele>
        <time>2021-09-13T09:07:23Z</time>
      </trkpt>
      <trkpt lat="46.44782" lon="0.48332">
        <ele>130.50626530126</ele>
        <time>2021-09-13T09:07:25Z</time>
      </trkpt>
      <trkpt lat="46.44779" lon="0.48331">
        <ele>130.10650136508</ele>
        <time>2021-09-13T09:07:27Z</time>
      </trkpt>
      <trkpt lat="46.44778" lon="0.48328">
        <ele>130.5128198415</ele>
        <time>2021-09-13T09:07:29Z</time>
      </trkpt>
      <trkpt lat="46.44775" lon="0.48326">
        <ele>131.04929381236</ele>
        <time>2021-09-13T09:07:30Z</time>
      </trkpt>
      <trkpt lat="46.44774" lon="0.48324">
        <ele>130.05964721087</ele>
        <time>2021-09-13T09:07:32Z</time>
      </trkpt>
      <trkpt lat="46.44772" lon="0.48322">
        <ele>130.01376892161</ele>
        <time>2021-09-13T09:07:34Z</time>
      </trkpt>
      <trkpt lat="46.4477" lon="0.4832">
        <ele>129.84815339372</ele>
        <time>2021-09-13T09:07:36Z</time>
      </trkpt>
      <trkpt lat="46.44769" lon="0.48318">
        <ele>129.69660294335</ele>
        <time>2021-09-13T09:07:38Z</time>
      </trkpt>
      <trkpt lat="46.44767" lon="0.48316">
        <ele>129.86151936278</ele>
        <time>2021-09-13T09:07:40Z</time>
      </trkpt>
      <trkpt lat="46.44764" lon="0.48314">
        <ele>129.93050029222</ele>
        <time>2021-09-13T09:07:42Z</time>
      </trkpt>
      <trkpt lat="46.44762" lon="0.48311">
        <ele>129.09708534274</ele>
        <time>2021-09-13T09:07:44Z</time>
      </trkpt>
      <trkpt lat="46.44761" lon="0.48308">
        <ele>128.25634009577</ele>
        <time>2021-09-13T09:07:46Z</time>
      </trkpt>
      <trkpt lat="46.44758" lon="0.48306">
        <ele>130.24301814381</ele>
        <time>2021-09-13T09:07:48Z</time>
      </trkpt>
      <trkpt lat="46.44757" lon="0.48303">
        <ele>129.72414147109</ele>
        <time>2021-09-13T09:07:50Z</time>
      </trkpt>
      <trkpt lat="46.44755" lon="0.48301">
        <ele>129.16692044307</ele>
        <time>2021-09-13T09:07:52Z</time>
      </trkpt>
      <trkpt lat="46.44754" lon="0.48297">
        <ele>129.19760999177</ele>
        <time>2021-09-13T09:07:54Z</time>
      </trkpt>
      <trkpt lat="46.44755" lon="0.48293">
        <ele>129.48241471406</ele>
        <time>2021-09-13T09:07:56Z</time>
      </trkpt>
      <trkpt lat="46.44755" lon="0.4829">
        <ele>128.94610306621</ele>
        <time>2021-09-13T09:07:58Z</time>
      </trkpt>
      <trkpt lat="46.44756" lon="0.48287">
        <ele>128.85771196894</ele>
        <time>2021-09-13T09:08:00Z</time>
      </trkpt>
      <trkpt lat="46.44757" lon="0.48283">
        <ele>130.09393125679</ele>
        <time>2021-09-13T09:08:02Z</time>
      </trkpt>
      <trkpt lat="46.44757" lon="0.4828">
        <ele>128.95728631597</ele>
        <time>2021-09-13T09:08:04Z</time>
      </trkpt>
      <trkpt lat="46.44758" lon="0.48276">
        <ele>128.60172914248</ele>
        <time>2021-09-13T09:08:06Z</time>
      </trkpt>
      <trkpt lat="46.44758" lon="0.48273">
        <ele>128.42086420022</ele>
        <time>2021-09-13T09:08:08Z</time>
      </trkpt>
      <trkpt lat="46.44759" lon="0.48269">
        <ele>129.53150436189</ele>
        <time>2021-09-13T09:08:10Z</time>
      </trkpt>
      <trkpt lat="46.44759" lon="0.48265">
        <ele>128.62884596735</ele>
        <time>2021-09-13T09:08:13Z</time>
      </trkpt>
      <trkpt lat="46.4476" lon="0.48262">
        <ele>128.59196653124</ele>
        <time>2021-09-13T09:08:15Z</time>
      </trkpt>
      <trkpt lat="46.4476" lon="0.48258">
        <ele>128.76366604678</ele>
        <time>2021-09-13T09:08:17Z</time>
      </trkpt>
      <trkpt lat="46.44761" lon="0.48254">
        <ele>129.09240439069</ele>
        <time>2021-09-13T09:08:19Z</time>
      </trkpt>
      <trkpt lat="46.44761" lon="0.48252">
        <ele>129.40698212478</ele>
        <time>2021-09-13T09:08:21Z</time>
      </trkpt>
      <trkpt lat="46.44763" lon="0.48249">
        <ele>129.02399278618</ele>
        <time>2021-09-13T09:08:23Z</time>
      </trkpt>
      <trkpt lat="46.44763" lon="0.48245">
        <ele>127.92475479841</ele>
        <time>2021-09-13T09:08:25Z</time>
      </trkpt>
      <trkpt lat="46.44763" lon="0.48242">
        <ele>129.74861606676</ele>
        <time>2021-09-13T09:08:27Z</time>
      </trkpt>
      <trkpt lat="46.44764" lon="0.48238">
        <ele>128.51266596187</ele>
        <time>2021-09-13T09:08:29Z</time>
      </trkpt>
      <trkpt lat="46.44764" lon="0.48233">
        <ele>128.77627432812</ele>
        <time>2021-09-13T09:08:32Z</time>
      </trkpt>
      <trkpt lat="46.44763" lon="0.4823">
        <ele>129.37908977922</ele>
        <time>2021-09-13T09:08:34Z</time>
      </trkpt>
      <trkpt lat="46.44762" lon="0.48227">
        <ele>128.82428899035</ele>
        <time>2021-09-13T09:08:36Z</time>
      </trkpt>
      <trkpt lat="46.44761" lon="0.48222">
        <ele>128.7811232591</ele>
        <time>2021-09-13T09:08:38Z</time>
      </trkpt>
      <trkpt lat="46.44759" lon="0.4822">
        <ele>128.64436584804</ele>
        <time>2021-09-13T09:08:40Z</time>
      </trkpt>
      <trkpt lat="46.44757" lon="0.48217">
        <ele>128.5518576242</ele>
        <time>2021-09-13T09:08:42Z</time>
      </trkpt>
      <trkpt lat="46.44756" lon="0.48215">
        <ele>127.78768177982</ele>
        <time>2021-09-13T09:08:44Z</time>
      </trkpt>
      <trkpt lat="46.44755" lon="0.48212">
        <ele>128.01934876759</ele>
        <time>2021-09-13T09:08:46Z</time>
      </trkpt>
      <trkpt lat="46.44754" lon="0.4821">
        <ele>129.00269172154</ele>
        <time>2021-09-13T09:08:47Z</time>
      </trkpt>
      <trkpt lat="46.44753" lon="0.48207">
        <ele>128.84578605648</ele>
        <time>2021-09-13T09:08:49Z</time>
      </trkpt>
      <trkpt lat="46.44751" lon="0.48204">
        <ele>128.24163366389</ele>
        <time>2021-09-13T09:08:51Z</time>
      </trkpt>
      <trkpt lat="46.4475" lon="0.48202">
        <ele>128.79749136046</ele>
        <time>2021-09-13T09:08:52Z</time>
      </trkpt>
      <trkpt lat="46.44748" lon="0.48199">
        <ele>128.60401677154</ele>
        <time>2021-09-13T09:08:54Z</time>
      </trkpt>
      <trkpt lat="46.44747" lon="0.48197">
        <ele>128.89606714528</ele>
        <time>2021-09-13T09:08:56Z</time>
      </trkpt>
      <trkpt lat="46.44745" lon="0.48195">
        <ele>128.1646259753</ele>
        <time>2021-09-13T09:08:58Z</time>
      </trkpt>
      <trkpt lat="46.44744" lon="0.48191">
        <ele>128.04319815617</ele>
        <time>2021-09-13T09:09:00Z</time>
      </trkpt>
      <trkpt lat="46.44742" lon="0.48189">
        <ele>128.00772406813</ele>
        <time>2021-09-13T09:09:02Z</time>
      </trkpt>
      <trkpt lat="46.4474" lon="0.48186">
        <ele>128.89822760876</ele>
        <time>2021-09-13T09:09:04Z</time>
      </trkpt>
      <trkpt lat="46.44738" lon="0.48183">
        <ele>127.61854409147</ele>
        <time>2021-09-13T09:09:06Z</time>
      </trkpt>
      <trkpt lat="46.44736" lon="0.4818">
        <ele>128.23796327692</ele>
        <time>2021-09-13T09:09:08Z</time>
      </trkpt>
      <trkpt lat="46.44734" lon="0.48177">
        <ele>128.09063920472</ele>
        <time>2021-09-13T09:09:10Z</time>
      </trkpt>
      <trkpt lat="46.44731" lon="0.48175">
        <ele>128.27410162613</ele>
        <time>2021-09-13T09:09:13Z</time>
      </trkpt>
      <trkpt lat="46.4473" lon="0.48172">
        <ele>127.88758053724</ele>
        <time>2021-09-13T09:09:15Z</time>
      </trkpt>
      <trkpt lat="46.44728" lon="0.48168">
        <ele>127.93178755976</ele>
        <time>2021-09-13T09:09:17Z</time>
      </trkpt>
      <trkpt lat="46.44725" lon="0.48166">
        <ele>127.3841451928</ele>
        <time>2021-09-13T09:09:19Z</time>
      </trkpt>
      <trkpt lat="46.44724" lon="0.48163">
        <ele>128.6644951757</ele>
        <time>2021-09-13T09:09:21Z</time>
      </trkpt>
      <trkpt lat="46.44722" lon="0.4816">
        <ele>128.30223365407</ele>
        <time>2021-09-13T09:09:23Z</time>
      </trkpt>
      <trkpt lat="46.4472" lon="0.48158">
        <ele>127.88239400927</ele>
        <time>2021-09-13T09:09:25Z</time>
      </trkpt>
      <trkpt lat="46.44719" lon="0.48156">
        <ele>128.26763926819</ele>
        <time>2021-09-13T09:09:27Z</time>
      </trkpt>
      <trkpt lat="46.44717" lon="0.48153">
        <ele>128.0581468977</ele>
        <time>2021-09-13T09:09:29Z</time>
      </trkpt>
      <trkpt lat="46.44715" lon="0.4815">
        <ele>128.3324649306</ele>
        <time>2021-09-13T09:09:31Z</time>
      </trkpt>
      <trkpt lat="46.44714" lon="0.48148">
        <ele>129.15143200662</ele>
        <time>2021-09-13T09:09:33Z</time>
      </trkpt>
      <trkpt lat="46.44712" lon="0.48146">
        <ele>128.20447211154</ele>
        <time>2021-09-13T09:09:35Z</time>
      </trkpt>
      <trkpt lat="46.44709" lon="0.48144">
        <ele>128.49909117445</ele>
        <time>2021-09-13T09:09:37Z</time>
      </trkpt>
      <trkpt lat="46.44707" lon="0.4814">
        <ele>129.24224079307</ele>
        <time>2021-09-13T09:09:40Z</time>
      </trkpt>
      <trkpt lat="46.44706" lon="0.48138">
        <ele>128.82962798234</ele>
        <time>2021-09-13T09:09:42Z</time>
      </trkpt>
      <trkpt lat="46.44704" lon="0.48135">
        <ele>128.27831643261</ele>
        <time>2021-09-13T09:09:44Z</time>
      </trkpt>
      <trkpt lat="46.44702" lon="0.48132">
        <ele>128.32641030941</ele>
        <time>2021-09-13T09:09:46Z</time>
      </trkpt>
      <trkpt lat="46.447" lon="0.4813">
        <ele>128.7641053414</ele>
        <time>2021-09-13T09:09:48Z</time>
      </trkpt>
      <trkpt lat="46.44699" lon="0.48126">
        <ele>129.47226717416</ele>
        <time>2021-09-13T09:09:50Z</time>
      </trkpt>
      <trkpt lat="46.44697" lon="0.48124">
        <ele>128.69264640566</ele>
        <time>2021-09-13T09:09:52Z</time>
      </trkpt>
      <trkpt lat="46.44696" lon="0.48122">
        <ele>128.78399173915</ele>
        <time>2021-09-13T09:09:54Z</time>
      </trkpt>
      <trkpt lat="46.44694" lon="0.48119">
        <ele>128.55230222642</ele>
        <time>2021-09-13T09:09:56Z</time>
      </trkpt>
      <trkpt lat="46.44693" lon="0.48117">
        <ele>128.30951807555</ele>
        <time>2021-09-13T09:09:58Z</time>
      </trkpt>
      <trkpt lat="46.44692" lon="0.48115">
        <ele>128.46943665296</ele>
        <time>2021-09-13T09:10:00Z</time>
      </trkpt>
      <trkpt lat="46.4469" lon="0.48112">
        <ele>129.10695619229</ele>
        <time>2021-09-13T09:10:02Z</time>
      </trkpt>
      <trkpt lat="46.44688" lon="0.4811">
        <ele>128.47056201939</ele>
        <time>2021-09-13T09:10:04Z</time>
      </trkpt>
      <trkpt lat="46.44686" lon="0.48108">
        <ele>128.46598923951</ele>
        <time>2021-09-13T09:10:06Z</time>
      </trkpt>
      <trkpt lat="46.44684" lon="0.48105">
        <ele>128.21640436444</ele>
        <time>2021-09-13T09:10:08Z</time>
      </trkpt>
      <trkpt lat="46.44682" lon="0.48104">
        <ele>128.28703582939</ele>
        <time>2021-09-13T09:10:11Z</time>
      </trkpt>
      <trkpt lat="46.4468" lon="0.48102">
        <ele>128.32439714577</ele>
        <time>2021-09-13T09:10:13Z</time>
      </trkpt>
      <trkpt lat="46.44678" lon="0.481">
        <ele>127.9319901187</ele>
        <time>2021-09-13T09:10:15Z</time>
      </trkpt>
      <trkpt lat="46.44676" lon="0.48097">
        <ele>127.50918246247</ele>
        <time>2021-09-13T09:10:17Z</time>
      </trkpt>
      <trkpt lat="46.44674" lon="0.48094">
        <ele>128.97821765393</ele>
        <time>2021-09-13T09:10:19Z</time>
      </trkpt>
      <trkpt lat="46.44672" lon="0.48092">
        <ele>127.64042147808</ele>
        <time>2021-09-13T09:10:21Z</time>
      </trkpt>
      <trkpt lat="46.44671" lon="0.4809">
        <ele>127.09258948267</ele>
        <time>2021-09-13T09:10:23Z</time>
      </trkpt>
      <trkpt lat="46.44669" lon="0.48088">
        <ele>128.51223840378</ele>
        <time>2021-09-13T09:10:25Z</time>
      </trkpt>
      <trkpt lat="46.44667" lon="0.48084">
        <ele>127.61093029287</ele>
        <time>2021-09-13T09:10:27Z</time>
      </trkpt>
      <trkpt lat="46.44665" lon="0.48081">
        <ele>127.67252192087</ele>
        <time>2021-09-13T09:10:29Z</time>
      </trkpt>
      <trkpt lat="46.44663" lon="0.48078">
        <ele>127.01803229377</ele>
        <time>2021-09-13T09:10:31Z</time>
      </trkpt>
      <trkpt lat="46.44662" lon="0.48076">
        <ele>127.79116474278</ele>
        <time>2021-09-13T09:10:32Z</time>
      </trkpt>
      <trkpt lat="46.4466" lon="0.48073">
        <ele>127.93274775706</ele>
        <time>2021-09-13T09:10:34Z</time>
      </trkpt>
      <trkpt lat="46.44659" lon="0.48071">
        <ele>127.43856050447</ele>
        <time>2021-09-13T09:10:36Z</time>
      </trkpt>
      <trkpt lat="46.44657" lon="0.48069">
        <ele>127.85105198529</ele>
        <time>2021-09-13T09:10:38Z</time>
      </trkpt>
      <trkpt lat="46.44655" lon="0.48066">
        <ele>127.76284105796</ele>
        <time>2021-09-13T09:10:40Z</time>
      </trkpt>
      <trkpt lat="46.44653" lon="0.48062">
        <ele>128.65812061913</ele>
        <time>2021-09-13T09:10:42Z</time>
      </trkpt>
      <trkpt lat="46.44651" lon="0.48061">
        <ele>128.22194806207</ele>
        <time>2021-09-13T09:10:44Z</time>
      </trkpt>
      <trkpt lat="46.44649" lon="0.48058">
        <ele>128.0682419911</ele>
        <time>2021-09-13T09:10:46Z</time>
      </trkpt>
      <trkpt lat="46.44648" lon="0.48055">
        <ele>128.0149184633</ele>
        <time>2021-09-13T09:10:48Z</time>
      </trkpt>
      <trkpt lat="46.44646" lon="0.48052">
        <ele>129.03906615078</ele>
        <time>2021-09-13T09:10:50Z</time>
      </trkpt>
      <trkpt lat="46.44644" lon="0.4805">
        <ele>128.41013648454</ele>
        <time>2021-09-13T09:10:52Z</time>
      </trkpt>
      <trkpt lat="46.44643" lon="0.48047">
        <ele>128.60210855305</ele>
        <time>2021-09-13T09:10:54Z</time>
      </trkpt>
      <trkpt lat="46.44641" lon="0.48045">
        <ele>128.91694062017</ele>
        <time>2021-09-13T09:10:56Z</time>
      </trkpt>
      <trkpt lat="46.44639" lon="0.48043">
        <ele>128.58300785441</ele>
        <time>2021-09-13T09:10:58Z</time>
      </trkpt>
      <trkpt lat="46.44637" lon="0.4804">
        <ele>128.97915696073</ele>
        <time>2021-09-13T09:11:00Z</time>
      </trkpt>
      <trkpt lat="46.44636" lon="0.48038">
        <ele>128.95332949515</ele>
        <time>2021-09-13T09:11:02Z</time>
      </trkpt>
      <trkpt lat="46.44634" lon="0.48037">
        <ele>128.37626646087</ele>
        <time>2021-09-13T09:11:04Z</time>
      </trkpt>
      <trkpt lat="46.44632" lon="0.48034">
        <ele>128.69209900405</ele>
        <time>2021-09-13T09:11:06Z</time>
      </trkpt>
      <trkpt lat="46.44631" lon="0.48032">
        <ele>129.1347866524</ele>
        <time>2021-09-13T09:11:08Z</time>
      </trkpt>
      <trkpt lat="46.44629" lon="0.4803">
        <ele>128.83501551393</ele>
        <time>2021-09-13T09:11:10Z</time>
      </trkpt>
      <trkpt lat="46.44627" lon="0.48027">
        <ele>128.59215496667</ele>
        <time>2021-09-13T09:11:12Z</time>
      </trkpt>
      <trkpt lat="46.44625" lon="0.48025">
        <ele>128.16401790828</ele>
        <time>2021-09-13T09:11:14Z</time>
      </trkpt>
      <trkpt lat="46.44623" lon="0.48022">
        <ele>129.12113051955</ele>
        <time>2021-09-13T09:11:16Z</time>
      </trkpt>
      <trkpt lat="46.4462" lon="0.48019">
        <ele>128.32148296107</ele>
        <time>2021-09-13T09:11:19Z</time>
      </trkpt>
      <trkpt lat="46.44619" lon="0.48016">
        <ele>128.70169524383</ele>
        <time>2021-09-13T09:11:21Z</time>
      </trkpt>
      <trkpt lat="46.44617" lon="0.48014">
        <ele>129.08215975482</ele>
        <time>2021-09-13T09:11:23Z</time>
      </trkpt>
      <trkpt lat="46.44615" lon="0.48012">
        <ele>128.72404353134</ele>
        <time>2021-09-13T09:11:25Z</time>
      </trkpt>
      <trkpt lat="46.44614" lon="0.48009">
        <ele>128.46177256759</ele>
        <time>2021-09-13T09:11:27Z</time>
      </trkpt>
      <trkpt lat="46.44612" lon="0.48007">
        <ele>129.36109827645</ele>
        <time>2021-09-13T09:11:29Z</time>
      </trkpt>
      <trkpt lat="46.4461" lon="0.48005">
        <ele>129.10998719372</ele>
        <time>2021-09-13T09:11:31Z</time>
      </trkpt>
      <trkpt lat="46.44608" lon="0.48002">
        <ele>129.13296136446</ele>
        <time>2021-09-13T09:11:33Z</time>
      </trkpt>
      <trkpt lat="46.44605" lon="0.48">
        <ele>129.40703700576</ele>
        <time>2021-09-13T09:11:35Z</time>
      </trkpt>
      <trkpt lat="46.44603" lon="0.47998">
        <ele>128.99958059099</ele>
        <time>2021-09-13T09:11:37Z</time>
      </trkpt>
      <trkpt lat="46.44601" lon="0.47996">
        <ele>128.27665509656</ele>
        <time>2021-09-13T09:11:40Z</time>
      </trkpt>
      <trkpt lat="46.44599" lon="0.47993">
        <ele>129.61986366846</ele>
        <time>2021-09-13T09:11:42Z</time>
      </trkpt>
      <trkpt lat="46.44597" lon="0.47991">
        <ele>129.01293014362</ele>
        <time>2021-09-13T09:11:44Z</time>
      </trkpt>
      <trkpt lat="46.44594" lon="0.47989">
        <ele>129.16114004888</ele>
        <time>2021-09-13T09:11:46Z</time>
      </trkpt>
      <trkpt lat="46.44593" lon="0.47987">
        <ele>129.50007300824</ele>
        <time>2021-09-13T09:11:48Z</time>
      </trkpt>
      <trkpt lat="46.4459" lon="0.47984">
        <ele>128.41444543563</ele>
        <time>2021-09-13T09:11:51Z</time>
      </trkpt>
      <trkpt lat="46.44588" lon="0.47981">
        <ele>129.47066626046</ele>
        <time>2021-09-13T09:11:53Z</time>
      </trkpt>
      <trkpt lat="46.44586" lon="0.4798">
        <ele>129.49703156389</ele>
        <time>2021-09-13T09:11:55Z</time>
      </trkpt>
      <trkpt lat="46.44584" lon="0.47978">
        <ele>128.99467092752</ele>
        <time>2021-09-13T09:11:57Z</time>
      </trkpt>
      <trkpt lat="46.44582" lon="0.47975">
        <ele>129.14339426253</ele>
        <time>2021-09-13T09:12:00Z</time>
      </trkpt>
      <trkpt lat="46.44579" lon="0.47973">
        <ele>130.26511833631</ele>
        <time>2021-09-13T09:12:02Z</time>
      </trkpt>
      <trkpt lat="46.44576" lon="0.47971">
        <ele>129.28660836164</ele>
        <time>2021-09-13T09:12:05Z</time>
      </trkpt>
      <trkpt lat="46.44574" lon="0.47969">
        <ele>129.18566778395</ele>
        <time>2021-09-13T09:12:07Z</time>
      </trkpt>
      <trkpt lat="46.44571" lon="0.47968">
        <ele>128.90288356692</ele>
        <time>2021-09-13T09:12:09Z</time>
      </trkpt>
      <trkpt lat="46.44569" lon="0.47967">
        <ele>128.9497537557</ele>
        <time>2021-09-13T09:12:11Z</time>
      </trkpt>
      <trkpt lat="46.44567" lon="0.47964">
        <ele>130.10713836644</ele>
        <time>2021-09-13T09:12:13Z</time>
      </trkpt>
      <trkpt lat="46.44564" lon="0.47963">
        <ele>128.75268078782</ele>
        <time>2021-09-13T09:12:15Z</time>
      </trkpt>
      <trkpt lat="46.44562" lon="0.47962">
        <ele>128.46650371794</ele>
        <time>2021-09-13T09:12:17Z</time>
      </trkpt>
      <trkpt lat="46.4456" lon="0.4796">
        <ele>128.99100717995</ele>
        <time>2021-09-13T09:12:19Z</time>
      </trkpt>
      <trkpt lat="46.44557" lon="0.4796">
        <ele>128.55305653904</ele>
        <time>2021-09-13T09:12:21Z</time>
      </trkpt>
      <trkpt lat="46.44555" lon="0.47958">
        <ele>128.67777402047</ele>
        <time>2021-09-13T09:12:23Z</time>
      </trkpt>
      <trkpt lat="46.44553" lon="0.47957">
        <ele>128.36257049907</ele>
        <time>2021-09-13T09:12:25Z</time>
      </trkpt>
      <trkpt lat="46.4455" lon="0.47956">
        <ele>128.44298216049</ele>
        <time>2021-09-13T09:12:27Z</time>
      </trkpt>
      <trkpt lat="46.44548" lon="0.47955">
        <ele>128.18522084504</ele>
        <time>2021-09-13T09:12:29Z</time>
      </trkpt>
      <trkpt lat="46.44546" lon="0.47954">
        <ele>129.37996194232</ele>
        <time>2021-09-13T09:12:31Z</time>
      </trkpt>
      <trkpt lat="46.44544" lon="0.47954">
        <ele>128.43981179129</ele>
        <time>2021-09-13T09:12:33Z</time>
      </trkpt>
      <trkpt lat="46.44541" lon="0.47953">
        <ele>128.66972379573</ele>
        <time>2021-09-13T09:12:35Z</time>
      </trkpt>
      <trkpt lat="46.44538" lon="0.47952">
        <ele>128.40890946425</ele>
        <time>2021-09-13T09:12:37Z</time>
      </trkpt>
      <trkpt lat="46.44535" lon="0.4795">
        <ele>128.49936309922</ele>
        <time>2021-09-13T09:12:39Z</time>
      </trkpt>
      <trkpt lat="46.44533" lon="0.47949">
        <ele>128.23910793476</ele>
        <time>2021-09-13T09:12:41Z</time>
      </trkpt>
      <trkpt lat="46.44531" lon="0.47949">
        <ele>128.22146457154</ele>
        <time>2021-09-13T09:12:43Z</time>
      </trkpt>
      <trkpt lat="46.44528" lon="0.47948">
        <ele>128.13988311682</ele>
        <time>2021-09-13T09:12:45Z</time>
      </trkpt>
      <trkpt lat="46.44525" lon="0.47947">
        <ele>127.62608686555</ele>
        <time>2021-09-13T09:12:47Z</time>
      </trkpt>
      <trkpt lat="46.44523" lon="0.47945">
        <ele>129.52885385323</ele>
        <time>2021-09-13T09:12:49Z</time>
      </trkpt>
      <trkpt lat="46.44522" lon="0.47944">
        <ele>128.82182542793</ele>
        <time>2021-09-13T09:12:51Z</time>
      </trkpt>
      <trkpt lat="46.44519" lon="0.47944">
        <ele>128.83609504905</ele>
        <time>2021-09-13T09:12:53Z</time>
      </trkpt>
      <trkpt lat="46.44517" lon="0.47943">
        <ele>128.26211258769</ele>
        <time>2021-09-13T09:12:55Z</time>
      </trkpt>
      <trkpt lat="46.44514" lon="0.47941">
        <ele>128.99581810646</ele>
        <time>2021-09-13T09:12:57Z</time>
      </trkpt>
      <trkpt lat="46.44512" lon="0.4794">
        <ele>128.52506443113</ele>
        <time>2021-09-13T09:12:59Z</time>
      </trkpt>
      <trkpt lat="46.44509" lon="0.47939">
        <ele>128.20117617119</ele>
        <time>2021-09-13T09:13:01Z</time>
      </trkpt>
      <trkpt lat="46.44508" lon="0.47938">
        <ele>128.05251455121</ele>
        <time>2021-09-13T09:13:02Z</time>
      </trkpt>
      <trkpt lat="46.44505" lon="0.47937">
        <ele>129.05583903566</ele>
        <time>2021-09-13T09:13:04Z</time>
      </trkpt>
      <trkpt lat="46.44503" lon="0.47937">
        <ele>128.46299232636</ele>
        <time>2021-09-13T09:13:06Z</time>
      </trkpt>
      <trkpt lat="46.44501" lon="0.47936">
        <ele>129.1605560584</ele>
        <time>2021-09-13T09:13:08Z</time>
      </trkpt>
      <trkpt lat="46.44499" lon="0.47934">
        <ele>128.42101541348</ele>
        <time>2021-09-13T09:13:10Z</time>
      </trkpt>
      <trkpt lat="46.44497" lon="0.47934">
        <ele>128.7989133168</ele>
        <time>2021-09-13T09:13:12Z</time>
      </trkpt>
      <trkpt lat="46.44494" lon="0.47932">
        <ele>128.48614741676</ele>
        <time>2021-09-13T09:13:14Z</time>
      </trkpt>
      <trkpt lat="46.44492" lon="0.47932">
        <ele>128.04055448622</ele>
        <time>2021-09-13T09:13:16Z</time>
      </trkpt>
      <trkpt lat="46.44489" lon="0.47931">
        <ele>127.33746400569</ele>
        <time>2021-09-13T09:13:18Z</time>
      </trkpt>
      <trkpt lat="46.44487" lon="0.4793">
        <ele>128.3277004417</ele>
        <time>2021-09-13T09:13:20Z</time>
      </trkpt>
      <trkpt lat="46.44485" lon="0.47929">
        <ele>128.138028102</ele>
        <time>2021-09-13T09:13:22Z</time>
      </trkpt>
      <trkpt lat="46.44483" lon="0.47928">
        <ele>128.11924380995</ele>
        <time>2021-09-13T09:13:24Z</time>
      </trkpt>
      <trkpt lat="46.4448" lon="0.47927">
        <ele>128.55511101522</ele>
        <time>2021-09-13T09:13:26Z</time>
      </trkpt>
      <trkpt lat="46.44477" lon="0.47927">
        <ele>127.6470883321</ele>
        <time>2021-09-13T09:13:28Z</time>
      </trkpt>
      <trkpt lat="46.44475" lon="0.47926">
        <ele>127.6043410562</ele>
        <time>2021-09-13T09:13:30Z</time>
      </trkpt>
      <trkpt lat="46.44472" lon="0.47924">
        <ele>126.73038417287</ele>
        <time>2021-09-13T09:13:32Z</time>
      </trkpt>
      <trkpt lat="46.4447" lon="0.47923">
        <ele>127.96537495218</ele>
        <time>2021-09-13T09:13:35Z</time>
      </trkpt>
      <trkpt lat="46.44467" lon="0.47923">
        <ele>128.09544884041</ele>
        <time>2021-09-13T09:13:37Z</time>
      </trkpt>
      <trkpt lat="46.44465" lon="0.47922">
        <ele>127.7011003932</ele>
        <time>2021-09-13T09:13:39Z</time>
      </trkpt>
      <trkpt lat="46.44462" lon="0.4792">
        <ele>127.97628420219</ele>
        <time>2021-09-13T09:13:41Z</time>
      </trkpt>
      <trkpt lat="46.44459" lon="0.47919">
        <ele>127.48188463505</ele>
        <time>2021-09-13T09:13:43Z</time>
      </trkpt>
      <trkpt lat="46.44457" lon="0.47919">
        <ele>126.45990325417</ele>
        <time>2021-09-13T09:13:45Z</time>
      </trkpt>
      <trkpt lat="46.44456" lon="0.47918">
        <ele>127.71205385681</ele>
        <time>2021-09-13T09:13:47Z</time>
      </trkpt>
      <trkpt lat="46.44454" lon="0.47917">
        <ele>127.67165477388</ele>
        <time>2021-09-13T09:13:49Z</time>
      </trkpt>
      <trkpt lat="46.44451" lon="0.47916">
        <ele>127.41361915041</ele>
        <time>2021-09-13T09:13:51Z</time>
      </trkpt>
      <trkpt lat="46.44448" lon="0.47915">
        <ele>127.11688728817</ele>
        <time>2021-09-13T09:13:53Z</time>
      </trkpt>
      <trkpt lat="46.44446" lon="0.47915">
        <ele>128.22946156561</ele>
        <time>2021-09-13T09:13:55Z</time>
      </trkpt>
      <trkpt lat="46.44444" lon="0.47914">
        <ele>127.15050590318</ele>
        <time>2021-09-13T09:13:57Z</time>
      </trkpt>
      <trkpt lat="46.44443" lon="0.47913">
        <ele>127.54372965544</ele>
        <time>2021-09-13T09:13:59Z</time>
      </trkpt>
      <trkpt lat="46.4444" lon="0.47912">
        <ele>127.32647153921</ele>
        <time>2021-09-13T09:14:01Z</time>
      </trkpt>
      <trkpt lat="46.44438" lon="0.4791">
        <ele>127.35147781949</ele>
        <time>2021-09-13T09:14:03Z</time>
      </trkpt>
      <trkpt lat="46.44435" lon="0.47908">
        <ele>127.70476708841</ele>
        <time>2021-09-13T09:14:06Z</time>
      </trkpt>
      <trkpt lat="46.44433" lon="0.47907">
        <ele>128.0227124868</ele>
        <time>2021-09-13T09:14:08Z</time>
      </trkpt>
      <trkpt lat="46.4443" lon="0.47905">
        <ele>127.8776770616</ele>
        <time>2021-09-13T09:14:10Z</time>
      </trkpt>
      <trkpt lat="46.44428" lon="0.47904">
        <ele>127.43991274852</ele>
        <time>2021-09-13T09:14:12Z</time>
      </trkpt>
      <trkpt lat="46.44426" lon="0.47902">
        <ele>127.03904702701</ele>
        <time>2021-09-13T09:14:14Z</time>
      </trkpt>
      <trkpt lat="46.44425" lon="0.479">
        <ele>128.59379945602</ele>
        <time>2021-09-13T09:14:16Z</time>
      </trkpt>
      <trkpt lat="46.44422" lon="0.47898">
        <ele>126.94644974265</ele>
        <time>2021-09-13T09:14:18Z</time>
      </trkpt>
      <trkpt lat="46.4442" lon="0.47896">
        <ele>127.61181660276</ele>
        <time>2021-09-13T09:14:21Z</time>
      </trkpt>
      <trkpt lat="46.44419" lon="0.47894">
        <ele>127.24646696914</ele>
        <time>2021-09-13T09:14:23Z</time>
      </trkpt>
      <trkpt lat="46.44417" lon="0.47891">
        <ele>126.83118174784</ele>
        <time>2021-09-13T09:14:25Z</time>
      </trkpt>
      <trkpt lat="46.44415" lon="0.47888">
        <ele>126.08153094817</ele>
        <time>2021-09-13T09:14:27Z</time>
      </trkpt>
      <trkpt lat="46.44413" lon="0.47886">
        <ele>126.67113172077</ele>
        <time>2021-09-13T09:14:29Z</time>
      </trkpt>
      <trkpt lat="46.44412" lon="0.47883">
        <ele>126.92213238962</ele>
        <time>2021-09-13T09:14:31Z</time>
      </trkpt>
      <trkpt lat="46.4441" lon="0.4788">
        <ele>126.78884525038</ele>
        <time>2021-09-13T09:14:33Z</time>
      </trkpt>
      <trkpt lat="46.44409" lon="0.47878">
        <ele>127.49543609191</ele>
        <time>2021-09-13T09:14:35Z</time>
      </trkpt>
      <trkpt lat="46.44407" lon="0.47875">
        <ele>126.69107138459</ele>
        <time>2021-09-13T09:14:37Z</time>
      </trkpt>
      <trkpt lat="46.44405" lon="0.47872">
        <ele>126.63638033811</ele>
        <time>2021-09-13T09:14:39Z</time>
      </trkpt>
      <trkpt lat="46.44404" lon="0.47869">
        <ele>127.58510446735</ele>
        <time>2021-09-13T09:14:41Z</time>
      </trkpt>
      <trkpt lat="46.44403" lon="0.47867">
        <ele>126.94055413175</ele>
        <time>2021-09-13T09:14:43Z</time>
      </trkpt>
      <trkpt lat="46.44401" lon="0.47864">
        <ele>126.64160391688</ele>
        <time>2021-09-13T09:14:45Z</time>
      </trkpt>
      <trkpt lat="46.44399" lon="0.47861">
        <ele>126.70168388169</ele>
        <time>2021-09-13T09:14:47Z</time>
      </trkpt>
      <trkpt lat="46.44397" lon="0.47859">
        <ele>126.90015778039</ele>
        <time>2021-09-13T09:14:49Z</time>
      </trkpt>
      <trkpt lat="46.44396" lon="0.47856">
        <ele>125.02832956798</ele>
        <time>2021-09-13T09:14:51Z</time>
      </trkpt>
      <trkpt lat="46.44394" lon="0.47853">
        <ele>126.68914187234</ele>
        <time>2021-09-13T09:14:54Z</time>
      </trkpt>
      <trkpt lat="46.44392" lon="0.47851">
        <ele>125.97179066017</ele>
        <time>2021-09-13T09:14:55Z</time>
      </trkpt>
      <trkpt lat="46.44391" lon="0.47849">
        <ele>126.20370295085</ele>
        <time>2021-09-13T09:14:57Z</time>
      </trkpt>
      <trkpt lat="46.44389" lon="0.47847">
        <ele>126.81345306057</ele>
        <time>2021-09-13T09:14:59Z</time>
      </trkpt>
      <trkpt lat="46.44387" lon="0.47844">
        <ele>126.811900503</ele>
        <time>2021-09-13T09:15:01Z</time>
      </trkpt>
      <trkpt lat="46.44386" lon="0.47842">
        <ele>125.66528918315</ele>
        <time>2021-09-13T09:15:03Z</time>
      </trkpt>
      <trkpt lat="46.44383" lon="0.47839">
        <ele>126.50089045428</ele>
        <time>2021-09-13T09:15:06Z</time>
      </trkpt>
      <trkpt lat="46.44381" lon="0.47836">
        <ele>125.97377713304</ele>
        <time>2021-09-13T09:15:08Z</time>
      </trkpt>
      <trkpt lat="46.4438" lon="0.47834">
        <ele>126.83200322185</ele>
        <time>2021-09-13T09:15:10Z</time>
      </trkpt>
      <trkpt lat="46.44379" lon="0.47832">
        <ele>126.798130407</ele>
        <time>2021-09-13T09:15:12Z</time>
      </trkpt>
      <trkpt lat="46.44377" lon="0.47829">
        <ele>125.97232404072</ele>
        <time>2021-09-13T09:15:14Z</time>
      </trkpt>
      <trkpt lat="46.44376" lon="0.47827">
        <ele>127.51784816384</ele>
        <time>2021-09-13T09:15:15Z</time>
      </trkpt>
      <trkpt lat="46.44373" lon="0.47826">
        <ele>126.15633710194</ele>
        <time>2021-09-13T09:15:17Z</time>
      </trkpt>
      <trkpt lat="46.44371" lon="0.47823">
        <ele>126.23690471612</ele>
        <time>2021-09-13T09:15:19Z</time>
      </trkpt>
      <trkpt lat="46.4437" lon="0.4782">
        <ele>126.30825688783</ele>
        <time>2021-09-13T09:15:21Z</time>
      </trkpt>
      <trkpt lat="46.44368" lon="0.47818">
        <ele>126.74583818577</ele>
        <time>2021-09-13T09:15:23Z</time>
      </trkpt>
      <trkpt lat="46.44366" lon="0.47816">
        <ele>125.25878751092</ele>
        <time>2021-09-13T09:15:25Z</time>
      </trkpt>
      <trkpt lat="46.44363" lon="0.47814">
        <ele>126.19651523046</ele>
        <time>2021-09-13T09:15:27Z</time>
      </trkpt>
      <trkpt lat="46.44361" lon="0.47811">
        <ele>125.20444362424</ele>
        <time>2021-09-13T09:15:30Z</time>
      </trkpt>
      <trkpt lat="46.44359" lon="0.47808">
        <ele>126.21634111181</ele>
        <time>2021-09-13T09:15:32Z</time>
      </trkpt>
      <trkpt lat="46.44357" lon="0.47807">
        <ele>125.32671034429</ele>
        <time>2021-09-13T09:15:34Z</time>
      </trkpt>
      <trkpt lat="46.44355" lon="0.47805">
        <ele>126.09886615165</ele>
        <time>2021-09-13T09:15:37Z</time>
      </trkpt>
      <trkpt lat="46.44353" lon="0.47803">
        <ele>125.82438478805</ele>
        <time>2021-09-13T09:15:39Z</time>
      </trkpt>
      <trkpt lat="46.44351" lon="0.47802">
        <ele>126.41596444603</ele>
        <time>2021-09-13T09:15:42Z</time>
      </trkpt>
      <trkpt lat="46.44349" lon="0.47802">
        <ele>125.98580346443</ele>
        <time>2021-09-13T09:15:44Z</time>
      </trkpt>
      <trkpt lat="46.44347" lon="0.47803">
        <ele>125.34470612463</ele>
        <time>2021-09-13T09:15:46Z</time>
      </trkpt>
      <trkpt lat="46.44346" lon="0.47806">
        <ele>124.7155335322</ele>
        <time>2021-09-13T09:15:48Z</time>
      </trkpt>
      <trkpt lat="46.44346" lon="0.47809">
        <ele>125.05817433354</ele>
        <time>2021-09-13T09:15:51Z</time>
      </trkpt>
      <trkpt lat="46.44345" lon="0.47812">
        <ele>125.47397557739</ele>
        <time>2021-09-13T09:15:53Z</time>
      </trkpt>
      <trkpt lat="46.44345" lon="0.47815">
        <ele>125.65344752371</ele>
        <time>2021-09-13T09:15:55Z</time>
      </trkpt>
      <trkpt lat="46.44345" lon="0.47819">
        <ele>123.81944799796</ele>
        <time>2021-09-13T09:15:57Z</time>
      </trkpt>
      <trkpt lat="46.44344" lon="0.47822">
        <ele>124.08522068616</ele>
        <time>2021-09-13T09:15:59Z</time>
      </trkpt>
      <trkpt lat="46.44344" lon="0.47826">
        <ele>125.59817092493</ele>
        <time>2021-09-13T09:16:01Z</time>
      </trkpt>
      <trkpt lat="46.44343" lon="0.47829">
        <ele>126.23976354394</ele>
        <time>2021-09-13T09:16:04Z</time>
      </trkpt>
      <trkpt lat="46.44344" lon="0.47832">
        <ele>125.9193830546</ele>
        <time>2021-09-13T09:16:06Z</time>
      </trkpt>
      <trkpt lat="46.44346" lon="0.47834">
        <ele>125.70736858528</ele>
        <time>2021-09-13T09:16:08Z</time>
      </trkpt>
      <trkpt lat="46.44346" lon="0.47837">
        <ele>125.91747207288</ele>
        <time>2021-09-13T09:16:10Z</time>
      </trkpt>
      <trkpt lat="46.44345" lon="0.4784">
        <ele>126.15595453512</ele>
        <time>2021-09-13T09:16:24Z</time>
      </trkpt>
      <trkpt lat="46.44346" lon="0.47835">
        <ele>126.33465091605</ele>
        <time>2021-09-13T09:16:29Z</time>
      </trkpt>
      <trkpt lat="46.44347" lon="0.47833">
        <ele>126.08278937265</ele>
        <time>2021-09-13T09:16:32Z</time>
      </trkpt>
      <trkpt lat="46.44344" lon="0.47828">
        <ele>126.36080976017</ele>
        <time>2021-09-13T09:16:37Z</time>
      </trkpt>
      <trkpt lat="46.4434" lon="0.47829">
        <ele>125.68107763212</ele>
        <time>2021-09-13T09:16:39Z</time>
      </trkpt>
      <trkpt lat="46.44338" lon="0.4783">
        <ele>125.84260786884</ele>
        <time>2021-09-13T09:16:42Z</time>
      </trkpt>
      <trkpt lat="46.44336" lon="0.47831">
        <ele>126.22506577708</ele>
        <time>2021-09-13T09:16:45Z</time>
      </trkpt>
      <trkpt lat="46.44334" lon="0.47832">
        <ele>125.55598827358</ele>
        <time>2021-09-13T09:16:47Z</time>
      </trkpt>
      <trkpt lat="46.44331" lon="0.47833">
        <ele>125.69996576104</ele>
        <time>2021-09-13T09:16:50Z</time>
      </trkpt>
      <trkpt lat="46.44329" lon="0.47833">
        <ele>126.2148852814</ele>
        <time>2021-09-13T09:16:52Z</time>
      </trkpt>
      <trkpt lat="46.44327" lon="0.47835">
        <ele>124.89272260759</ele>
        <time>2021-09-13T09:16:54Z</time>
      </trkpt>
      <trkpt lat="46.44325" lon="0.47835">
        <ele>125.79593309946</ele>
        <time>2021-09-13T09:16:56Z</time>
      </trkpt>
      <trkpt lat="46.44322" lon="0.47836">
        <ele>125.06201909948</ele>
        <time>2021-09-13T09:17:00Z</time>
      </trkpt>
      <trkpt lat="46.4432" lon="0.47836">
        <ele>125.04453752283</ele>
        <time>2021-09-13T09:17:01Z</time>
      </trkpt>
      <trkpt lat="46.44318" lon="0.47834">
        <ele>125.10645789932</ele>
        <time>2021-09-13T09:17:04Z</time>
      </trkpt>
      <trkpt lat="46.44316" lon="0.47831">
        <ele>125.36258761864</ele>
        <time>2021-09-13T09:17:07Z</time>
      </trkpt>
      <trkpt lat="46.44315" lon="0.47829">
        <ele>124.70768262167</ele>
        <time>2021-09-13T09:17:09Z</time>
      </trkpt>
      <trkpt lat="46.44314" lon="0.47825">
        <ele>124.6508735856</ele>
        <time>2021-09-13T09:17:11Z</time>
      </trkpt>
      <trkpt lat="46.44312" lon="0.47822">
        <ele>125.64628738165</ele>
        <time>2021-09-13T09:17:15Z</time>
      </trkpt>
      <trkpt lat="46.44309" lon="0.47821">
        <ele>125.6179811582</ele>
        <time>2021-09-13T09:17:18Z</time>
      </trkpt>
      <trkpt lat="46.44307" lon="0.47819">
        <ele>125.52619202435</ele>
        <time>2021-09-13T09:17:21Z</time>
      </trkpt>
      <trkpt lat="46.44305" lon="0.47818">
        <ele>125.59544807114</ele>
        <time>2021-09-13T09:17:23Z</time>
      </trkpt>
      <trkpt lat="46.44302" lon="0.47817">
        <ele>125.33753451053</ele>
        <time>2021-09-13T09:17:25Z</time>
      </trkpt>
      <trkpt lat="46.44299" lon="0.47817">
        <ele>125.68344959524</ele>
        <time>2021-09-13T09:17:27Z</time>
      </trkpt>
      <trkpt lat="46.44297" lon="0.47815">
        <ele>125.78765950073</ele>
        <time>2021-09-13T09:17:29Z</time>
      </trkpt>
      <trkpt lat="46.44295" lon="0.47815">
        <ele>126.05022894219</ele>
        <time>2021-09-13T09:17:32Z</time>
      </trkpt>
      <trkpt lat="46.44293" lon="0.47815">
        <ele>126.45538293384</ele>
        <time>2021-09-13T09:17:34Z</time>
      </trkpt>
      <trkpt lat="46.4429" lon="0.47815">
        <ele>125.47481897939</ele>
        <time>2021-09-13T09:17:36Z</time>
      </trkpt>
      <trkpt lat="46.44288" lon="0.47813">
        <ele>125.93198627513</ele>
        <time>2021-09-13T09:17:38Z</time>
      </trkpt>
      <trkpt lat="46.44285" lon="0.47814">
        <ele>125.4521162482</ele>
        <time>2021-09-13T09:17:40Z</time>
      </trkpt>
      <trkpt lat="46.44283" lon="0.47812">
        <ele>125.57189482544</ele>
        <time>2021-09-13T09:17:42Z</time>
      </trkpt>
      <trkpt lat="46.44281" lon="0.4781">
        <ele>125.34491974767</ele>
        <time>2021-09-13T09:17:44Z</time>
      </trkpt>
      <trkpt lat="46.44279" lon="0.47808">
        <ele>125.39302776102</ele>
        <time>2021-09-13T09:17:46Z</time>
      </trkpt>
      <trkpt lat="46.44276" lon="0.47806">
        <ele>125.69164139405</ele>
        <time>2021-09-13T09:17:48Z</time>
      </trkpt>
      <trkpt lat="46.44274" lon="0.47806">
        <ele>125.32600693963</ele>
        <time>2021-09-13T09:17:50Z</time>
      </trkpt>
      <trkpt lat="46.44272" lon="0.47805">
        <ele>125.60351250321</ele>
        <time>2021-09-13T09:17:52Z</time>
      </trkpt>
      <trkpt lat="46.44269" lon="0.47804">
        <ele>125.65050793067</ele>
        <time>2021-09-13T09:17:54Z</time>
      </trkpt>
      <trkpt lat="46.44267" lon="0.47803">
        <ele>125.12061962299</ele>
        <time>2021-09-13T09:17:57Z</time>
      </trkpt>
      <trkpt lat="46.44265" lon="0.47802">
        <ele>125.17537988443</ele>
        <time>2021-09-13T09:17:59Z</time>
      </trkpt>
      <trkpt lat="46.44262" lon="0.478">
        <ele>125.52548789233</ele>
        <time>2021-09-13T09:18:01Z</time>
      </trkpt>
      <trkpt lat="46.4426" lon="0.47798">
        <ele>124.94768496417</ele>
        <time>2021-09-13T09:18:03Z</time>
      </trkpt>
      <trkpt lat="46.44258" lon="0.47796">
        <ele>125.17265063152</ele>
        <time>2021-09-13T09:18:05Z</time>
      </trkpt>
      <trkpt lat="46.44256" lon="0.47795">
        <ele>124.81139639858</ele>
        <time>2021-09-13T09:18:07Z</time>
      </trkpt>
      <trkpt lat="46.44254" lon="0.47794">
        <ele>123.58569782414</ele>
        <time>2021-09-13T09:18:09Z</time>
      </trkpt>
      <trkpt lat="46.44252" lon="0.47791">
        <ele>124.31953243259</ele>
        <time>2021-09-13T09:18:12Z</time>
      </trkpt>
      <trkpt lat="46.4425" lon="0.47791">
        <ele>124.49669970665</ele>
        <time>2021-09-13T09:18:14Z</time>
      </trkpt>
      <trkpt lat="46.44248" lon="0.47789">
        <ele>124.21145814471</ele>
        <time>2021-09-13T09:18:16Z</time>
      </trkpt>
      <trkpt lat="46.44246" lon="0.47787">
        <ele>123.93437019549</ele>
        <time>2021-09-13T09:18:18Z</time>
      </trkpt>
      <trkpt lat="46.44244" lon="0.47787">
        <ele>124.93357168417</ele>
        <time>2021-09-13T09:18:20Z</time>
      </trkpt>
      <trkpt lat="46.44242" lon="0.47787">
        <ele>124.26871290151</ele>
        <time>2021-09-13T09:18:22Z</time>
      </trkpt>
      <trkpt lat="46.44241" lon="0.47786">
        <ele>124.26013805252</ele>
        <time>2021-09-13T09:18:24Z</time>
      </trkpt>
      <trkpt lat="46.44238" lon="0.47785">
        <ele>125.03867307212</ele>
        <time>2021-09-13T09:18:26Z</time>
      </trkpt>
      <trkpt lat="46.44236" lon="0.47783">
        <ele>123.74665057752</ele>
        <time>2021-09-13T09:18:28Z</time>
      </trkpt>
      <trkpt lat="46.44234" lon="0.47781">
        <ele>124.85527182557</ele>
        <time>2021-09-13T09:18:30Z</time>
      </trkpt>
      <trkpt lat="46.44232" lon="0.47781">
        <ele>124.41860747524</ele>
        <time>2021-09-13T09:18:32Z</time>
      </trkpt>
      <trkpt lat="46.4423" lon="0.4778">
        <ele>125.00085993949</ele>
        <time>2021-09-13T09:18:34Z</time>
      </trkpt>
      <trkpt lat="46.44228" lon="0.47778">
        <ele>124.15030564647</ele>
        <time>2021-09-13T09:18:36Z</time>
      </trkpt>
      <trkpt lat="46.44225" lon="0.47778">
        <ele>125.65727095865</ele>
        <time>2021-09-13T09:18:38Z</time>
      </trkpt>
      <trkpt lat="46.44223" lon="0.47777">
        <ele>124.41146695893</ele>
        <time>2021-09-13T09:18:39Z</time>
      </trkpt>
      <trkpt lat="46.4422" lon="0.47776">
        <ele>124.20919579361</ele>
        <time>2021-09-13T09:18:41Z</time>
      </trkpt>
      <trkpt lat="46.44218" lon="0.47775">
        <ele>124.21155684721</ele>
        <time>2021-09-13T09:18:43Z</time>
      </trkpt>
      <trkpt lat="46.44215" lon="0.47773">
        <ele>124.22571500856</ele>
        <time>2021-09-13T09:18:45Z</time>
      </trkpt>
      <trkpt lat="46.44212" lon="0.47771">
        <ele>124.21990275104</ele>
        <time>2021-09-13T09:18:47Z</time>
      </trkpt>
      <trkpt lat="46.4421" lon="0.4777">
        <ele>124.52136537246</ele>
        <time>2021-09-13T09:18:49Z</time>
      </trkpt>
      <trkpt lat="46.44208" lon="0.4777">
        <ele>124.09873726126</ele>
        <time>2021-09-13T09:18:51Z</time>
      </trkpt>
      <trkpt lat="46.44206" lon="0.47767">
        <ele>124.34083146974</ele>
        <time>2021-09-13T09:18:53Z</time>
      </trkpt>
      <trkpt lat="46.44204" lon="0.47767">
        <ele>122.75511678495</ele>
        <time>2021-09-13T09:18:56Z</time>
      </trkpt>
      <trkpt lat="46.44202" lon="0.47766">
        <ele>123.32723439857</ele>
        <time>2021-09-13T09:18:58Z</time>
      </trkpt>
      <trkpt lat="46.442" lon="0.47764">
        <ele>123.46596665028</ele>
        <time>2021-09-13T09:19:00Z</time>
      </trkpt>
      <trkpt lat="46.44198" lon="0.47764">
        <ele>122.3943912955</ele>
        <time>2021-09-13T09:19:03Z</time>
      </trkpt>
      <trkpt lat="46.44196" lon="0.47763">
        <ele>123.34758184757</ele>
        <time>2021-09-13T09:19:05Z</time>
      </trkpt>
      <trkpt lat="46.44194" lon="0.47762">
        <ele>123.29314965662</ele>
        <time>2021-09-13T09:19:07Z</time>
      </trkpt>
      <trkpt lat="46.44192" lon="0.4776">
        <ele>123.08209818415</ele>
        <time>2021-09-13T09:19:09Z</time>
      </trkpt>
      <trkpt lat="46.4419" lon="0.47759">
        <ele>123.57729617599</ele>
        <time>2021-09-13T09:19:11Z</time>
      </trkpt>
      <trkpt lat="46.44188" lon="0.47758">
        <ele>123.61494535487</ele>
        <time>2021-09-13T09:19:14Z</time>
      </trkpt>
      <trkpt lat="46.44186" lon="0.47757">
        <ele>123.55980032776</ele>
        <time>2021-09-13T09:19:16Z</time>
      </trkpt>
      <trkpt lat="46.44184" lon="0.47755">
        <ele>124.489005927</ele>
        <time>2021-09-13T09:19:18Z</time>
      </trkpt>
      <trkpt lat="46.44182" lon="0.47754">
        <ele>123.89181637112</ele>
        <time>2021-09-13T09:19:20Z</time>
      </trkpt>
      <trkpt lat="46.4418" lon="0.47752">
        <ele>123.30456257053</ele>
        <time>2021-09-13T09:19:23Z</time>
      </trkpt>
      <trkpt lat="46.44178" lon="0.47751">
        <ele>124.36156027205</ele>
        <time>2021-09-13T09:19:25Z</time>
      </trkpt>
      <trkpt lat="46.44176" lon="0.4775">
        <ele>123.43066774029</ele>
        <time>2021-09-13T09:19:27Z</time>
      </trkpt>
      <trkpt lat="46.44173" lon="0.47749">
        <ele>123.12792778295</ele>
        <time>2021-09-13T09:19:30Z</time>
      </trkpt>
      <trkpt lat="46.44171" lon="0.47747">
        <ele>124.46154330112</ele>
        <time>2021-09-13T09:19:32Z</time>
      </trkpt>
      <trkpt lat="46.44168" lon="0.47746">
        <ele>123.67950379569</ele>
        <time>2021-09-13T09:19:34Z</time>
      </trkpt>
      <trkpt lat="46.44166" lon="0.47743">
        <ele>123.78773832135</ele>
        <time>2021-09-13T09:19:37Z</time>
      </trkpt>
      <trkpt lat="46.44163" lon="0.47742">
        <ele>123.34247082938</ele>
        <time>2021-09-13T09:19:40Z</time>
      </trkpt>
      <trkpt lat="46.44161" lon="0.47742">
        <ele>123.13836132642</ele>
        <time>2021-09-13T09:19:42Z</time>
      </trkpt>
      <trkpt lat="46.44159" lon="0.47742">
        <ele>123.42948502488</ele>
        <time>2021-09-13T09:19:44Z</time>
      </trkpt>
      <trkpt lat="46.44157" lon="0.47743">
        <ele>123.01676851418</ele>
        <time>2021-09-13T09:19:46Z</time>
      </trkpt>
      <trkpt lat="46.44155" lon="0.47744">
        <ele>122.72023728583</ele>
        <time>2021-09-13T09:19:48Z</time>
      </trkpt>
      <trkpt lat="46.44153" lon="0.47744">
        <ele>123.74410962127</ele>
        <time>2021-09-13T09:19:50Z</time>
      </trkpt>
      <trkpt lat="46.44151" lon="0.47744">
        <ele>122.94055652525</ele>
        <time>2021-09-13T09:19:51Z</time>
      </trkpt>
      <trkpt lat="46.44149" lon="0.47742">
        <ele>123.18178802915</ele>
        <time>2021-09-13T09:19:53Z</time>
      </trkpt>
      <trkpt lat="46.44146" lon="0.47741">
        <ele>122.53408973385</ele>
        <time>2021-09-13T09:19:56Z</time>
      </trkpt>
      <trkpt lat="46.44144" lon="0.4774">
        <ele>123.01559989713</ele>
        <time>2021-09-13T09:19:59Z</time>
      </trkpt>
      <trkpt lat="46.44141" lon="0.47739">
        <ele>123.24052351527</ele>
        <time>2021-09-13T09:20:01Z</time>
      </trkpt>
      <trkpt lat="46.44141" lon="0.47736">
        <ele>122.93211543187</ele>
        <time>2021-09-13T09:20:08Z</time>
      </trkpt>
      <trkpt lat="46.44139" lon="0.47736">
        <ele>122.80898892321</ele>
        <time>2021-09-13T09:20:10Z</time>
      </trkpt>
      <trkpt lat="46.44139" lon="0.4774">
        <ele>122.66702247597</ele>
        <time>2021-09-13T09:20:19Z</time>
      </trkpt>
    </trkseg>
  </trk>
</gpx>